<?xml version="1.0" encoding="UTF-8" standalone="no" ?>
<gpx xmlns="http://www.topografix.com/GPX/1/1" xmlns:xsi="http://www.w3.org/2001/XMLSchema-instance" xsi:schemaLocation="http://www.topografix.com/GPX/1/1 http://www.topografix.com/GPX/1/1/gpx.xsd" version="1.1" creator="VisuGPX - https://www.visugpx.com">
  <metadata>
    <name>couloir nord trelod</name>
    <desc><![CDATA[4.2 de toute beauté]]></desc>
  </metadata>
  <trk>
    <name><![CDATA[couloir nord trelod]]></name>
    <trkseg>
      <trkpt lat="45.73607" lon="6.16316">
        <ele>1040</ele>
        <time>2014-03-02T07:26:11.000Z</time>
      </trkpt>
      <trkpt lat="45.73607" lon="6.16317">
        <ele>1040</ele>
        <time>2014-03-02T07:26:12.000Z</time>
      </trkpt>
      <trkpt lat="45.73608" lon="6.16324">
        <ele>1040.5999755859</ele>
        <time>2014-03-02T07:26:17.000Z</time>
      </trkpt>
      <trkpt lat="45.73608" lon="6.1633">
        <ele>1041</ele>
        <time>2014-03-02T07:26:22.000Z</time>
      </trkpt>
      <trkpt lat="45.73608" lon="6.16337">
        <ele>1041.4000244141</ele>
        <time>2014-03-02T07:26:28.000Z</time>
      </trkpt>
      <trkpt lat="45.73609" lon="6.16342">
        <ele>1042</ele>
        <time>2014-03-02T07:26:34.000Z</time>
      </trkpt>
      <trkpt lat="45.73609" lon="6.16349">
        <ele>1042.4000244141</ele>
        <time>2014-03-02T07:26:39.000Z</time>
      </trkpt>
      <trkpt lat="45.73609" lon="6.16354">
        <ele>1042.8000488281</ele>
        <time>2014-03-02T07:26:43.000Z</time>
      </trkpt>
      <trkpt lat="45.73609" lon="6.16359">
        <ele>1043.1999511719</ele>
        <time>2014-03-02T07:26:46.000Z</time>
      </trkpt>
      <trkpt lat="45.73609" lon="6.16364">
        <ele>1043.5999755859</ele>
        <time>2014-03-02T07:26:49.000Z</time>
      </trkpt>
      <trkpt lat="45.73608" lon="6.16367">
        <ele>1043.8000488281</ele>
        <time>2014-03-02T07:26:52.000Z</time>
      </trkpt>
      <trkpt lat="45.73609" lon="6.16376">
        <ele>1044.5999755859</ele>
        <time>2014-03-02T07:26:58.000Z</time>
      </trkpt>
      <trkpt lat="45.7361" lon="6.16385">
        <ele>1045.4000244141</ele>
        <time>2014-03-02T07:27:05.000Z</time>
      </trkpt>
      <trkpt lat="45.73611" lon="6.16394">
        <ele>1046.1999511719</ele>
        <time>2014-03-02T07:27:11.000Z</time>
      </trkpt>
      <trkpt lat="45.73611" lon="6.16402">
        <ele>1046.8000488281</ele>
        <time>2014-03-02T07:27:16.000Z</time>
      </trkpt>
      <trkpt lat="45.73611" lon="6.1641">
        <ele>1047.4000244141</ele>
        <time>2014-03-02T07:27:22.000Z</time>
      </trkpt>
      <trkpt lat="45.73612" lon="6.16417">
        <ele>1048.1999511719</ele>
        <time>2014-03-02T07:27:27.000Z</time>
      </trkpt>
      <trkpt lat="45.73612" lon="6.16425">
        <ele>1049.1999511719</ele>
        <time>2014-03-02T07:27:33.000Z</time>
      </trkpt>
      <trkpt lat="45.73613" lon="6.16434">
        <ele>1050.1999511719</ele>
        <time>2014-03-02T07:27:39.000Z</time>
      </trkpt>
      <trkpt lat="45.73613" lon="6.16443">
        <ele>1051.1999511719</ele>
        <time>2014-03-02T07:27:45.000Z</time>
      </trkpt>
      <trkpt lat="45.73611" lon="6.16452">
        <ele>1052</ele>
        <time>2014-03-02T07:27:51.000Z</time>
      </trkpt>
      <trkpt lat="45.73611" lon="6.16462">
        <ele>1053</ele>
        <time>2014-03-02T07:27:58.000Z</time>
      </trkpt>
      <trkpt lat="45.7361" lon="6.1647">
        <ele>1053.8000488281</ele>
        <time>2014-03-02T07:28:03.000Z</time>
      </trkpt>
      <trkpt lat="45.73609" lon="6.16476">
        <ele>1054.4000244141</ele>
        <time>2014-03-02T07:28:08.000Z</time>
      </trkpt>
      <trkpt lat="45.73608" lon="6.16483">
        <ele>1055</ele>
        <time>2014-03-02T07:28:13.000Z</time>
      </trkpt>
      <trkpt lat="45.73606" lon="6.16491">
        <ele>1055.5999755859</ele>
        <time>2014-03-02T07:28:19.000Z</time>
      </trkpt>
      <trkpt lat="45.73606" lon="6.16493">
        <ele>1055.8000488281</ele>
        <time>2014-03-02T07:28:24.000Z</time>
      </trkpt>
      <trkpt lat="45.73605" lon="6.16497">
        <ele>1056.1999511719</ele>
        <time>2014-03-02T07:28:30.000Z</time>
      </trkpt>
      <trkpt lat="45.73604" lon="6.16504">
        <ele>1057</ele>
        <time>2014-03-02T07:28:35.000Z</time>
      </trkpt>
      <trkpt lat="45.73604" lon="6.16507">
        <ele>1057.4000244141</ele>
        <time>2014-03-02T07:28:37.000Z</time>
      </trkpt>
      <trkpt lat="45.73602" lon="6.16518">
        <ele>1058.5999755859</ele>
        <time>2014-03-02T07:28:45.000Z</time>
      </trkpt>
      <trkpt lat="45.73601" lon="6.16526">
        <ele>1059.8000488281</ele>
        <time>2014-03-02T07:28:50.000Z</time>
      </trkpt>
      <trkpt lat="45.73602" lon="6.16533">
        <ele>1060.8000488281</ele>
        <time>2014-03-02T07:28:54.000Z</time>
      </trkpt>
      <trkpt lat="45.73604" lon="6.16542">
        <ele>1062.4000244141</ele>
        <time>2014-03-02T07:29:00.000Z</time>
      </trkpt>
      <trkpt lat="45.73605" lon="6.16549">
        <ele>1063.5999755859</ele>
        <time>2014-03-02T07:29:07.000Z</time>
      </trkpt>
      <trkpt lat="45.73606" lon="6.16557">
        <ele>1064.5999755859</ele>
        <time>2014-03-02T07:29:12.000Z</time>
      </trkpt>
      <trkpt lat="45.73605" lon="6.16565">
        <ele>1065.8000488281</ele>
        <time>2014-03-02T07:29:18.000Z</time>
      </trkpt>
      <trkpt lat="45.73603" lon="6.16574">
        <ele>1066.8000488281</ele>
        <time>2014-03-02T07:29:24.000Z</time>
      </trkpt>
      <trkpt lat="45.73599" lon="6.16581">
        <ele>1067.4000244141</ele>
        <time>2014-03-02T07:29:29.000Z</time>
      </trkpt>
      <trkpt lat="45.73597" lon="6.16583">
        <ele>1067.4000244141</ele>
        <time>2014-03-02T07:29:33.000Z</time>
      </trkpt>
      <trkpt lat="45.73594" lon="6.16586">
        <ele>1067.8000488281</ele>
        <time>2014-03-02T07:29:36.000Z</time>
      </trkpt>
      <trkpt lat="45.73589" lon="6.16594">
        <ele>1068.5999755859</ele>
        <time>2014-03-02T07:29:41.000Z</time>
      </trkpt>
      <trkpt lat="45.73584" lon="6.16599">
        <ele>1069</ele>
        <time>2014-03-02T07:29:47.000Z</time>
      </trkpt>
      <trkpt lat="45.73579" lon="6.16603">
        <ele>1069.1999511719</ele>
        <time>2014-03-02T07:29:53.000Z</time>
      </trkpt>
      <trkpt lat="45.73573" lon="6.16608">
        <ele>1069.5999755859</ele>
        <time>2014-03-02T07:29:59.000Z</time>
      </trkpt>
      <trkpt lat="45.73566" lon="6.16614">
        <ele>1070.1999511719</ele>
        <time>2014-03-02T07:30:06.000Z</time>
      </trkpt>
      <trkpt lat="45.73561" lon="6.16618">
        <ele>1070.8000488281</ele>
        <time>2014-03-02T07:30:11.000Z</time>
      </trkpt>
      <trkpt lat="45.73554" lon="6.16625">
        <ele>1071.4000244141</ele>
        <time>2014-03-02T07:30:19.000Z</time>
      </trkpt>
      <trkpt lat="45.73552" lon="6.16627">
        <ele>1071.8000488281</ele>
        <time>2014-03-02T07:30:22.000Z</time>
      </trkpt>
      <trkpt lat="45.73546" lon="6.16633">
        <ele>1072.5999755859</ele>
        <time>2014-03-02T07:30:28.000Z</time>
      </trkpt>
      <trkpt lat="45.73542" lon="6.16637">
        <ele>1073.1999511719</ele>
        <time>2014-03-02T07:30:33.000Z</time>
      </trkpt>
      <trkpt lat="45.7354" lon="6.16639">
        <ele>1073.5999755859</ele>
        <time>2014-03-02T07:30:35.000Z</time>
      </trkpt>
      <trkpt lat="45.73536" lon="6.16643">
        <ele>1074.1999511719</ele>
        <time>2014-03-02T07:30:40.000Z</time>
      </trkpt>
      <trkpt lat="45.73531" lon="6.16648">
        <ele>1075</ele>
        <time>2014-03-02T07:30:45.000Z</time>
      </trkpt>
      <trkpt lat="45.73529" lon="6.16649">
        <ele>1075.1999511719</ele>
        <time>2014-03-02T07:30:47.000Z</time>
      </trkpt>
      <trkpt lat="45.73523" lon="6.16654">
        <ele>1076</ele>
        <time>2014-03-02T07:30:55.000Z</time>
      </trkpt>
      <trkpt lat="45.73518" lon="6.16659">
        <ele>1076.8000488281</ele>
        <time>2014-03-02T07:31:02.000Z</time>
      </trkpt>
      <trkpt lat="45.73512" lon="6.16662">
        <ele>1077.5999755859</ele>
        <time>2014-03-02T07:31:09.000Z</time>
      </trkpt>
      <trkpt lat="45.73509" lon="6.16664">
        <ele>1077.8000488281</ele>
        <time>2014-03-02T07:31:12.000Z</time>
      </trkpt>
      <trkpt lat="45.73508" lon="6.16665">
        <ele>1078</ele>
        <time>2014-03-02T07:31:15.000Z</time>
      </trkpt>
      <trkpt lat="45.73507" lon="6.16666">
        <ele>1078.1999511719</ele>
        <time>2014-03-02T07:31:16.000Z</time>
      </trkpt>
      <trkpt lat="45.73501" lon="6.16668">
        <ele>1078.5999755859</ele>
        <time>2014-03-02T07:31:21.000Z</time>
      </trkpt>
      <trkpt lat="45.73497" lon="6.1667">
        <ele>1079.1999511719</ele>
        <time>2014-03-02T07:31:24.000Z</time>
      </trkpt>
      <trkpt lat="45.73492" lon="6.16672">
        <ele>1079.8000488281</ele>
        <time>2014-03-02T07:31:29.000Z</time>
      </trkpt>
      <trkpt lat="45.73488" lon="6.16674">
        <ele>1080.8000488281</ele>
        <time>2014-03-02T07:31:34.000Z</time>
      </trkpt>
      <trkpt lat="45.73484" lon="6.1668">
        <ele>1082.5999755859</ele>
        <time>2014-03-02T07:31:38.000Z</time>
      </trkpt>
      <trkpt lat="45.73483" lon="6.16681">
        <ele>1082.8000488281</ele>
        <time>2014-03-02T07:31:39.000Z</time>
      </trkpt>
      <trkpt lat="45.73476" lon="6.16687">
        <ele>1084.5999755859</ele>
        <time>2014-03-02T07:31:48.000Z</time>
      </trkpt>
      <trkpt lat="45.73473" lon="6.16689">
        <ele>1085.4000244141</ele>
        <time>2014-03-02T07:31:53.000Z</time>
      </trkpt>
      <trkpt lat="45.73468" lon="6.16692">
        <ele>1086</ele>
        <time>2014-03-02T07:31:59.000Z</time>
      </trkpt>
      <trkpt lat="45.73462" lon="6.16694">
        <ele>1087</ele>
        <time>2014-03-02T07:32:06.000Z</time>
      </trkpt>
      <trkpt lat="45.73459" lon="6.16698">
        <ele>1088</ele>
        <time>2014-03-02T07:32:10.000Z</time>
      </trkpt>
      <trkpt lat="45.73455" lon="6.16701">
        <ele>1088.8000488281</ele>
        <time>2014-03-02T07:32:16.000Z</time>
      </trkpt>
      <trkpt lat="45.7345" lon="6.16702">
        <ele>1089.1999511719</ele>
        <time>2014-03-02T07:32:21.000Z</time>
      </trkpt>
      <trkpt lat="45.73443" lon="6.16703">
        <ele>1089.4000244141</ele>
        <time>2014-03-02T07:32:29.000Z</time>
      </trkpt>
      <trkpt lat="45.73438" lon="6.16701">
        <ele>1089.1999511719</ele>
        <time>2014-03-02T07:32:34.000Z</time>
      </trkpt>
      <trkpt lat="45.73429" lon="6.167">
        <ele>1088.8000488281</ele>
        <time>2014-03-02T07:32:41.000Z</time>
      </trkpt>
      <trkpt lat="45.73426" lon="6.167">
        <ele>1089</ele>
        <time>2014-03-02T07:32:46.000Z</time>
      </trkpt>
      <trkpt lat="45.73421" lon="6.16701">
        <ele>1089.1999511719</ele>
        <time>2014-03-02T07:32:51.000Z</time>
      </trkpt>
      <trkpt lat="45.73413" lon="6.16705">
        <ele>1090.1999511719</ele>
        <time>2014-03-02T07:33:00.000Z</time>
      </trkpt>
      <trkpt lat="45.73409" lon="6.16707">
        <ele>1090.4000244141</ele>
        <time>2014-03-02T07:33:04.000Z</time>
      </trkpt>
      <trkpt lat="45.73406" lon="6.1671">
        <ele>1090.5999755859</ele>
        <time>2014-03-02T07:33:08.000Z</time>
      </trkpt>
      <trkpt lat="45.73403" lon="6.16714">
        <ele>1091.4000244141</ele>
        <time>2014-03-02T07:33:12.000Z</time>
      </trkpt>
      <trkpt lat="45.734" lon="6.16722">
        <ele>1092.5999755859</ele>
        <time>2014-03-02T07:33:18.000Z</time>
      </trkpt>
      <trkpt lat="45.734" lon="6.16723">
        <ele>1092.8000488281</ele>
        <time>2014-03-02T07:33:19.000Z</time>
      </trkpt>
      <trkpt lat="45.73398" lon="6.16733">
        <ele>1094.8000488281</ele>
        <time>2014-03-02T07:33:26.000Z</time>
      </trkpt>
      <trkpt lat="45.73397" lon="6.1674">
        <ele>1096.1999511719</ele>
        <time>2014-03-02T07:33:31.000Z</time>
      </trkpt>
      <trkpt lat="45.73396" lon="6.16748">
        <ele>1097.8000488281</ele>
        <time>2014-03-02T07:33:37.000Z</time>
      </trkpt>
      <trkpt lat="45.73396" lon="6.1675">
        <ele>1098</ele>
        <time>2014-03-02T07:33:38.000Z</time>
      </trkpt>
      <trkpt lat="45.73397" lon="6.1676">
        <ele>1099</ele>
        <time>2014-03-02T07:33:43.000Z</time>
      </trkpt>
      <trkpt lat="45.73397" lon="6.16762">
        <ele>1099.1999511719</ele>
        <time>2014-03-02T07:33:44.000Z</time>
      </trkpt>
      <trkpt lat="45.73399" lon="6.16769">
        <ele>1100</ele>
        <time>2014-03-02T07:33:49.000Z</time>
      </trkpt>
      <trkpt lat="45.73398" lon="6.16771">
        <ele>1100.1999511719</ele>
        <time>2014-03-02T07:33:51.000Z</time>
      </trkpt>
      <trkpt lat="45.73401" lon="6.16782">
        <ele>1101.5999755859</ele>
        <time>2014-03-02T07:33:59.000Z</time>
      </trkpt>
      <trkpt lat="45.73401" lon="6.16788">
        <ele>1102.1999511719</ele>
        <time>2014-03-02T07:34:04.000Z</time>
      </trkpt>
      <trkpt lat="45.73401" lon="6.16791">
        <ele>1102.4000244141</ele>
        <time>2014-03-02T07:34:06.000Z</time>
      </trkpt>
      <trkpt lat="45.734" lon="6.16801">
        <ele>1103.4000244141</ele>
        <time>2014-03-02T07:34:14.000Z</time>
      </trkpt>
      <trkpt lat="45.73402" lon="6.16806">
        <ele>1104</ele>
        <time>2014-03-02T07:34:18.000Z</time>
      </trkpt>
      <trkpt lat="45.73401" lon="6.16812">
        <ele>1104.4000244141</ele>
        <time>2014-03-02T07:34:23.000Z</time>
      </trkpt>
      <trkpt lat="45.73399" lon="6.1682">
        <ele>1105</ele>
        <time>2014-03-02T07:34:29.000Z</time>
      </trkpt>
      <trkpt lat="45.73396" lon="6.16825">
        <ele>1105.1999511719</ele>
        <time>2014-03-02T07:34:34.000Z</time>
      </trkpt>
      <trkpt lat="45.73393" lon="6.16829">
        <ele>1105.1999511719</ele>
        <time>2014-03-02T07:34:38.000Z</time>
      </trkpt>
      <trkpt lat="45.73388" lon="6.16835">
        <ele>1105.8000488281</ele>
        <time>2014-03-02T07:34:46.000Z</time>
      </trkpt>
      <trkpt lat="45.73383" lon="6.16839">
        <ele>1106.5999755859</ele>
        <time>2014-03-02T07:34:52.000Z</time>
      </trkpt>
      <trkpt lat="45.73378" lon="6.16844">
        <ele>1107.4000244141</ele>
        <time>2014-03-02T07:34:58.000Z</time>
      </trkpt>
      <trkpt lat="45.73374" lon="6.16848">
        <ele>1108.5999755859</ele>
        <time>2014-03-02T07:35:03.000Z</time>
      </trkpt>
      <trkpt lat="45.73372" lon="6.1685">
        <ele>1109.1999511719</ele>
        <time>2014-03-02T07:35:06.000Z</time>
      </trkpt>
      <trkpt lat="45.73367" lon="6.16854">
        <ele>1110</ele>
        <time>2014-03-02T07:35:13.000Z</time>
      </trkpt>
      <trkpt lat="45.73361" lon="6.16859">
        <ele>1111.1999511719</ele>
        <time>2014-03-02T07:35:19.000Z</time>
      </trkpt>
      <trkpt lat="45.73357" lon="6.16861">
        <ele>1111.8000488281</ele>
        <time>2014-03-02T07:35:24.000Z</time>
      </trkpt>
      <trkpt lat="45.73356" lon="6.16863">
        <ele>1112.1999511719</ele>
        <time>2014-03-02T07:35:26.000Z</time>
      </trkpt>
      <trkpt lat="45.7335" lon="6.16863">
        <ele>1112</ele>
        <time>2014-03-02T07:35:31.000Z</time>
      </trkpt>
      <trkpt lat="45.73348" lon="6.16865">
        <ele>1112.4000244141</ele>
        <time>2014-03-02T07:35:34.000Z</time>
      </trkpt>
      <trkpt lat="45.7334" lon="6.16866">
        <ele>1112.5999755859</ele>
        <time>2014-03-02T07:35:41.000Z</time>
      </trkpt>
      <trkpt lat="45.73336" lon="6.16867">
        <ele>1112.5999755859</ele>
        <time>2014-03-02T07:35:45.000Z</time>
      </trkpt>
      <trkpt lat="45.7333" lon="6.16867">
        <ele>1112</ele>
        <time>2014-03-02T07:35:51.000Z</time>
      </trkpt>
      <trkpt lat="45.73325" lon="6.1687">
        <ele>1112.1999511719</ele>
        <time>2014-03-02T07:35:57.000Z</time>
      </trkpt>
      <trkpt lat="45.73318" lon="6.16873">
        <ele>1112.1999511719</ele>
        <time>2014-03-02T07:36:03.000Z</time>
      </trkpt>
      <trkpt lat="45.73317" lon="6.16874">
        <ele>1112.4000244141</ele>
        <time>2014-03-02T07:36:05.000Z</time>
      </trkpt>
      <trkpt lat="45.73315" lon="6.16877">
        <ele>1113</ele>
        <time>2014-03-02T07:36:07.000Z</time>
      </trkpt>
      <trkpt lat="45.73308" lon="6.16879">
        <ele>1113</ele>
        <time>2014-03-02T07:36:12.000Z</time>
      </trkpt>
      <trkpt lat="45.73306" lon="6.16879">
        <ele>1112.5999755859</ele>
        <time>2014-03-02T07:36:15.000Z</time>
      </trkpt>
      <trkpt lat="45.73304" lon="6.16881">
        <ele>1112.8000488281</ele>
        <time>2014-03-02T07:36:19.000Z</time>
      </trkpt>
      <trkpt lat="45.73301" lon="6.16883">
        <ele>1113</ele>
        <time>2014-03-02T07:36:24.000Z</time>
      </trkpt>
      <trkpt lat="45.73297" lon="6.16886">
        <ele>1113.1999511719</ele>
        <time>2014-03-02T07:36:30.000Z</time>
      </trkpt>
      <trkpt lat="45.73295" lon="6.16888">
        <ele>1113.5999755859</ele>
        <time>2014-03-02T07:36:33.000Z</time>
      </trkpt>
      <trkpt lat="45.7329" lon="6.1689">
        <ele>1113.5999755859</ele>
        <time>2014-03-02T07:36:40.000Z</time>
      </trkpt>
      <trkpt lat="45.73287" lon="6.16893">
        <ele>1114.1999511719</ele>
        <time>2014-03-02T07:36:43.000Z</time>
      </trkpt>
      <trkpt lat="45.73282" lon="6.16897">
        <ele>1114.8000488281</ele>
        <time>2014-03-02T07:36:48.000Z</time>
      </trkpt>
      <trkpt lat="45.73277" lon="6.16903">
        <ele>1115.8000488281</ele>
        <time>2014-03-02T07:36:55.000Z</time>
      </trkpt>
      <trkpt lat="45.73275" lon="6.16905">
        <ele>1116.4000244141</ele>
        <time>2014-03-02T07:36:58.000Z</time>
      </trkpt>
      <trkpt lat="45.7327" lon="6.16909">
        <ele>1116.8000488281</ele>
        <time>2014-03-02T07:37:05.000Z</time>
      </trkpt>
      <trkpt lat="45.73267" lon="6.16912">
        <ele>1117.4000244141</ele>
        <time>2014-03-02T07:37:09.000Z</time>
      </trkpt>
      <trkpt lat="45.73264" lon="6.16915">
        <ele>1118</ele>
        <time>2014-03-02T07:37:14.000Z</time>
      </trkpt>
      <trkpt lat="45.7326" lon="6.16918">
        <ele>1118.5999755859</ele>
        <time>2014-03-02T07:37:18.000Z</time>
      </trkpt>
      <trkpt lat="45.73254" lon="6.1692">
        <ele>1118.8000488281</ele>
        <time>2014-03-02T07:37:25.000Z</time>
      </trkpt>
      <trkpt lat="45.73247" lon="6.16922">
        <ele>1118.8000488281</ele>
        <time>2014-03-02T07:37:32.000Z</time>
      </trkpt>
      <trkpt lat="45.73243" lon="6.16924">
        <ele>1119.4000244141</ele>
        <time>2014-03-02T07:37:37.000Z</time>
      </trkpt>
      <trkpt lat="45.7324" lon="6.16926">
        <ele>1120.1999511719</ele>
        <time>2014-03-02T07:37:42.000Z</time>
      </trkpt>
      <trkpt lat="45.73236" lon="6.16929">
        <ele>1121.5999755859</ele>
        <time>2014-03-02T07:37:47.000Z</time>
      </trkpt>
      <trkpt lat="45.73233" lon="6.16931">
        <ele>1122.1999511719</ele>
        <time>2014-03-02T07:37:51.000Z</time>
      </trkpt>
      <trkpt lat="45.73228" lon="6.16935">
        <ele>1123.1999511719</ele>
        <time>2014-03-02T07:37:56.000Z</time>
      </trkpt>
      <trkpt lat="45.73224" lon="6.16937">
        <ele>1124</ele>
        <time>2014-03-02T07:38:00.000Z</time>
      </trkpt>
      <trkpt lat="45.73219" lon="6.16939">
        <ele>1123.8000488281</ele>
        <time>2014-03-02T07:38:07.000Z</time>
      </trkpt>
      <trkpt lat="45.73215" lon="6.1694">
        <ele>1123.8000488281</ele>
        <time>2014-03-02T07:38:11.000Z</time>
      </trkpt>
      <trkpt lat="45.7321" lon="6.16943">
        <ele>1124.5999755859</ele>
        <time>2014-03-02T07:38:16.000Z</time>
      </trkpt>
      <trkpt lat="45.73205" lon="6.16948">
        <ele>1126</ele>
        <time>2014-03-02T07:38:23.000Z</time>
      </trkpt>
      <trkpt lat="45.73204" lon="6.16952">
        <ele>1127.5999755859</ele>
        <time>2014-03-02T07:38:27.000Z</time>
      </trkpt>
      <trkpt lat="45.73197" lon="6.16954">
        <ele>1127.4000244141</ele>
        <time>2014-03-02T07:38:33.000Z</time>
      </trkpt>
      <trkpt lat="45.73195" lon="6.16958">
        <ele>1128.8000488281</ele>
        <time>2014-03-02T07:38:37.000Z</time>
      </trkpt>
      <trkpt lat="45.73193" lon="6.1696">
        <ele>1129.1999511719</ele>
        <time>2014-03-02T07:38:40.000Z</time>
      </trkpt>
      <trkpt lat="45.73187" lon="6.16964">
        <ele>1130</ele>
        <time>2014-03-02T07:38:47.000Z</time>
      </trkpt>
      <trkpt lat="45.73182" lon="6.16968">
        <ele>1130.4000244141</ele>
        <time>2014-03-02T07:38:53.000Z</time>
      </trkpt>
      <trkpt lat="45.73177" lon="6.16974">
        <ele>1132</ele>
        <time>2014-03-02T07:38:58.000Z</time>
      </trkpt>
      <trkpt lat="45.73177" lon="6.16974">
        <ele>1132</ele>
        <time>2014-03-02T07:38:59.000Z</time>
      </trkpt>
      <trkpt lat="45.73173" lon="6.16978">
        <ele>1133</ele>
        <time>2014-03-02T07:39:05.000Z</time>
      </trkpt>
      <trkpt lat="45.73168" lon="6.16983">
        <ele>1133.8000488281</ele>
        <time>2014-03-02T07:39:11.000Z</time>
      </trkpt>
      <trkpt lat="45.73165" lon="6.16982">
        <ele>1132.8000488281</ele>
        <time>2014-03-02T07:39:14.000Z</time>
      </trkpt>
      <trkpt lat="45.73164" lon="6.16982">
        <ele>1132.8000488281</ele>
        <time>2014-03-02T07:39:15.000Z</time>
      </trkpt>
      <trkpt lat="45.73159" lon="6.16986">
        <ele>1133.1999511719</ele>
        <time>2014-03-02T07:39:21.000Z</time>
      </trkpt>
      <trkpt lat="45.73157" lon="6.16987">
        <ele>1133.1999511719</ele>
        <time>2014-03-02T07:39:23.000Z</time>
      </trkpt>
      <trkpt lat="45.73151" lon="6.16989">
        <ele>1132.8000488281</ele>
        <time>2014-03-02T07:39:29.000Z</time>
      </trkpt>
      <trkpt lat="45.73149" lon="6.1699">
        <ele>1133</ele>
        <time>2014-03-02T07:39:32.000Z</time>
      </trkpt>
      <trkpt lat="45.73146" lon="6.16995">
        <ele>1134.1999511719</ele>
        <time>2014-03-02T07:39:36.000Z</time>
      </trkpt>
      <trkpt lat="45.73144" lon="6.16996">
        <ele>1134.1999511719</ele>
        <time>2014-03-02T07:39:38.000Z</time>
      </trkpt>
      <trkpt lat="45.7314" lon="6.17">
        <ele>1135.1999511719</ele>
        <time>2014-03-02T07:39:42.000Z</time>
      </trkpt>
      <trkpt lat="45.73138" lon="6.17002">
        <ele>1136.1999511719</ele>
        <time>2014-03-02T07:39:45.000Z</time>
      </trkpt>
      <trkpt lat="45.73134" lon="6.17004">
        <ele>1136.1999511719</ele>
        <time>2014-03-02T07:39:50.000Z</time>
      </trkpt>
      <trkpt lat="45.7313" lon="6.17006">
        <ele>1136.5999755859</ele>
        <time>2014-03-02T07:39:54.000Z</time>
      </trkpt>
      <trkpt lat="45.73127" lon="6.17009">
        <ele>1138.1999511719</ele>
        <time>2014-03-02T07:39:59.000Z</time>
      </trkpt>
      <trkpt lat="45.73121" lon="6.17013">
        <ele>1139.4000244141</ele>
        <time>2014-03-02T07:40:06.000Z</time>
      </trkpt>
      <trkpt lat="45.73114" lon="6.17015">
        <ele>1138.8000488281</ele>
        <time>2014-03-02T07:40:12.000Z</time>
      </trkpt>
      <trkpt lat="45.73114" lon="6.17015">
        <ele>1138.5999755859</ele>
        <time>2014-03-02T07:40:13.000Z</time>
      </trkpt>
      <trkpt lat="45.73109" lon="6.17018">
        <ele>1139</ele>
        <time>2014-03-02T07:40:17.000Z</time>
      </trkpt>
      <trkpt lat="45.73107" lon="6.17018">
        <ele>1138.8000488281</ele>
        <time>2014-03-02T07:40:19.000Z</time>
      </trkpt>
      <trkpt lat="45.73102" lon="6.1702">
        <ele>1138.5999755859</ele>
        <time>2014-03-02T07:40:24.000Z</time>
      </trkpt>
      <trkpt lat="45.73098" lon="6.17021">
        <ele>1138.4000244141</ele>
        <time>2014-03-02T07:40:28.000Z</time>
      </trkpt>
      <trkpt lat="45.73096" lon="6.17023">
        <ele>1139.1999511719</ele>
        <time>2014-03-02T07:40:31.000Z</time>
      </trkpt>
      <trkpt lat="45.73091" lon="6.17029">
        <ele>1141.1999511719</ele>
        <time>2014-03-02T07:40:37.000Z</time>
      </trkpt>
      <trkpt lat="45.73088" lon="6.17033">
        <ele>1143</ele>
        <time>2014-03-02T07:40:42.000Z</time>
      </trkpt>
      <trkpt lat="45.73082" lon="6.1704">
        <ele>1145.1999511719</ele>
        <time>2014-03-02T07:40:48.000Z</time>
      </trkpt>
      <trkpt lat="45.73077" lon="6.17044">
        <ele>1146</ele>
        <time>2014-03-02T07:40:54.000Z</time>
      </trkpt>
      <trkpt lat="45.73075" lon="6.17048">
        <ele>1147.5999755859</ele>
        <time>2014-03-02T07:40:57.000Z</time>
      </trkpt>
      <trkpt lat="45.73073" lon="6.17053">
        <ele>1150.1999511719</ele>
        <time>2014-03-02T07:41:01.000Z</time>
      </trkpt>
      <trkpt lat="45.7307" lon="6.17057">
        <ele>1151.1999511719</ele>
        <time>2014-03-02T07:41:04.000Z</time>
      </trkpt>
      <trkpt lat="45.73066" lon="6.17059">
        <ele>1151.1999511719</ele>
        <time>2014-03-02T07:41:08.000Z</time>
      </trkpt>
      <trkpt lat="45.73064" lon="6.17061">
        <ele>1152</ele>
        <time>2014-03-02T07:41:10.000Z</time>
      </trkpt>
      <trkpt lat="45.7306" lon="6.17067">
        <ele>1153.8000488281</ele>
        <time>2014-03-02T07:41:14.000Z</time>
      </trkpt>
      <trkpt lat="45.73056" lon="6.17068">
        <ele>1153.5999755859</ele>
        <time>2014-03-02T07:41:18.000Z</time>
      </trkpt>
      <trkpt lat="45.73051" lon="6.17068">
        <ele>1151.8000488281</ele>
        <time>2014-03-02T07:41:23.000Z</time>
      </trkpt>
      <trkpt lat="45.73045" lon="6.1707">
        <ele>1151.1999511719</ele>
        <time>2014-03-02T07:41:29.000Z</time>
      </trkpt>
      <trkpt lat="45.73042" lon="6.17072">
        <ele>1151.5999755859</ele>
        <time>2014-03-02T07:41:32.000Z</time>
      </trkpt>
      <trkpt lat="45.73035" lon="6.17071">
        <ele>1148.8000488281</ele>
        <time>2014-03-02T07:41:37.000Z</time>
      </trkpt>
      <trkpt lat="45.73034" lon="6.17071">
        <ele>1148.5999755859</ele>
        <time>2014-03-02T07:41:38.000Z</time>
      </trkpt>
      <trkpt lat="45.73032" lon="6.17072">
        <ele>1148.8000488281</ele>
        <time>2014-03-02T07:41:41.000Z</time>
      </trkpt>
      <trkpt lat="45.73025" lon="6.17071">
        <ele>1146</ele>
        <time>2014-03-02T07:41:46.000Z</time>
      </trkpt>
      <trkpt lat="45.7302" lon="6.17073">
        <ele>1145.5999755859</ele>
        <time>2014-03-02T07:41:52.000Z</time>
      </trkpt>
      <trkpt lat="45.73017" lon="6.17074">
        <ele>1145.1999511719</ele>
        <time>2014-03-02T07:41:56.000Z</time>
      </trkpt>
      <trkpt lat="45.73014" lon="6.17073">
        <ele>1144</ele>
        <time>2014-03-02T07:41:59.000Z</time>
      </trkpt>
      <trkpt lat="45.7301" lon="6.17075">
        <ele>1144</ele>
        <time>2014-03-02T07:42:05.000Z</time>
      </trkpt>
      <trkpt lat="45.73006" lon="6.1708">
        <ele>1145.1999511719</ele>
        <time>2014-03-02T07:42:10.000Z</time>
      </trkpt>
      <trkpt lat="45.73003" lon="6.17083">
        <ele>1145.5999755859</ele>
        <time>2014-03-02T07:42:15.000Z</time>
      </trkpt>
      <trkpt lat="45.72999" lon="6.17086">
        <ele>1146.1999511719</ele>
        <time>2014-03-02T07:42:20.000Z</time>
      </trkpt>
      <trkpt lat="45.72995" lon="6.1709">
        <ele>1147.8000488281</ele>
        <time>2014-03-02T07:42:26.000Z</time>
      </trkpt>
      <trkpt lat="45.72991" lon="6.17092">
        <ele>1148.1999511719</ele>
        <time>2014-03-02T07:42:30.000Z</time>
      </trkpt>
      <trkpt lat="45.72988" lon="6.17097">
        <ele>1150</ele>
        <time>2014-03-02T07:42:35.000Z</time>
      </trkpt>
      <trkpt lat="45.72984" lon="6.17099">
        <ele>1150</ele>
        <time>2014-03-02T07:42:39.000Z</time>
      </trkpt>
      <trkpt lat="45.72978" lon="6.17101">
        <ele>1149.4000244141</ele>
        <time>2014-03-02T07:42:44.000Z</time>
      </trkpt>
      <trkpt lat="45.72976" lon="6.17103">
        <ele>1150.1999511719</ele>
        <time>2014-03-02T07:42:47.000Z</time>
      </trkpt>
      <trkpt lat="45.72971" lon="6.17109">
        <ele>1152</ele>
        <time>2014-03-02T07:42:52.000Z</time>
      </trkpt>
      <trkpt lat="45.72967" lon="6.17111">
        <ele>1152.1999511719</ele>
        <time>2014-03-02T07:42:56.000Z</time>
      </trkpt>
      <trkpt lat="45.72963" lon="6.17115">
        <ele>1153.1999511719</ele>
        <time>2014-03-02T07:43:02.000Z</time>
      </trkpt>
      <trkpt lat="45.72958" lon="6.17119">
        <ele>1153.5999755859</ele>
        <time>2014-03-02T07:43:09.000Z</time>
      </trkpt>
      <trkpt lat="45.72954" lon="6.17122">
        <ele>1154</ele>
        <time>2014-03-02T07:43:14.000Z</time>
      </trkpt>
      <trkpt lat="45.72947" lon="6.17127">
        <ele>1154.1999511719</ele>
        <time>2014-03-02T07:43:21.000Z</time>
      </trkpt>
      <trkpt lat="45.72943" lon="6.1713">
        <ele>1154.5999755859</ele>
        <time>2014-03-02T07:43:26.000Z</time>
      </trkpt>
      <trkpt lat="45.72936" lon="6.17135">
        <ele>1154.4000244141</ele>
        <time>2014-03-02T07:43:34.000Z</time>
      </trkpt>
      <trkpt lat="45.72931" lon="6.17142">
        <ele>1155.8000488281</ele>
        <time>2014-03-02T07:43:40.000Z</time>
      </trkpt>
      <trkpt lat="45.72929" lon="6.17144">
        <ele>1156.1999511719</ele>
        <time>2014-03-02T07:43:43.000Z</time>
      </trkpt>
      <trkpt lat="45.72923" lon="6.17148">
        <ele>1156.1999511719</ele>
        <time>2014-03-02T07:43:49.000Z</time>
      </trkpt>
      <trkpt lat="45.7292" lon="6.17153">
        <ele>1157</ele>
        <time>2014-03-02T07:43:54.000Z</time>
      </trkpt>
      <trkpt lat="45.72915" lon="6.17158">
        <ele>1158</ele>
        <time>2014-03-02T07:43:59.000Z</time>
      </trkpt>
      <trkpt lat="45.72911" lon="6.17163">
        <ele>1161</ele>
        <time>2014-03-02T07:44:04.000Z</time>
      </trkpt>
      <trkpt lat="45.72906" lon="6.17169">
        <ele>1163.5999755859</ele>
        <time>2014-03-02T07:44:10.000Z</time>
      </trkpt>
      <trkpt lat="45.72904" lon="6.17171">
        <ele>1164.8000488281</ele>
        <time>2014-03-02T07:44:13.000Z</time>
      </trkpt>
      <trkpt lat="45.72897" lon="6.17178">
        <ele>1167.4000244141</ele>
        <time>2014-03-02T07:44:21.000Z</time>
      </trkpt>
      <trkpt lat="45.72892" lon="6.17184">
        <ele>1169.1999511719</ele>
        <time>2014-03-02T07:44:27.000Z</time>
      </trkpt>
      <trkpt lat="45.72886" lon="6.17192">
        <ele>1171.4000244141</ele>
        <time>2014-03-02T07:44:35.000Z</time>
      </trkpt>
      <trkpt lat="45.72881" lon="6.17198">
        <ele>1173</ele>
        <time>2014-03-02T07:44:42.000Z</time>
      </trkpt>
      <trkpt lat="45.72879" lon="6.172">
        <ele>1173.1999511719</ele>
        <time>2014-03-02T07:44:44.000Z</time>
      </trkpt>
      <trkpt lat="45.72874" lon="6.17206">
        <ele>1174.4000244141</ele>
        <time>2014-03-02T07:44:50.000Z</time>
      </trkpt>
      <trkpt lat="45.7287" lon="6.17215">
        <ele>1176</ele>
        <time>2014-03-02T07:44:58.000Z</time>
      </trkpt>
      <trkpt lat="45.72867" lon="6.17222">
        <ele>1177.1999511719</ele>
        <time>2014-03-02T07:45:04.000Z</time>
      </trkpt>
      <trkpt lat="45.72864" lon="6.17229">
        <ele>1178.1999511719</ele>
        <time>2014-03-02T07:45:09.000Z</time>
      </trkpt>
      <trkpt lat="45.72861" lon="6.17236">
        <ele>1179</ele>
        <time>2014-03-02T07:45:15.000Z</time>
      </trkpt>
      <trkpt lat="45.72858" lon="6.17243">
        <ele>1179.5999755859</ele>
        <time>2014-03-02T07:45:21.000Z</time>
      </trkpt>
      <trkpt lat="45.72858" lon="6.17244">
        <ele>1179.8000488281</ele>
        <time>2014-03-02T07:45:22.000Z</time>
      </trkpt>
      <trkpt lat="45.72855" lon="6.17252">
        <ele>1180.5999755859</ele>
        <time>2014-03-02T07:45:28.000Z</time>
      </trkpt>
      <trkpt lat="45.72853" lon="6.1726">
        <ele>1180.8000488281</ele>
        <time>2014-03-02T07:45:35.000Z</time>
      </trkpt>
      <trkpt lat="45.7285" lon="6.17265">
        <ele>1180.8000488281</ele>
        <time>2014-03-02T07:45:39.000Z</time>
      </trkpt>
      <trkpt lat="45.72848" lon="6.1727">
        <ele>1180.8000488281</ele>
        <time>2014-03-02T07:45:43.000Z</time>
      </trkpt>
      <trkpt lat="45.72846" lon="6.17276">
        <ele>1181</ele>
        <time>2014-03-02T07:45:48.000Z</time>
      </trkpt>
      <trkpt lat="45.72842" lon="6.17284">
        <ele>1180.8000488281</ele>
        <time>2014-03-02T07:45:55.000Z</time>
      </trkpt>
      <trkpt lat="45.72839" lon="6.17291">
        <ele>1180.4000244141</ele>
        <time>2014-03-02T07:46:01.000Z</time>
      </trkpt>
      <trkpt lat="45.72836" lon="6.17297">
        <ele>1180.1999511719</ele>
        <time>2014-03-02T07:46:05.000Z</time>
      </trkpt>
      <trkpt lat="45.72834" lon="6.17304">
        <ele>1180</ele>
        <time>2014-03-02T07:46:11.000Z</time>
      </trkpt>
      <trkpt lat="45.72832" lon="6.17312">
        <ele>1180.5999755859</ele>
        <time>2014-03-02T07:46:17.000Z</time>
      </trkpt>
      <trkpt lat="45.72829" lon="6.17325">
        <ele>1182</ele>
        <time>2014-03-02T07:46:26.000Z</time>
      </trkpt>
      <trkpt lat="45.72828" lon="6.17332">
        <ele>1182.5999755859</ele>
        <time>2014-03-02T07:46:31.000Z</time>
      </trkpt>
      <trkpt lat="45.72828" lon="6.17336">
        <ele>1182.8000488281</ele>
        <time>2014-03-02T07:46:33.000Z</time>
      </trkpt>
      <trkpt lat="45.72827" lon="6.17342">
        <ele>1183.4000244141</ele>
        <time>2014-03-02T07:46:37.000Z</time>
      </trkpt>
      <trkpt lat="45.72826" lon="6.17352">
        <ele>1184</ele>
        <time>2014-03-02T07:46:44.000Z</time>
      </trkpt>
      <trkpt lat="45.72824" lon="6.17358">
        <ele>1184.5999755859</ele>
        <time>2014-03-02T07:46:49.000Z</time>
      </trkpt>
      <trkpt lat="45.72824" lon="6.1736">
        <ele>1184.8000488281</ele>
        <time>2014-03-02T07:46:50.000Z</time>
      </trkpt>
      <trkpt lat="45.72822" lon="6.17371">
        <ele>1185.5999755859</ele>
        <time>2014-03-02T07:46:59.000Z</time>
      </trkpt>
      <trkpt lat="45.72821" lon="6.17376">
        <ele>1185.8000488281</ele>
        <time>2014-03-02T07:47:03.000Z</time>
      </trkpt>
      <trkpt lat="45.72818" lon="6.17384">
        <ele>1186.1999511719</ele>
        <time>2014-03-02T07:47:11.000Z</time>
      </trkpt>
      <trkpt lat="45.72815" lon="6.1739">
        <ele>1186.5999755859</ele>
        <time>2014-03-02T07:47:19.000Z</time>
      </trkpt>
      <trkpt lat="45.72815" lon="6.17396">
        <ele>1186.8000488281</ele>
        <time>2014-03-02T07:47:25.000Z</time>
      </trkpt>
      <trkpt lat="45.72814" lon="6.17397">
        <ele>1186.8000488281</ele>
        <time>2014-03-02T07:47:30.000Z</time>
      </trkpt>
      <trkpt lat="45.7281" lon="6.17395">
        <ele>1186.5999755859</ele>
        <time>2014-03-02T07:47:44.000Z</time>
      </trkpt>
      <trkpt lat="45.72808" lon="6.17391">
        <ele>1186.5999755859</ele>
        <time>2014-03-02T07:47:51.000Z</time>
      </trkpt>
      <trkpt lat="45.72806" lon="6.17389">
        <ele>1186.4000244141</ele>
        <time>2014-03-02T07:48:00.000Z</time>
      </trkpt>
      <trkpt lat="45.72804" lon="6.17386">
        <ele>1186.4000244141</ele>
        <time>2014-03-02T07:48:21.000Z</time>
      </trkpt>
      <trkpt lat="45.72805" lon="6.17387">
        <ele>1186.4000244141</ele>
        <time>2014-03-02T07:48:35.000Z</time>
      </trkpt>
      <trkpt lat="45.72806" lon="6.17391">
        <ele>1186.5999755859</ele>
        <time>2014-03-02T07:48:54.000Z</time>
      </trkpt>
      <trkpt lat="45.72809" lon="6.17395">
        <ele>1186.5999755859</ele>
        <time>2014-03-02T07:49:07.000Z</time>
      </trkpt>
      <trkpt lat="45.72809" lon="6.17394">
        <ele>1186.5999755859</ele>
        <time>2014-03-02T07:49:12.000Z</time>
      </trkpt>
      <trkpt lat="45.72809" lon="6.17398">
        <ele>1186.8000488281</ele>
        <time>2014-03-02T07:49:18.000Z</time>
      </trkpt>
      <trkpt lat="45.72811" lon="6.17404">
        <ele>1187</ele>
        <time>2014-03-02T07:49:24.000Z</time>
      </trkpt>
      <trkpt lat="45.72812" lon="6.17408">
        <ele>1187.1999511719</ele>
        <time>2014-03-02T07:49:28.000Z</time>
      </trkpt>
      <trkpt lat="45.72812" lon="6.17414">
        <ele>1187.4000244141</ele>
        <time>2014-03-02T07:49:35.000Z</time>
      </trkpt>
      <trkpt lat="45.72814" lon="6.17414">
        <ele>1187.5999755859</ele>
        <time>2014-03-02T07:49:46.000Z</time>
      </trkpt>
      <trkpt lat="45.72814" lon="6.17413">
        <ele>1187.4000244141</ele>
        <time>2014-03-02T07:49:48.000Z</time>
      </trkpt>
      <trkpt lat="45.72815" lon="6.17404">
        <ele>1187.1999511719</ele>
        <time>2014-03-02T07:49:52.000Z</time>
      </trkpt>
      <trkpt lat="45.72814" lon="6.17398">
        <ele>1186.8000488281</ele>
        <time>2014-03-02T07:49:59.000Z</time>
      </trkpt>
      <trkpt lat="45.72813" lon="6.174">
        <ele>1187</ele>
        <time>2014-03-02T07:50:06.000Z</time>
      </trkpt>
      <trkpt lat="45.72807" lon="6.17398">
        <ele>1186.5999755859</ele>
        <time>2014-03-02T07:50:10.000Z</time>
      </trkpt>
      <trkpt lat="45.72799" lon="6.17407">
        <ele>1186.5999755859</ele>
        <time>2014-03-02T07:50:18.000Z</time>
      </trkpt>
      <trkpt lat="45.72792" lon="6.17417">
        <ele>1186</ele>
        <time>2014-03-02T07:50:25.000Z</time>
      </trkpt>
      <trkpt lat="45.72788" lon="6.17422">
        <ele>1186</ele>
        <time>2014-03-02T07:50:30.000Z</time>
      </trkpt>
      <trkpt lat="45.72786" lon="6.17428">
        <ele>1186</ele>
        <time>2014-03-02T07:50:34.000Z</time>
      </trkpt>
      <trkpt lat="45.72784" lon="6.17433">
        <ele>1186</ele>
        <time>2014-03-02T07:50:38.000Z</time>
      </trkpt>
      <trkpt lat="45.72782" lon="6.17439">
        <ele>1186.1999511719</ele>
        <time>2014-03-02T07:50:43.000Z</time>
      </trkpt>
      <trkpt lat="45.72779" lon="6.17445">
        <ele>1186</ele>
        <time>2014-03-02T07:50:48.000Z</time>
      </trkpt>
      <trkpt lat="45.72776" lon="6.17452">
        <ele>1186.1999511719</ele>
        <time>2014-03-02T07:50:55.000Z</time>
      </trkpt>
      <trkpt lat="45.72773" lon="6.1746">
        <ele>1186.1999511719</ele>
        <time>2014-03-02T07:51:01.000Z</time>
      </trkpt>
      <trkpt lat="45.72771" lon="6.17468">
        <ele>1186.4000244141</ele>
        <time>2014-03-02T07:51:08.000Z</time>
      </trkpt>
      <trkpt lat="45.72769" lon="6.17474">
        <ele>1186.4000244141</ele>
        <time>2014-03-02T07:51:14.000Z</time>
      </trkpt>
      <trkpt lat="45.72769" lon="6.17481">
        <ele>1186.5999755859</ele>
        <time>2014-03-02T07:51:20.000Z</time>
      </trkpt>
      <trkpt lat="45.72768" lon="6.17489">
        <ele>1187</ele>
        <time>2014-03-02T07:51:25.000Z</time>
      </trkpt>
      <trkpt lat="45.72768" lon="6.17496">
        <ele>1187.1999511719</ele>
        <time>2014-03-02T07:51:30.000Z</time>
      </trkpt>
      <trkpt lat="45.72768" lon="6.17504">
        <ele>1187.5999755859</ele>
        <time>2014-03-02T07:51:36.000Z</time>
      </trkpt>
      <trkpt lat="45.72769" lon="6.17509">
        <ele>1188.1999511719</ele>
        <time>2014-03-02T07:51:40.000Z</time>
      </trkpt>
      <trkpt lat="45.7277" lon="6.17516">
        <ele>1188.8000488281</ele>
        <time>2014-03-02T07:51:45.000Z</time>
      </trkpt>
      <trkpt lat="45.7277" lon="6.17521">
        <ele>1189.4000244141</ele>
        <time>2014-03-02T07:51:49.000Z</time>
      </trkpt>
      <trkpt lat="45.7277" lon="6.17527">
        <ele>1189.8000488281</ele>
        <time>2014-03-02T07:51:54.000Z</time>
      </trkpt>
      <trkpt lat="45.72766" lon="6.17534">
        <ele>1190.1999511719</ele>
        <time>2014-03-02T07:52:01.000Z</time>
      </trkpt>
      <trkpt lat="45.72763" lon="6.17539">
        <ele>1190.4000244141</ele>
        <time>2014-03-02T07:52:07.000Z</time>
      </trkpt>
      <trkpt lat="45.72758" lon="6.17543">
        <ele>1190.4000244141</ele>
        <time>2014-03-02T07:52:13.000Z</time>
      </trkpt>
      <trkpt lat="45.72753" lon="6.17546">
        <ele>1190.1999511719</ele>
        <time>2014-03-02T07:52:19.000Z</time>
      </trkpt>
      <trkpt lat="45.72749" lon="6.17549">
        <ele>1190.1999511719</ele>
        <time>2014-03-02T07:52:25.000Z</time>
      </trkpt>
      <trkpt lat="45.72743" lon="6.17553">
        <ele>1191</ele>
        <time>2014-03-02T07:52:32.000Z</time>
      </trkpt>
      <trkpt lat="45.72739" lon="6.17556">
        <ele>1191.5999755859</ele>
        <time>2014-03-02T07:52:37.000Z</time>
      </trkpt>
      <trkpt lat="45.72737" lon="6.17557">
        <ele>1191.8000488281</ele>
        <time>2014-03-02T07:52:41.000Z</time>
      </trkpt>
      <trkpt lat="45.72732" lon="6.1756">
        <ele>1192.5999755859</ele>
        <time>2014-03-02T07:52:48.000Z</time>
      </trkpt>
      <trkpt lat="45.72727" lon="6.17564">
        <ele>1193.1999511719</ele>
        <time>2014-03-02T07:52:54.000Z</time>
      </trkpt>
      <trkpt lat="45.72723" lon="6.17569">
        <ele>1193.8000488281</ele>
        <time>2014-03-02T07:53:00.000Z</time>
      </trkpt>
      <trkpt lat="45.72719" lon="6.17575">
        <ele>1194.4000244141</ele>
        <time>2014-03-02T07:53:06.000Z</time>
      </trkpt>
      <trkpt lat="45.72716" lon="6.17581">
        <ele>1194.8000488281</ele>
        <time>2014-03-02T07:53:12.000Z</time>
      </trkpt>
      <trkpt lat="45.72714" lon="6.17586">
        <ele>1195.5999755859</ele>
        <time>2014-03-02T07:53:17.000Z</time>
      </trkpt>
      <trkpt lat="45.72713" lon="6.17594">
        <ele>1196.4000244141</ele>
        <time>2014-03-02T07:53:24.000Z</time>
      </trkpt>
      <trkpt lat="45.72712" lon="6.17598">
        <ele>1197</ele>
        <time>2014-03-02T07:53:28.000Z</time>
      </trkpt>
      <trkpt lat="45.72713" lon="6.17608">
        <ele>1198.1999511719</ele>
        <time>2014-03-02T07:53:35.000Z</time>
      </trkpt>
      <trkpt lat="45.72714" lon="6.17614">
        <ele>1198.8000488281</ele>
        <time>2014-03-02T07:53:40.000Z</time>
      </trkpt>
      <trkpt lat="45.72716" lon="6.17621">
        <ele>1199.5999755859</ele>
        <time>2014-03-02T07:53:46.000Z</time>
      </trkpt>
      <trkpt lat="45.72718" lon="6.17625">
        <ele>1200</ele>
        <time>2014-03-02T07:53:50.000Z</time>
      </trkpt>
      <trkpt lat="45.72721" lon="6.1763">
        <ele>1200.5999755859</ele>
        <time>2014-03-02T07:53:55.000Z</time>
      </trkpt>
      <trkpt lat="45.72724" lon="6.17635">
        <ele>1201</ele>
        <time>2014-03-02T07:54:01.000Z</time>
      </trkpt>
      <trkpt lat="45.72727" lon="6.17641">
        <ele>1201.5999755859</ele>
        <time>2014-03-02T07:54:07.000Z</time>
      </trkpt>
      <trkpt lat="45.72731" lon="6.17646">
        <ele>1202.4000244141</ele>
        <time>2014-03-02T07:54:11.000Z</time>
      </trkpt>
      <trkpt lat="45.72734" lon="6.17652">
        <ele>1203</ele>
        <time>2014-03-02T07:54:16.000Z</time>
      </trkpt>
      <trkpt lat="45.72737" lon="6.17658">
        <ele>1203.8000488281</ele>
        <time>2014-03-02T07:54:22.000Z</time>
      </trkpt>
      <trkpt lat="45.7274" lon="6.17663">
        <ele>1204.5999755859</ele>
        <time>2014-03-02T07:54:27.000Z</time>
      </trkpt>
      <trkpt lat="45.72741" lon="6.1767">
        <ele>1205.5999755859</ele>
        <time>2014-03-02T07:54:33.000Z</time>
      </trkpt>
      <trkpt lat="45.72741" lon="6.17676">
        <ele>1206.4000244141</ele>
        <time>2014-03-02T07:54:38.000Z</time>
      </trkpt>
      <trkpt lat="45.72741" lon="6.17683">
        <ele>1207.1999511719</ele>
        <time>2014-03-02T07:54:43.000Z</time>
      </trkpt>
      <trkpt lat="45.72741" lon="6.17689">
        <ele>1208.1999511719</ele>
        <time>2014-03-02T07:54:48.000Z</time>
      </trkpt>
      <trkpt lat="45.7274" lon="6.17697">
        <ele>1209.4000244141</ele>
        <time>2014-03-02T07:54:55.000Z</time>
      </trkpt>
      <trkpt lat="45.72739" lon="6.17704">
        <ele>1210.4000244141</ele>
        <time>2014-03-02T07:55:00.000Z</time>
      </trkpt>
      <trkpt lat="45.72739" lon="6.17709">
        <ele>1211</ele>
        <time>2014-03-02T07:55:04.000Z</time>
      </trkpt>
      <trkpt lat="45.72738" lon="6.17715">
        <ele>1211.8000488281</ele>
        <time>2014-03-02T07:55:10.000Z</time>
      </trkpt>
      <trkpt lat="45.72739" lon="6.1772">
        <ele>1212.4000244141</ele>
        <time>2014-03-02T07:55:15.000Z</time>
      </trkpt>
      <trkpt lat="45.72741" lon="6.17721">
        <ele>1212.8000488281</ele>
        <time>2014-03-02T07:55:21.000Z</time>
      </trkpt>
      <trkpt lat="45.72744" lon="6.17718">
        <ele>1212.1999511719</ele>
        <time>2014-03-02T07:55:26.000Z</time>
      </trkpt>
      <trkpt lat="45.72748" lon="6.17712">
        <ele>1211.5999755859</ele>
        <time>2014-03-02T07:55:32.000Z</time>
      </trkpt>
      <trkpt lat="45.7275" lon="6.17705">
        <ele>1210.5999755859</ele>
        <time>2014-03-02T07:55:38.000Z</time>
      </trkpt>
      <trkpt lat="45.72752" lon="6.17701">
        <ele>1210.1999511719</ele>
        <time>2014-03-02T07:55:42.000Z</time>
      </trkpt>
      <trkpt lat="45.72753" lon="6.17696">
        <ele>1209.8000488281</ele>
        <time>2014-03-02T07:55:45.000Z</time>
      </trkpt>
      <trkpt lat="45.72756" lon="6.17689">
        <ele>1209</ele>
        <time>2014-03-02T07:55:51.000Z</time>
      </trkpt>
      <trkpt lat="45.72757" lon="6.17684">
        <ele>1208.5999755859</ele>
        <time>2014-03-02T07:55:56.000Z</time>
      </trkpt>
      <trkpt lat="45.72758" lon="6.17685">
        <ele>1208.8000488281</ele>
        <time>2014-03-02T07:56:03.000Z</time>
      </trkpt>
      <trkpt lat="45.72758" lon="6.17687">
        <ele>1209</ele>
        <time>2014-03-02T07:56:19.000Z</time>
      </trkpt>
      <trkpt lat="45.72755" lon="6.17691">
        <ele>1209.1999511719</ele>
        <time>2014-03-02T07:56:25.000Z</time>
      </trkpt>
      <trkpt lat="45.72755" lon="6.1769">
        <ele>1209</ele>
        <time>2014-03-02T07:56:42.000Z</time>
      </trkpt>
      <trkpt lat="45.72754" lon="6.17695">
        <ele>1209.5999755859</ele>
        <time>2014-03-02T07:57:38.000Z</time>
      </trkpt>
      <trkpt lat="45.72753" lon="6.17692">
        <ele>1209.1999511719</ele>
        <time>2014-03-02T07:57:49.000Z</time>
      </trkpt>
      <trkpt lat="45.72753" lon="6.17693">
        <ele>1209.1999511719</ele>
        <time>2014-03-02T07:58:02.000Z</time>
      </trkpt>
      <trkpt lat="45.72749" lon="6.1769">
        <ele>1208.4000244141</ele>
        <time>2014-03-02T07:58:07.000Z</time>
      </trkpt>
      <trkpt lat="45.72748" lon="6.17688">
        <ele>1208</ele>
        <time>2014-03-02T07:58:08.000Z</time>
      </trkpt>
      <trkpt lat="45.72744" lon="6.17674">
        <ele>1206.1999511719</ele>
        <time>2014-03-02T07:58:14.000Z</time>
      </trkpt>
      <trkpt lat="45.7274" lon="6.17666">
        <ele>1204.8000488281</ele>
        <time>2014-03-02T07:58:18.000Z</time>
      </trkpt>
      <trkpt lat="45.72737" lon="6.17661">
        <ele>1204.1999511719</ele>
        <time>2014-03-02T07:58:22.000Z</time>
      </trkpt>
      <trkpt lat="45.72729" lon="6.17645">
        <ele>1202.1999511719</ele>
        <time>2014-03-02T07:58:32.000Z</time>
      </trkpt>
      <trkpt lat="45.72725" lon="6.17638">
        <ele>1201.4000244141</ele>
        <time>2014-03-02T07:58:38.000Z</time>
      </trkpt>
      <trkpt lat="45.72718" lon="6.17624">
        <ele>1199.8000488281</ele>
        <time>2014-03-02T07:58:43.000Z</time>
      </trkpt>
      <trkpt lat="45.72715" lon="6.17614">
        <ele>1198.8000488281</ele>
        <time>2014-03-02T07:58:46.000Z</time>
      </trkpt>
      <trkpt lat="45.72712" lon="6.17597">
        <ele>1196.8000488281</ele>
        <time>2014-03-02T07:58:52.000Z</time>
      </trkpt>
      <trkpt lat="45.7272" lon="6.17573">
        <ele>1194.1999511719</ele>
        <time>2014-03-02T07:58:59.000Z</time>
      </trkpt>
      <trkpt lat="45.72727" lon="6.17561">
        <ele>1192.8000488281</ele>
        <time>2014-03-02T07:59:03.000Z</time>
      </trkpt>
      <trkpt lat="45.72738" lon="6.17554">
        <ele>1191.5999755859</ele>
        <time>2014-03-02T07:59:07.000Z</time>
      </trkpt>
      <trkpt lat="45.72753" lon="6.17544">
        <ele>1190</ele>
        <time>2014-03-02T07:59:13.000Z</time>
      </trkpt>
      <trkpt lat="45.72765" lon="6.17534">
        <ele>1190.1999511719</ele>
        <time>2014-03-02T07:59:19.000Z</time>
      </trkpt>
      <trkpt lat="45.7277" lon="6.1752">
        <ele>1189.1999511719</ele>
        <time>2014-03-02T07:59:23.000Z</time>
      </trkpt>
      <trkpt lat="45.72769" lon="6.17497">
        <ele>1187.1999511719</ele>
        <time>2014-03-02T07:59:28.000Z</time>
      </trkpt>
      <trkpt lat="45.7277" lon="6.17478">
        <ele>1186.5999755859</ele>
        <time>2014-03-02T07:59:33.000Z</time>
      </trkpt>
      <trkpt lat="45.72775" lon="6.1746">
        <ele>1186.4000244141</ele>
        <time>2014-03-02T07:59:39.000Z</time>
      </trkpt>
      <trkpt lat="45.7278" lon="6.17444">
        <ele>1186.1999511719</ele>
        <time>2014-03-02T07:59:45.000Z</time>
      </trkpt>
      <trkpt lat="45.72781" lon="6.1744">
        <ele>1186</ele>
        <time>2014-03-02T07:59:47.000Z</time>
      </trkpt>
      <trkpt lat="45.72778" lon="6.17436">
        <ele>1185.8000488281</ele>
        <time>2014-03-02T07:59:51.000Z</time>
      </trkpt>
      <trkpt lat="45.72768" lon="6.17438">
        <ele>1185</ele>
        <time>2014-03-02T07:59:57.000Z</time>
      </trkpt>
      <trkpt lat="45.72763" lon="6.17441">
        <ele>1184.8000488281</ele>
        <time>2014-03-02T08:00:02.000Z</time>
      </trkpt>
      <trkpt lat="45.72762" lon="6.17441">
        <ele>1184.8000488281</ele>
        <time>2014-03-02T08:00:11.000Z</time>
      </trkpt>
      <trkpt lat="45.72759" lon="6.17441">
        <ele>1184.5999755859</ele>
        <time>2014-03-02T08:00:21.000Z</time>
      </trkpt>
      <trkpt lat="45.72758" lon="6.17441">
        <ele>1184.4000244141</ele>
        <time>2014-03-02T08:00:35.000Z</time>
      </trkpt>
      <trkpt lat="45.72754" lon="6.17444">
        <ele>1184.1999511719</ele>
        <time>2014-03-02T08:00:38.000Z</time>
      </trkpt>
      <trkpt lat="45.72747" lon="6.1745">
        <ele>1184.8000488281</ele>
        <time>2014-03-02T08:00:44.000Z</time>
      </trkpt>
      <trkpt lat="45.72744" lon="6.17444">
        <ele>1185.1999511719</ele>
        <time>2014-03-02T08:00:49.000Z</time>
      </trkpt>
      <trkpt lat="45.72741" lon="6.17439">
        <ele>1185.5999755859</ele>
        <time>2014-03-02T08:00:56.000Z</time>
      </trkpt>
      <trkpt lat="45.72739" lon="6.1744">
        <ele>1186.1999511719</ele>
        <time>2014-03-02T08:01:01.000Z</time>
      </trkpt>
      <trkpt lat="45.72734" lon="6.17443">
        <ele>1187.1999511719</ele>
        <time>2014-03-02T08:01:05.000Z</time>
      </trkpt>
      <trkpt lat="45.72731" lon="6.17446">
        <ele>1187.8000488281</ele>
        <time>2014-03-02T08:01:12.000Z</time>
      </trkpt>
      <trkpt lat="45.72728" lon="6.17449">
        <ele>1188.1999511719</ele>
        <time>2014-03-02T08:01:14.000Z</time>
      </trkpt>
      <trkpt lat="45.72722" lon="6.17452">
        <ele>1189.5999755859</ele>
        <time>2014-03-02T08:01:19.000Z</time>
      </trkpt>
      <trkpt lat="45.72718" lon="6.17456">
        <ele>1190.1999511719</ele>
        <time>2014-03-02T08:01:23.000Z</time>
      </trkpt>
      <trkpt lat="45.72716" lon="6.17457">
        <ele>1190.5999755859</ele>
        <time>2014-03-02T08:01:26.000Z</time>
      </trkpt>
      <trkpt lat="45.7271" lon="6.17465">
        <ele>1191.5999755859</ele>
        <time>2014-03-02T08:01:34.000Z</time>
      </trkpt>
      <trkpt lat="45.72709" lon="6.1747">
        <ele>1191.8000488281</ele>
        <time>2014-03-02T08:01:40.000Z</time>
      </trkpt>
      <trkpt lat="45.72706" lon="6.17478">
        <ele>1192.1999511719</ele>
        <time>2014-03-02T08:01:47.000Z</time>
      </trkpt>
      <trkpt lat="45.72703" lon="6.17485">
        <ele>1192.4000244141</ele>
        <time>2014-03-02T08:01:52.000Z</time>
      </trkpt>
      <trkpt lat="45.72702" lon="6.17492">
        <ele>1192.5999755859</ele>
        <time>2014-03-02T08:01:57.000Z</time>
      </trkpt>
      <trkpt lat="45.72701" lon="6.17496">
        <ele>1192.5999755859</ele>
        <time>2014-03-02T08:02:00.000Z</time>
      </trkpt>
      <trkpt lat="45.727" lon="6.17498">
        <ele>1192.5999755859</ele>
        <time>2014-03-02T08:02:02.000Z</time>
      </trkpt>
      <trkpt lat="45.72695" lon="6.17503">
        <ele>1193.4000244141</ele>
        <time>2014-03-02T08:02:07.000Z</time>
      </trkpt>
      <trkpt lat="45.72691" lon="6.17507">
        <ele>1194</ele>
        <time>2014-03-02T08:02:11.000Z</time>
      </trkpt>
      <trkpt lat="45.72689" lon="6.17509">
        <ele>1194.4000244141</ele>
        <time>2014-03-02T08:02:14.000Z</time>
      </trkpt>
      <trkpt lat="45.72684" lon="6.17512">
        <ele>1195</ele>
        <time>2014-03-02T08:02:20.000Z</time>
      </trkpt>
      <trkpt lat="45.72681" lon="6.17515">
        <ele>1195.4000244141</ele>
        <time>2014-03-02T08:02:25.000Z</time>
      </trkpt>
      <trkpt lat="45.72676" lon="6.17518">
        <ele>1196.1999511719</ele>
        <time>2014-03-02T08:02:32.000Z</time>
      </trkpt>
      <trkpt lat="45.72672" lon="6.17521">
        <ele>1196.5999755859</ele>
        <time>2014-03-02T08:02:38.000Z</time>
      </trkpt>
      <trkpt lat="45.72667" lon="6.17524">
        <ele>1197.1999511719</ele>
        <time>2014-03-02T08:02:45.000Z</time>
      </trkpt>
      <trkpt lat="45.72662" lon="6.17527">
        <ele>1198.1999511719</ele>
        <time>2014-03-02T08:02:51.000Z</time>
      </trkpt>
      <trkpt lat="45.72658" lon="6.1753">
        <ele>1198.8000488281</ele>
        <time>2014-03-02T08:02:55.000Z</time>
      </trkpt>
      <trkpt lat="45.72655" lon="6.17533">
        <ele>1199.4000244141</ele>
        <time>2014-03-02T08:02:59.000Z</time>
      </trkpt>
      <trkpt lat="45.72651" lon="6.17535">
        <ele>1200.1999511719</ele>
        <time>2014-03-02T08:03:04.000Z</time>
      </trkpt>
      <trkpt lat="45.72646" lon="6.17536">
        <ele>1201</ele>
        <time>2014-03-02T08:03:09.000Z</time>
      </trkpt>
      <trkpt lat="45.72641" lon="6.17539">
        <ele>1202</ele>
        <time>2014-03-02T08:03:15.000Z</time>
      </trkpt>
      <trkpt lat="45.72636" lon="6.17541">
        <ele>1202.8000488281</ele>
        <time>2014-03-02T08:03:20.000Z</time>
      </trkpt>
      <trkpt lat="45.7263" lon="6.17544">
        <ele>1204</ele>
        <time>2014-03-02T08:03:27.000Z</time>
      </trkpt>
      <trkpt lat="45.72625" lon="6.17547">
        <ele>1204.8000488281</ele>
        <time>2014-03-02T08:03:32.000Z</time>
      </trkpt>
      <trkpt lat="45.72621" lon="6.1755">
        <ele>1205.5999755859</ele>
        <time>2014-03-02T08:03:38.000Z</time>
      </trkpt>
      <trkpt lat="45.72616" lon="6.17552">
        <ele>1206.4000244141</ele>
        <time>2014-03-02T08:03:45.000Z</time>
      </trkpt>
      <trkpt lat="45.72612" lon="6.17556">
        <ele>1207.1999511719</ele>
        <time>2014-03-02T08:03:52.000Z</time>
      </trkpt>
      <trkpt lat="45.72606" lon="6.1756">
        <ele>1208</ele>
        <time>2014-03-02T08:04:00.000Z</time>
      </trkpt>
      <trkpt lat="45.72603" lon="6.17562">
        <ele>1208.8000488281</ele>
        <time>2014-03-02T08:04:06.000Z</time>
      </trkpt>
      <trkpt lat="45.72598" lon="6.17564">
        <ele>1209.4000244141</ele>
        <time>2014-03-02T08:04:13.000Z</time>
      </trkpt>
      <trkpt lat="45.72595" lon="6.17567">
        <ele>1210</ele>
        <time>2014-03-02T08:04:19.000Z</time>
      </trkpt>
      <trkpt lat="45.72591" lon="6.17571">
        <ele>1210.8000488281</ele>
        <time>2014-03-02T08:04:24.000Z</time>
      </trkpt>
      <trkpt lat="45.72588" lon="6.17573">
        <ele>1211.1999511719</ele>
        <time>2014-03-02T08:04:28.000Z</time>
      </trkpt>
      <trkpt lat="45.72585" lon="6.17574">
        <ele>1211.8000488281</ele>
        <time>2014-03-02T08:04:33.000Z</time>
      </trkpt>
      <trkpt lat="45.72581" lon="6.17576">
        <ele>1212.5999755859</ele>
        <time>2014-03-02T08:04:39.000Z</time>
      </trkpt>
      <trkpt lat="45.72577" lon="6.17577">
        <ele>1213.4000244141</ele>
        <time>2014-03-02T08:04:46.000Z</time>
      </trkpt>
      <trkpt lat="45.72573" lon="6.17579">
        <ele>1214.1999511719</ele>
        <time>2014-03-02T08:04:52.000Z</time>
      </trkpt>
      <trkpt lat="45.72568" lon="6.17581">
        <ele>1215.1999511719</ele>
        <time>2014-03-02T08:04:59.000Z</time>
      </trkpt>
      <trkpt lat="45.72564" lon="6.17583">
        <ele>1216</ele>
        <time>2014-03-02T08:05:06.000Z</time>
      </trkpt>
      <trkpt lat="45.72559" lon="6.17586">
        <ele>1217</ele>
        <time>2014-03-02T08:05:13.000Z</time>
      </trkpt>
      <trkpt lat="45.72554" lon="6.17588">
        <ele>1218.1999511719</ele>
        <time>2014-03-02T08:05:21.000Z</time>
      </trkpt>
      <trkpt lat="45.72552" lon="6.17589">
        <ele>1218.5999755859</ele>
        <time>2014-03-02T08:05:26.000Z</time>
      </trkpt>
      <trkpt lat="45.72551" lon="6.1759">
        <ele>1218.8000488281</ele>
        <time>2014-03-02T08:05:29.000Z</time>
      </trkpt>
      <trkpt lat="45.72548" lon="6.1759">
        <ele>1219.4000244141</ele>
        <time>2014-03-02T08:05:32.000Z</time>
      </trkpt>
      <trkpt lat="45.72543" lon="6.17592">
        <ele>1220.4000244141</ele>
        <time>2014-03-02T08:05:38.000Z</time>
      </trkpt>
      <trkpt lat="45.72539" lon="6.17594">
        <ele>1221.1999511719</ele>
        <time>2014-03-02T08:05:44.000Z</time>
      </trkpt>
      <trkpt lat="45.72536" lon="6.17595">
        <ele>1221.8000488281</ele>
        <time>2014-03-02T08:05:48.000Z</time>
      </trkpt>
      <trkpt lat="45.72533" lon="6.17597">
        <ele>1222.5999755859</ele>
        <time>2014-03-02T08:05:52.000Z</time>
      </trkpt>
      <trkpt lat="45.72529" lon="6.17598">
        <ele>1223.1999511719</ele>
        <time>2014-03-02T08:05:57.000Z</time>
      </trkpt>
      <trkpt lat="45.72525" lon="6.17601">
        <ele>1224.1999511719</ele>
        <time>2014-03-02T08:06:03.000Z</time>
      </trkpt>
      <trkpt lat="45.7252" lon="6.17604">
        <ele>1225</ele>
        <time>2014-03-02T08:06:09.000Z</time>
      </trkpt>
      <trkpt lat="45.72514" lon="6.17607">
        <ele>1226.4000244141</ele>
        <time>2014-03-02T08:06:18.000Z</time>
      </trkpt>
      <trkpt lat="45.72509" lon="6.17609">
        <ele>1227.4000244141</ele>
        <time>2014-03-02T08:06:25.000Z</time>
      </trkpt>
      <trkpt lat="45.72505" lon="6.17612">
        <ele>1228.1999511719</ele>
        <time>2014-03-02T08:06:30.000Z</time>
      </trkpt>
      <trkpt lat="45.725" lon="6.17616">
        <ele>1229</ele>
        <time>2014-03-02T08:06:36.000Z</time>
      </trkpt>
      <trkpt lat="45.72494" lon="6.17619">
        <ele>1229.8000488281</ele>
        <time>2014-03-02T08:06:42.000Z</time>
      </trkpt>
      <trkpt lat="45.72487" lon="6.17622">
        <ele>1231</ele>
        <time>2014-03-02T08:06:51.000Z</time>
      </trkpt>
      <trkpt lat="45.72481" lon="6.17625">
        <ele>1232</ele>
        <time>2014-03-02T08:06:58.000Z</time>
      </trkpt>
      <trkpt lat="45.72476" lon="6.17627">
        <ele>1232.8000488281</ele>
        <time>2014-03-02T08:07:03.000Z</time>
      </trkpt>
      <trkpt lat="45.7247" lon="6.17629">
        <ele>1233.5999755859</ele>
        <time>2014-03-02T08:07:10.000Z</time>
      </trkpt>
      <trkpt lat="45.72466" lon="6.1763">
        <ele>1234.4000244141</ele>
        <time>2014-03-02T08:07:15.000Z</time>
      </trkpt>
      <trkpt lat="45.72462" lon="6.17632">
        <ele>1235</ele>
        <time>2014-03-02T08:07:19.000Z</time>
      </trkpt>
      <trkpt lat="45.72457" lon="6.17633">
        <ele>1235.8000488281</ele>
        <time>2014-03-02T08:07:24.000Z</time>
      </trkpt>
      <trkpt lat="45.72452" lon="6.17635">
        <ele>1236.5999755859</ele>
        <time>2014-03-02T08:07:29.000Z</time>
      </trkpt>
      <trkpt lat="45.72446" lon="6.17637">
        <ele>1237.5999755859</ele>
        <time>2014-03-02T08:07:35.000Z</time>
      </trkpt>
      <trkpt lat="45.72441" lon="6.17638">
        <ele>1238.5999755859</ele>
        <time>2014-03-02T08:07:41.000Z</time>
      </trkpt>
      <trkpt lat="45.72434" lon="6.1764">
        <ele>1239.5999755859</ele>
        <time>2014-03-02T08:07:48.000Z</time>
      </trkpt>
      <trkpt lat="45.72428" lon="6.17643">
        <ele>1240.5999755859</ele>
        <time>2014-03-02T08:07:54.000Z</time>
      </trkpt>
      <trkpt lat="45.72424" lon="6.17646">
        <ele>1241.4000244141</ele>
        <time>2014-03-02T08:07:59.000Z</time>
      </trkpt>
      <trkpt lat="45.72419" lon="6.17648">
        <ele>1242.1999511719</ele>
        <time>2014-03-02T08:08:04.000Z</time>
      </trkpt>
      <trkpt lat="45.72412" lon="6.1765">
        <ele>1243</ele>
        <time>2014-03-02T08:08:11.000Z</time>
      </trkpt>
      <trkpt lat="45.72408" lon="6.17652">
        <ele>1243.4000244141</ele>
        <time>2014-03-02T08:08:16.000Z</time>
      </trkpt>
      <trkpt lat="45.72402" lon="6.17656">
        <ele>1244</ele>
        <time>2014-03-02T08:08:23.000Z</time>
      </trkpt>
      <trkpt lat="45.72394" lon="6.1766">
        <ele>1244.8000488281</ele>
        <time>2014-03-02T08:08:32.000Z</time>
      </trkpt>
      <trkpt lat="45.72387" lon="6.17663">
        <ele>1245.4000244141</ele>
        <time>2014-03-02T08:08:39.000Z</time>
      </trkpt>
      <trkpt lat="45.72381" lon="6.17665">
        <ele>1246</ele>
        <time>2014-03-02T08:08:45.000Z</time>
      </trkpt>
      <trkpt lat="45.72376" lon="6.17666">
        <ele>1246.4000244141</ele>
        <time>2014-03-02T08:08:50.000Z</time>
      </trkpt>
      <trkpt lat="45.7237" lon="6.1767">
        <ele>1247</ele>
        <time>2014-03-02T08:08:57.000Z</time>
      </trkpt>
      <trkpt lat="45.72364" lon="6.17672">
        <ele>1247.4000244141</ele>
        <time>2014-03-02T08:09:03.000Z</time>
      </trkpt>
      <trkpt lat="45.72362" lon="6.17673">
        <ele>1247.5999755859</ele>
        <time>2014-03-02T08:09:05.000Z</time>
      </trkpt>
      <trkpt lat="45.72355" lon="6.17675">
        <ele>1248.1999511719</ele>
        <time>2014-03-02T08:09:11.000Z</time>
      </trkpt>
      <trkpt lat="45.72353" lon="6.17675">
        <ele>1248.4000244141</ele>
        <time>2014-03-02T08:09:13.000Z</time>
      </trkpt>
      <trkpt lat="45.72345" lon="6.17678">
        <ele>1249.1999511719</ele>
        <time>2014-03-02T08:09:21.000Z</time>
      </trkpt>
      <trkpt lat="45.72341" lon="6.17678">
        <ele>1249.5999755859</ele>
        <time>2014-03-02T08:09:25.000Z</time>
      </trkpt>
      <trkpt lat="45.72336" lon="6.17679">
        <ele>1250</ele>
        <time>2014-03-02T08:09:30.000Z</time>
      </trkpt>
      <trkpt lat="45.7233" lon="6.1768">
        <ele>1250.8000488281</ele>
        <time>2014-03-02T08:09:35.000Z</time>
      </trkpt>
      <trkpt lat="45.72329" lon="6.17681">
        <ele>1251</ele>
        <time>2014-03-02T08:09:36.000Z</time>
      </trkpt>
      <trkpt lat="45.72321" lon="6.17684">
        <ele>1252.8000488281</ele>
        <time>2014-03-02T08:09:45.000Z</time>
      </trkpt>
      <trkpt lat="45.72315" lon="6.17686">
        <ele>1254</ele>
        <time>2014-03-02T08:09:51.000Z</time>
      </trkpt>
      <trkpt lat="45.7231" lon="6.17688">
        <ele>1255.1999511719</ele>
        <time>2014-03-02T08:09:56.000Z</time>
      </trkpt>
      <trkpt lat="45.72304" lon="6.17689">
        <ele>1256.4000244141</ele>
        <time>2014-03-02T08:10:02.000Z</time>
      </trkpt>
      <trkpt lat="45.723" lon="6.17688">
        <ele>1257.1999511719</ele>
        <time>2014-03-02T08:10:07.000Z</time>
      </trkpt>
      <trkpt lat="45.72294" lon="6.17686">
        <ele>1258.4000244141</ele>
        <time>2014-03-02T08:10:13.000Z</time>
      </trkpt>
      <trkpt lat="45.7229" lon="6.17682">
        <ele>1259.4000244141</ele>
        <time>2014-03-02T08:10:19.000Z</time>
      </trkpt>
      <trkpt lat="45.72286" lon="6.17679">
        <ele>1260.1999511719</ele>
        <time>2014-03-02T08:10:24.000Z</time>
      </trkpt>
      <trkpt lat="45.72281" lon="6.17675">
        <ele>1261.1999511719</ele>
        <time>2014-03-02T08:10:30.000Z</time>
      </trkpt>
      <trkpt lat="45.72276" lon="6.17672">
        <ele>1262.1999511719</ele>
        <time>2014-03-02T08:10:37.000Z</time>
      </trkpt>
      <trkpt lat="45.7227" lon="6.17672">
        <ele>1263.5999755859</ele>
        <time>2014-03-02T08:10:44.000Z</time>
      </trkpt>
      <trkpt lat="45.72265" lon="6.17671">
        <ele>1264.5999755859</ele>
        <time>2014-03-02T08:10:50.000Z</time>
      </trkpt>
      <trkpt lat="45.7226" lon="6.17669">
        <ele>1265.8000488281</ele>
        <time>2014-03-02T08:10:56.000Z</time>
      </trkpt>
      <trkpt lat="45.72256" lon="6.17665">
        <ele>1266.8000488281</ele>
        <time>2014-03-02T08:11:02.000Z</time>
      </trkpt>
      <trkpt lat="45.72252" lon="6.17661">
        <ele>1267.5999755859</ele>
        <time>2014-03-02T08:11:08.000Z</time>
      </trkpt>
      <trkpt lat="45.72249" lon="6.17656">
        <ele>1268.5999755859</ele>
        <time>2014-03-02T08:11:14.000Z</time>
      </trkpt>
      <trkpt lat="45.72247" lon="6.17654">
        <ele>1269</ele>
        <time>2014-03-02T08:11:19.000Z</time>
      </trkpt>
      <trkpt lat="45.72243" lon="6.17652">
        <ele>1269.8000488281</ele>
        <time>2014-03-02T08:11:25.000Z</time>
      </trkpt>
      <trkpt lat="45.72238" lon="6.1765">
        <ele>1270.8000488281</ele>
        <time>2014-03-02T08:11:31.000Z</time>
      </trkpt>
      <trkpt lat="45.72234" lon="6.1765">
        <ele>1271.4000244141</ele>
        <time>2014-03-02T08:11:37.000Z</time>
      </trkpt>
      <trkpt lat="45.72231" lon="6.17651">
        <ele>1272</ele>
        <time>2014-03-02T08:11:43.000Z</time>
      </trkpt>
      <trkpt lat="45.72227" lon="6.17651">
        <ele>1272.8000488281</ele>
        <time>2014-03-02T08:11:49.000Z</time>
      </trkpt>
      <trkpt lat="45.72222" lon="6.17651">
        <ele>1273.5999755859</ele>
        <time>2014-03-02T08:11:56.000Z</time>
      </trkpt>
      <trkpt lat="45.72218" lon="6.17651">
        <ele>1274.4000244141</ele>
        <time>2014-03-02T08:12:01.000Z</time>
      </trkpt>
      <trkpt lat="45.72212" lon="6.1765">
        <ele>1275.5999755859</ele>
        <time>2014-03-02T08:12:09.000Z</time>
      </trkpt>
      <trkpt lat="45.72209" lon="6.17648">
        <ele>1276.4000244141</ele>
        <time>2014-03-02T08:12:15.000Z</time>
      </trkpt>
      <trkpt lat="45.72205" lon="6.17646">
        <ele>1277.1999511719</ele>
        <time>2014-03-02T08:12:22.000Z</time>
      </trkpt>
      <trkpt lat="45.72199" lon="6.17645">
        <ele>1278.1999511719</ele>
        <time>2014-03-02T08:12:29.000Z</time>
      </trkpt>
      <trkpt lat="45.72194" lon="6.17644">
        <ele>1279.1999511719</ele>
        <time>2014-03-02T08:12:36.000Z</time>
      </trkpt>
      <trkpt lat="45.7219" lon="6.17644">
        <ele>1280</ele>
        <time>2014-03-02T08:12:41.000Z</time>
      </trkpt>
      <trkpt lat="45.72185" lon="6.17642">
        <ele>1281</ele>
        <time>2014-03-02T08:12:47.000Z</time>
      </trkpt>
      <trkpt lat="45.72181" lon="6.17641">
        <ele>1281.8000488281</ele>
        <time>2014-03-02T08:12:52.000Z</time>
      </trkpt>
      <trkpt lat="45.72176" lon="6.1764">
        <ele>1282.8000488281</ele>
        <time>2014-03-02T08:12:59.000Z</time>
      </trkpt>
      <trkpt lat="45.72171" lon="6.17638">
        <ele>1284</ele>
        <time>2014-03-02T08:13:06.000Z</time>
      </trkpt>
      <trkpt lat="45.72166" lon="6.17636">
        <ele>1285</ele>
        <time>2014-03-02T08:13:12.000Z</time>
      </trkpt>
      <trkpt lat="45.72159" lon="6.17632">
        <ele>1286</ele>
        <time>2014-03-02T08:13:20.000Z</time>
      </trkpt>
      <trkpt lat="45.72153" lon="6.17629">
        <ele>1287</ele>
        <time>2014-03-02T08:13:27.000Z</time>
      </trkpt>
      <trkpt lat="45.72148" lon="6.1763">
        <ele>1287.5999755859</ele>
        <time>2014-03-02T08:13:34.000Z</time>
      </trkpt>
      <trkpt lat="45.72142" lon="6.1763">
        <ele>1288.1999511719</ele>
        <time>2014-03-02T08:13:40.000Z</time>
      </trkpt>
      <trkpt lat="45.72137" lon="6.17631">
        <ele>1288.8000488281</ele>
        <time>2014-03-02T08:13:45.000Z</time>
      </trkpt>
      <trkpt lat="45.72132" lon="6.17635">
        <ele>1289.1999511719</ele>
        <time>2014-03-02T08:13:50.000Z</time>
      </trkpt>
      <trkpt lat="45.72129" lon="6.17635">
        <ele>1289.4000244141</ele>
        <time>2014-03-02T08:13:52.000Z</time>
      </trkpt>
      <trkpt lat="45.72124" lon="6.17636">
        <ele>1289.8000488281</ele>
        <time>2014-03-02T08:13:57.000Z</time>
      </trkpt>
      <trkpt lat="45.72119" lon="6.17638">
        <ele>1290.1999511719</ele>
        <time>2014-03-02T08:14:02.000Z</time>
      </trkpt>
      <trkpt lat="45.72112" lon="6.17638">
        <ele>1291.1999511719</ele>
        <time>2014-03-02T08:14:10.000Z</time>
      </trkpt>
      <trkpt lat="45.72109" lon="6.17638">
        <ele>1291.5999755859</ele>
        <time>2014-03-02T08:14:14.000Z</time>
      </trkpt>
      <trkpt lat="45.72104" lon="6.17639">
        <ele>1292</ele>
        <time>2014-03-02T08:14:19.000Z</time>
      </trkpt>
      <trkpt lat="45.72097" lon="6.17642">
        <ele>1292.4000244141</ele>
        <time>2014-03-02T08:14:28.000Z</time>
      </trkpt>
      <trkpt lat="45.72092" lon="6.17646">
        <ele>1292.4000244141</ele>
        <time>2014-03-02T08:14:32.000Z</time>
      </trkpt>
      <trkpt lat="45.72085" lon="6.17649">
        <ele>1292.5999755859</ele>
        <time>2014-03-02T08:14:36.000Z</time>
      </trkpt>
      <trkpt lat="45.72079" lon="6.17657">
        <ele>1292</ele>
        <time>2014-03-02T08:14:41.000Z</time>
      </trkpt>
      <trkpt lat="45.7207" lon="6.17664">
        <ele>1291.5999755859</ele>
        <time>2014-03-02T08:14:46.000Z</time>
      </trkpt>
      <trkpt lat="45.72062" lon="6.17669">
        <ele>1292</ele>
        <time>2014-03-02T08:14:50.000Z</time>
      </trkpt>
      <trkpt lat="45.72049" lon="6.17672">
        <ele>1293.1999511719</ele>
        <time>2014-03-02T08:14:55.000Z</time>
      </trkpt>
      <trkpt lat="45.72046" lon="6.17672">
        <ele>1293.5999755859</ele>
        <time>2014-03-02T08:14:56.000Z</time>
      </trkpt>
      <trkpt lat="45.72043" lon="6.17676">
        <ele>1293.8000488281</ele>
        <time>2014-03-02T08:14:59.000Z</time>
      </trkpt>
      <trkpt lat="45.72045" lon="6.17681">
        <ele>1293.4000244141</ele>
        <time>2014-03-02T08:15:03.000Z</time>
      </trkpt>
      <trkpt lat="45.72047" lon="6.17687">
        <ele>1293.1999511719</ele>
        <time>2014-03-02T08:15:08.000Z</time>
      </trkpt>
      <trkpt lat="45.72049" lon="6.17691">
        <ele>1293</ele>
        <time>2014-03-02T08:15:14.000Z</time>
      </trkpt>
      <trkpt lat="45.72051" lon="6.17696">
        <ele>1292.8000488281</ele>
        <time>2014-03-02T08:15:18.000Z</time>
      </trkpt>
      <trkpt lat="45.72052" lon="6.177">
        <ele>1292.5999755859</ele>
        <time>2014-03-02T08:15:23.000Z</time>
      </trkpt>
      <trkpt lat="45.72054" lon="6.17703">
        <ele>1292.4000244141</ele>
        <time>2014-03-02T08:15:30.000Z</time>
      </trkpt>
      <trkpt lat="45.72059" lon="6.17708">
        <ele>1291.8000488281</ele>
        <time>2014-03-02T08:15:36.000Z</time>
      </trkpt>
      <trkpt lat="45.72062" lon="6.17713">
        <ele>1291.5999755859</ele>
        <time>2014-03-02T08:15:42.000Z</time>
      </trkpt>
      <trkpt lat="45.72062" lon="6.17719">
        <ele>1291.4000244141</ele>
        <time>2014-03-02T08:15:47.000Z</time>
      </trkpt>
      <trkpt lat="45.72061" lon="6.17723">
        <ele>1291.4000244141</ele>
        <time>2014-03-02T08:15:54.000Z</time>
      </trkpt>
      <trkpt lat="45.72059" lon="6.17728">
        <ele>1291.5999755859</ele>
        <time>2014-03-02T08:16:10.000Z</time>
      </trkpt>
      <trkpt lat="45.72056" lon="6.17731">
        <ele>1291.8000488281</ele>
        <time>2014-03-02T08:16:15.000Z</time>
      </trkpt>
      <trkpt lat="45.72052" lon="6.17736">
        <ele>1292.1999511719</ele>
        <time>2014-03-02T08:16:21.000Z</time>
      </trkpt>
      <trkpt lat="45.72048" lon="6.17742">
        <ele>1292.5999755859</ele>
        <time>2014-03-02T08:16:26.000Z</time>
      </trkpt>
      <trkpt lat="45.72042" lon="6.17747">
        <ele>1293</ele>
        <time>2014-03-02T08:16:35.000Z</time>
      </trkpt>
      <trkpt lat="45.72037" lon="6.17752">
        <ele>1293.5999755859</ele>
        <time>2014-03-02T08:16:43.000Z</time>
      </trkpt>
      <trkpt lat="45.72033" lon="6.17756">
        <ele>1294</ele>
        <time>2014-03-02T08:16:49.000Z</time>
      </trkpt>
      <trkpt lat="45.72031" lon="6.17759">
        <ele>1294.5999755859</ele>
        <time>2014-03-02T08:16:53.000Z</time>
      </trkpt>
      <trkpt lat="45.72028" lon="6.17763">
        <ele>1295</ele>
        <time>2014-03-02T08:16:57.000Z</time>
      </trkpt>
      <trkpt lat="45.72027" lon="6.17765">
        <ele>1295.1999511719</ele>
        <time>2014-03-02T08:17:01.000Z</time>
      </trkpt>
      <trkpt lat="45.72025" lon="6.17766">
        <ele>1295.5999755859</ele>
        <time>2014-03-02T08:17:08.000Z</time>
      </trkpt>
      <trkpt lat="45.7202" lon="6.17769">
        <ele>1296.1999511719</ele>
        <time>2014-03-02T08:17:15.000Z</time>
      </trkpt>
      <trkpt lat="45.72016" lon="6.17772">
        <ele>1296.8000488281</ele>
        <time>2014-03-02T08:17:21.000Z</time>
      </trkpt>
      <trkpt lat="45.72013" lon="6.17775">
        <ele>1297.4000244141</ele>
        <time>2014-03-02T08:17:27.000Z</time>
      </trkpt>
      <trkpt lat="45.72008" lon="6.17779">
        <ele>1298.1999511719</ele>
        <time>2014-03-02T08:17:34.000Z</time>
      </trkpt>
      <trkpt lat="45.72005" lon="6.17783">
        <ele>1298.8000488281</ele>
        <time>2014-03-02T08:17:40.000Z</time>
      </trkpt>
      <trkpt lat="45.72001" lon="6.17787">
        <ele>1299.5999755859</ele>
        <time>2014-03-02T08:17:47.000Z</time>
      </trkpt>
      <trkpt lat="45.71998" lon="6.1779">
        <ele>1300.1999511719</ele>
        <time>2014-03-02T08:17:52.000Z</time>
      </trkpt>
      <trkpt lat="45.71994" lon="6.17794">
        <ele>1301.1999511719</ele>
        <time>2014-03-02T08:17:57.000Z</time>
      </trkpt>
      <trkpt lat="45.71992" lon="6.17798">
        <ele>1301.8000488281</ele>
        <time>2014-03-02T08:18:01.000Z</time>
      </trkpt>
      <trkpt lat="45.71988" lon="6.17801">
        <ele>1302.5999755859</ele>
        <time>2014-03-02T08:18:07.000Z</time>
      </trkpt>
      <trkpt lat="45.71985" lon="6.17804">
        <ele>1303.4000244141</ele>
        <time>2014-03-02T08:18:13.000Z</time>
      </trkpt>
      <trkpt lat="45.71983" lon="6.17806">
        <ele>1303.8000488281</ele>
        <time>2014-03-02T08:18:17.000Z</time>
      </trkpt>
      <trkpt lat="45.71979" lon="6.1781">
        <ele>1304.5999755859</ele>
        <time>2014-03-02T08:18:23.000Z</time>
      </trkpt>
      <trkpt lat="45.71977" lon="6.17812">
        <ele>1305.1999511719</ele>
        <time>2014-03-02T08:18:28.000Z</time>
      </trkpt>
      <trkpt lat="45.71973" lon="6.17815">
        <ele>1306</ele>
        <time>2014-03-02T08:18:34.000Z</time>
      </trkpt>
      <trkpt lat="45.71971" lon="6.17818">
        <ele>1306.5999755859</ele>
        <time>2014-03-02T08:18:38.000Z</time>
      </trkpt>
      <trkpt lat="45.71969" lon="6.17821">
        <ele>1307</ele>
        <time>2014-03-02T08:18:43.000Z</time>
      </trkpt>
      <trkpt lat="45.71966" lon="6.17824">
        <ele>1307.5999755859</ele>
        <time>2014-03-02T08:18:47.000Z</time>
      </trkpt>
      <trkpt lat="45.71964" lon="6.17827">
        <ele>1308.1999511719</ele>
        <time>2014-03-02T08:18:53.000Z</time>
      </trkpt>
      <trkpt lat="45.7196" lon="6.1783">
        <ele>1309</ele>
        <time>2014-03-02T08:18:59.000Z</time>
      </trkpt>
      <trkpt lat="45.71958" lon="6.17833">
        <ele>1309.5999755859</ele>
        <time>2014-03-02T08:19:04.000Z</time>
      </trkpt>
      <trkpt lat="45.71953" lon="6.17838">
        <ele>1311</ele>
        <time>2014-03-02T08:19:11.000Z</time>
      </trkpt>
      <trkpt lat="45.71949" lon="6.17841">
        <ele>1311.8000488281</ele>
        <time>2014-03-02T08:19:16.000Z</time>
      </trkpt>
      <trkpt lat="45.71946" lon="6.17845">
        <ele>1312.8000488281</ele>
        <time>2014-03-02T08:19:20.000Z</time>
      </trkpt>
      <trkpt lat="45.71942" lon="6.17851">
        <ele>1314.4000244141</ele>
        <time>2014-03-02T08:19:29.000Z</time>
      </trkpt>
      <trkpt lat="45.71939" lon="6.17856">
        <ele>1315.4000244141</ele>
        <time>2014-03-02T08:19:34.000Z</time>
      </trkpt>
      <trkpt lat="45.71936" lon="6.17861">
        <ele>1316.5999755859</ele>
        <time>2014-03-02T08:19:38.000Z</time>
      </trkpt>
      <trkpt lat="45.71934" lon="6.17864">
        <ele>1317.1999511719</ele>
        <time>2014-03-02T08:19:42.000Z</time>
      </trkpt>
      <trkpt lat="45.71931" lon="6.1787">
        <ele>1318.4000244141</ele>
        <time>2014-03-02T08:19:48.000Z</time>
      </trkpt>
      <trkpt lat="45.71928" lon="6.17874">
        <ele>1319.4000244141</ele>
        <time>2014-03-02T08:19:54.000Z</time>
      </trkpt>
      <trkpt lat="45.71925" lon="6.17879">
        <ele>1320.5999755859</ele>
        <time>2014-03-02T08:20:00.000Z</time>
      </trkpt>
      <trkpt lat="45.71924" lon="6.1788">
        <ele>1320.8000488281</ele>
        <time>2014-03-02T08:20:03.000Z</time>
      </trkpt>
      <trkpt lat="45.71922" lon="6.17886">
        <ele>1322</ele>
        <time>2014-03-02T08:20:07.000Z</time>
      </trkpt>
      <trkpt lat="45.7192" lon="6.17888">
        <ele>1322.5999755859</ele>
        <time>2014-03-02T08:20:13.000Z</time>
      </trkpt>
      <trkpt lat="45.71917" lon="6.17893">
        <ele>1323.8000488281</ele>
        <time>2014-03-02T08:20:20.000Z</time>
      </trkpt>
      <trkpt lat="45.71915" lon="6.17899">
        <ele>1325</ele>
        <time>2014-03-02T08:20:28.000Z</time>
      </trkpt>
      <trkpt lat="45.71912" lon="6.17902">
        <ele>1325.8000488281</ele>
        <time>2014-03-02T08:20:33.000Z</time>
      </trkpt>
      <trkpt lat="45.7191" lon="6.17907">
        <ele>1326.8000488281</ele>
        <time>2014-03-02T08:20:39.000Z</time>
      </trkpt>
      <trkpt lat="45.71909" lon="6.1791">
        <ele>1327.4000244141</ele>
        <time>2014-03-02T08:20:44.000Z</time>
      </trkpt>
      <trkpt lat="45.71908" lon="6.17913">
        <ele>1328</ele>
        <time>2014-03-02T08:20:47.000Z</time>
      </trkpt>
      <trkpt lat="45.71907" lon="6.17917">
        <ele>1328.5999755859</ele>
        <time>2014-03-02T08:20:51.000Z</time>
      </trkpt>
      <trkpt lat="45.71908" lon="6.17922">
        <ele>1329.4000244141</ele>
        <time>2014-03-02T08:20:57.000Z</time>
      </trkpt>
      <trkpt lat="45.71908" lon="6.17926">
        <ele>1329.8000488281</ele>
        <time>2014-03-02T08:21:01.000Z</time>
      </trkpt>
      <trkpt lat="45.71907" lon="6.17934">
        <ele>1331.1999511719</ele>
        <time>2014-03-02T08:21:08.000Z</time>
      </trkpt>
      <trkpt lat="45.71906" lon="6.17937">
        <ele>1331.8000488281</ele>
        <time>2014-03-02T08:21:13.000Z</time>
      </trkpt>
      <trkpt lat="45.71904" lon="6.17941">
        <ele>1332.8000488281</ele>
        <time>2014-03-02T08:21:18.000Z</time>
      </trkpt>
      <trkpt lat="45.71902" lon="6.17944">
        <ele>1333.5999755859</ele>
        <time>2014-03-02T08:21:23.000Z</time>
      </trkpt>
      <trkpt lat="45.71899" lon="6.17946">
        <ele>1334.4000244141</ele>
        <time>2014-03-02T08:21:28.000Z</time>
      </trkpt>
      <trkpt lat="45.71897" lon="6.1795">
        <ele>1335.4000244141</ele>
        <time>2014-03-02T08:21:34.000Z</time>
      </trkpt>
      <trkpt lat="45.71893" lon="6.17954">
        <ele>1336.4000244141</ele>
        <time>2014-03-02T08:21:41.000Z</time>
      </trkpt>
      <trkpt lat="45.71892" lon="6.17956">
        <ele>1337.1999511719</ele>
        <time>2014-03-02T08:21:45.000Z</time>
      </trkpt>
      <trkpt lat="45.7189" lon="6.17959">
        <ele>1337.8000488281</ele>
        <time>2014-03-02T08:21:50.000Z</time>
      </trkpt>
      <trkpt lat="45.71887" lon="6.17962">
        <ele>1339</ele>
        <time>2014-03-02T08:21:56.000Z</time>
      </trkpt>
      <trkpt lat="45.71884" lon="6.17965">
        <ele>1340</ele>
        <time>2014-03-02T08:22:01.000Z</time>
      </trkpt>
      <trkpt lat="45.7188" lon="6.17968">
        <ele>1341.1999511719</ele>
        <time>2014-03-02T08:22:08.000Z</time>
      </trkpt>
      <trkpt lat="45.71877" lon="6.17973">
        <ele>1342.4000244141</ele>
        <time>2014-03-02T08:22:15.000Z</time>
      </trkpt>
      <trkpt lat="45.71873" lon="6.17977">
        <ele>1343.5999755859</ele>
        <time>2014-03-02T08:22:21.000Z</time>
      </trkpt>
      <trkpt lat="45.7187" lon="6.17981">
        <ele>1345</ele>
        <time>2014-03-02T08:22:28.000Z</time>
      </trkpt>
      <trkpt lat="45.71867" lon="6.17985">
        <ele>1346.1999511719</ele>
        <time>2014-03-02T08:22:34.000Z</time>
      </trkpt>
      <trkpt lat="45.71864" lon="6.1799">
        <ele>1347.5999755859</ele>
        <time>2014-03-02T08:22:40.000Z</time>
      </trkpt>
      <trkpt lat="45.7186" lon="6.17996">
        <ele>1349</ele>
        <time>2014-03-02T08:22:47.000Z</time>
      </trkpt>
      <trkpt lat="45.71857" lon="6.18001">
        <ele>1350.5999755859</ele>
        <time>2014-03-02T08:22:54.000Z</time>
      </trkpt>
      <trkpt lat="45.71854" lon="6.18006">
        <ele>1352.1999511719</ele>
        <time>2014-03-02T08:23:01.000Z</time>
      </trkpt>
      <trkpt lat="45.71851" lon="6.18011">
        <ele>1353.5999755859</ele>
        <time>2014-03-02T08:23:08.000Z</time>
      </trkpt>
      <trkpt lat="45.71847" lon="6.18016">
        <ele>1355.4000244141</ele>
        <time>2014-03-02T08:23:15.000Z</time>
      </trkpt>
      <trkpt lat="45.71844" lon="6.18021">
        <ele>1357</ele>
        <time>2014-03-02T08:23:22.000Z</time>
      </trkpt>
      <trkpt lat="45.71842" lon="6.18025">
        <ele>1358.1999511719</ele>
        <time>2014-03-02T08:23:28.000Z</time>
      </trkpt>
      <trkpt lat="45.71839" lon="6.1803">
        <ele>1359.4000244141</ele>
        <time>2014-03-02T08:23:34.000Z</time>
      </trkpt>
      <trkpt lat="45.71836" lon="6.18036">
        <ele>1361.1999511719</ele>
        <time>2014-03-02T08:23:42.000Z</time>
      </trkpt>
      <trkpt lat="45.71834" lon="6.18039">
        <ele>1362.4000244141</ele>
        <time>2014-03-02T08:23:47.000Z</time>
      </trkpt>
      <trkpt lat="45.71832" lon="6.18043">
        <ele>1363.4000244141</ele>
        <time>2014-03-02T08:23:52.000Z</time>
      </trkpt>
      <trkpt lat="45.7183" lon="6.18047">
        <ele>1364.4000244141</ele>
        <time>2014-03-02T08:23:58.000Z</time>
      </trkpt>
      <trkpt lat="45.71828" lon="6.18052">
        <ele>1365.5999755859</ele>
        <time>2014-03-02T08:24:04.000Z</time>
      </trkpt>
      <trkpt lat="45.71826" lon="6.18056">
        <ele>1366.5999755859</ele>
        <time>2014-03-02T08:24:10.000Z</time>
      </trkpt>
      <trkpt lat="45.71824" lon="6.18062">
        <ele>1368</ele>
        <time>2014-03-02T08:24:16.000Z</time>
      </trkpt>
      <trkpt lat="45.71821" lon="6.18067">
        <ele>1369.1999511719</ele>
        <time>2014-03-02T08:24:23.000Z</time>
      </trkpt>
      <trkpt lat="45.71819" lon="6.18072">
        <ele>1370.4000244141</ele>
        <time>2014-03-02T08:24:29.000Z</time>
      </trkpt>
      <trkpt lat="45.71817" lon="6.18076">
        <ele>1371.4000244141</ele>
        <time>2014-03-02T08:24:34.000Z</time>
      </trkpt>
      <trkpt lat="45.71815" lon="6.18081">
        <ele>1372.8000488281</ele>
        <time>2014-03-02T08:24:40.000Z</time>
      </trkpt>
      <trkpt lat="45.71813" lon="6.18086">
        <ele>1373.8000488281</ele>
        <time>2014-03-02T08:24:46.000Z</time>
      </trkpt>
      <trkpt lat="45.71811" lon="6.18091">
        <ele>1374.5999755859</ele>
        <time>2014-03-02T08:24:52.000Z</time>
      </trkpt>
      <trkpt lat="45.71808" lon="6.18097">
        <ele>1375.5999755859</ele>
        <time>2014-03-02T08:24:59.000Z</time>
      </trkpt>
      <trkpt lat="45.71807" lon="6.181">
        <ele>1376.1999511719</ele>
        <time>2014-03-02T08:25:04.000Z</time>
      </trkpt>
      <trkpt lat="45.71806" lon="6.18105">
        <ele>1377</ele>
        <time>2014-03-02T08:25:10.000Z</time>
      </trkpt>
      <trkpt lat="45.71804" lon="6.1811">
        <ele>1377.8000488281</ele>
        <time>2014-03-02T08:25:16.000Z</time>
      </trkpt>
      <trkpt lat="45.71802" lon="6.18115">
        <ele>1378.5999755859</ele>
        <time>2014-03-02T08:25:21.000Z</time>
      </trkpt>
      <trkpt lat="45.718" lon="6.18119">
        <ele>1379.5999755859</ele>
        <time>2014-03-02T08:25:27.000Z</time>
      </trkpt>
      <trkpt lat="45.71799" lon="6.18123">
        <ele>1380</ele>
        <time>2014-03-02T08:25:33.000Z</time>
      </trkpt>
      <trkpt lat="45.71799" lon="6.18126">
        <ele>1380.5999755859</ele>
        <time>2014-03-02T08:25:38.000Z</time>
      </trkpt>
      <trkpt lat="45.718" lon="6.18132">
        <ele>1381.1999511719</ele>
        <time>2014-03-02T08:25:44.000Z</time>
      </trkpt>
      <trkpt lat="45.71798" lon="6.18138">
        <ele>1382.1999511719</ele>
        <time>2014-03-02T08:25:51.000Z</time>
      </trkpt>
      <trkpt lat="45.71796" lon="6.18143">
        <ele>1383.1999511719</ele>
        <time>2014-03-02T08:25:58.000Z</time>
      </trkpt>
      <trkpt lat="45.71793" lon="6.18148">
        <ele>1384.4000244141</ele>
        <time>2014-03-02T08:26:05.000Z</time>
      </trkpt>
      <trkpt lat="45.71791" lon="6.18154">
        <ele>1385.5999755859</ele>
        <time>2014-03-02T08:26:12.000Z</time>
      </trkpt>
      <trkpt lat="45.71789" lon="6.18159">
        <ele>1386.4000244141</ele>
        <time>2014-03-02T08:26:18.000Z</time>
      </trkpt>
      <trkpt lat="45.71785" lon="6.18154">
        <ele>1386.5999755859</ele>
        <time>2014-03-02T08:26:22.000Z</time>
      </trkpt>
      <trkpt lat="45.71784" lon="6.18152">
        <ele>1386.4000244141</ele>
        <time>2014-03-02T08:26:23.000Z</time>
      </trkpt>
      <trkpt lat="45.71782" lon="6.18148">
        <ele>1386.4000244141</ele>
        <time>2014-03-02T08:26:30.000Z</time>
      </trkpt>
      <trkpt lat="45.71779" lon="6.18152">
        <ele>1387.4000244141</ele>
        <time>2014-03-02T08:26:37.000Z</time>
      </trkpt>
      <trkpt lat="45.71777" lon="6.18156">
        <ele>1388.1999511719</ele>
        <time>2014-03-02T08:26:42.000Z</time>
      </trkpt>
      <trkpt lat="45.71778" lon="6.1816">
        <ele>1388.8000488281</ele>
        <time>2014-03-02T08:26:46.000Z</time>
      </trkpt>
      <trkpt lat="45.71777" lon="6.18164">
        <ele>1389.4000244141</ele>
        <time>2014-03-02T08:26:52.000Z</time>
      </trkpt>
      <trkpt lat="45.71777" lon="6.18168">
        <ele>1390</ele>
        <time>2014-03-02T08:26:57.000Z</time>
      </trkpt>
      <trkpt lat="45.71776" lon="6.18175">
        <ele>1391.5999755859</ele>
        <time>2014-03-02T08:27:06.000Z</time>
      </trkpt>
      <trkpt lat="45.71775" lon="6.18179">
        <ele>1392.5999755859</ele>
        <time>2014-03-02T08:27:12.000Z</time>
      </trkpt>
      <trkpt lat="45.71773" lon="6.18185">
        <ele>1394.4000244141</ele>
        <time>2014-03-02T08:27:20.000Z</time>
      </trkpt>
      <trkpt lat="45.71772" lon="6.1819">
        <ele>1395.5999755859</ele>
        <time>2014-03-02T08:27:26.000Z</time>
      </trkpt>
      <trkpt lat="45.71771" lon="6.18197">
        <ele>1397.1999511719</ele>
        <time>2014-03-02T08:27:34.000Z</time>
      </trkpt>
      <trkpt lat="45.7177" lon="6.18205">
        <ele>1399.1999511719</ele>
        <time>2014-03-02T08:27:42.000Z</time>
      </trkpt>
      <trkpt lat="45.71769" lon="6.18212">
        <ele>1400.8000488281</ele>
        <time>2014-03-02T08:27:49.000Z</time>
      </trkpt>
      <trkpt lat="45.71768" lon="6.18218">
        <ele>1402.1999511719</ele>
        <time>2014-03-02T08:27:55.000Z</time>
      </trkpt>
      <trkpt lat="45.71768" lon="6.18225">
        <ele>1403.5999755859</ele>
        <time>2014-03-02T08:28:02.000Z</time>
      </trkpt>
      <trkpt lat="45.71768" lon="6.18229">
        <ele>1404.4000244141</ele>
        <time>2014-03-02T08:28:07.000Z</time>
      </trkpt>
      <trkpt lat="45.71769" lon="6.18234">
        <ele>1405.4000244141</ele>
        <time>2014-03-02T08:28:13.000Z</time>
      </trkpt>
      <trkpt lat="45.71769" lon="6.18241">
        <ele>1406.5999755859</ele>
        <time>2014-03-02T08:28:20.000Z</time>
      </trkpt>
      <trkpt lat="45.7177" lon="6.18247">
        <ele>1407.5999755859</ele>
        <time>2014-03-02T08:28:26.000Z</time>
      </trkpt>
      <trkpt lat="45.71769" lon="6.18253">
        <ele>1409.1999511719</ele>
        <time>2014-03-02T08:28:33.000Z</time>
      </trkpt>
      <trkpt lat="45.7177" lon="6.18259">
        <ele>1410.5999755859</ele>
        <time>2014-03-02T08:28:39.000Z</time>
      </trkpt>
      <trkpt lat="45.7177" lon="6.18266">
        <ele>1412.1999511719</ele>
        <time>2014-03-02T08:28:47.000Z</time>
      </trkpt>
      <trkpt lat="45.71771" lon="6.18271">
        <ele>1413.1999511719</ele>
        <time>2014-03-02T08:28:53.000Z</time>
      </trkpt>
      <trkpt lat="45.71771" lon="6.18274">
        <ele>1414</ele>
        <time>2014-03-02T08:28:57.000Z</time>
      </trkpt>
      <trkpt lat="45.71771" lon="6.1828">
        <ele>1415.4000244141</ele>
        <time>2014-03-02T08:29:03.000Z</time>
      </trkpt>
      <trkpt lat="45.71772" lon="6.18285">
        <ele>1416.4000244141</ele>
        <time>2014-03-02T08:29:09.000Z</time>
      </trkpt>
      <trkpt lat="45.71774" lon="6.18291">
        <ele>1417.4000244141</ele>
        <time>2014-03-02T08:29:17.000Z</time>
      </trkpt>
      <trkpt lat="45.71775" lon="6.18297">
        <ele>1418.5999755859</ele>
        <time>2014-03-02T08:29:24.000Z</time>
      </trkpt>
      <trkpt lat="45.71775" lon="6.18304">
        <ele>1420.1999511719</ele>
        <time>2014-03-02T08:29:31.000Z</time>
      </trkpt>
      <trkpt lat="45.71775" lon="6.18308">
        <ele>1421.4000244141</ele>
        <time>2014-03-02T08:29:37.000Z</time>
      </trkpt>
      <trkpt lat="45.71771" lon="6.18306">
        <ele>1422</ele>
        <time>2014-03-02T08:29:41.000Z</time>
      </trkpt>
      <trkpt lat="45.71769" lon="6.18304">
        <ele>1422.4000244141</ele>
        <time>2014-03-02T08:29:45.000Z</time>
      </trkpt>
      <trkpt lat="45.71765" lon="6.18302">
        <ele>1423</ele>
        <time>2014-03-02T08:29:50.000Z</time>
      </trkpt>
      <trkpt lat="45.71761" lon="6.183">
        <ele>1423.5999755859</ele>
        <time>2014-03-02T08:29:56.000Z</time>
      </trkpt>
      <trkpt lat="45.71758" lon="6.18298">
        <ele>1424.1999511719</ele>
        <time>2014-03-02T08:30:01.000Z</time>
      </trkpt>
      <trkpt lat="45.71754" lon="6.18296">
        <ele>1424.5999755859</ele>
        <time>2014-03-02T08:30:07.000Z</time>
      </trkpt>
      <trkpt lat="45.71752" lon="6.18295">
        <ele>1425.1999511719</ele>
        <time>2014-03-02T08:30:11.000Z</time>
      </trkpt>
      <trkpt lat="45.7175" lon="6.18294">
        <ele>1425.5999755859</ele>
        <time>2014-03-02T08:30:15.000Z</time>
      </trkpt>
      <trkpt lat="45.71747" lon="6.18293">
        <ele>1426</ele>
        <time>2014-03-02T08:30:20.000Z</time>
      </trkpt>
      <trkpt lat="45.71743" lon="6.18294">
        <ele>1427</ele>
        <time>2014-03-02T08:30:26.000Z</time>
      </trkpt>
      <trkpt lat="45.7174" lon="6.18295">
        <ele>1427.8000488281</ele>
        <time>2014-03-02T08:30:31.000Z</time>
      </trkpt>
      <trkpt lat="45.71737" lon="6.18296">
        <ele>1428.8000488281</ele>
        <time>2014-03-02T08:30:36.000Z</time>
      </trkpt>
      <trkpt lat="45.71733" lon="6.18298">
        <ele>1430</ele>
        <time>2014-03-02T08:30:43.000Z</time>
      </trkpt>
      <trkpt lat="45.71732" lon="6.183">
        <ele>1430.8000488281</ele>
        <time>2014-03-02T08:30:48.000Z</time>
      </trkpt>
      <trkpt lat="45.71733" lon="6.18301">
        <ele>1431</ele>
        <time>2014-03-02T08:30:52.000Z</time>
      </trkpt>
      <trkpt lat="45.71735" lon="6.18306">
        <ele>1431.8000488281</ele>
        <time>2014-03-02T08:30:57.000Z</time>
      </trkpt>
      <trkpt lat="45.71737" lon="6.1831">
        <ele>1432.5999755859</ele>
        <time>2014-03-02T08:31:02.000Z</time>
      </trkpt>
      <trkpt lat="45.7174" lon="6.18314">
        <ele>1433</ele>
        <time>2014-03-02T08:31:08.000Z</time>
      </trkpt>
      <trkpt lat="45.71741" lon="6.18319">
        <ele>1434</ele>
        <time>2014-03-02T08:31:13.000Z</time>
      </trkpt>
      <trkpt lat="45.71743" lon="6.18324">
        <ele>1435</ele>
        <time>2014-03-02T08:31:20.000Z</time>
      </trkpt>
      <trkpt lat="45.71744" lon="6.18329">
        <ele>1436.1999511719</ele>
        <time>2014-03-02T08:31:27.000Z</time>
      </trkpt>
      <trkpt lat="45.71746" lon="6.18333">
        <ele>1436.8000488281</ele>
        <time>2014-03-02T08:31:32.000Z</time>
      </trkpt>
      <trkpt lat="45.71747" lon="6.18337">
        <ele>1437.5999755859</ele>
        <time>2014-03-02T08:31:38.000Z</time>
      </trkpt>
      <trkpt lat="45.71748" lon="6.18343">
        <ele>1439</ele>
        <time>2014-03-02T08:31:44.000Z</time>
      </trkpt>
      <trkpt lat="45.71749" lon="6.18346">
        <ele>1439.5999755859</ele>
        <time>2014-03-02T08:31:48.000Z</time>
      </trkpt>
      <trkpt lat="45.71749" lon="6.18352">
        <ele>1441.1999511719</ele>
        <time>2014-03-02T08:31:55.000Z</time>
      </trkpt>
      <trkpt lat="45.71749" lon="6.18358">
        <ele>1442.5999755859</ele>
        <time>2014-03-02T08:32:01.000Z</time>
      </trkpt>
      <trkpt lat="45.7175" lon="6.18362">
        <ele>1443.5999755859</ele>
        <time>2014-03-02T08:32:07.000Z</time>
      </trkpt>
      <trkpt lat="45.7175" lon="6.18368">
        <ele>1445.4000244141</ele>
        <time>2014-03-02T08:32:14.000Z</time>
      </trkpt>
      <trkpt lat="45.71749" lon="6.18375">
        <ele>1447.1999511719</ele>
        <time>2014-03-02T08:32:21.000Z</time>
      </trkpt>
      <trkpt lat="45.71747" lon="6.18381">
        <ele>1449.1999511719</ele>
        <time>2014-03-02T08:32:29.000Z</time>
      </trkpt>
      <trkpt lat="45.71746" lon="6.18381">
        <ele>1449.8000488281</ele>
        <time>2014-03-02T08:32:36.000Z</time>
      </trkpt>
      <trkpt lat="45.71745" lon="6.18378">
        <ele>1449</ele>
        <time>2014-03-02T08:32:40.000Z</time>
      </trkpt>
      <trkpt lat="45.71743" lon="6.18373">
        <ele>1448.1999511719</ele>
        <time>2014-03-02T08:32:45.000Z</time>
      </trkpt>
      <trkpt lat="45.7174" lon="6.1837">
        <ele>1448.1999511719</ele>
        <time>2014-03-02T08:32:51.000Z</time>
      </trkpt>
      <trkpt lat="45.71736" lon="6.18369">
        <ele>1448.8000488281</ele>
        <time>2014-03-02T08:32:56.000Z</time>
      </trkpt>
      <trkpt lat="45.71732" lon="6.18368">
        <ele>1449.4000244141</ele>
        <time>2014-03-02T08:33:01.000Z</time>
      </trkpt>
      <trkpt lat="45.71728" lon="6.18368">
        <ele>1450.5999755859</ele>
        <time>2014-03-02T08:33:07.000Z</time>
      </trkpt>
      <trkpt lat="45.71724" lon="6.1837">
        <ele>1452</ele>
        <time>2014-03-02T08:33:13.000Z</time>
      </trkpt>
      <trkpt lat="45.71722" lon="6.18372">
        <ele>1453</ele>
        <time>2014-03-02T08:33:17.000Z</time>
      </trkpt>
      <trkpt lat="45.7172" lon="6.18374">
        <ele>1454</ele>
        <time>2014-03-02T08:33:20.000Z</time>
      </trkpt>
      <trkpt lat="45.7172" lon="6.18376">
        <ele>1454.8000488281</ele>
        <time>2014-03-02T08:33:25.000Z</time>
      </trkpt>
      <trkpt lat="45.71719" lon="6.1838">
        <ele>1455.8000488281</ele>
        <time>2014-03-02T08:33:30.000Z</time>
      </trkpt>
      <trkpt lat="45.7172" lon="6.18386">
        <ele>1457.4000244141</ele>
        <time>2014-03-02T08:33:36.000Z</time>
      </trkpt>
      <trkpt lat="45.71722" lon="6.18391">
        <ele>1458.4000244141</ele>
        <time>2014-03-02T08:33:42.000Z</time>
      </trkpt>
      <trkpt lat="45.71722" lon="6.18396">
        <ele>1459.8000488281</ele>
        <time>2014-03-02T08:33:47.000Z</time>
      </trkpt>
      <trkpt lat="45.71721" lon="6.18401">
        <ele>1461.4000244141</ele>
        <time>2014-03-02T08:33:53.000Z</time>
      </trkpt>
      <trkpt lat="45.71721" lon="6.18404">
        <ele>1462.1999511719</ele>
        <time>2014-03-02T08:33:57.000Z</time>
      </trkpt>
      <trkpt lat="45.7172" lon="6.18406">
        <ele>1463.4000244141</ele>
        <time>2014-03-02T08:34:02.000Z</time>
      </trkpt>
      <trkpt lat="45.71717" lon="6.18406">
        <ele>1464</ele>
        <time>2014-03-02T08:34:06.000Z</time>
      </trkpt>
      <trkpt lat="45.71714" lon="6.18408">
        <ele>1465.4000244141</ele>
        <time>2014-03-02T08:34:11.000Z</time>
      </trkpt>
      <trkpt lat="45.7171" lon="6.18408">
        <ele>1466.1999511719</ele>
        <time>2014-03-02T08:34:16.000Z</time>
      </trkpt>
      <trkpt lat="45.71707" lon="6.18408">
        <ele>1467.1999511719</ele>
        <time>2014-03-02T08:34:22.000Z</time>
      </trkpt>
      <trkpt lat="45.71705" lon="6.18409">
        <ele>1468</ele>
        <time>2014-03-02T08:34:26.000Z</time>
      </trkpt>
      <trkpt lat="45.71703" lon="6.18409">
        <ele>1468.5999755859</ele>
        <time>2014-03-02T08:34:30.000Z</time>
      </trkpt>
      <trkpt lat="45.71699" lon="6.18411">
        <ele>1470.1999511719</ele>
        <time>2014-03-02T08:34:36.000Z</time>
      </trkpt>
      <trkpt lat="45.71697" lon="6.18413">
        <ele>1471.4000244141</ele>
        <time>2014-03-02T08:34:41.000Z</time>
      </trkpt>
      <trkpt lat="45.71695" lon="6.18416">
        <ele>1473</ele>
        <time>2014-03-02T08:34:48.000Z</time>
      </trkpt>
      <trkpt lat="45.71696" lon="6.1842">
        <ele>1473.5999755859</ele>
        <time>2014-03-02T08:34:53.000Z</time>
      </trkpt>
      <trkpt lat="45.71697" lon="6.18423">
        <ele>1474</ele>
        <time>2014-03-02T08:34:58.000Z</time>
      </trkpt>
      <trkpt lat="45.71699" lon="6.18428">
        <ele>1474.4000244141</ele>
        <time>2014-03-02T08:35:04.000Z</time>
      </trkpt>
      <trkpt lat="45.71699" lon="6.18429">
        <ele>1474.5999755859</ele>
        <time>2014-03-02T08:35:09.000Z</time>
      </trkpt>
      <trkpt lat="45.717" lon="6.18431">
        <ele>1474.8000488281</ele>
        <time>2014-03-02T08:35:17.000Z</time>
      </trkpt>
      <trkpt lat="45.71702" lon="6.18435">
        <ele>1475.1999511719</ele>
        <time>2014-03-02T08:35:22.000Z</time>
      </trkpt>
      <trkpt lat="45.71703" lon="6.1844">
        <ele>1476</ele>
        <time>2014-03-02T08:35:29.000Z</time>
      </trkpt>
      <trkpt lat="45.71703" lon="6.18444">
        <ele>1477</ele>
        <time>2014-03-02T08:35:34.000Z</time>
      </trkpt>
      <trkpt lat="45.71704" lon="6.1845">
        <ele>1478</ele>
        <time>2014-03-02T08:35:41.000Z</time>
      </trkpt>
      <trkpt lat="45.71704" lon="6.18453">
        <ele>1478.5999755859</ele>
        <time>2014-03-02T08:35:48.000Z</time>
      </trkpt>
      <trkpt lat="45.71704" lon="6.18461">
        <ele>1480.1999511719</ele>
        <time>2014-03-02T08:35:55.000Z</time>
      </trkpt>
      <trkpt lat="45.71702" lon="6.18462">
        <ele>1481.1999511719</ele>
        <time>2014-03-02T08:36:00.000Z</time>
      </trkpt>
      <trkpt lat="45.71699" lon="6.1846">
        <ele>1481.5999755859</ele>
        <time>2014-03-02T08:36:04.000Z</time>
      </trkpt>
      <trkpt lat="45.71697" lon="6.18458">
        <ele>1481.8000488281</ele>
        <time>2014-03-02T08:36:08.000Z</time>
      </trkpt>
      <trkpt lat="45.71693" lon="6.18458">
        <ele>1483</ele>
        <time>2014-03-02T08:36:15.000Z</time>
      </trkpt>
      <trkpt lat="45.7169" lon="6.18458">
        <ele>1483.8000488281</ele>
        <time>2014-03-02T08:36:21.000Z</time>
      </trkpt>
      <trkpt lat="45.71689" lon="6.18459">
        <ele>1484.4000244141</ele>
        <time>2014-03-02T08:36:30.000Z</time>
      </trkpt>
      <trkpt lat="45.71686" lon="6.1846">
        <ele>1485.4000244141</ele>
        <time>2014-03-02T08:36:35.000Z</time>
      </trkpt>
      <trkpt lat="45.71683" lon="6.18462">
        <ele>1486.5999755859</ele>
        <time>2014-03-02T08:36:40.000Z</time>
      </trkpt>
      <trkpt lat="45.7168" lon="6.18464">
        <ele>1488</ele>
        <time>2014-03-02T08:36:46.000Z</time>
      </trkpt>
      <trkpt lat="45.71675" lon="6.18468">
        <ele>1490.1999511719</ele>
        <time>2014-03-02T08:36:53.000Z</time>
      </trkpt>
      <trkpt lat="45.71672" lon="6.18471">
        <ele>1491.8000488281</ele>
        <time>2014-03-02T08:36:59.000Z</time>
      </trkpt>
      <trkpt lat="45.7167" lon="6.18474">
        <ele>1493.1999511719</ele>
        <time>2014-03-02T08:37:02.000Z</time>
      </trkpt>
      <trkpt lat="45.71666" lon="6.18477">
        <ele>1494.8000488281</ele>
        <time>2014-03-02T08:37:08.000Z</time>
      </trkpt>
      <trkpt lat="45.71663" lon="6.18479">
        <ele>1496</ele>
        <time>2014-03-02T08:37:13.000Z</time>
      </trkpt>
      <trkpt lat="45.7166" lon="6.18479">
        <ele>1496.4000244141</ele>
        <time>2014-03-02T08:37:16.000Z</time>
      </trkpt>
      <trkpt lat="45.71658" lon="6.18478">
        <ele>1496.5999755859</ele>
        <time>2014-03-02T08:37:20.000Z</time>
      </trkpt>
      <trkpt lat="45.71655" lon="6.18476">
        <ele>1496.5999755859</ele>
        <time>2014-03-02T08:37:25.000Z</time>
      </trkpt>
      <trkpt lat="45.71652" lon="6.18476">
        <ele>1497</ele>
        <time>2014-03-02T08:37:31.000Z</time>
      </trkpt>
      <trkpt lat="45.71649" lon="6.18477">
        <ele>1497.8000488281</ele>
        <time>2014-03-02T08:37:37.000Z</time>
      </trkpt>
      <trkpt lat="45.71646" lon="6.18479">
        <ele>1499</ele>
        <time>2014-03-02T08:37:43.000Z</time>
      </trkpt>
      <trkpt lat="45.71643" lon="6.1848">
        <ele>1500</ele>
        <time>2014-03-02T08:37:49.000Z</time>
      </trkpt>
      <trkpt lat="45.7164" lon="6.18483">
        <ele>1501.1999511719</ele>
        <time>2014-03-02T08:37:54.000Z</time>
      </trkpt>
      <trkpt lat="45.71638" lon="6.18486">
        <ele>1502.1999511719</ele>
        <time>2014-03-02T08:37:58.000Z</time>
      </trkpt>
      <trkpt lat="45.71635" lon="6.18489">
        <ele>1503.5999755859</ele>
        <time>2014-03-02T08:38:05.000Z</time>
      </trkpt>
      <trkpt lat="45.71632" lon="6.18491">
        <ele>1504.8000488281</ele>
        <time>2014-03-02T08:38:10.000Z</time>
      </trkpt>
      <trkpt lat="45.7163" lon="6.18493">
        <ele>1505.8000488281</ele>
        <time>2014-03-02T08:38:15.000Z</time>
      </trkpt>
      <trkpt lat="45.71629" lon="6.18496">
        <ele>1506.5999755859</ele>
        <time>2014-03-02T08:38:18.000Z</time>
      </trkpt>
      <trkpt lat="45.71627" lon="6.18497">
        <ele>1507.4000244141</ele>
        <time>2014-03-02T08:38:23.000Z</time>
      </trkpt>
      <trkpt lat="45.71624" lon="6.18498">
        <ele>1508.1999511719</ele>
        <time>2014-03-02T08:38:30.000Z</time>
      </trkpt>
      <trkpt lat="45.71622" lon="6.18499">
        <ele>1508.8000488281</ele>
        <time>2014-03-02T08:38:36.000Z</time>
      </trkpt>
      <trkpt lat="45.7162" lon="6.185">
        <ele>1509.5999755859</ele>
        <time>2014-03-02T08:38:41.000Z</time>
      </trkpt>
      <trkpt lat="45.71617" lon="6.18501">
        <ele>1510.4000244141</ele>
        <time>2014-03-02T08:38:46.000Z</time>
      </trkpt>
      <trkpt lat="45.71615" lon="6.18501">
        <ele>1511</ele>
        <time>2014-03-02T08:38:51.000Z</time>
      </trkpt>
      <trkpt lat="45.71612" lon="6.18502">
        <ele>1512</ele>
        <time>2014-03-02T08:38:57.000Z</time>
      </trkpt>
      <trkpt lat="45.7161" lon="6.18503">
        <ele>1513</ele>
        <time>2014-03-02T08:39:02.000Z</time>
      </trkpt>
      <trkpt lat="45.71606" lon="6.18505">
        <ele>1514.1999511719</ele>
        <time>2014-03-02T08:39:08.000Z</time>
      </trkpt>
      <trkpt lat="45.71602" lon="6.18507">
        <ele>1516.1999511719</ele>
        <time>2014-03-02T08:39:14.000Z</time>
      </trkpt>
      <trkpt lat="45.71599" lon="6.18508">
        <ele>1517.1999511719</ele>
        <time>2014-03-02T08:39:19.000Z</time>
      </trkpt>
      <trkpt lat="45.71595" lon="6.1851">
        <ele>1518.5999755859</ele>
        <time>2014-03-02T08:39:25.000Z</time>
      </trkpt>
      <trkpt lat="45.71591" lon="6.18512">
        <ele>1520.5999755859</ele>
        <time>2014-03-02T08:39:33.000Z</time>
      </trkpt>
      <trkpt lat="45.71588" lon="6.18513">
        <ele>1521.5999755859</ele>
        <time>2014-03-02T08:39:38.000Z</time>
      </trkpt>
      <trkpt lat="45.71585" lon="6.18513">
        <ele>1522.4000244141</ele>
        <time>2014-03-02T08:39:44.000Z</time>
      </trkpt>
      <trkpt lat="45.71586" lon="6.18514">
        <ele>1522.8000488281</ele>
        <time>2014-03-02T08:39:48.000Z</time>
      </trkpt>
      <trkpt lat="45.71588" lon="6.18517">
        <ele>1523.5999755859</ele>
        <time>2014-03-02T08:39:52.000Z</time>
      </trkpt>
      <trkpt lat="45.71592" lon="6.18521">
        <ele>1524.5999755859</ele>
        <time>2014-03-02T08:39:58.000Z</time>
      </trkpt>
      <trkpt lat="45.71594" lon="6.18524">
        <ele>1525.4000244141</ele>
        <time>2014-03-02T08:40:03.000Z</time>
      </trkpt>
      <trkpt lat="45.71597" lon="6.18529">
        <ele>1526.5999755859</ele>
        <time>2014-03-02T08:40:12.000Z</time>
      </trkpt>
      <trkpt lat="45.716" lon="6.18533">
        <ele>1528</ele>
        <time>2014-03-02T08:40:18.000Z</time>
      </trkpt>
      <trkpt lat="45.71601" lon="6.18537">
        <ele>1529.4000244141</ele>
        <time>2014-03-02T08:40:23.000Z</time>
      </trkpt>
      <trkpt lat="45.71602" lon="6.18541">
        <ele>1530.4000244141</ele>
        <time>2014-03-02T08:40:28.000Z</time>
      </trkpt>
      <trkpt lat="45.71599" lon="6.1854">
        <ele>1530.8000488281</ele>
        <time>2014-03-02T08:40:35.000Z</time>
      </trkpt>
      <trkpt lat="45.71597" lon="6.18539">
        <ele>1531.1999511719</ele>
        <time>2014-03-02T08:40:36.000Z</time>
      </trkpt>
      <trkpt lat="45.71591" lon="6.18539">
        <ele>1532.1999511719</ele>
        <time>2014-03-02T08:40:41.000Z</time>
      </trkpt>
      <trkpt lat="45.71589" lon="6.1854">
        <ele>1533.1999511719</ele>
        <time>2014-03-02T08:40:44.000Z</time>
      </trkpt>
      <trkpt lat="45.71587" lon="6.18541">
        <ele>1534.1999511719</ele>
        <time>2014-03-02T08:40:49.000Z</time>
      </trkpt>
      <trkpt lat="45.71584" lon="6.1854">
        <ele>1534.5999755859</ele>
        <time>2014-03-02T08:40:54.000Z</time>
      </trkpt>
      <trkpt lat="45.71581" lon="6.18539">
        <ele>1534.5999755859</ele>
        <time>2014-03-02T08:40:57.000Z</time>
      </trkpt>
      <trkpt lat="45.71578" lon="6.18539">
        <ele>1535.5999755859</ele>
        <time>2014-03-02T08:41:03.000Z</time>
      </trkpt>
      <trkpt lat="45.71573" lon="6.18539">
        <ele>1536.8000488281</ele>
        <time>2014-03-02T08:41:11.000Z</time>
      </trkpt>
      <trkpt lat="45.71571" lon="6.1854">
        <ele>1537.5999755859</ele>
        <time>2014-03-02T08:41:16.000Z</time>
      </trkpt>
      <trkpt lat="45.71569" lon="6.1854">
        <ele>1538.1999511719</ele>
        <time>2014-03-02T08:41:20.000Z</time>
      </trkpt>
      <trkpt lat="45.71567" lon="6.18542">
        <ele>1539.4000244141</ele>
        <time>2014-03-02T08:41:23.000Z</time>
      </trkpt>
      <trkpt lat="45.71561" lon="6.18542">
        <ele>1541.1999511719</ele>
        <time>2014-03-02T08:41:29.000Z</time>
      </trkpt>
      <trkpt lat="45.71557" lon="6.18542">
        <ele>1542</ele>
        <time>2014-03-02T08:41:32.000Z</time>
      </trkpt>
      <trkpt lat="45.71554" lon="6.18541">
        <ele>1542.4000244141</ele>
        <time>2014-03-02T08:41:37.000Z</time>
      </trkpt>
      <trkpt lat="45.71551" lon="6.18541">
        <ele>1543</ele>
        <time>2014-03-02T08:41:40.000Z</time>
      </trkpt>
      <trkpt lat="45.71549" lon="6.18539">
        <ele>1542.8000488281</ele>
        <time>2014-03-02T08:41:44.000Z</time>
      </trkpt>
      <trkpt lat="45.71546" lon="6.1854">
        <ele>1544</ele>
        <time>2014-03-02T08:41:49.000Z</time>
      </trkpt>
      <trkpt lat="45.71542" lon="6.1854">
        <ele>1545.1999511719</ele>
        <time>2014-03-02T08:41:54.000Z</time>
      </trkpt>
      <trkpt lat="45.71539" lon="6.18542">
        <ele>1546.4000244141</ele>
        <time>2014-03-02T08:41:58.000Z</time>
      </trkpt>
      <trkpt lat="45.7154" lon="6.18542">
        <ele>1546.4000244141</ele>
        <time>2014-03-02T08:42:01.000Z</time>
      </trkpt>
      <trkpt lat="45.71539" lon="6.18542">
        <ele>1546.5999755859</ele>
        <time>2014-03-02T08:42:04.000Z</time>
      </trkpt>
      <trkpt lat="45.71536" lon="6.18542">
        <ele>1547.4000244141</ele>
        <time>2014-03-02T08:42:09.000Z</time>
      </trkpt>
      <trkpt lat="45.71534" lon="6.18544">
        <ele>1548.5999755859</ele>
        <time>2014-03-02T08:42:14.000Z</time>
      </trkpt>
      <trkpt lat="45.7153" lon="6.18545">
        <ele>1549.8000488281</ele>
        <time>2014-03-02T08:42:19.000Z</time>
      </trkpt>
      <trkpt lat="45.71526" lon="6.18545">
        <ele>1550.8000488281</ele>
        <time>2014-03-02T08:42:23.000Z</time>
      </trkpt>
      <trkpt lat="45.71524" lon="6.18547">
        <ele>1552.1999511719</ele>
        <time>2014-03-02T08:42:29.000Z</time>
      </trkpt>
      <trkpt lat="45.71522" lon="6.18547">
        <ele>1552.5999755859</ele>
        <time>2014-03-02T08:42:35.000Z</time>
      </trkpt>
      <trkpt lat="45.7152" lon="6.18549">
        <ele>1553.5999755859</ele>
        <time>2014-03-02T08:42:39.000Z</time>
      </trkpt>
      <trkpt lat="45.71518" lon="6.18551">
        <ele>1555</ele>
        <time>2014-03-02T08:42:44.000Z</time>
      </trkpt>
      <trkpt lat="45.71514" lon="6.18554">
        <ele>1556.8000488281</ele>
        <time>2014-03-02T08:42:50.000Z</time>
      </trkpt>
      <trkpt lat="45.71512" lon="6.18556">
        <ele>1558</ele>
        <time>2014-03-02T08:42:54.000Z</time>
      </trkpt>
      <trkpt lat="45.71513" lon="6.18559">
        <ele>1558.8000488281</ele>
        <time>2014-03-02T08:42:58.000Z</time>
      </trkpt>
      <trkpt lat="45.71515" lon="6.18561">
        <ele>1559.4000244141</ele>
        <time>2014-03-02T08:43:02.000Z</time>
      </trkpt>
      <trkpt lat="45.71517" lon="6.18565">
        <ele>1560</ele>
        <time>2014-03-02T08:43:07.000Z</time>
      </trkpt>
      <trkpt lat="45.71519" lon="6.18568">
        <ele>1561</ele>
        <time>2014-03-02T08:43:13.000Z</time>
      </trkpt>
      <trkpt lat="45.71521" lon="6.18573">
        <ele>1562.1999511719</ele>
        <time>2014-03-02T08:43:20.000Z</time>
      </trkpt>
      <trkpt lat="45.71522" lon="6.18577">
        <ele>1563.1999511719</ele>
        <time>2014-03-02T08:43:25.000Z</time>
      </trkpt>
      <trkpt lat="45.71524" lon="6.1858">
        <ele>1564</ele>
        <time>2014-03-02T08:43:31.000Z</time>
      </trkpt>
      <trkpt lat="45.71526" lon="6.18582">
        <ele>1564.4000244141</ele>
        <time>2014-03-02T08:43:35.000Z</time>
      </trkpt>
      <trkpt lat="45.71528" lon="6.18584">
        <ele>1564.8000488281</ele>
        <time>2014-03-02T08:43:39.000Z</time>
      </trkpt>
      <trkpt lat="45.71529" lon="6.18586">
        <ele>1565.5999755859</ele>
        <time>2014-03-02T08:43:43.000Z</time>
      </trkpt>
      <trkpt lat="45.71531" lon="6.18588">
        <ele>1566</ele>
        <time>2014-03-02T08:43:49.000Z</time>
      </trkpt>
      <trkpt lat="45.71534" lon="6.18593">
        <ele>1567.5999755859</ele>
        <time>2014-03-02T08:43:55.000Z</time>
      </trkpt>
      <trkpt lat="45.71537" lon="6.18597">
        <ele>1569</ele>
        <time>2014-03-02T08:44:02.000Z</time>
      </trkpt>
      <trkpt lat="45.71539" lon="6.18601">
        <ele>1570</ele>
        <time>2014-03-02T08:44:08.000Z</time>
      </trkpt>
      <trkpt lat="45.71541" lon="6.18604">
        <ele>1571</ele>
        <time>2014-03-02T08:44:13.000Z</time>
      </trkpt>
      <trkpt lat="45.71543" lon="6.18609">
        <ele>1572.5999755859</ele>
        <time>2014-03-02T08:44:20.000Z</time>
      </trkpt>
      <trkpt lat="45.71543" lon="6.18608">
        <ele>1572.1999511719</ele>
        <time>2014-03-02T08:44:23.000Z</time>
      </trkpt>
      <trkpt lat="45.7154" lon="6.18608">
        <ele>1572.8000488281</ele>
        <time>2014-03-02T08:44:28.000Z</time>
      </trkpt>
      <trkpt lat="45.71537" lon="6.18608">
        <ele>1573.5999755859</ele>
        <time>2014-03-02T08:44:32.000Z</time>
      </trkpt>
      <trkpt lat="45.71533" lon="6.18608">
        <ele>1574</ele>
        <time>2014-03-02T08:44:37.000Z</time>
      </trkpt>
      <trkpt lat="45.71529" lon="6.18608">
        <ele>1575</ele>
        <time>2014-03-02T08:44:41.000Z</time>
      </trkpt>
      <trkpt lat="45.71525" lon="6.18608">
        <ele>1575.8000488281</ele>
        <time>2014-03-02T08:44:46.000Z</time>
      </trkpt>
      <trkpt lat="45.71521" lon="6.18607">
        <ele>1576.4000244141</ele>
        <time>2014-03-02T08:44:51.000Z</time>
      </trkpt>
      <trkpt lat="45.71517" lon="6.18607">
        <ele>1577</ele>
        <time>2014-03-02T08:44:54.000Z</time>
      </trkpt>
      <trkpt lat="45.71515" lon="6.18607">
        <ele>1577.5999755859</ele>
        <time>2014-03-02T08:44:58.000Z</time>
      </trkpt>
      <trkpt lat="45.71511" lon="6.18608">
        <ele>1579</ele>
        <time>2014-03-02T08:45:04.000Z</time>
      </trkpt>
      <trkpt lat="45.71507" lon="6.18609">
        <ele>1580.1999511719</ele>
        <time>2014-03-02T08:45:10.000Z</time>
      </trkpt>
      <trkpt lat="45.71504" lon="6.1861">
        <ele>1581.1999511719</ele>
        <time>2014-03-02T08:45:14.000Z</time>
      </trkpt>
      <trkpt lat="45.715" lon="6.18612">
        <ele>1582.5999755859</ele>
        <time>2014-03-02T08:45:19.000Z</time>
      </trkpt>
      <trkpt lat="45.71497" lon="6.18614">
        <ele>1584</ele>
        <time>2014-03-02T08:45:25.000Z</time>
      </trkpt>
      <trkpt lat="45.71494" lon="6.18614">
        <ele>1584.5999755859</ele>
        <time>2014-03-02T08:45:30.000Z</time>
      </trkpt>
      <trkpt lat="45.71491" lon="6.18613">
        <ele>1585</ele>
        <time>2014-03-02T08:45:35.000Z</time>
      </trkpt>
      <trkpt lat="45.71487" lon="6.18614">
        <ele>1586</ele>
        <time>2014-03-02T08:45:39.000Z</time>
      </trkpt>
      <trkpt lat="45.71485" lon="6.18615">
        <ele>1587</ele>
        <time>2014-03-02T08:45:44.000Z</time>
      </trkpt>
      <trkpt lat="45.71479" lon="6.18617">
        <ele>1588.8000488281</ele>
        <time>2014-03-02T08:45:52.000Z</time>
      </trkpt>
      <trkpt lat="45.71475" lon="6.18617">
        <ele>1589.5999755859</ele>
        <time>2014-03-02T08:45:59.000Z</time>
      </trkpt>
      <trkpt lat="45.71473" lon="6.18618">
        <ele>1590</ele>
        <time>2014-03-02T08:46:09.000Z</time>
      </trkpt>
      <trkpt lat="45.7147" lon="6.18619">
        <ele>1591.1999511719</ele>
        <time>2014-03-02T08:46:14.000Z</time>
      </trkpt>
      <trkpt lat="45.71466" lon="6.1862">
        <ele>1592.1999511719</ele>
        <time>2014-03-02T08:46:20.000Z</time>
      </trkpt>
      <trkpt lat="45.71464" lon="6.18621">
        <ele>1593</ele>
        <time>2014-03-02T08:46:24.000Z</time>
      </trkpt>
      <trkpt lat="45.71462" lon="6.18621">
        <ele>1593.4000244141</ele>
        <time>2014-03-02T08:46:27.000Z</time>
      </trkpt>
      <trkpt lat="45.71458" lon="6.18621">
        <ele>1594.1999511719</ele>
        <time>2014-03-02T08:46:32.000Z</time>
      </trkpt>
      <trkpt lat="45.71455" lon="6.18621">
        <ele>1594.5999755859</ele>
        <time>2014-03-02T08:46:37.000Z</time>
      </trkpt>
      <trkpt lat="45.71451" lon="6.1862">
        <ele>1595.1999511719</ele>
        <time>2014-03-02T08:46:43.000Z</time>
      </trkpt>
      <trkpt lat="45.71448" lon="6.1862">
        <ele>1595.5999755859</ele>
        <time>2014-03-02T08:46:48.000Z</time>
      </trkpt>
      <trkpt lat="45.71444" lon="6.18621">
        <ele>1596.5999755859</ele>
        <time>2014-03-02T08:46:53.000Z</time>
      </trkpt>
      <trkpt lat="45.71441" lon="6.18622">
        <ele>1597.4000244141</ele>
        <time>2014-03-02T08:46:58.000Z</time>
      </trkpt>
      <trkpt lat="45.71437" lon="6.18623">
        <ele>1598.5999755859</ele>
        <time>2014-03-02T08:47:03.000Z</time>
      </trkpt>
      <trkpt lat="45.71433" lon="6.18624">
        <ele>1599.5999755859</ele>
        <time>2014-03-02T08:47:09.000Z</time>
      </trkpt>
      <trkpt lat="45.7143" lon="6.18623">
        <ele>1600</ele>
        <time>2014-03-02T08:47:12.000Z</time>
      </trkpt>
      <trkpt lat="45.71426" lon="6.18622">
        <ele>1600.1999511719</ele>
        <time>2014-03-02T08:47:19.000Z</time>
      </trkpt>
      <trkpt lat="45.71424" lon="6.18623">
        <ele>1601</ele>
        <time>2014-03-02T08:47:24.000Z</time>
      </trkpt>
      <trkpt lat="45.71422" lon="6.18624">
        <ele>1601.8000488281</ele>
        <time>2014-03-02T08:47:28.000Z</time>
      </trkpt>
      <trkpt lat="45.7142" lon="6.18625">
        <ele>1602.4000244141</ele>
        <time>2014-03-02T08:47:33.000Z</time>
      </trkpt>
      <trkpt lat="45.71416" lon="6.18625">
        <ele>1603</ele>
        <time>2014-03-02T08:47:38.000Z</time>
      </trkpt>
      <trkpt lat="45.71413" lon="6.18625">
        <ele>1603.4000244141</ele>
        <time>2014-03-02T08:47:43.000Z</time>
      </trkpt>
      <trkpt lat="45.71412" lon="6.18627">
        <ele>1604.1999511719</ele>
        <time>2014-03-02T08:47:47.000Z</time>
      </trkpt>
      <trkpt lat="45.71408" lon="6.18628">
        <ele>1604.8000488281</ele>
        <time>2014-03-02T08:47:54.000Z</time>
      </trkpt>
      <trkpt lat="45.71404" lon="6.18629">
        <ele>1605.5999755859</ele>
        <time>2014-03-02T08:48:01.000Z</time>
      </trkpt>
      <trkpt lat="45.71401" lon="6.1863">
        <ele>1606.4000244141</ele>
        <time>2014-03-02T08:48:05.000Z</time>
      </trkpt>
      <trkpt lat="45.71401" lon="6.18631">
        <ele>1606.8000488281</ele>
        <time>2014-03-02T08:48:09.000Z</time>
      </trkpt>
      <trkpt lat="45.71404" lon="6.18633">
        <ele>1607.4000244141</ele>
        <time>2014-03-02T08:48:15.000Z</time>
      </trkpt>
      <trkpt lat="45.71407" lon="6.18636">
        <ele>1608.1999511719</ele>
        <time>2014-03-02T08:48:20.000Z</time>
      </trkpt>
      <trkpt lat="45.71411" lon="6.18639">
        <ele>1608.8000488281</ele>
        <time>2014-03-02T08:48:25.000Z</time>
      </trkpt>
      <trkpt lat="45.71414" lon="6.18641">
        <ele>1609.4000244141</ele>
        <time>2014-03-02T08:48:30.000Z</time>
      </trkpt>
      <trkpt lat="45.71417" lon="6.18644">
        <ele>1610.1999511719</ele>
        <time>2014-03-02T08:48:36.000Z</time>
      </trkpt>
      <trkpt lat="45.71421" lon="6.18647">
        <ele>1610.5999755859</ele>
        <time>2014-03-02T08:48:43.000Z</time>
      </trkpt>
      <trkpt lat="45.7142" lon="6.18649">
        <ele>1611.8000488281</ele>
        <time>2014-03-02T08:48:47.000Z</time>
      </trkpt>
      <trkpt lat="45.71417" lon="6.18648">
        <ele>1611.8000488281</ele>
        <time>2014-03-02T08:48:52.000Z</time>
      </trkpt>
      <trkpt lat="45.71414" lon="6.18648">
        <ele>1612.1999511719</ele>
        <time>2014-03-02T08:48:57.000Z</time>
      </trkpt>
      <trkpt lat="45.71412" lon="6.18651">
        <ele>1613.4000244141</ele>
        <time>2014-03-02T08:49:01.000Z</time>
      </trkpt>
      <trkpt lat="45.7141" lon="6.18652">
        <ele>1614.1999511719</ele>
        <time>2014-03-02T08:49:06.000Z</time>
      </trkpt>
      <trkpt lat="45.71408" lon="6.18654">
        <ele>1614.8000488281</ele>
        <time>2014-03-02T08:49:10.000Z</time>
      </trkpt>
      <trkpt lat="45.71407" lon="6.18655">
        <ele>1615.4000244141</ele>
        <time>2014-03-02T08:49:13.000Z</time>
      </trkpt>
      <trkpt lat="45.71404" lon="6.18657">
        <ele>1616.5999755859</ele>
        <time>2014-03-02T08:49:19.000Z</time>
      </trkpt>
      <trkpt lat="45.71402" lon="6.1866">
        <ele>1617.8000488281</ele>
        <time>2014-03-02T08:49:23.000Z</time>
      </trkpt>
      <trkpt lat="45.71399" lon="6.18661">
        <ele>1618.4000244141</ele>
        <time>2014-03-02T08:49:27.000Z</time>
      </trkpt>
      <trkpt lat="45.71396" lon="6.1866">
        <ele>1618.4000244141</ele>
        <time>2014-03-02T08:49:32.000Z</time>
      </trkpt>
      <trkpt lat="45.71394" lon="6.18661">
        <ele>1619</ele>
        <time>2014-03-02T08:49:36.000Z</time>
      </trkpt>
      <trkpt lat="45.7139" lon="6.18661">
        <ele>1619.4000244141</ele>
        <time>2014-03-02T08:49:41.000Z</time>
      </trkpt>
      <trkpt lat="45.71387" lon="6.18661">
        <ele>1619.5999755859</ele>
        <time>2014-03-02T08:49:45.000Z</time>
      </trkpt>
      <trkpt lat="45.71384" lon="6.18663">
        <ele>1620.5999755859</ele>
        <time>2014-03-02T08:49:50.000Z</time>
      </trkpt>
      <trkpt lat="45.71382" lon="6.18664">
        <ele>1621.1999511719</ele>
        <time>2014-03-02T08:49:54.000Z</time>
      </trkpt>
      <trkpt lat="45.71379" lon="6.18666">
        <ele>1622.1999511719</ele>
        <time>2014-03-02T08:49:59.000Z</time>
      </trkpt>
      <trkpt lat="45.71378" lon="6.18667">
        <ele>1622.8000488281</ele>
        <time>2014-03-02T08:50:03.000Z</time>
      </trkpt>
      <trkpt lat="45.7138" lon="6.18668">
        <ele>1623</ele>
        <time>2014-03-02T08:50:07.000Z</time>
      </trkpt>
      <trkpt lat="45.71384" lon="6.18671">
        <ele>1624</ele>
        <time>2014-03-02T08:50:15.000Z</time>
      </trkpt>
      <trkpt lat="45.71382" lon="6.18668">
        <ele>1622.8000488281</ele>
        <time>2014-03-02T08:50:23.000Z</time>
      </trkpt>
      <trkpt lat="45.71383" lon="6.18667">
        <ele>1622.4000244141</ele>
        <time>2014-03-02T08:50:31.000Z</time>
      </trkpt>
      <trkpt lat="45.71383" lon="6.18667">
        <ele>1622.4000244141</ele>
        <time>2014-03-02T08:50:46.000Z</time>
      </trkpt>
      <trkpt lat="45.71384" lon="6.18666">
        <ele>1622</ele>
        <time>2014-03-02T08:50:55.000Z</time>
      </trkpt>
      <trkpt lat="45.71384" lon="6.18665">
        <ele>1621.4000244141</ele>
        <time>2014-03-02T08:51:09.000Z</time>
      </trkpt>
      <trkpt lat="45.71384" lon="6.18665">
        <ele>1621.5999755859</ele>
        <time>2014-03-02T08:51:23.000Z</time>
      </trkpt>
      <trkpt lat="45.71388" lon="6.18669">
        <ele>1622.8000488281</ele>
        <time>2014-03-02T08:51:31.000Z</time>
      </trkpt>
      <trkpt lat="45.71393" lon="6.18675">
        <ele>1625</ele>
        <time>2014-03-02T08:51:41.000Z</time>
      </trkpt>
      <trkpt lat="45.71396" lon="6.18679">
        <ele>1626.5999755859</ele>
        <time>2014-03-02T08:51:49.000Z</time>
      </trkpt>
      <trkpt lat="45.71397" lon="6.18682">
        <ele>1627.8000488281</ele>
        <time>2014-03-02T08:52:02.000Z</time>
      </trkpt>
      <trkpt lat="45.71401" lon="6.18687">
        <ele>1629.5999755859</ele>
        <time>2014-03-02T08:52:10.000Z</time>
      </trkpt>
      <trkpt lat="45.71405" lon="6.18693">
        <ele>1631.4000244141</ele>
        <time>2014-03-02T08:52:18.000Z</time>
      </trkpt>
      <trkpt lat="45.71408" lon="6.187">
        <ele>1634.1999511719</ele>
        <time>2014-03-02T08:52:27.000Z</time>
      </trkpt>
      <trkpt lat="45.71411" lon="6.18705">
        <ele>1635.8000488281</ele>
        <time>2014-03-02T08:52:33.000Z</time>
      </trkpt>
      <trkpt lat="45.71415" lon="6.18709">
        <ele>1637</ele>
        <time>2014-03-02T08:52:38.000Z</time>
      </trkpt>
      <trkpt lat="45.71418" lon="6.18713">
        <ele>1638.1999511719</ele>
        <time>2014-03-02T08:52:45.000Z</time>
      </trkpt>
      <trkpt lat="45.71421" lon="6.18718">
        <ele>1639.8000488281</ele>
        <time>2014-03-02T08:52:50.000Z</time>
      </trkpt>
      <trkpt lat="45.71423" lon="6.18723">
        <ele>1641.5999755859</ele>
        <time>2014-03-02T08:52:57.000Z</time>
      </trkpt>
      <trkpt lat="45.71424" lon="6.18726">
        <ele>1642.5999755859</ele>
        <time>2014-03-02T08:53:01.000Z</time>
      </trkpt>
      <trkpt lat="45.71425" lon="6.18729">
        <ele>1643.4000244141</ele>
        <time>2014-03-02T08:53:05.000Z</time>
      </trkpt>
      <trkpt lat="45.71427" lon="6.18731">
        <ele>1644.1999511719</ele>
        <time>2014-03-02T08:53:09.000Z</time>
      </trkpt>
      <trkpt lat="45.71425" lon="6.18733">
        <ele>1645.1999511719</ele>
        <time>2014-03-02T08:53:13.000Z</time>
      </trkpt>
      <trkpt lat="45.71423" lon="6.18732">
        <ele>1645.1999511719</ele>
        <time>2014-03-02T08:53:17.000Z</time>
      </trkpt>
      <trkpt lat="45.7142" lon="6.18732">
        <ele>1646</ele>
        <time>2014-03-02T08:53:23.000Z</time>
      </trkpt>
      <trkpt lat="45.71417" lon="6.18732">
        <ele>1646.5999755859</ele>
        <time>2014-03-02T08:53:28.000Z</time>
      </trkpt>
      <trkpt lat="45.71412" lon="6.18732">
        <ele>1647.4000244141</ele>
        <time>2014-03-02T08:53:34.000Z</time>
      </trkpt>
      <trkpt lat="45.71408" lon="6.18733">
        <ele>1648.4000244141</ele>
        <time>2014-03-02T08:53:40.000Z</time>
      </trkpt>
      <trkpt lat="45.71404" lon="6.18733">
        <ele>1649</ele>
        <time>2014-03-02T08:53:45.000Z</time>
      </trkpt>
      <trkpt lat="45.714" lon="6.18733">
        <ele>1649.8000488281</ele>
        <time>2014-03-02T08:53:51.000Z</time>
      </trkpt>
      <trkpt lat="45.71396" lon="6.18733">
        <ele>1650.4000244141</ele>
        <time>2014-03-02T08:53:57.000Z</time>
      </trkpt>
      <trkpt lat="45.71393" lon="6.18734">
        <ele>1651.5999755859</ele>
        <time>2014-03-02T08:54:02.000Z</time>
      </trkpt>
      <trkpt lat="45.7139" lon="6.18736">
        <ele>1652.5999755859</ele>
        <time>2014-03-02T08:54:07.000Z</time>
      </trkpt>
      <trkpt lat="45.71389" lon="6.18735">
        <ele>1652.8000488281</ele>
        <time>2014-03-02T08:54:12.000Z</time>
      </trkpt>
      <trkpt lat="45.71389" lon="6.18736">
        <ele>1653</ele>
        <time>2014-03-02T08:54:16.000Z</time>
      </trkpt>
      <trkpt lat="45.71392" lon="6.18739">
        <ele>1653.8000488281</ele>
        <time>2014-03-02T08:54:21.000Z</time>
      </trkpt>
      <trkpt lat="45.71395" lon="6.18742">
        <ele>1654.5999755859</ele>
        <time>2014-03-02T08:54:26.000Z</time>
      </trkpt>
      <trkpt lat="45.71397" lon="6.18745">
        <ele>1655.4000244141</ele>
        <time>2014-03-02T08:54:31.000Z</time>
      </trkpt>
      <trkpt lat="45.714" lon="6.18749">
        <ele>1656.8000488281</ele>
        <time>2014-03-02T08:54:37.000Z</time>
      </trkpt>
      <trkpt lat="45.71402" lon="6.18753">
        <ele>1658.4000244141</ele>
        <time>2014-03-02T08:54:43.000Z</time>
      </trkpt>
      <trkpt lat="45.71405" lon="6.18757">
        <ele>1659.8000488281</ele>
        <time>2014-03-02T08:54:48.000Z</time>
      </trkpt>
      <trkpt lat="45.71408" lon="6.1876">
        <ele>1661.1999511719</ele>
        <time>2014-03-02T08:54:54.000Z</time>
      </trkpt>
      <trkpt lat="45.7141" lon="6.18765">
        <ele>1663</ele>
        <time>2014-03-02T08:55:01.000Z</time>
      </trkpt>
      <trkpt lat="45.71407" lon="6.18765">
        <ele>1663.8000488281</ele>
        <time>2014-03-02T08:55:06.000Z</time>
      </trkpt>
      <trkpt lat="45.71402" lon="6.18765">
        <ele>1664.5999755859</ele>
        <time>2014-03-02T08:55:12.000Z</time>
      </trkpt>
      <trkpt lat="45.71399" lon="6.18765">
        <ele>1665.5999755859</ele>
        <time>2014-03-02T08:55:17.000Z</time>
      </trkpt>
      <trkpt lat="45.71396" lon="6.18765">
        <ele>1666</ele>
        <time>2014-03-02T08:55:21.000Z</time>
      </trkpt>
      <trkpt lat="45.71393" lon="6.18765">
        <ele>1666.8000488281</ele>
        <time>2014-03-02T08:55:24.000Z</time>
      </trkpt>
      <trkpt lat="45.71392" lon="6.18766">
        <ele>1667.5999755859</ele>
        <time>2014-03-02T08:55:28.000Z</time>
      </trkpt>
      <trkpt lat="45.71392" lon="6.18766">
        <ele>1667.1999511719</ele>
        <time>2014-03-02T08:55:32.000Z</time>
      </trkpt>
      <trkpt lat="45.71395" lon="6.18768">
        <ele>1668</ele>
        <time>2014-03-02T08:55:38.000Z</time>
      </trkpt>
      <trkpt lat="45.71398" lon="6.18772">
        <ele>1669.8000488281</ele>
        <time>2014-03-02T08:55:44.000Z</time>
      </trkpt>
      <trkpt lat="45.71398" lon="6.18774">
        <ele>1670.5999755859</ele>
        <time>2014-03-02T08:55:48.000Z</time>
      </trkpt>
      <trkpt lat="45.714" lon="6.18777">
        <ele>1671.5999755859</ele>
        <time>2014-03-02T08:55:53.000Z</time>
      </trkpt>
      <trkpt lat="45.71402" lon="6.18782">
        <ele>1673.8000488281</ele>
        <time>2014-03-02T08:56:00.000Z</time>
      </trkpt>
      <trkpt lat="45.71402" lon="6.18785">
        <ele>1675.5999755859</ele>
        <time>2014-03-02T08:56:05.000Z</time>
      </trkpt>
      <trkpt lat="45.71401" lon="6.18789">
        <ele>1677.8000488281</ele>
        <time>2014-03-02T08:56:11.000Z</time>
      </trkpt>
      <trkpt lat="45.71398" lon="6.18787">
        <ele>1677.8000488281</ele>
        <time>2014-03-02T08:56:16.000Z</time>
      </trkpt>
      <trkpt lat="45.71396" lon="6.18787">
        <ele>1677.8000488281</ele>
        <time>2014-03-02T08:56:19.000Z</time>
      </trkpt>
      <trkpt lat="45.71394" lon="6.18787">
        <ele>1678.4000244141</ele>
        <time>2014-03-02T08:56:23.000Z</time>
      </trkpt>
      <trkpt lat="45.71392" lon="6.18787">
        <ele>1679</ele>
        <time>2014-03-02T08:56:28.000Z</time>
      </trkpt>
      <trkpt lat="45.71392" lon="6.1879">
        <ele>1680.1999511719</ele>
        <time>2014-03-02T08:56:35.000Z</time>
      </trkpt>
      <trkpt lat="45.71392" lon="6.18792">
        <ele>1681.1999511719</ele>
        <time>2014-03-02T08:56:39.000Z</time>
      </trkpt>
      <trkpt lat="45.71392" lon="6.18797">
        <ele>1684.4000244141</ele>
        <time>2014-03-02T08:56:44.000Z</time>
      </trkpt>
      <trkpt lat="45.71391" lon="6.188">
        <ele>1686.1999511719</ele>
        <time>2014-03-02T08:56:48.000Z</time>
      </trkpt>
      <trkpt lat="45.71391" lon="6.18806">
        <ele>1689</ele>
        <time>2014-03-02T08:56:55.000Z</time>
      </trkpt>
      <trkpt lat="45.71392" lon="6.1881">
        <ele>1691</ele>
        <time>2014-03-02T08:56:59.000Z</time>
      </trkpt>
      <trkpt lat="45.71393" lon="6.18814">
        <ele>1693.1999511719</ele>
        <time>2014-03-02T08:57:05.000Z</time>
      </trkpt>
      <trkpt lat="45.71394" lon="6.18818">
        <ele>1695.1999511719</ele>
        <time>2014-03-02T08:57:11.000Z</time>
      </trkpt>
      <trkpt lat="45.71397" lon="6.18823">
        <ele>1697.1999511719</ele>
        <time>2014-03-02T08:57:17.000Z</time>
      </trkpt>
      <trkpt lat="45.714" lon="6.18826">
        <ele>1698.1999511719</ele>
        <time>2014-03-02T08:57:24.000Z</time>
      </trkpt>
      <trkpt lat="45.71402" lon="6.18829">
        <ele>1699.1999511719</ele>
        <time>2014-03-02T08:57:29.000Z</time>
      </trkpt>
      <trkpt lat="45.71405" lon="6.18832">
        <ele>1700</ele>
        <time>2014-03-02T08:57:34.000Z</time>
      </trkpt>
      <trkpt lat="45.71408" lon="6.18834">
        <ele>1700.5999755859</ele>
        <time>2014-03-02T08:57:39.000Z</time>
      </trkpt>
      <trkpt lat="45.7141" lon="6.18839">
        <ele>1703.4000244141</ele>
        <time>2014-03-02T08:57:45.000Z</time>
      </trkpt>
      <trkpt lat="45.71407" lon="6.18839">
        <ele>1703.8000488281</ele>
        <time>2014-03-02T08:57:49.000Z</time>
      </trkpt>
      <trkpt lat="45.71404" lon="6.1884">
        <ele>1705</ele>
        <time>2014-03-02T08:57:54.000Z</time>
      </trkpt>
      <trkpt lat="45.71401" lon="6.18841">
        <ele>1706.4000244141</ele>
        <time>2014-03-02T08:57:57.000Z</time>
      </trkpt>
      <trkpt lat="45.71399" lon="6.18841">
        <ele>1707.1999511719</ele>
        <time>2014-03-02T08:58:02.000Z</time>
      </trkpt>
      <trkpt lat="45.71395" lon="6.18842">
        <ele>1708.5999755859</ele>
        <time>2014-03-02T08:58:08.000Z</time>
      </trkpt>
      <trkpt lat="45.71392" lon="6.18843">
        <ele>1709.5999755859</ele>
        <time>2014-03-02T08:58:12.000Z</time>
      </trkpt>
      <trkpt lat="45.7139" lon="6.18842">
        <ele>1709.4000244141</ele>
        <time>2014-03-02T08:58:22.000Z</time>
      </trkpt>
      <trkpt lat="45.71393" lon="6.18845">
        <ele>1710.8000488281</ele>
        <time>2014-03-02T08:58:27.000Z</time>
      </trkpt>
      <trkpt lat="45.71395" lon="6.18849">
        <ele>1712.8000488281</ele>
        <time>2014-03-02T08:58:32.000Z</time>
      </trkpt>
      <trkpt lat="45.71397" lon="6.18851">
        <ele>1713.4000244141</ele>
        <time>2014-03-02T08:58:36.000Z</time>
      </trkpt>
      <trkpt lat="45.71399" lon="6.18854">
        <ele>1715</ele>
        <time>2014-03-02T08:58:42.000Z</time>
      </trkpt>
      <trkpt lat="45.71401" lon="6.18856">
        <ele>1715.8000488281</ele>
        <time>2014-03-02T08:58:46.000Z</time>
      </trkpt>
      <trkpt lat="45.71401" lon="6.18859">
        <ele>1717.1999511719</ele>
        <time>2014-03-02T08:58:51.000Z</time>
      </trkpt>
      <trkpt lat="45.71398" lon="6.18859">
        <ele>1718.1999511719</ele>
        <time>2014-03-02T08:58:57.000Z</time>
      </trkpt>
      <trkpt lat="45.71395" lon="6.18857">
        <ele>1717.4000244141</ele>
        <time>2014-03-02T08:59:02.000Z</time>
      </trkpt>
      <trkpt lat="45.71394" lon="6.18856">
        <ele>1717</ele>
        <time>2014-03-02T08:59:06.000Z</time>
      </trkpt>
      <trkpt lat="45.71391" lon="6.18855">
        <ele>1717</ele>
        <time>2014-03-02T08:59:12.000Z</time>
      </trkpt>
      <trkpt lat="45.71388" lon="6.18856">
        <ele>1718.1999511719</ele>
        <time>2014-03-02T08:59:16.000Z</time>
      </trkpt>
      <trkpt lat="45.71385" lon="6.18855">
        <ele>1718.4000244141</ele>
        <time>2014-03-02T08:59:22.000Z</time>
      </trkpt>
      <trkpt lat="45.71382" lon="6.18853">
        <ele>1718.1999511719</ele>
        <time>2014-03-02T08:59:27.000Z</time>
      </trkpt>
      <trkpt lat="45.71379" lon="6.18851">
        <ele>1717.5999755859</ele>
        <time>2014-03-02T08:59:33.000Z</time>
      </trkpt>
      <trkpt lat="45.71377" lon="6.18851">
        <ele>1717.8000488281</ele>
        <time>2014-03-02T08:59:37.000Z</time>
      </trkpt>
      <trkpt lat="45.71375" lon="6.18851">
        <ele>1718.1999511719</ele>
        <time>2014-03-02T08:59:41.000Z</time>
      </trkpt>
      <trkpt lat="45.71372" lon="6.18849">
        <ele>1717.5999755859</ele>
        <time>2014-03-02T08:59:46.000Z</time>
      </trkpt>
      <trkpt lat="45.71369" lon="6.18848">
        <ele>1717.5999755859</ele>
        <time>2014-03-02T08:59:50.000Z</time>
      </trkpt>
      <trkpt lat="45.71366" lon="6.18847">
        <ele>1718</ele>
        <time>2014-03-02T08:59:55.000Z</time>
      </trkpt>
      <trkpt lat="45.71362" lon="6.1885">
        <ele>1720.8000488281</ele>
        <time>2014-03-02T09:00:06.000Z</time>
      </trkpt>
      <trkpt lat="45.7136" lon="6.18849">
        <ele>1720.5999755859</ele>
        <time>2014-03-02T09:00:10.000Z</time>
      </trkpt>
      <trkpt lat="45.71361" lon="6.18849">
        <ele>1720.4000244141</ele>
        <time>2014-03-02T09:00:13.000Z</time>
      </trkpt>
      <trkpt lat="45.71359" lon="6.18847">
        <ele>1719.8000488281</ele>
        <time>2014-03-02T09:00:19.000Z</time>
      </trkpt>
      <trkpt lat="45.71355" lon="6.18846">
        <ele>1720.4000244141</ele>
        <time>2014-03-02T09:00:24.000Z</time>
      </trkpt>
      <trkpt lat="45.71351" lon="6.18846">
        <ele>1721</ele>
        <time>2014-03-02T09:00:27.000Z</time>
      </trkpt>
      <trkpt lat="45.71348" lon="6.18846">
        <ele>1721.8000488281</ele>
        <time>2014-03-02T09:00:33.000Z</time>
      </trkpt>
      <trkpt lat="45.71344" lon="6.18847">
        <ele>1722.8000488281</ele>
        <time>2014-03-02T09:00:37.000Z</time>
      </trkpt>
      <trkpt lat="45.71341" lon="6.18847">
        <ele>1724</ele>
        <time>2014-03-02T09:00:40.000Z</time>
      </trkpt>
      <trkpt lat="45.71336" lon="6.18847">
        <ele>1725.1999511719</ele>
        <time>2014-03-02T09:00:45.000Z</time>
      </trkpt>
      <trkpt lat="45.71333" lon="6.18848">
        <ele>1726</ele>
        <time>2014-03-02T09:00:51.000Z</time>
      </trkpt>
      <trkpt lat="45.7133" lon="6.18848">
        <ele>1726.1999511719</ele>
        <time>2014-03-02T09:00:53.000Z</time>
      </trkpt>
      <trkpt lat="45.71325" lon="6.18847">
        <ele>1726.8000488281</ele>
        <time>2014-03-02T09:00:57.000Z</time>
      </trkpt>
      <trkpt lat="45.71315" lon="6.18846">
        <ele>1727.1999511719</ele>
        <time>2014-03-02T09:01:03.000Z</time>
      </trkpt>
      <trkpt lat="45.71306" lon="6.18843">
        <ele>1726.8000488281</ele>
        <time>2014-03-02T09:01:09.000Z</time>
      </trkpt>
      <trkpt lat="45.71299" lon="6.18841">
        <ele>1726.4000244141</ele>
        <time>2014-03-02T09:01:14.000Z</time>
      </trkpt>
      <trkpt lat="45.71294" lon="6.18839">
        <ele>1725.8000488281</ele>
        <time>2014-03-02T09:01:19.000Z</time>
      </trkpt>
      <trkpt lat="45.71287" lon="6.18837">
        <ele>1725.5999755859</ele>
        <time>2014-03-02T09:01:25.000Z</time>
      </trkpt>
      <trkpt lat="45.71279" lon="6.18836">
        <ele>1725.8000488281</ele>
        <time>2014-03-02T09:01:32.000Z</time>
      </trkpt>
      <trkpt lat="45.71271" lon="6.18834">
        <ele>1725.8000488281</ele>
        <time>2014-03-02T09:01:38.000Z</time>
      </trkpt>
      <trkpt lat="45.71267" lon="6.18833">
        <ele>1725.8000488281</ele>
        <time>2014-03-02T09:01:41.000Z</time>
      </trkpt>
      <trkpt lat="45.71263" lon="6.18831">
        <ele>1725.1999511719</ele>
        <time>2014-03-02T09:01:46.000Z</time>
      </trkpt>
      <trkpt lat="45.71258" lon="6.18828">
        <ele>1724</ele>
        <time>2014-03-02T09:01:50.000Z</time>
      </trkpt>
      <trkpt lat="45.71253" lon="6.18826">
        <ele>1723.5999755859</ele>
        <time>2014-03-02T09:01:55.000Z</time>
      </trkpt>
      <trkpt lat="45.71247" lon="6.18823">
        <ele>1722.5999755859</ele>
        <time>2014-03-02T09:02:00.000Z</time>
      </trkpt>
      <trkpt lat="45.7124" lon="6.18821">
        <ele>1721.1999511719</ele>
        <time>2014-03-02T09:02:06.000Z</time>
      </trkpt>
      <trkpt lat="45.71237" lon="6.18823">
        <ele>1722.1999511719</ele>
        <time>2014-03-02T09:02:08.000Z</time>
      </trkpt>
      <trkpt lat="45.71232" lon="6.18823">
        <ele>1721.8000488281</ele>
        <time>2014-03-02T09:02:14.000Z</time>
      </trkpt>
      <trkpt lat="45.71231" lon="6.18822">
        <ele>1721.5999755859</ele>
        <time>2014-03-02T09:02:15.000Z</time>
      </trkpt>
      <trkpt lat="45.71224" lon="6.18821">
        <ele>1720.5999755859</ele>
        <time>2014-03-02T09:02:23.000Z</time>
      </trkpt>
      <trkpt lat="45.7122" lon="6.1882">
        <ele>1720.1999511719</ele>
        <time>2014-03-02T09:02:28.000Z</time>
      </trkpt>
      <trkpt lat="45.71216" lon="6.18821">
        <ele>1720.1999511719</ele>
        <time>2014-03-02T09:02:33.000Z</time>
      </trkpt>
      <trkpt lat="45.71212" lon="6.18821">
        <ele>1720</ele>
        <time>2014-03-02T09:02:38.000Z</time>
      </trkpt>
      <trkpt lat="45.71207" lon="6.18821">
        <ele>1720</ele>
        <time>2014-03-02T09:02:44.000Z</time>
      </trkpt>
      <trkpt lat="45.71203" lon="6.18821">
        <ele>1719.8000488281</ele>
        <time>2014-03-02T09:02:50.000Z</time>
      </trkpt>
      <trkpt lat="45.71199" lon="6.18821">
        <ele>1719.5999755859</ele>
        <time>2014-03-02T09:02:55.000Z</time>
      </trkpt>
      <trkpt lat="45.71194" lon="6.18821">
        <ele>1719.5999755859</ele>
        <time>2014-03-02T09:03:00.000Z</time>
      </trkpt>
      <trkpt lat="45.71188" lon="6.18823">
        <ele>1720.4000244141</ele>
        <time>2014-03-02T09:03:08.000Z</time>
      </trkpt>
      <trkpt lat="45.71184" lon="6.18824">
        <ele>1720.8000488281</ele>
        <time>2014-03-02T09:03:14.000Z</time>
      </trkpt>
      <trkpt lat="45.71179" lon="6.18827">
        <ele>1721.8000488281</ele>
        <time>2014-03-02T09:03:21.000Z</time>
      </trkpt>
      <trkpt lat="45.71177" lon="6.18829">
        <ele>1722.5999755859</ele>
        <time>2014-03-02T09:03:25.000Z</time>
      </trkpt>
      <trkpt lat="45.71174" lon="6.18831">
        <ele>1723.1999511719</ele>
        <time>2014-03-02T09:03:30.000Z</time>
      </trkpt>
      <trkpt lat="45.7117" lon="6.18833">
        <ele>1724.1999511719</ele>
        <time>2014-03-02T09:03:38.000Z</time>
      </trkpt>
      <trkpt lat="45.71167" lon="6.18835">
        <ele>1725.4000244141</ele>
        <time>2014-03-02T09:03:43.000Z</time>
      </trkpt>
      <trkpt lat="45.71164" lon="6.18837">
        <ele>1725.5999755859</ele>
        <time>2014-03-02T09:03:48.000Z</time>
      </trkpt>
      <trkpt lat="45.71164" lon="6.18834">
        <ele>1723.8000488281</ele>
        <time>2014-03-02T09:03:54.000Z</time>
      </trkpt>
      <trkpt lat="45.71163" lon="6.18831">
        <ele>1722.1999511719</ele>
        <time>2014-03-02T09:04:00.000Z</time>
      </trkpt>
      <trkpt lat="45.71159" lon="6.18833">
        <ele>1722</ele>
        <time>2014-03-02T09:04:05.000Z</time>
      </trkpt>
      <trkpt lat="45.71156" lon="6.18835">
        <ele>1722.4000244141</ele>
        <time>2014-03-02T09:04:10.000Z</time>
      </trkpt>
      <trkpt lat="45.71152" lon="6.18838">
        <ele>1723.4000244141</ele>
        <time>2014-03-02T09:04:17.000Z</time>
      </trkpt>
      <trkpt lat="45.7115" lon="6.18839">
        <ele>1723.5999755859</ele>
        <time>2014-03-02T09:04:22.000Z</time>
      </trkpt>
      <trkpt lat="45.71147" lon="6.1884">
        <ele>1723</ele>
        <time>2014-03-02T09:04:30.000Z</time>
      </trkpt>
      <trkpt lat="45.71141" lon="6.18841">
        <ele>1722.4000244141</ele>
        <time>2014-03-02T09:04:37.000Z</time>
      </trkpt>
      <trkpt lat="45.71138" lon="6.18842">
        <ele>1721.8000488281</ele>
        <time>2014-03-02T09:04:43.000Z</time>
      </trkpt>
      <trkpt lat="45.71135" lon="6.18844">
        <ele>1722</ele>
        <time>2014-03-02T09:04:48.000Z</time>
      </trkpt>
      <trkpt lat="45.71133" lon="6.18847">
        <ele>1722.8000488281</ele>
        <time>2014-03-02T09:04:52.000Z</time>
      </trkpt>
      <trkpt lat="45.71128" lon="6.18852">
        <ele>1723.8000488281</ele>
        <time>2014-03-02T09:05:01.000Z</time>
      </trkpt>
      <trkpt lat="45.71124" lon="6.18855">
        <ele>1723.5999755859</ele>
        <time>2014-03-02T09:05:10.000Z</time>
      </trkpt>
      <trkpt lat="45.7112" lon="6.18853">
        <ele>1721.5999755859</ele>
        <time>2014-03-02T09:05:21.000Z</time>
      </trkpt>
      <trkpt lat="45.71118" lon="6.1885">
        <ele>1719.4000244141</ele>
        <time>2014-03-02T09:05:25.000Z</time>
      </trkpt>
      <trkpt lat="45.71112" lon="6.18845">
        <ele>1715.5999755859</ele>
        <time>2014-03-02T09:05:36.000Z</time>
      </trkpt>
      <trkpt lat="45.7111" lon="6.18841">
        <ele>1713.1999511719</ele>
        <time>2014-03-02T09:05:42.000Z</time>
      </trkpt>
      <trkpt lat="45.71105" lon="6.18841">
        <ele>1711.8000488281</ele>
        <time>2014-03-02T09:05:54.000Z</time>
      </trkpt>
      <trkpt lat="45.71101" lon="6.18844">
        <ele>1711.5999755859</ele>
        <time>2014-03-02T09:05:59.000Z</time>
      </trkpt>
      <trkpt lat="45.711" lon="6.18849">
        <ele>1713.1999511719</ele>
        <time>2014-03-02T09:06:03.000Z</time>
      </trkpt>
      <trkpt lat="45.71099" lon="6.18851">
        <ele>1713.4000244141</ele>
        <time>2014-03-02T09:06:05.000Z</time>
      </trkpt>
      <trkpt lat="45.71099" lon="6.18857">
        <ele>1715.5999755859</ele>
        <time>2014-03-02T09:06:12.000Z</time>
      </trkpt>
      <trkpt lat="45.71099" lon="6.18858">
        <ele>1715.8000488281</ele>
        <time>2014-03-02T09:06:14.000Z</time>
      </trkpt>
      <trkpt lat="45.71102" lon="6.18864">
        <ele>1719.1999511719</ele>
        <time>2014-03-02T09:06:20.000Z</time>
      </trkpt>
      <trkpt lat="45.71105" lon="6.18867">
        <ele>1721.4000244141</ele>
        <time>2014-03-02T09:06:25.000Z</time>
      </trkpt>
      <trkpt lat="45.71101" lon="6.18872">
        <ele>1721.5999755859</ele>
        <time>2014-03-02T09:06:35.000Z</time>
      </trkpt>
      <trkpt lat="45.71098" lon="6.18872">
        <ele>1719.8000488281</ele>
        <time>2014-03-02T09:06:47.000Z</time>
      </trkpt>
      <trkpt lat="45.71104" lon="6.1887">
        <ele>1722</ele>
        <time>2014-03-02T09:06:59.000Z</time>
      </trkpt>
      <trkpt lat="45.71108" lon="6.18869">
        <ele>1723.1999511719</ele>
        <time>2014-03-02T09:07:05.000Z</time>
      </trkpt>
      <trkpt lat="45.71107" lon="6.18876">
        <ele>1752.5999755859</ele>
        <time>2014-03-02T09:07:25.000Z</time>
      </trkpt>
      <trkpt lat="45.71104" lon="6.18879">
        <ele>1755.8000488281</ele>
        <time>2014-03-02T09:07:30.000Z</time>
      </trkpt>
      <trkpt lat="45.71094" lon="6.18881">
        <ele>1758</ele>
        <time>2014-03-02T09:07:49.000Z</time>
      </trkpt>
      <trkpt lat="45.7109" lon="6.18884">
        <ele>1761.4000244141</ele>
        <time>2014-03-02T09:07:55.000Z</time>
      </trkpt>
      <trkpt lat="45.71086" lon="6.18887">
        <ele>1764.5999755859</ele>
        <time>2014-03-02T09:08:01.000Z</time>
      </trkpt>
      <trkpt lat="45.71083" lon="6.18888">
        <ele>1767.1999511719</ele>
        <time>2014-03-02T09:08:06.000Z</time>
      </trkpt>
      <trkpt lat="45.71079" lon="6.1889">
        <ele>1770.8000488281</ele>
        <time>2014-03-02T09:08:12.000Z</time>
      </trkpt>
      <trkpt lat="45.71076" lon="6.18891">
        <ele>1774</ele>
        <time>2014-03-02T09:08:16.000Z</time>
      </trkpt>
      <trkpt lat="45.71073" lon="6.18893">
        <ele>1779</ele>
        <time>2014-03-02T09:08:22.000Z</time>
      </trkpt>
      <trkpt lat="45.7107" lon="6.18895">
        <ele>1781.8000488281</ele>
        <time>2014-03-02T09:08:26.000Z</time>
      </trkpt>
      <trkpt lat="45.71067" lon="6.18896">
        <ele>1785.1999511719</ele>
        <time>2014-03-02T09:08:30.000Z</time>
      </trkpt>
      <trkpt lat="45.71063" lon="6.18896">
        <ele>1788</ele>
        <time>2014-03-02T09:08:35.000Z</time>
      </trkpt>
      <trkpt lat="45.7106" lon="6.18896">
        <ele>1789.5999755859</ele>
        <time>2014-03-02T09:08:39.000Z</time>
      </trkpt>
      <trkpt lat="45.7105" lon="6.18898">
        <ele>1798.8000488281</ele>
        <time>2014-03-02T09:08:59.000Z</time>
      </trkpt>
      <trkpt lat="45.71046" lon="6.18899">
        <ele>1802</ele>
        <time>2014-03-02T09:09:05.000Z</time>
      </trkpt>
      <trkpt lat="45.7104" lon="6.189">
        <ele>1806.5999755859</ele>
        <time>2014-03-02T09:09:13.000Z</time>
      </trkpt>
      <trkpt lat="45.71036" lon="6.18898">
        <ele>1807.1999511719</ele>
        <time>2014-03-02T09:09:22.000Z</time>
      </trkpt>
      <trkpt lat="45.71034" lon="6.189">
        <ele>1810.5999755859</ele>
        <time>2014-03-02T09:09:26.000Z</time>
      </trkpt>
      <trkpt lat="45.71031" lon="6.18901">
        <ele>1812.8000488281</ele>
        <time>2014-03-02T09:09:33.000Z</time>
      </trkpt>
      <trkpt lat="45.71027" lon="6.18904">
        <ele>1819.5999755859</ele>
        <time>2014-03-02T09:09:46.000Z</time>
      </trkpt>
      <trkpt lat="45.71028" lon="6.18909">
        <ele>1825.5999755859</ele>
        <time>2014-03-02T09:09:51.000Z</time>
      </trkpt>
      <trkpt lat="45.71028" lon="6.18915">
        <ele>1831.5999755859</ele>
        <time>2014-03-02T09:09:56.000Z</time>
      </trkpt>
      <trkpt lat="45.71024" lon="6.18917">
        <ele>1836.4000244141</ele>
        <time>2014-03-02T09:10:03.000Z</time>
      </trkpt>
      <trkpt lat="45.71013" lon="6.18912">
        <ele>1837.5999755859</ele>
        <time>2014-03-02T09:10:26.000Z</time>
      </trkpt>
      <trkpt lat="45.7101" lon="6.18911">
        <ele>1838.1999511719</ele>
        <time>2014-03-02T09:10:32.000Z</time>
      </trkpt>
      <trkpt lat="45.71002" lon="6.18929">
        <ele>1852.5999755859</ele>
        <time>2014-03-02T09:10:49.000Z</time>
      </trkpt>
      <trkpt lat="45.71001" lon="6.18928">
        <ele>1853.4000244141</ele>
        <time>2014-03-02T09:10:53.000Z</time>
      </trkpt>
      <trkpt lat="45.70997" lon="6.18928">
        <ele>1852.4000244141</ele>
        <time>2014-03-02T09:11:02.000Z</time>
      </trkpt>
      <trkpt lat="45.70997" lon="6.18932">
        <ele>1853</ele>
        <time>2014-03-02T09:11:14.000Z</time>
      </trkpt>
      <trkpt lat="45.70997" lon="6.18935">
        <ele>1853.5999755859</ele>
        <time>2014-03-02T09:11:18.000Z</time>
      </trkpt>
      <trkpt lat="45.70997" lon="6.18938">
        <ele>1854.4000244141</ele>
        <time>2014-03-02T09:11:22.000Z</time>
      </trkpt>
      <trkpt lat="45.70995" lon="6.1894">
        <ele>1853.8000488281</ele>
        <time>2014-03-02T09:11:27.000Z</time>
      </trkpt>
      <trkpt lat="45.70992" lon="6.18934">
        <ele>1851.4000244141</ele>
        <time>2014-03-02T09:11:35.000Z</time>
      </trkpt>
      <trkpt lat="45.70993" lon="6.18933">
        <ele>1851.5999755859</ele>
        <time>2014-03-02T09:11:42.000Z</time>
      </trkpt>
      <trkpt lat="45.70992" lon="6.18943">
        <ele>1852.8000488281</ele>
        <time>2014-03-02T09:11:56.000Z</time>
      </trkpt>
      <trkpt lat="45.70991" lon="6.18945">
        <ele>1852.8000488281</ele>
        <time>2014-03-02T09:12:00.000Z</time>
      </trkpt>
      <trkpt lat="45.70992" lon="6.18949">
        <ele>1854</ele>
        <time>2014-03-02T09:12:07.000Z</time>
      </trkpt>
      <trkpt lat="45.7099" lon="6.18951">
        <ele>1853.4000244141</ele>
        <time>2014-03-02T09:12:13.000Z</time>
      </trkpt>
      <trkpt lat="45.70988" lon="6.18947">
        <ele>1852.1999511719</ele>
        <time>2014-03-02T09:12:17.000Z</time>
      </trkpt>
      <trkpt lat="45.70986" lon="6.18943">
        <ele>1850.4000244141</ele>
        <time>2014-03-02T09:12:26.000Z</time>
      </trkpt>
      <trkpt lat="45.70983" lon="6.1894">
        <ele>1848.8000488281</ele>
        <time>2014-03-02T09:12:33.000Z</time>
      </trkpt>
      <trkpt lat="45.70981" lon="6.18937">
        <ele>1847.4000244141</ele>
        <time>2014-03-02T09:12:36.000Z</time>
      </trkpt>
      <trkpt lat="45.70978" lon="6.1894">
        <ele>1846.8000488281</ele>
        <time>2014-03-02T09:12:41.000Z</time>
      </trkpt>
      <trkpt lat="45.70977" lon="6.1894">
        <ele>1846.1999511719</ele>
        <time>2014-03-02T09:12:45.000Z</time>
      </trkpt>
      <trkpt lat="45.70977" lon="6.1894">
        <ele>1846</ele>
        <time>2014-03-02T09:12:52.000Z</time>
      </trkpt>
      <trkpt lat="45.70975" lon="6.18938">
        <ele>1845.1999511719</ele>
        <time>2014-03-02T09:12:57.000Z</time>
      </trkpt>
      <trkpt lat="45.70973" lon="6.18937">
        <ele>1843.8000488281</ele>
        <time>2014-03-02T09:13:02.000Z</time>
      </trkpt>
      <trkpt lat="45.70973" lon="6.18937">
        <ele>1844.1999511719</ele>
        <time>2014-03-02T09:13:10.000Z</time>
      </trkpt>
      <trkpt lat="45.70971" lon="6.18938">
        <ele>1843.4000244141</ele>
        <time>2014-03-02T09:13:44.000Z</time>
      </trkpt>
      <trkpt lat="45.70967" lon="6.18938">
        <ele>1841.5999755859</ele>
        <time>2014-03-02T09:13:49.000Z</time>
      </trkpt>
      <trkpt lat="45.70965" lon="6.18936">
        <ele>1840.4000244141</ele>
        <time>2014-03-02T09:13:54.000Z</time>
      </trkpt>
      <trkpt lat="45.70962" lon="6.18936">
        <ele>1839.5999755859</ele>
        <time>2014-03-02T09:13:58.000Z</time>
      </trkpt>
      <trkpt lat="45.70961" lon="6.18935">
        <ele>1839</ele>
        <time>2014-03-02T09:14:02.000Z</time>
      </trkpt>
      <trkpt lat="45.70962" lon="6.18937">
        <ele>1839.5999755859</ele>
        <time>2014-03-02T09:14:06.000Z</time>
      </trkpt>
      <trkpt lat="45.70963" lon="6.18942">
        <ele>1841</ele>
        <time>2014-03-02T09:14:12.000Z</time>
      </trkpt>
      <trkpt lat="45.70965" lon="6.18945">
        <ele>1842.1999511719</ele>
        <time>2014-03-02T09:14:17.000Z</time>
      </trkpt>
      <trkpt lat="45.70965" lon="6.18948">
        <ele>1843</ele>
        <time>2014-03-02T09:14:21.000Z</time>
      </trkpt>
      <trkpt lat="45.70964" lon="6.18951">
        <ele>1843</ele>
        <time>2014-03-02T09:14:26.000Z</time>
      </trkpt>
      <trkpt lat="45.70961" lon="6.1895">
        <ele>1841.8000488281</ele>
        <time>2014-03-02T09:14:30.000Z</time>
      </trkpt>
      <trkpt lat="45.70959" lon="6.1895">
        <ele>1841</ele>
        <time>2014-03-02T09:14:33.000Z</time>
      </trkpt>
      <trkpt lat="45.70957" lon="6.18949">
        <ele>1840</ele>
        <time>2014-03-02T09:14:37.000Z</time>
      </trkpt>
      <trkpt lat="45.70956" lon="6.18951">
        <ele>1840</ele>
        <time>2014-03-02T09:14:45.000Z</time>
      </trkpt>
      <trkpt lat="45.70957" lon="6.18953">
        <ele>1840.5999755859</ele>
        <time>2014-03-02T09:14:49.000Z</time>
      </trkpt>
      <trkpt lat="45.70957" lon="6.18956">
        <ele>1841.1999511719</ele>
        <time>2014-03-02T09:14:54.000Z</time>
      </trkpt>
      <trkpt lat="45.70956" lon="6.18959">
        <ele>1841.5999755859</ele>
        <time>2014-03-02T09:14:58.000Z</time>
      </trkpt>
      <trkpt lat="45.70956" lon="6.1896">
        <ele>1841.5999755859</ele>
        <time>2014-03-02T09:15:01.000Z</time>
      </trkpt>
      <trkpt lat="45.70956" lon="6.18963">
        <ele>1842.4000244141</ele>
        <time>2014-03-02T09:15:06.000Z</time>
      </trkpt>
      <trkpt lat="45.70956" lon="6.18966">
        <ele>1843</ele>
        <time>2014-03-02T09:15:11.000Z</time>
      </trkpt>
      <trkpt lat="45.70957" lon="6.18968">
        <ele>1843.5999755859</ele>
        <time>2014-03-02T09:15:15.000Z</time>
      </trkpt>
      <trkpt lat="45.70959" lon="6.18973">
        <ele>1845.1999511719</ele>
        <time>2014-03-02T09:15:21.000Z</time>
      </trkpt>
      <trkpt lat="45.70961" lon="6.1898">
        <ele>1847.4000244141</ele>
        <time>2014-03-02T09:15:28.000Z</time>
      </trkpt>
      <trkpt lat="45.70963" lon="6.18985">
        <ele>1849</ele>
        <time>2014-03-02T09:15:35.000Z</time>
      </trkpt>
      <trkpt lat="45.70964" lon="6.18987">
        <ele>1850</ele>
        <time>2014-03-02T09:15:40.000Z</time>
      </trkpt>
      <trkpt lat="45.70965" lon="6.18989">
        <ele>1850.8000488281</ele>
        <time>2014-03-02T09:15:44.000Z</time>
      </trkpt>
      <trkpt lat="45.70967" lon="6.18993">
        <ele>1852.4000244141</ele>
        <time>2014-03-02T09:15:50.000Z</time>
      </trkpt>
      <trkpt lat="45.70968" lon="6.18994">
        <ele>1852.8000488281</ele>
        <time>2014-03-02T09:15:55.000Z</time>
      </trkpt>
      <trkpt lat="45.70971" lon="6.18996">
        <ele>1854</ele>
        <time>2014-03-02T09:16:00.000Z</time>
      </trkpt>
      <trkpt lat="45.70972" lon="6.18998">
        <ele>1855</ele>
        <time>2014-03-02T09:16:05.000Z</time>
      </trkpt>
      <trkpt lat="45.70975" lon="6.18999">
        <ele>1856.1999511719</ele>
        <time>2014-03-02T09:16:11.000Z</time>
      </trkpt>
      <trkpt lat="45.70975" lon="6.19002">
        <ele>1856.8000488281</ele>
        <time>2014-03-02T09:16:16.000Z</time>
      </trkpt>
      <trkpt lat="45.70973" lon="6.19005">
        <ele>1857</ele>
        <time>2014-03-02T09:16:22.000Z</time>
      </trkpt>
      <trkpt lat="45.70971" lon="6.19006">
        <ele>1856.4000244141</ele>
        <time>2014-03-02T09:16:27.000Z</time>
      </trkpt>
      <trkpt lat="45.70969" lon="6.19008">
        <ele>1856.5999755859</ele>
        <time>2014-03-02T09:16:31.000Z</time>
      </trkpt>
      <trkpt lat="45.7097" lon="6.19009">
        <ele>1857</ele>
        <time>2014-03-02T09:16:36.000Z</time>
      </trkpt>
      <trkpt lat="45.70974" lon="6.19009">
        <ele>1858.1999511719</ele>
        <time>2014-03-02T09:16:42.000Z</time>
      </trkpt>
      <trkpt lat="45.70978" lon="6.19009">
        <ele>1859.4000244141</ele>
        <time>2014-03-02T09:16:47.000Z</time>
      </trkpt>
      <trkpt lat="45.70981" lon="6.1901">
        <ele>1860.4000244141</ele>
        <time>2014-03-02T09:16:52.000Z</time>
      </trkpt>
      <trkpt lat="45.70982" lon="6.1901">
        <ele>1861</ele>
        <time>2014-03-02T09:16:57.000Z</time>
      </trkpt>
      <trkpt lat="45.70981" lon="6.19013">
        <ele>1861.1999511719</ele>
        <time>2014-03-02T09:17:02.000Z</time>
      </trkpt>
      <trkpt lat="45.70979" lon="6.19017">
        <ele>1861.5999755859</ele>
        <time>2014-03-02T09:17:08.000Z</time>
      </trkpt>
      <trkpt lat="45.70978" lon="6.1902">
        <ele>1862</ele>
        <time>2014-03-02T09:17:13.000Z</time>
      </trkpt>
      <trkpt lat="45.70977" lon="6.19022">
        <ele>1862.4000244141</ele>
        <time>2014-03-02T09:17:19.000Z</time>
      </trkpt>
      <trkpt lat="45.70976" lon="6.19025">
        <ele>1862.5999755859</ele>
        <time>2014-03-02T09:17:26.000Z</time>
      </trkpt>
      <trkpt lat="45.70974" lon="6.19027">
        <ele>1862.8000488281</ele>
        <time>2014-03-02T09:17:31.000Z</time>
      </trkpt>
      <trkpt lat="45.70974" lon="6.19028">
        <ele>1863</ele>
        <time>2014-03-02T09:17:37.000Z</time>
      </trkpt>
      <trkpt lat="45.70977" lon="6.19028">
        <ele>1863.5999755859</ele>
        <time>2014-03-02T09:17:42.000Z</time>
      </trkpt>
      <trkpt lat="45.7098" lon="6.19029">
        <ele>1864.4000244141</ele>
        <time>2014-03-02T09:17:47.000Z</time>
      </trkpt>
      <trkpt lat="45.70983" lon="6.1903">
        <ele>1865.1999511719</ele>
        <time>2014-03-02T09:17:53.000Z</time>
      </trkpt>
      <trkpt lat="45.70985" lon="6.19031">
        <ele>1865.8000488281</ele>
        <time>2014-03-02T09:17:58.000Z</time>
      </trkpt>
      <trkpt lat="45.70984" lon="6.19033">
        <ele>1866</ele>
        <time>2014-03-02T09:18:03.000Z</time>
      </trkpt>
      <trkpt lat="45.70982" lon="6.19035">
        <ele>1866.1999511719</ele>
        <time>2014-03-02T09:18:08.000Z</time>
      </trkpt>
      <trkpt lat="45.70981" lon="6.19036">
        <ele>1866.1999511719</ele>
        <time>2014-03-02T09:18:15.000Z</time>
      </trkpt>
      <trkpt lat="45.7098" lon="6.19038">
        <ele>1866.4000244141</ele>
        <time>2014-03-02T09:18:20.000Z</time>
      </trkpt>
      <trkpt lat="45.70978" lon="6.19039">
        <ele>1866.1999511719</ele>
        <time>2014-03-02T09:18:24.000Z</time>
      </trkpt>
      <trkpt lat="45.70977" lon="6.19039">
        <ele>1866.1999511719</ele>
        <time>2014-03-02T09:18:28.000Z</time>
      </trkpt>
      <trkpt lat="45.70979" lon="6.19039">
        <ele>1866.5999755859</ele>
        <time>2014-03-02T09:18:33.000Z</time>
      </trkpt>
      <trkpt lat="45.70981" lon="6.1904">
        <ele>1867.1999511719</ele>
        <time>2014-03-02T09:18:37.000Z</time>
      </trkpt>
      <trkpt lat="45.70983" lon="6.19041">
        <ele>1867.4000244141</ele>
        <time>2014-03-02T09:18:41.000Z</time>
      </trkpt>
      <trkpt lat="45.70985" lon="6.19043">
        <ele>1868.1999511719</ele>
        <time>2014-03-02T09:18:45.000Z</time>
      </trkpt>
      <trkpt lat="45.70988" lon="6.19043">
        <ele>1868.5999755859</ele>
        <time>2014-03-02T09:18:50.000Z</time>
      </trkpt>
      <trkpt lat="45.70992" lon="6.19044">
        <ele>1869.1999511719</ele>
        <time>2014-03-02T09:18:57.000Z</time>
      </trkpt>
      <trkpt lat="45.70991" lon="6.19045">
        <ele>1869.4000244141</ele>
        <time>2014-03-02T09:19:01.000Z</time>
      </trkpt>
      <trkpt lat="45.7099" lon="6.19047">
        <ele>1869.4000244141</ele>
        <time>2014-03-02T09:19:05.000Z</time>
      </trkpt>
      <trkpt lat="45.70987" lon="6.1905">
        <ele>1869.8000488281</ele>
        <time>2014-03-02T09:19:13.000Z</time>
      </trkpt>
      <trkpt lat="45.70989" lon="6.1905">
        <ele>1870</ele>
        <time>2014-03-02T09:19:19.000Z</time>
      </trkpt>
      <trkpt lat="45.70991" lon="6.19051">
        <ele>1870.4000244141</ele>
        <time>2014-03-02T09:19:23.000Z</time>
      </trkpt>
      <trkpt lat="45.70993" lon="6.19052">
        <ele>1870.8000488281</ele>
        <time>2014-03-02T09:19:27.000Z</time>
      </trkpt>
      <trkpt lat="45.70996" lon="6.19053">
        <ele>1871</ele>
        <time>2014-03-02T09:19:33.000Z</time>
      </trkpt>
      <trkpt lat="45.70997" lon="6.19054">
        <ele>1871.4000244141</ele>
        <time>2014-03-02T09:19:38.000Z</time>
      </trkpt>
      <trkpt lat="45.70999" lon="6.19056">
        <ele>1871.5999755859</ele>
        <time>2014-03-02T09:19:42.000Z</time>
      </trkpt>
      <trkpt lat="45.71" lon="6.19057">
        <ele>1871.8000488281</ele>
        <time>2014-03-02T09:19:47.000Z</time>
      </trkpt>
      <trkpt lat="45.70997" lon="6.1906">
        <ele>1872</ele>
        <time>2014-03-02T09:19:52.000Z</time>
      </trkpt>
      <trkpt lat="45.70993" lon="6.19063">
        <ele>1872.4000244141</ele>
        <time>2014-03-02T09:19:59.000Z</time>
      </trkpt>
      <trkpt lat="45.70991" lon="6.19066">
        <ele>1872.8000488281</ele>
        <time>2014-03-02T09:20:05.000Z</time>
      </trkpt>
      <trkpt lat="45.7099" lon="6.19067">
        <ele>1872.8000488281</ele>
        <time>2014-03-02T09:20:10.000Z</time>
      </trkpt>
      <trkpt lat="45.7099" lon="6.19067">
        <ele>1873</ele>
        <time>2014-03-02T09:20:16.000Z</time>
      </trkpt>
      <trkpt lat="45.70993" lon="6.19068">
        <ele>1873.1999511719</ele>
        <time>2014-03-02T09:20:20.000Z</time>
      </trkpt>
      <trkpt lat="45.70995" lon="6.1907">
        <ele>1873.4000244141</ele>
        <time>2014-03-02T09:20:25.000Z</time>
      </trkpt>
      <trkpt lat="45.70997" lon="6.1907">
        <ele>1873.4000244141</ele>
        <time>2014-03-02T09:20:30.000Z</time>
      </trkpt>
      <trkpt lat="45.70998" lon="6.19071">
        <ele>1873.5999755859</ele>
        <time>2014-03-02T09:20:34.000Z</time>
      </trkpt>
      <trkpt lat="45.71001" lon="6.19072">
        <ele>1873.8000488281</ele>
        <time>2014-03-02T09:20:39.000Z</time>
      </trkpt>
      <trkpt lat="45.71003" lon="6.19074">
        <ele>1874.1999511719</ele>
        <time>2014-03-02T09:20:45.000Z</time>
      </trkpt>
      <trkpt lat="45.71004" lon="6.19074">
        <ele>1874.4000244141</ele>
        <time>2014-03-02T09:20:49.000Z</time>
      </trkpt>
      <trkpt lat="45.71007" lon="6.19075">
        <ele>1874.8000488281</ele>
        <time>2014-03-02T09:20:55.000Z</time>
      </trkpt>
      <trkpt lat="45.7101" lon="6.19075">
        <ele>1875.1999511719</ele>
        <time>2014-03-02T09:21:00.000Z</time>
      </trkpt>
      <trkpt lat="45.71014" lon="6.19075">
        <ele>1875.8000488281</ele>
        <time>2014-03-02T09:21:06.000Z</time>
      </trkpt>
      <trkpt lat="45.71017" lon="6.19076">
        <ele>1876.1999511719</ele>
        <time>2014-03-02T09:21:11.000Z</time>
      </trkpt>
      <trkpt lat="45.7102" lon="6.19075">
        <ele>1876.4000244141</ele>
        <time>2014-03-02T09:21:16.000Z</time>
      </trkpt>
      <trkpt lat="45.71021" lon="6.19076">
        <ele>1876.5999755859</ele>
        <time>2014-03-02T09:21:20.000Z</time>
      </trkpt>
      <trkpt lat="45.7102" lon="6.1908">
        <ele>1877</ele>
        <time>2014-03-02T09:21:25.000Z</time>
      </trkpt>
      <trkpt lat="45.71018" lon="6.19085">
        <ele>1876.5999755859</ele>
        <time>2014-03-02T09:21:33.000Z</time>
      </trkpt>
      <trkpt lat="45.71017" lon="6.19088">
        <ele>1875.8000488281</ele>
        <time>2014-03-02T09:21:40.000Z</time>
      </trkpt>
      <trkpt lat="45.71015" lon="6.19091">
        <ele>1874.8000488281</ele>
        <time>2014-03-02T09:21:46.000Z</time>
      </trkpt>
      <trkpt lat="45.71014" lon="6.19093">
        <ele>1874</ele>
        <time>2014-03-02T09:21:52.000Z</time>
      </trkpt>
      <trkpt lat="45.71015" lon="6.19093">
        <ele>1874.1999511719</ele>
        <time>2014-03-02T09:21:58.000Z</time>
      </trkpt>
      <trkpt lat="45.71019" lon="6.19093">
        <ele>1874.5999755859</ele>
        <time>2014-03-02T09:22:05.000Z</time>
      </trkpt>
      <trkpt lat="45.71023" lon="6.19093">
        <ele>1874.8000488281</ele>
        <time>2014-03-02T09:22:10.000Z</time>
      </trkpt>
      <trkpt lat="45.71026" lon="6.19094">
        <ele>1875</ele>
        <time>2014-03-02T09:22:17.000Z</time>
      </trkpt>
      <trkpt lat="45.71029" lon="6.19096">
        <ele>1874.8000488281</ele>
        <time>2014-03-02T09:22:22.000Z</time>
      </trkpt>
      <trkpt lat="45.71031" lon="6.19096">
        <ele>1875</ele>
        <time>2014-03-02T09:22:26.000Z</time>
      </trkpt>
      <trkpt lat="45.71033" lon="6.19096">
        <ele>1875.1999511719</ele>
        <time>2014-03-02T09:22:30.000Z</time>
      </trkpt>
      <trkpt lat="45.71034" lon="6.19099">
        <ele>1874.1999511719</ele>
        <time>2014-03-02T09:22:35.000Z</time>
      </trkpt>
      <trkpt lat="45.71032" lon="6.19101">
        <ele>1873.4000244141</ele>
        <time>2014-03-02T09:22:39.000Z</time>
      </trkpt>
      <trkpt lat="45.71028" lon="6.19105">
        <ele>1871.8000488281</ele>
        <time>2014-03-02T09:22:45.000Z</time>
      </trkpt>
      <trkpt lat="45.71026" lon="6.19108">
        <ele>1870.8000488281</ele>
        <time>2014-03-02T09:22:50.000Z</time>
      </trkpt>
      <trkpt lat="45.71025" lon="6.19111">
        <ele>1869.8000488281</ele>
        <time>2014-03-02T09:22:55.000Z</time>
      </trkpt>
      <trkpt lat="45.71024" lon="6.19112">
        <ele>1869.4000244141</ele>
        <time>2014-03-02T09:23:02.000Z</time>
      </trkpt>
      <trkpt lat="45.71023" lon="6.19112">
        <ele>1869.4000244141</ele>
        <time>2014-03-02T09:23:11.000Z</time>
      </trkpt>
      <trkpt lat="45.71023" lon="6.19112">
        <ele>1869.5999755859</ele>
        <time>2014-03-02T09:23:22.000Z</time>
      </trkpt>
      <trkpt lat="45.71023" lon="6.19111">
        <ele>1869.5999755859</ele>
        <time>2014-03-02T09:23:30.000Z</time>
      </trkpt>
      <trkpt lat="45.71023" lon="6.19112">
        <ele>1869.5999755859</ele>
        <time>2014-03-02T09:23:35.000Z</time>
      </trkpt>
      <trkpt lat="45.71023" lon="6.19111">
        <ele>1869.8000488281</ele>
        <time>2014-03-02T09:23:48.000Z</time>
      </trkpt>
      <trkpt lat="45.71021" lon="6.19111">
        <ele>1869.8000488281</ele>
        <time>2014-03-02T09:24:31.000Z</time>
      </trkpt>
      <trkpt lat="45.7102" lon="6.19111">
        <ele>1869.5999755859</ele>
        <time>2014-03-02T09:24:37.000Z</time>
      </trkpt>
      <trkpt lat="45.7102" lon="6.19111">
        <ele>1869.5999755859</ele>
        <time>2014-03-02T09:24:47.000Z</time>
      </trkpt>
      <trkpt lat="45.71017" lon="6.19111">
        <ele>1869.5999755859</ele>
        <time>2014-03-02T09:25:06.000Z</time>
      </trkpt>
      <trkpt lat="45.7101" lon="6.19114">
        <ele>1868.4000244141</ele>
        <time>2014-03-02T09:25:13.000Z</time>
      </trkpt>
      <trkpt lat="45.71007" lon="6.19115">
        <ele>1868</ele>
        <time>2014-03-02T09:25:16.000Z</time>
      </trkpt>
      <trkpt lat="45.71003" lon="6.19119">
        <ele>1866.8000488281</ele>
        <time>2014-03-02T09:25:23.000Z</time>
      </trkpt>
      <trkpt lat="45.71" lon="6.19121">
        <ele>1866.4000244141</ele>
        <time>2014-03-02T09:25:28.000Z</time>
      </trkpt>
      <trkpt lat="45.70995" lon="6.19123">
        <ele>1866.8000488281</ele>
        <time>2014-03-02T09:25:34.000Z</time>
      </trkpt>
      <trkpt lat="45.7099" lon="6.19125">
        <ele>1867</ele>
        <time>2014-03-02T09:25:40.000Z</time>
      </trkpt>
      <trkpt lat="45.70985" lon="6.19128">
        <ele>1867.4000244141</ele>
        <time>2014-03-02T09:25:47.000Z</time>
      </trkpt>
      <trkpt lat="45.7098" lon="6.1913">
        <ele>1868</ele>
        <time>2014-03-02T09:25:53.000Z</time>
      </trkpt>
      <trkpt lat="45.70978" lon="6.19131">
        <ele>1868.1999511719</ele>
        <time>2014-03-02T09:25:57.000Z</time>
      </trkpt>
      <trkpt lat="45.70975" lon="6.19132">
        <ele>1868.5999755859</ele>
        <time>2014-03-02T09:26:02.000Z</time>
      </trkpt>
      <trkpt lat="45.7097" lon="6.19133">
        <ele>1869.1999511719</ele>
        <time>2014-03-02T09:26:09.000Z</time>
      </trkpt>
      <trkpt lat="45.70964" lon="6.19137">
        <ele>1869.8000488281</ele>
        <time>2014-03-02T09:26:16.000Z</time>
      </trkpt>
      <trkpt lat="45.70958" lon="6.19139">
        <ele>1870.8000488281</ele>
        <time>2014-03-02T09:26:23.000Z</time>
      </trkpt>
      <trkpt lat="45.70956" lon="6.1914">
        <ele>1871</ele>
        <time>2014-03-02T09:26:28.000Z</time>
      </trkpt>
      <trkpt lat="45.70955" lon="6.19141">
        <ele>1871</ele>
        <time>2014-03-02T09:26:34.000Z</time>
      </trkpt>
      <trkpt lat="45.70951" lon="6.19141">
        <ele>1872</ele>
        <time>2014-03-02T09:26:40.000Z</time>
      </trkpt>
      <trkpt lat="45.70945" lon="6.1914">
        <ele>1873.1999511719</ele>
        <time>2014-03-02T09:26:46.000Z</time>
      </trkpt>
      <trkpt lat="45.7094" lon="6.19141">
        <ele>1874</ele>
        <time>2014-03-02T09:26:50.000Z</time>
      </trkpt>
      <trkpt lat="45.70932" lon="6.1914">
        <ele>1875.8000488281</ele>
        <time>2014-03-02T09:26:57.000Z</time>
      </trkpt>
      <trkpt lat="45.7093" lon="6.1914">
        <ele>1876.1999511719</ele>
        <time>2014-03-02T09:26:59.000Z</time>
      </trkpt>
      <trkpt lat="45.70927" lon="6.19138">
        <ele>1877</ele>
        <time>2014-03-02T09:27:02.000Z</time>
      </trkpt>
      <trkpt lat="45.70919" lon="6.19137">
        <ele>1878.5999755859</ele>
        <time>2014-03-02T09:27:10.000Z</time>
      </trkpt>
      <trkpt lat="45.70913" lon="6.19136">
        <ele>1879.4000244141</ele>
        <time>2014-03-02T09:27:17.000Z</time>
      </trkpt>
      <trkpt lat="45.70908" lon="6.19135">
        <ele>1880</ele>
        <time>2014-03-02T09:27:22.000Z</time>
      </trkpt>
      <trkpt lat="45.70901" lon="6.19134">
        <ele>1880.8000488281</ele>
        <time>2014-03-02T09:27:28.000Z</time>
      </trkpt>
      <trkpt lat="45.70898" lon="6.19133">
        <ele>1881.1999511719</ele>
        <time>2014-03-02T09:27:32.000Z</time>
      </trkpt>
      <trkpt lat="45.7089" lon="6.19132">
        <ele>1882</ele>
        <time>2014-03-02T09:27:40.000Z</time>
      </trkpt>
      <trkpt lat="45.70884" lon="6.19131">
        <ele>1882.8000488281</ele>
        <time>2014-03-02T09:27:46.000Z</time>
      </trkpt>
      <trkpt lat="45.70881" lon="6.1913">
        <ele>1883.1999511719</ele>
        <time>2014-03-02T09:27:49.000Z</time>
      </trkpt>
      <trkpt lat="45.70874" lon="6.19129">
        <ele>1884</ele>
        <time>2014-03-02T09:27:56.000Z</time>
      </trkpt>
      <trkpt lat="45.70869" lon="6.19128">
        <ele>1884.8000488281</ele>
        <time>2014-03-02T09:28:01.000Z</time>
      </trkpt>
      <trkpt lat="45.70866" lon="6.19127">
        <ele>1885.1999511719</ele>
        <time>2014-03-02T09:28:07.000Z</time>
      </trkpt>
      <trkpt lat="45.70863" lon="6.19127">
        <ele>1885.4000244141</ele>
        <time>2014-03-02T09:28:13.000Z</time>
      </trkpt>
      <trkpt lat="45.70858" lon="6.19125">
        <ele>1886.1999511719</ele>
        <time>2014-03-02T09:28:20.000Z</time>
      </trkpt>
      <trkpt lat="45.70853" lon="6.19122">
        <ele>1887</ele>
        <time>2014-03-02T09:28:25.000Z</time>
      </trkpt>
      <trkpt lat="45.70849" lon="6.19119">
        <ele>1887.8000488281</ele>
        <time>2014-03-02T09:28:31.000Z</time>
      </trkpt>
      <trkpt lat="45.70849" lon="6.19118">
        <ele>1887.8000488281</ele>
        <time>2014-03-02T09:28:40.000Z</time>
      </trkpt>
      <trkpt lat="45.70849" lon="6.19118">
        <ele>1887.8000488281</ele>
        <time>2014-03-02T09:28:48.000Z</time>
      </trkpt>
      <trkpt lat="45.70848" lon="6.19117">
        <ele>1888</ele>
        <time>2014-03-02T09:28:56.000Z</time>
      </trkpt>
      <trkpt lat="45.70847" lon="6.19119">
        <ele>1888</ele>
        <time>2014-03-02T09:29:02.000Z</time>
      </trkpt>
      <trkpt lat="45.70847" lon="6.19119">
        <ele>1888</ele>
        <time>2014-03-02T09:29:20.000Z</time>
      </trkpt>
      <trkpt lat="45.70848" lon="6.1912">
        <ele>1888</ele>
        <time>2014-03-02T09:29:31.000Z</time>
      </trkpt>
      <trkpt lat="45.70845" lon="6.19119">
        <ele>1888.4000244141</ele>
        <time>2014-03-02T09:29:36.000Z</time>
      </trkpt>
      <trkpt lat="45.70838" lon="6.19116">
        <ele>1889.4000244141</ele>
        <time>2014-03-02T09:29:43.000Z</time>
      </trkpt>
      <trkpt lat="45.70835" lon="6.19114">
        <ele>1890</ele>
        <time>2014-03-02T09:29:46.000Z</time>
      </trkpt>
      <trkpt lat="45.70825" lon="6.19115">
        <ele>1889.8000488281</ele>
        <time>2014-03-02T09:29:50.000Z</time>
      </trkpt>
      <trkpt lat="45.70798" lon="6.19121">
        <ele>1888.5999755859</ele>
        <time>2014-03-02T09:29:55.000Z</time>
      </trkpt>
      <trkpt lat="45.7078" lon="6.1913">
        <ele>1888</ele>
        <time>2014-03-02T09:29:59.000Z</time>
      </trkpt>
      <trkpt lat="45.7077" lon="6.19132">
        <ele>1888</ele>
        <time>2014-03-02T09:30:04.000Z</time>
      </trkpt>
      <trkpt lat="45.70763" lon="6.19135">
        <ele>1888</ele>
        <time>2014-03-02T09:30:09.000Z</time>
      </trkpt>
      <trkpt lat="45.70752" lon="6.19137">
        <ele>1888.1999511719</ele>
        <time>2014-03-02T09:30:16.000Z</time>
      </trkpt>
      <trkpt lat="45.70746" lon="6.19137">
        <ele>1888</ele>
        <time>2014-03-02T09:30:20.000Z</time>
      </trkpt>
      <trkpt lat="45.7074" lon="6.19136">
        <ele>1887.5999755859</ele>
        <time>2014-03-02T09:30:25.000Z</time>
      </trkpt>
      <trkpt lat="45.70735" lon="6.19136">
        <ele>1887.1999511719</ele>
        <time>2014-03-02T09:30:29.000Z</time>
      </trkpt>
      <trkpt lat="45.70727" lon="6.19136">
        <ele>1886.8000488281</ele>
        <time>2014-03-02T09:30:35.000Z</time>
      </trkpt>
      <trkpt lat="45.70716" lon="6.19134">
        <ele>1886</ele>
        <time>2014-03-02T09:30:43.000Z</time>
      </trkpt>
      <trkpt lat="45.7071" lon="6.19134">
        <ele>1885.5999755859</ele>
        <time>2014-03-02T09:30:48.000Z</time>
      </trkpt>
      <trkpt lat="45.70703" lon="6.19135">
        <ele>1885.1999511719</ele>
        <time>2014-03-02T09:30:54.000Z</time>
      </trkpt>
      <trkpt lat="45.70694" lon="6.19134">
        <ele>1884.5999755859</ele>
        <time>2014-03-02T09:31:00.000Z</time>
      </trkpt>
      <trkpt lat="45.70684" lon="6.19132">
        <ele>1883.8000488281</ele>
        <time>2014-03-02T09:31:07.000Z</time>
      </trkpt>
      <trkpt lat="45.70677" lon="6.19131">
        <ele>1883.4000244141</ele>
        <time>2014-03-02T09:31:12.000Z</time>
      </trkpt>
      <trkpt lat="45.70672" lon="6.19131">
        <ele>1883</ele>
        <time>2014-03-02T09:31:17.000Z</time>
      </trkpt>
      <trkpt lat="45.70667" lon="6.19129">
        <ele>1882.5999755859</ele>
        <time>2014-03-02T09:31:21.000Z</time>
      </trkpt>
      <trkpt lat="45.70661" lon="6.19128">
        <ele>1882.5999755859</ele>
        <time>2014-03-02T09:31:27.000Z</time>
      </trkpt>
      <trkpt lat="45.70653" lon="6.19126">
        <ele>1882.5999755859</ele>
        <time>2014-03-02T09:31:34.000Z</time>
      </trkpt>
      <trkpt lat="45.70648" lon="6.19125">
        <ele>1882.8000488281</ele>
        <time>2014-03-02T09:31:41.000Z</time>
      </trkpt>
      <trkpt lat="45.70642" lon="6.19123">
        <ele>1882.8000488281</ele>
        <time>2014-03-02T09:31:47.000Z</time>
      </trkpt>
      <trkpt lat="45.7064" lon="6.19122">
        <ele>1882.8000488281</ele>
        <time>2014-03-02T09:31:54.000Z</time>
      </trkpt>
      <trkpt lat="45.70634" lon="6.19119">
        <ele>1883</ele>
        <time>2014-03-02T09:32:00.000Z</time>
      </trkpt>
      <trkpt lat="45.70629" lon="6.19117">
        <ele>1883</ele>
        <time>2014-03-02T09:32:06.000Z</time>
      </trkpt>
      <trkpt lat="45.70625" lon="6.19116">
        <ele>1883.1999511719</ele>
        <time>2014-03-02T09:32:11.000Z</time>
      </trkpt>
      <trkpt lat="45.70621" lon="6.19115">
        <ele>1883.4000244141</ele>
        <time>2014-03-02T09:32:17.000Z</time>
      </trkpt>
      <trkpt lat="45.70617" lon="6.19114">
        <ele>1883.4000244141</ele>
        <time>2014-03-02T09:32:23.000Z</time>
      </trkpt>
      <trkpt lat="45.70611" lon="6.19112">
        <ele>1883.8000488281</ele>
        <time>2014-03-02T09:32:29.000Z</time>
      </trkpt>
      <trkpt lat="45.70604" lon="6.1911">
        <ele>1884</ele>
        <time>2014-03-02T09:32:35.000Z</time>
      </trkpt>
      <trkpt lat="45.70597" lon="6.19108">
        <ele>1884.4000244141</ele>
        <time>2014-03-02T09:32:42.000Z</time>
      </trkpt>
      <trkpt lat="45.70589" lon="6.19105">
        <ele>1885</ele>
        <time>2014-03-02T09:32:49.000Z</time>
      </trkpt>
      <trkpt lat="45.70584" lon="6.19103">
        <ele>1885.1999511719</ele>
        <time>2014-03-02T09:32:55.000Z</time>
      </trkpt>
      <trkpt lat="45.70577" lon="6.19101">
        <ele>1885.8000488281</ele>
        <time>2014-03-02T09:33:01.000Z</time>
      </trkpt>
      <trkpt lat="45.70573" lon="6.19098">
        <ele>1886</ele>
        <time>2014-03-02T09:33:05.000Z</time>
      </trkpt>
      <trkpt lat="45.70569" lon="6.19096">
        <ele>1886.4000244141</ele>
        <time>2014-03-02T09:33:10.000Z</time>
      </trkpt>
      <trkpt lat="45.70564" lon="6.19094">
        <ele>1886.8000488281</ele>
        <time>2014-03-02T09:33:16.000Z</time>
      </trkpt>
      <trkpt lat="45.70559" lon="6.19093">
        <ele>1887.1999511719</ele>
        <time>2014-03-02T09:33:21.000Z</time>
      </trkpt>
      <trkpt lat="45.70554" lon="6.1909">
        <ele>1887.5999755859</ele>
        <time>2014-03-02T09:33:28.000Z</time>
      </trkpt>
      <trkpt lat="45.70549" lon="6.19085">
        <ele>1888.4000244141</ele>
        <time>2014-03-02T09:33:35.000Z</time>
      </trkpt>
      <trkpt lat="45.70541" lon="6.19082">
        <ele>1888.5999755859</ele>
        <time>2014-03-02T09:33:40.000Z</time>
      </trkpt>
      <trkpt lat="45.70532" lon="6.1908">
        <ele>1888.5999755859</ele>
        <time>2014-03-02T09:33:46.000Z</time>
      </trkpt>
      <trkpt lat="45.70524" lon="6.19076">
        <ele>1888.4000244141</ele>
        <time>2014-03-02T09:33:52.000Z</time>
      </trkpt>
      <trkpt lat="45.70516" lon="6.19072">
        <ele>1888</ele>
        <time>2014-03-02T09:33:57.000Z</time>
      </trkpt>
      <trkpt lat="45.70513" lon="6.19071">
        <ele>1888</ele>
        <time>2014-03-02T09:34:01.000Z</time>
      </trkpt>
      <trkpt lat="45.70509" lon="6.19069">
        <ele>1888</ele>
        <time>2014-03-02T09:34:13.000Z</time>
      </trkpt>
      <trkpt lat="45.70501" lon="6.19067">
        <ele>1888.1999511719</ele>
        <time>2014-03-02T09:34:20.000Z</time>
      </trkpt>
      <trkpt lat="45.70495" lon="6.19064">
        <ele>1886.8000488281</ele>
        <time>2014-03-02T09:34:26.000Z</time>
      </trkpt>
      <trkpt lat="45.70489" lon="6.19056">
        <ele>1884.5999755859</ele>
        <time>2014-03-02T09:34:30.000Z</time>
      </trkpt>
      <trkpt lat="45.70474" lon="6.1904">
        <ele>1880.8000488281</ele>
        <time>2014-03-02T09:34:33.000Z</time>
      </trkpt>
      <trkpt lat="45.70457" lon="6.19023">
        <ele>1877.8000488281</ele>
        <time>2014-03-02T09:34:37.000Z</time>
      </trkpt>
      <trkpt lat="45.7044" lon="6.19004">
        <ele>1876.4000244141</ele>
        <time>2014-03-02T09:34:41.000Z</time>
      </trkpt>
      <trkpt lat="45.70432" lon="6.18999">
        <ele>1875.8000488281</ele>
        <time>2014-03-02T09:34:44.000Z</time>
      </trkpt>
      <trkpt lat="45.70423" lon="6.18993">
        <ele>1874.4000244141</ele>
        <time>2014-03-02T09:34:50.000Z</time>
      </trkpt>
      <trkpt lat="45.70416" lon="6.18991">
        <ele>1873.4000244141</ele>
        <time>2014-03-02T09:34:54.000Z</time>
      </trkpt>
      <trkpt lat="45.70414" lon="6.1899">
        <ele>1873</ele>
        <time>2014-03-02T09:35:00.000Z</time>
      </trkpt>
      <trkpt lat="45.70411" lon="6.18991">
        <ele>1872.8000488281</ele>
        <time>2014-03-02T09:35:07.000Z</time>
      </trkpt>
      <trkpt lat="45.70398" lon="6.19">
        <ele>1872.1999511719</ele>
        <time>2014-03-02T09:35:11.000Z</time>
      </trkpt>
      <trkpt lat="45.70378" lon="6.19006">
        <ele>1867.4000244141</ele>
        <time>2014-03-02T09:35:14.000Z</time>
      </trkpt>
      <trkpt lat="45.70339" lon="6.18998">
        <ele>1860.1999511719</ele>
        <time>2014-03-02T09:35:19.000Z</time>
      </trkpt>
      <trkpt lat="45.70324" lon="6.18996">
        <ele>1856.4000244141</ele>
        <time>2014-03-02T09:35:21.000Z</time>
      </trkpt>
      <trkpt lat="45.7031" lon="6.18997">
        <ele>1852.8000488281</ele>
        <time>2014-03-02T09:35:23.000Z</time>
      </trkpt>
      <trkpt lat="45.703" lon="6.18996">
        <ele>1850.1999511719</ele>
        <time>2014-03-02T09:35:25.000Z</time>
      </trkpt>
      <trkpt lat="45.70287" lon="6.18994">
        <ele>1846.8000488281</ele>
        <time>2014-03-02T09:35:29.000Z</time>
      </trkpt>
      <trkpt lat="45.70258" lon="6.18996">
        <ele>1839.1999511719</ele>
        <time>2014-03-02T09:35:36.000Z</time>
      </trkpt>
      <trkpt lat="45.70227" lon="6.18994">
        <ele>1829.1999511719</ele>
        <time>2014-03-02T09:35:42.000Z</time>
      </trkpt>
      <trkpt lat="45.70211" lon="6.18992">
        <ele>1823.8000488281</ele>
        <time>2014-03-02T09:35:45.000Z</time>
      </trkpt>
      <trkpt lat="45.70179" lon="6.18984">
        <ele>1812.5999755859</ele>
        <time>2014-03-02T09:35:51.000Z</time>
      </trkpt>
      <trkpt lat="45.70147" lon="6.1898">
        <ele>1803.1999511719</ele>
        <time>2014-03-02T09:35:56.000Z</time>
      </trkpt>
      <trkpt lat="45.70128" lon="6.18982">
        <ele>1798.4000244141</ele>
        <time>2014-03-02T09:36:00.000Z</time>
      </trkpt>
      <trkpt lat="45.70115" lon="6.18973">
        <ele>1794.8000488281</ele>
        <time>2014-03-02T09:36:02.000Z</time>
      </trkpt>
      <trkpt lat="45.70096" lon="6.18971">
        <ele>1789.8000488281</ele>
        <time>2014-03-02T09:36:06.000Z</time>
      </trkpt>
      <trkpt lat="45.70094" lon="6.18973">
        <ele>1789.4000244141</ele>
        <time>2014-03-02T09:36:11.000Z</time>
      </trkpt>
      <trkpt lat="45.70095" lon="6.18974">
        <ele>1789.8000488281</ele>
        <time>2014-03-02T09:36:20.000Z</time>
      </trkpt>
      <trkpt lat="45.70095" lon="6.18975">
        <ele>1789.8000488281</ele>
        <time>2014-03-02T09:36:29.000Z</time>
      </trkpt>
      <trkpt lat="45.70096" lon="6.18975">
        <ele>1790</ele>
        <time>2014-03-02T09:36:36.000Z</time>
      </trkpt>
      <trkpt lat="45.70096" lon="6.18976">
        <ele>1790.1999511719</ele>
        <time>2014-03-02T09:36:48.000Z</time>
      </trkpt>
      <trkpt lat="45.70096" lon="6.18976">
        <ele>1790</ele>
        <time>2014-03-02T09:36:59.000Z</time>
      </trkpt>
      <trkpt lat="45.70096" lon="6.18976">
        <ele>1790.1999511719</ele>
        <time>2014-03-02T09:37:04.000Z</time>
      </trkpt>
      <trkpt lat="45.70095" lon="6.18976">
        <ele>1790</ele>
        <time>2014-03-02T09:37:13.000Z</time>
      </trkpt>
      <trkpt lat="45.70095" lon="6.18976">
        <ele>1790</ele>
        <time>2014-03-02T09:37:21.000Z</time>
      </trkpt>
      <trkpt lat="45.70095" lon="6.18977">
        <ele>1789.8000488281</ele>
        <time>2014-03-02T09:37:27.000Z</time>
      </trkpt>
      <trkpt lat="45.70094" lon="6.18978">
        <ele>1789.8000488281</ele>
        <time>2014-03-02T09:37:34.000Z</time>
      </trkpt>
      <trkpt lat="45.70091" lon="6.18979">
        <ele>1789.1999511719</ele>
        <time>2014-03-02T09:37:38.000Z</time>
      </trkpt>
      <trkpt lat="45.70087" lon="6.1898">
        <ele>1788.4000244141</ele>
        <time>2014-03-02T09:37:43.000Z</time>
      </trkpt>
      <trkpt lat="45.70081" lon="6.18981">
        <ele>1787.4000244141</ele>
        <time>2014-03-02T09:37:50.000Z</time>
      </trkpt>
      <trkpt lat="45.70075" lon="6.1898">
        <ele>1787.4000244141</ele>
        <time>2014-03-02T09:37:56.000Z</time>
      </trkpt>
      <trkpt lat="45.70071" lon="6.18977">
        <ele>1787.1999511719</ele>
        <time>2014-03-02T09:38:01.000Z</time>
      </trkpt>
      <trkpt lat="45.70065" lon="6.18974">
        <ele>1787</ele>
        <time>2014-03-02T09:38:07.000Z</time>
      </trkpt>
      <trkpt lat="45.7006" lon="6.18971">
        <ele>1786.8000488281</ele>
        <time>2014-03-02T09:38:11.000Z</time>
      </trkpt>
      <trkpt lat="45.70054" lon="6.18968">
        <ele>1786.5999755859</ele>
        <time>2014-03-02T09:38:16.000Z</time>
      </trkpt>
      <trkpt lat="45.70048" lon="6.18965">
        <ele>1786.4000244141</ele>
        <time>2014-03-02T09:38:22.000Z</time>
      </trkpt>
      <trkpt lat="45.70045" lon="6.18963">
        <ele>1786.4000244141</ele>
        <time>2014-03-02T09:38:25.000Z</time>
      </trkpt>
      <trkpt lat="45.70038" lon="6.18959">
        <ele>1786.1999511719</ele>
        <time>2014-03-02T09:38:32.000Z</time>
      </trkpt>
      <trkpt lat="45.70033" lon="6.18957">
        <ele>1786</ele>
        <time>2014-03-02T09:38:37.000Z</time>
      </trkpt>
      <trkpt lat="45.70028" lon="6.18954">
        <ele>1785.8000488281</ele>
        <time>2014-03-02T09:38:43.000Z</time>
      </trkpt>
      <trkpt lat="45.70022" lon="6.1895">
        <ele>1785.5999755859</ele>
        <time>2014-03-02T09:38:51.000Z</time>
      </trkpt>
      <trkpt lat="45.70016" lon="6.18948">
        <ele>1785.4000244141</ele>
        <time>2014-03-02T09:38:58.000Z</time>
      </trkpt>
      <trkpt lat="45.7001" lon="6.18944">
        <ele>1785.1999511719</ele>
        <time>2014-03-02T09:39:06.000Z</time>
      </trkpt>
      <trkpt lat="45.70004" lon="6.18943">
        <ele>1785.1999511719</ele>
        <time>2014-03-02T09:39:12.000Z</time>
      </trkpt>
      <trkpt lat="45.69998" lon="6.18941">
        <ele>1785.8000488281</ele>
        <time>2014-03-02T09:39:18.000Z</time>
      </trkpt>
      <trkpt lat="45.69992" lon="6.18939">
        <ele>1787.1999511719</ele>
        <time>2014-03-02T09:39:24.000Z</time>
      </trkpt>
      <trkpt lat="45.69989" lon="6.18938">
        <ele>1787.8000488281</ele>
        <time>2014-03-02T09:39:29.000Z</time>
      </trkpt>
      <trkpt lat="45.69986" lon="6.18936">
        <ele>1788.5999755859</ele>
        <time>2014-03-02T09:39:34.000Z</time>
      </trkpt>
      <trkpt lat="45.69978" lon="6.18932">
        <ele>1790.8000488281</ele>
        <time>2014-03-02T09:39:44.000Z</time>
      </trkpt>
      <trkpt lat="45.69972" lon="6.18929">
        <ele>1792.8000488281</ele>
        <time>2014-03-02T09:39:52.000Z</time>
      </trkpt>
      <trkpt lat="45.69967" lon="6.18927">
        <ele>1794.1999511719</ele>
        <time>2014-03-02T09:39:58.000Z</time>
      </trkpt>
      <trkpt lat="45.6996" lon="6.18925">
        <ele>1796.1999511719</ele>
        <time>2014-03-02T09:40:06.000Z</time>
      </trkpt>
      <trkpt lat="45.69954" lon="6.18924">
        <ele>1798.1999511719</ele>
        <time>2014-03-02T09:40:13.000Z</time>
      </trkpt>
      <trkpt lat="45.69949" lon="6.18923">
        <ele>1799.8000488281</ele>
        <time>2014-03-02T09:40:21.000Z</time>
      </trkpt>
      <trkpt lat="45.69943" lon="6.18922">
        <ele>1802</ele>
        <time>2014-03-02T09:40:30.000Z</time>
      </trkpt>
      <trkpt lat="45.69938" lon="6.18921">
        <ele>1803.8000488281</ele>
        <time>2014-03-02T09:40:38.000Z</time>
      </trkpt>
      <trkpt lat="45.69934" lon="6.18918">
        <ele>1805.1999511719</ele>
        <time>2014-03-02T09:40:44.000Z</time>
      </trkpt>
      <trkpt lat="45.6993" lon="6.18917">
        <ele>1806.4000244141</ele>
        <time>2014-03-02T09:40:50.000Z</time>
      </trkpt>
      <trkpt lat="45.69927" lon="6.18915">
        <ele>1807</ele>
        <time>2014-03-02T09:40:56.000Z</time>
      </trkpt>
      <trkpt lat="45.69924" lon="6.18915">
        <ele>1807.8000488281</ele>
        <time>2014-03-02T09:41:00.000Z</time>
      </trkpt>
      <trkpt lat="45.69918" lon="6.18912">
        <ele>1809</ele>
        <time>2014-03-02T09:41:08.000Z</time>
      </trkpt>
      <trkpt lat="45.69914" lon="6.18911">
        <ele>1809.5999755859</ele>
        <time>2014-03-02T09:41:15.000Z</time>
      </trkpt>
      <trkpt lat="45.69912" lon="6.18909">
        <ele>1809.5999755859</ele>
        <time>2014-03-02T09:41:22.000Z</time>
      </trkpt>
      <trkpt lat="45.69909" lon="6.18907">
        <ele>1809.5999755859</ele>
        <time>2014-03-02T09:41:27.000Z</time>
      </trkpt>
      <trkpt lat="45.69905" lon="6.18904">
        <ele>1809.4000244141</ele>
        <time>2014-03-02T09:41:33.000Z</time>
      </trkpt>
      <trkpt lat="45.69902" lon="6.18901">
        <ele>1809.4000244141</ele>
        <time>2014-03-02T09:41:40.000Z</time>
      </trkpt>
      <trkpt lat="45.69896" lon="6.18897">
        <ele>1809.8000488281</ele>
        <time>2014-03-02T09:41:46.000Z</time>
      </trkpt>
      <trkpt lat="45.69892" lon="6.18894">
        <ele>1810.1999511719</ele>
        <time>2014-03-02T09:41:52.000Z</time>
      </trkpt>
      <trkpt lat="45.69888" lon="6.18892">
        <ele>1810.8000488281</ele>
        <time>2014-03-02T09:41:58.000Z</time>
      </trkpt>
      <trkpt lat="45.69885" lon="6.18891">
        <ele>1811.8000488281</ele>
        <time>2014-03-02T09:42:03.000Z</time>
      </trkpt>
      <trkpt lat="45.6988" lon="6.1889">
        <ele>1812.8000488281</ele>
        <time>2014-03-02T09:42:09.000Z</time>
      </trkpt>
      <trkpt lat="45.69875" lon="6.18888">
        <ele>1814</ele>
        <time>2014-03-02T09:42:15.000Z</time>
      </trkpt>
      <trkpt lat="45.69868" lon="6.18887">
        <ele>1815.8000488281</ele>
        <time>2014-03-02T09:42:22.000Z</time>
      </trkpt>
      <trkpt lat="45.69862" lon="6.18885">
        <ele>1817.4000244141</ele>
        <time>2014-03-02T09:42:29.000Z</time>
      </trkpt>
      <trkpt lat="45.69857" lon="6.18883">
        <ele>1819</ele>
        <time>2014-03-02T09:42:33.000Z</time>
      </trkpt>
      <trkpt lat="45.69851" lon="6.1888">
        <ele>1820.5999755859</ele>
        <time>2014-03-02T09:42:38.000Z</time>
      </trkpt>
      <trkpt lat="45.69845" lon="6.18878">
        <ele>1822.4000244141</ele>
        <time>2014-03-02T09:42:45.000Z</time>
      </trkpt>
      <trkpt lat="45.6984" lon="6.18876">
        <ele>1823.8000488281</ele>
        <time>2014-03-02T09:42:51.000Z</time>
      </trkpt>
      <trkpt lat="45.69834" lon="6.18873">
        <ele>1825.8000488281</ele>
        <time>2014-03-02T09:42:58.000Z</time>
      </trkpt>
      <trkpt lat="45.69828" lon="6.18871">
        <ele>1826</ele>
        <time>2014-03-02T09:43:05.000Z</time>
      </trkpt>
      <trkpt lat="45.69821" lon="6.18871">
        <ele>1826.5999755859</ele>
        <time>2014-03-02T09:43:13.000Z</time>
      </trkpt>
      <trkpt lat="45.69819" lon="6.18872">
        <ele>1826.8000488281</ele>
        <time>2014-03-02T09:43:17.000Z</time>
      </trkpt>
      <trkpt lat="45.69814" lon="6.18874">
        <ele>1827.4000244141</ele>
        <time>2014-03-02T09:43:24.000Z</time>
      </trkpt>
      <trkpt lat="45.69807" lon="6.18879">
        <ele>1828.5999755859</ele>
        <time>2014-03-02T09:43:32.000Z</time>
      </trkpt>
      <trkpt lat="45.69804" lon="6.18883">
        <ele>1829.4000244141</ele>
        <time>2014-03-02T09:43:36.000Z</time>
      </trkpt>
      <trkpt lat="45.69798" lon="6.1889">
        <ele>1831</ele>
        <time>2014-03-02T09:43:44.000Z</time>
      </trkpt>
      <trkpt lat="45.69794" lon="6.18897">
        <ele>1832.4000244141</ele>
        <time>2014-03-02T09:43:52.000Z</time>
      </trkpt>
      <trkpt lat="45.69791" lon="6.18904">
        <ele>1834</ele>
        <time>2014-03-02T09:43:59.000Z</time>
      </trkpt>
      <trkpt lat="45.69788" lon="6.18913">
        <ele>1835.8000488281</ele>
        <time>2014-03-02T09:44:07.000Z</time>
      </trkpt>
      <trkpt lat="45.69786" lon="6.18919">
        <ele>1837</ele>
        <time>2014-03-02T09:44:13.000Z</time>
      </trkpt>
      <trkpt lat="45.69782" lon="6.18927">
        <ele>1837.8000488281</ele>
        <time>2014-03-02T09:44:20.000Z</time>
      </trkpt>
      <trkpt lat="45.69779" lon="6.18932">
        <ele>1838.5999755859</ele>
        <time>2014-03-02T09:44:26.000Z</time>
      </trkpt>
      <trkpt lat="45.69776" lon="6.18935">
        <ele>1839.4000244141</ele>
        <time>2014-03-02T09:44:32.000Z</time>
      </trkpt>
      <trkpt lat="45.69772" lon="6.18939">
        <ele>1840.4000244141</ele>
        <time>2014-03-02T09:44:39.000Z</time>
      </trkpt>
      <trkpt lat="45.6977" lon="6.18945">
        <ele>1841.4000244141</ele>
        <time>2014-03-02T09:44:46.000Z</time>
      </trkpt>
      <trkpt lat="45.69769" lon="6.18957">
        <ele>1842.5999755859</ele>
        <time>2014-03-02T09:44:55.000Z</time>
      </trkpt>
      <trkpt lat="45.69769" lon="6.18959">
        <ele>1842.8000488281</ele>
        <time>2014-03-02T09:44:56.000Z</time>
      </trkpt>
      <trkpt lat="45.69767" lon="6.18973">
        <ele>1844.5999755859</ele>
        <time>2014-03-02T09:45:02.000Z</time>
      </trkpt>
      <trkpt lat="45.69766" lon="6.18977">
        <ele>1845.1999511719</ele>
        <time>2014-03-02T09:45:04.000Z</time>
      </trkpt>
      <trkpt lat="45.69764" lon="6.18986">
        <ele>1846.8000488281</ele>
        <time>2014-03-02T09:45:08.000Z</time>
      </trkpt>
      <trkpt lat="45.69761" lon="6.19">
        <ele>1849.4000244141</ele>
        <time>2014-03-02T09:45:14.000Z</time>
      </trkpt>
      <trkpt lat="45.69755" lon="6.19011">
        <ele>1848.4000244141</ele>
        <time>2014-03-02T09:45:19.000Z</time>
      </trkpt>
      <trkpt lat="45.69751" lon="6.19018">
        <ele>1848.1999511719</ele>
        <time>2014-03-02T09:45:24.000Z</time>
      </trkpt>
      <trkpt lat="45.69746" lon="6.19022">
        <ele>1848.1999511719</ele>
        <time>2014-03-02T09:45:31.000Z</time>
      </trkpt>
      <trkpt lat="45.69741" lon="6.19025">
        <ele>1848.5999755859</ele>
        <time>2014-03-02T09:45:38.000Z</time>
      </trkpt>
      <trkpt lat="45.69737" lon="6.19025">
        <ele>1849.5999755859</ele>
        <time>2014-03-02T09:45:44.000Z</time>
      </trkpt>
      <trkpt lat="45.69734" lon="6.19025">
        <ele>1850.4000244141</ele>
        <time>2014-03-02T09:45:49.000Z</time>
      </trkpt>
      <trkpt lat="45.6973" lon="6.19025">
        <ele>1851.1999511719</ele>
        <time>2014-03-02T09:45:54.000Z</time>
      </trkpt>
      <trkpt lat="45.69728" lon="6.19026">
        <ele>1851.8000488281</ele>
        <time>2014-03-02T09:45:58.000Z</time>
      </trkpt>
      <trkpt lat="45.69726" lon="6.19026">
        <ele>1852.1999511719</ele>
        <time>2014-03-02T09:46:05.000Z</time>
      </trkpt>
      <trkpt lat="45.69725" lon="6.19028">
        <ele>1851.8000488281</ele>
        <time>2014-03-02T09:46:10.000Z</time>
      </trkpt>
      <trkpt lat="45.69723" lon="6.19029">
        <ele>1852</ele>
        <time>2014-03-02T09:46:15.000Z</time>
      </trkpt>
      <trkpt lat="45.69721" lon="6.19031">
        <ele>1852.4000244141</ele>
        <time>2014-03-02T09:46:19.000Z</time>
      </trkpt>
      <trkpt lat="45.69718" lon="6.19034">
        <ele>1852.5999755859</ele>
        <time>2014-03-02T09:46:23.000Z</time>
      </trkpt>
      <trkpt lat="45.69717" lon="6.19036">
        <ele>1852.5999755859</ele>
        <time>2014-03-02T09:46:27.000Z</time>
      </trkpt>
      <trkpt lat="45.69714" lon="6.19037">
        <ele>1853</ele>
        <time>2014-03-02T09:46:31.000Z</time>
      </trkpt>
      <trkpt lat="45.69712" lon="6.19037">
        <ele>1853.8000488281</ele>
        <time>2014-03-02T09:46:37.000Z</time>
      </trkpt>
      <trkpt lat="45.69709" lon="6.19039">
        <ele>1854.4000244141</ele>
        <time>2014-03-02T09:46:42.000Z</time>
      </trkpt>
      <trkpt lat="45.69708" lon="6.1904">
        <ele>1854.4000244141</ele>
        <time>2014-03-02T09:46:46.000Z</time>
      </trkpt>
      <trkpt lat="45.69705" lon="6.19043">
        <ele>1854.8000488281</ele>
        <time>2014-03-02T09:46:50.000Z</time>
      </trkpt>
      <trkpt lat="45.69703" lon="6.19044">
        <ele>1855.4000244141</ele>
        <time>2014-03-02T09:46:53.000Z</time>
      </trkpt>
      <trkpt lat="45.697" lon="6.19045">
        <ele>1856</ele>
        <time>2014-03-02T09:46:58.000Z</time>
      </trkpt>
      <trkpt lat="45.69699" lon="6.19046">
        <ele>1856.1999511719</ele>
        <time>2014-03-02T09:47:01.000Z</time>
      </trkpt>
      <trkpt lat="45.69697" lon="6.19046">
        <ele>1856.8000488281</ele>
        <time>2014-03-02T09:47:05.000Z</time>
      </trkpt>
      <trkpt lat="45.69695" lon="6.19048">
        <ele>1857.1999511719</ele>
        <time>2014-03-02T09:47:09.000Z</time>
      </trkpt>
      <trkpt lat="45.69693" lon="6.19048">
        <ele>1857.8000488281</ele>
        <time>2014-03-02T09:47:14.000Z</time>
      </trkpt>
      <trkpt lat="45.6969" lon="6.19048">
        <ele>1858.8000488281</ele>
        <time>2014-03-02T09:47:19.000Z</time>
      </trkpt>
      <trkpt lat="45.69689" lon="6.19047">
        <ele>1859.4000244141</ele>
        <time>2014-03-02T09:47:23.000Z</time>
      </trkpt>
      <trkpt lat="45.69685" lon="6.19047">
        <ele>1860.5999755859</ele>
        <time>2014-03-02T09:47:29.000Z</time>
      </trkpt>
      <trkpt lat="45.69681" lon="6.19046">
        <ele>1861.8000488281</ele>
        <time>2014-03-02T09:47:35.000Z</time>
      </trkpt>
      <trkpt lat="45.69679" lon="6.19047">
        <ele>1862.4000244141</ele>
        <time>2014-03-02T09:47:40.000Z</time>
      </trkpt>
      <trkpt lat="45.69676" lon="6.19047">
        <ele>1863.4000244141</ele>
        <time>2014-03-02T09:47:45.000Z</time>
      </trkpt>
      <trkpt lat="45.69676" lon="6.19048">
        <ele>1863.5999755859</ele>
        <time>2014-03-02T09:47:50.000Z</time>
      </trkpt>
      <trkpt lat="45.69678" lon="6.19051">
        <ele>1862.8000488281</ele>
        <time>2014-03-02T09:47:56.000Z</time>
      </trkpt>
      <trkpt lat="45.6968" lon="6.19057">
        <ele>1861.5999755859</ele>
        <time>2014-03-02T09:48:02.000Z</time>
      </trkpt>
      <trkpt lat="45.69678" lon="6.19057">
        <ele>1862.4000244141</ele>
        <time>2014-03-02T09:48:06.000Z</time>
      </trkpt>
      <trkpt lat="45.69673" lon="6.19055">
        <ele>1864.1999511719</ele>
        <time>2014-03-02T09:48:10.000Z</time>
      </trkpt>
      <trkpt lat="45.69669" lon="6.19055">
        <ele>1865.5999755859</ele>
        <time>2014-03-02T09:48:13.000Z</time>
      </trkpt>
      <trkpt lat="45.69668" lon="6.19054">
        <ele>1865.8000488281</ele>
        <time>2014-03-02T09:48:14.000Z</time>
      </trkpt>
      <trkpt lat="45.69666" lon="6.19053">
        <ele>1866.8000488281</ele>
        <time>2014-03-02T09:48:18.000Z</time>
      </trkpt>
      <trkpt lat="45.69665" lon="6.19057">
        <ele>1866.8000488281</ele>
        <time>2014-03-02T09:48:23.000Z</time>
      </trkpt>
      <trkpt lat="45.69663" lon="6.19062">
        <ele>1867.5999755859</ele>
        <time>2014-03-02T09:48:28.000Z</time>
      </trkpt>
      <trkpt lat="45.69661" lon="6.19061">
        <ele>1868.1999511719</ele>
        <time>2014-03-02T09:48:32.000Z</time>
      </trkpt>
      <trkpt lat="45.69661" lon="6.19062">
        <ele>1868.4000244141</ele>
        <time>2014-03-02T09:48:38.000Z</time>
      </trkpt>
      <trkpt lat="45.69661" lon="6.19064">
        <ele>1868</ele>
        <time>2014-03-02T09:48:43.000Z</time>
      </trkpt>
      <trkpt lat="45.6966" lon="6.19063">
        <ele>1868.8000488281</ele>
        <time>2014-03-02T09:48:47.000Z</time>
      </trkpt>
      <trkpt lat="45.69658" lon="6.19061">
        <ele>1869.4000244141</ele>
        <time>2014-03-02T09:48:53.000Z</time>
      </trkpt>
      <trkpt lat="45.69656" lon="6.19059">
        <ele>1870</ele>
        <time>2014-03-02T09:48:58.000Z</time>
      </trkpt>
      <trkpt lat="45.69655" lon="6.19058">
        <ele>1870.5999755859</ele>
        <time>2014-03-02T09:49:02.000Z</time>
      </trkpt>
      <trkpt lat="45.69654" lon="6.19058">
        <ele>1870.8000488281</ele>
        <time>2014-03-02T09:49:06.000Z</time>
      </trkpt>
      <trkpt lat="45.69654" lon="6.19061">
        <ele>1870.8000488281</ele>
        <time>2014-03-02T09:49:10.000Z</time>
      </trkpt>
      <trkpt lat="45.69653" lon="6.19061">
        <ele>1871</ele>
        <time>2014-03-02T09:49:14.000Z</time>
      </trkpt>
      <trkpt lat="45.69652" lon="6.19061">
        <ele>1871.4000244141</ele>
        <time>2014-03-02T09:49:19.000Z</time>
      </trkpt>
      <trkpt lat="45.6965" lon="6.19058">
        <ele>1872.1999511719</ele>
        <time>2014-03-02T09:49:24.000Z</time>
      </trkpt>
      <trkpt lat="45.69649" lon="6.19057">
        <ele>1872.8000488281</ele>
        <time>2014-03-02T09:49:28.000Z</time>
      </trkpt>
      <trkpt lat="45.69648" lon="6.19059">
        <ele>1873.1999511719</ele>
        <time>2014-03-02T09:49:33.000Z</time>
      </trkpt>
      <trkpt lat="45.69647" lon="6.19061">
        <ele>1873.1999511719</ele>
        <time>2014-03-02T09:49:37.000Z</time>
      </trkpt>
      <trkpt lat="45.69646" lon="6.19062">
        <ele>1873.4000244141</ele>
        <time>2014-03-02T09:49:42.000Z</time>
      </trkpt>
      <trkpt lat="45.69645" lon="6.19064">
        <ele>1874</ele>
        <time>2014-03-02T09:49:47.000Z</time>
      </trkpt>
      <trkpt lat="45.69642" lon="6.19065">
        <ele>1875</ele>
        <time>2014-03-02T09:49:54.000Z</time>
      </trkpt>
      <trkpt lat="45.69638" lon="6.19066">
        <ele>1876.4000244141</ele>
        <time>2014-03-02T09:50:01.000Z</time>
      </trkpt>
      <trkpt lat="45.69634" lon="6.19068">
        <ele>1877.5999755859</ele>
        <time>2014-03-02T09:50:07.000Z</time>
      </trkpt>
      <trkpt lat="45.69631" lon="6.1907">
        <ele>1878.5999755859</ele>
        <time>2014-03-02T09:50:12.000Z</time>
      </trkpt>
      <trkpt lat="45.69627" lon="6.19071">
        <ele>1880</ele>
        <time>2014-03-02T09:50:19.000Z</time>
      </trkpt>
      <trkpt lat="45.69625" lon="6.19071">
        <ele>1880.8000488281</ele>
        <time>2014-03-02T09:50:24.000Z</time>
      </trkpt>
      <trkpt lat="45.69622" lon="6.19073">
        <ele>1882</ele>
        <time>2014-03-02T09:50:29.000Z</time>
      </trkpt>
      <trkpt lat="45.69616" lon="6.19074">
        <ele>1884</ele>
        <time>2014-03-02T09:50:35.000Z</time>
      </trkpt>
      <trkpt lat="45.69608" lon="6.19076">
        <ele>1886.8000488281</ele>
        <time>2014-03-02T09:50:42.000Z</time>
      </trkpt>
      <trkpt lat="45.69598" lon="6.19081">
        <ele>1890</ele>
        <time>2014-03-02T09:50:48.000Z</time>
      </trkpt>
      <trkpt lat="45.69589" lon="6.19085">
        <ele>1892.4000244141</ele>
        <time>2014-03-02T09:50:53.000Z</time>
      </trkpt>
      <trkpt lat="45.69579" lon="6.19089">
        <ele>1893.8000488281</ele>
        <time>2014-03-02T09:51:00.000Z</time>
      </trkpt>
      <trkpt lat="45.69574" lon="6.19091">
        <ele>1893.8000488281</ele>
        <time>2014-03-02T09:51:05.000Z</time>
      </trkpt>
      <trkpt lat="45.69568" lon="6.19094">
        <ele>1893.8000488281</ele>
        <time>2014-03-02T09:51:11.000Z</time>
      </trkpt>
      <trkpt lat="45.69563" lon="6.19096">
        <ele>1893.5999755859</ele>
        <time>2014-03-02T09:51:16.000Z</time>
      </trkpt>
      <trkpt lat="45.69557" lon="6.19099">
        <ele>1893.8000488281</ele>
        <time>2014-03-02T09:51:22.000Z</time>
      </trkpt>
      <trkpt lat="45.6955" lon="6.19102">
        <ele>1894.1999511719</ele>
        <time>2014-03-02T09:51:28.000Z</time>
      </trkpt>
      <trkpt lat="45.69541" lon="6.19104">
        <ele>1895.1999511719</ele>
        <time>2014-03-02T09:51:36.000Z</time>
      </trkpt>
      <trkpt lat="45.69531" lon="6.19106">
        <ele>1896.1999511719</ele>
        <time>2014-03-02T09:51:43.000Z</time>
      </trkpt>
      <trkpt lat="45.69524" lon="6.1911">
        <ele>1897</ele>
        <time>2014-03-02T09:51:49.000Z</time>
      </trkpt>
      <trkpt lat="45.69517" lon="6.19117">
        <ele>1898.1999511719</ele>
        <time>2014-03-02T09:51:55.000Z</time>
      </trkpt>
      <trkpt lat="45.69511" lon="6.19125">
        <ele>1899.1999511719</ele>
        <time>2014-03-02T09:52:00.000Z</time>
      </trkpt>
      <trkpt lat="45.69507" lon="6.1913">
        <ele>1900.1999511719</ele>
        <time>2014-03-02T09:52:06.000Z</time>
      </trkpt>
      <trkpt lat="45.69506" lon="6.19134">
        <ele>1900.5999755859</ele>
        <time>2014-03-02T09:52:13.000Z</time>
      </trkpt>
      <trkpt lat="45.69505" lon="6.19137">
        <ele>1901</ele>
        <time>2014-03-02T09:52:21.000Z</time>
      </trkpt>
      <trkpt lat="45.69504" lon="6.19138">
        <ele>1901.1999511719</ele>
        <time>2014-03-02T09:52:29.000Z</time>
      </trkpt>
      <trkpt lat="45.69502" lon="6.19142">
        <ele>1902</ele>
        <time>2014-03-02T09:52:40.000Z</time>
      </trkpt>
      <trkpt lat="45.69501" lon="6.19144">
        <ele>1902.4000244141</ele>
        <time>2014-03-02T09:52:46.000Z</time>
      </trkpt>
      <trkpt lat="45.69498" lon="6.19151">
        <ele>1902.5999755859</ele>
        <time>2014-03-02T09:52:53.000Z</time>
      </trkpt>
      <trkpt lat="45.69495" lon="6.19157">
        <ele>1902.8000488281</ele>
        <time>2014-03-02T09:53:00.000Z</time>
      </trkpt>
      <trkpt lat="45.69492" lon="6.19161">
        <ele>1902.8000488281</ele>
        <time>2014-03-02T09:53:06.000Z</time>
      </trkpt>
      <trkpt lat="45.69491" lon="6.19168">
        <ele>1903.4000244141</ele>
        <time>2014-03-02T09:53:13.000Z</time>
      </trkpt>
      <trkpt lat="45.69489" lon="6.19173">
        <ele>1904.5999755859</ele>
        <time>2014-03-02T09:53:19.000Z</time>
      </trkpt>
      <trkpt lat="45.69487" lon="6.19176">
        <ele>1905.4000244141</ele>
        <time>2014-03-02T09:53:25.000Z</time>
      </trkpt>
      <trkpt lat="45.69485" lon="6.19179">
        <ele>1905.8000488281</ele>
        <time>2014-03-02T09:53:31.000Z</time>
      </trkpt>
      <trkpt lat="45.69481" lon="6.19182">
        <ele>1906.5999755859</ele>
        <time>2014-03-02T09:53:38.000Z</time>
      </trkpt>
      <trkpt lat="45.69479" lon="6.19184">
        <ele>1907</ele>
        <time>2014-03-02T09:53:44.000Z</time>
      </trkpt>
      <trkpt lat="45.69474" lon="6.19187">
        <ele>1907.5999755859</ele>
        <time>2014-03-02T09:53:52.000Z</time>
      </trkpt>
      <trkpt lat="45.69473" lon="6.19187">
        <ele>1907.5999755859</ele>
        <time>2014-03-02T09:53:56.000Z</time>
      </trkpt>
      <trkpt lat="45.69468" lon="6.1919">
        <ele>1908.4000244141</ele>
        <time>2014-03-02T09:54:02.000Z</time>
      </trkpt>
      <trkpt lat="45.69463" lon="6.19194">
        <ele>1909.5999755859</ele>
        <time>2014-03-02T09:54:10.000Z</time>
      </trkpt>
      <trkpt lat="45.6946" lon="6.19197">
        <ele>1910.5999755859</ele>
        <time>2014-03-02T09:54:17.000Z</time>
      </trkpt>
      <trkpt lat="45.69459" lon="6.19199">
        <ele>1911.4000244141</ele>
        <time>2014-03-02T09:54:22.000Z</time>
      </trkpt>
      <trkpt lat="45.69458" lon="6.19201">
        <ele>1911.8000488281</ele>
        <time>2014-03-02T09:54:27.000Z</time>
      </trkpt>
      <trkpt lat="45.69461" lon="6.19202">
        <ele>1912.1999511719</ele>
        <time>2014-03-02T09:54:34.000Z</time>
      </trkpt>
      <trkpt lat="45.69465" lon="6.19202">
        <ele>1912.4000244141</ele>
        <time>2014-03-02T09:54:40.000Z</time>
      </trkpt>
      <trkpt lat="45.69467" lon="6.19205">
        <ele>1913</ele>
        <time>2014-03-02T09:54:45.000Z</time>
      </trkpt>
      <trkpt lat="45.69469" lon="6.19207">
        <ele>1913.8000488281</ele>
        <time>2014-03-02T09:54:52.000Z</time>
      </trkpt>
      <trkpt lat="45.69471" lon="6.19209">
        <ele>1914.5999755859</ele>
        <time>2014-03-02T09:54:58.000Z</time>
      </trkpt>
      <trkpt lat="45.69472" lon="6.19211">
        <ele>1915</ele>
        <time>2014-03-02T09:55:02.000Z</time>
      </trkpt>
      <trkpt lat="45.69474" lon="6.19214">
        <ele>1915.8000488281</ele>
        <time>2014-03-02T09:55:07.000Z</time>
      </trkpt>
      <trkpt lat="45.69475" lon="6.19216">
        <ele>1916.4000244141</ele>
        <time>2014-03-02T09:55:11.000Z</time>
      </trkpt>
      <trkpt lat="45.69477" lon="6.19217">
        <ele>1916.8000488281</ele>
        <time>2014-03-02T09:55:15.000Z</time>
      </trkpt>
      <trkpt lat="45.69478" lon="6.1922">
        <ele>1917.4000244141</ele>
        <time>2014-03-02T09:55:20.000Z</time>
      </trkpt>
      <trkpt lat="45.69477" lon="6.19221">
        <ele>1917.8000488281</ele>
        <time>2014-03-02T09:55:25.000Z</time>
      </trkpt>
      <trkpt lat="45.69474" lon="6.19223">
        <ele>1918.5999755859</ele>
        <time>2014-03-02T09:55:32.000Z</time>
      </trkpt>
      <trkpt lat="45.69473" lon="6.19225">
        <ele>1919.1999511719</ele>
        <time>2014-03-02T09:55:37.000Z</time>
      </trkpt>
      <trkpt lat="45.69472" lon="6.19226">
        <ele>1919.8000488281</ele>
        <time>2014-03-02T09:55:41.000Z</time>
      </trkpt>
      <trkpt lat="45.69469" lon="6.19228">
        <ele>1920.4000244141</ele>
        <time>2014-03-02T09:55:47.000Z</time>
      </trkpt>
      <trkpt lat="45.69467" lon="6.1923">
        <ele>1921.1999511719</ele>
        <time>2014-03-02T09:55:53.000Z</time>
      </trkpt>
      <trkpt lat="45.69467" lon="6.1923">
        <ele>1921.1999511719</ele>
        <time>2014-03-02T09:55:57.000Z</time>
      </trkpt>
      <trkpt lat="45.69466" lon="6.1923">
        <ele>1921.4000244141</ele>
        <time>2014-03-02T09:56:01.000Z</time>
      </trkpt>
      <trkpt lat="45.69465" lon="6.19231">
        <ele>1921.8000488281</ele>
        <time>2014-03-02T09:56:06.000Z</time>
      </trkpt>
      <trkpt lat="45.69463" lon="6.19234">
        <ele>1923</ele>
        <time>2014-03-02T09:56:11.000Z</time>
      </trkpt>
      <trkpt lat="45.69462" lon="6.19239">
        <ele>1924.5999755859</ele>
        <time>2014-03-02T09:56:18.000Z</time>
      </trkpt>
      <trkpt lat="45.69462" lon="6.19239">
        <ele>1924.8000488281</ele>
        <time>2014-03-02T09:56:23.000Z</time>
      </trkpt>
      <trkpt lat="45.69464" lon="6.19239">
        <ele>1924.5999755859</ele>
        <time>2014-03-02T09:56:28.000Z</time>
      </trkpt>
      <trkpt lat="45.69466" lon="6.19242">
        <ele>1925.4000244141</ele>
        <time>2014-03-02T09:56:35.000Z</time>
      </trkpt>
      <trkpt lat="45.69468" lon="6.19244">
        <ele>1925.8000488281</ele>
        <time>2014-03-02T09:56:40.000Z</time>
      </trkpt>
      <trkpt lat="45.69469" lon="6.19246">
        <ele>1926</ele>
        <time>2014-03-02T09:56:44.000Z</time>
      </trkpt>
      <trkpt lat="45.69471" lon="6.19247">
        <ele>1926.4000244141</ele>
        <time>2014-03-02T09:56:49.000Z</time>
      </trkpt>
      <trkpt lat="45.69473" lon="6.19249">
        <ele>1926.5999755859</ele>
        <time>2014-03-02T09:56:54.000Z</time>
      </trkpt>
      <trkpt lat="45.69475" lon="6.19252">
        <ele>1927.1999511719</ele>
        <time>2014-03-02T09:57:00.000Z</time>
      </trkpt>
      <trkpt lat="45.69478" lon="6.19255">
        <ele>1928.1999511719</ele>
        <time>2014-03-02T09:57:06.000Z</time>
      </trkpt>
      <trkpt lat="45.69479" lon="6.19256">
        <ele>1928.4000244141</ele>
        <time>2014-03-02T09:57:10.000Z</time>
      </trkpt>
      <trkpt lat="45.69481" lon="6.19258">
        <ele>1929</ele>
        <time>2014-03-02T09:57:14.000Z</time>
      </trkpt>
      <trkpt lat="45.69483" lon="6.19262">
        <ele>1930.4000244141</ele>
        <time>2014-03-02T09:57:20.000Z</time>
      </trkpt>
      <trkpt lat="45.69485" lon="6.19264">
        <ele>1930.8000488281</ele>
        <time>2014-03-02T09:57:25.000Z</time>
      </trkpt>
      <trkpt lat="45.69486" lon="6.19267">
        <ele>1931.8000488281</ele>
        <time>2014-03-02T09:57:31.000Z</time>
      </trkpt>
      <trkpt lat="45.69487" lon="6.1927">
        <ele>1933</ele>
        <time>2014-03-02T09:57:35.000Z</time>
      </trkpt>
      <trkpt lat="45.69488" lon="6.19273">
        <ele>1933.8000488281</ele>
        <time>2014-03-02T09:57:40.000Z</time>
      </trkpt>
      <trkpt lat="45.69486" lon="6.19273">
        <ele>1934.1999511719</ele>
        <time>2014-03-02T09:57:45.000Z</time>
      </trkpt>
      <trkpt lat="45.69485" lon="6.19272">
        <ele>1934.1999511719</ele>
        <time>2014-03-02T09:57:48.000Z</time>
      </trkpt>
      <trkpt lat="45.69482" lon="6.19273">
        <ele>1935.1999511719</ele>
        <time>2014-03-02T09:57:53.000Z</time>
      </trkpt>
      <trkpt lat="45.69481" lon="6.19275">
        <ele>1936.1999511719</ele>
        <time>2014-03-02T09:57:57.000Z</time>
      </trkpt>
      <trkpt lat="45.69479" lon="6.19277">
        <ele>1937.1999511719</ele>
        <time>2014-03-02T09:58:01.000Z</time>
      </trkpt>
      <trkpt lat="45.69478" lon="6.19279">
        <ele>1938.1999511719</ele>
        <time>2014-03-02T09:58:07.000Z</time>
      </trkpt>
      <trkpt lat="45.69476" lon="6.19281">
        <ele>1939.5999755859</ele>
        <time>2014-03-02T09:58:12.000Z</time>
      </trkpt>
      <trkpt lat="45.69474" lon="6.19283">
        <ele>1940.4000244141</ele>
        <time>2014-03-02T09:58:17.000Z</time>
      </trkpt>
      <trkpt lat="45.69472" lon="6.19285">
        <ele>1942</ele>
        <time>2014-03-02T09:58:24.000Z</time>
      </trkpt>
      <trkpt lat="45.69473" lon="6.19287">
        <ele>1942.4000244141</ele>
        <time>2014-03-02T09:58:31.000Z</time>
      </trkpt>
      <trkpt lat="45.69476" lon="6.19289">
        <ele>1942.5999755859</ele>
        <time>2014-03-02T09:58:36.000Z</time>
      </trkpt>
      <trkpt lat="45.69479" lon="6.1929">
        <ele>1942.5999755859</ele>
        <time>2014-03-02T09:58:41.000Z</time>
      </trkpt>
      <trkpt lat="45.69481" lon="6.19293">
        <ele>1943.1999511719</ele>
        <time>2014-03-02T09:58:46.000Z</time>
      </trkpt>
      <trkpt lat="45.69485" lon="6.19296">
        <ele>1943.8000488281</ele>
        <time>2014-03-02T09:58:52.000Z</time>
      </trkpt>
      <trkpt lat="45.69485" lon="6.19299">
        <ele>1945</ele>
        <time>2014-03-02T09:58:56.000Z</time>
      </trkpt>
      <trkpt lat="45.69482" lon="6.19298">
        <ele>1945.1999511719</ele>
        <time>2014-03-02T09:59:00.000Z</time>
      </trkpt>
      <trkpt lat="45.69476" lon="6.19298">
        <ele>1946.5999755859</ele>
        <time>2014-03-02T09:59:07.000Z</time>
      </trkpt>
      <trkpt lat="45.69474" lon="6.193">
        <ele>1947.8000488281</ele>
        <time>2014-03-02T09:59:13.000Z</time>
      </trkpt>
      <trkpt lat="45.69472" lon="6.193">
        <ele>1948.1999511719</ele>
        <time>2014-03-02T09:59:18.000Z</time>
      </trkpt>
      <trkpt lat="45.6947" lon="6.193">
        <ele>1949</ele>
        <time>2014-03-02T09:59:23.000Z</time>
      </trkpt>
      <trkpt lat="45.69466" lon="6.19301">
        <ele>1950</ele>
        <time>2014-03-02T09:59:28.000Z</time>
      </trkpt>
      <trkpt lat="45.69463" lon="6.19301">
        <ele>1950.8000488281</ele>
        <time>2014-03-02T09:59:33.000Z</time>
      </trkpt>
      <trkpt lat="45.69462" lon="6.19301">
        <ele>1950.8000488281</ele>
        <time>2014-03-02T09:59:35.000Z</time>
      </trkpt>
      <trkpt lat="45.69458" lon="6.19301">
        <ele>1951.8000488281</ele>
        <time>2014-03-02T09:59:39.000Z</time>
      </trkpt>
      <trkpt lat="45.69455" lon="6.19301">
        <ele>1952.1999511719</ele>
        <time>2014-03-02T09:59:43.000Z</time>
      </trkpt>
      <trkpt lat="45.69452" lon="6.193">
        <ele>1952.5999755859</ele>
        <time>2014-03-02T09:59:49.000Z</time>
      </trkpt>
      <trkpt lat="45.6945" lon="6.193">
        <ele>1953.1999511719</ele>
        <time>2014-03-02T09:59:55.000Z</time>
      </trkpt>
      <trkpt lat="45.69451" lon="6.19301">
        <ele>1953.1999511719</ele>
        <time>2014-03-02T10:00:00.000Z</time>
      </trkpt>
      <trkpt lat="45.69453" lon="6.19303">
        <ele>1953.8000488281</ele>
        <time>2014-03-02T10:00:04.000Z</time>
      </trkpt>
      <trkpt lat="45.69454" lon="6.19305">
        <ele>1954.1999511719</ele>
        <time>2014-03-02T10:00:08.000Z</time>
      </trkpt>
      <trkpt lat="45.69457" lon="6.19307">
        <ele>1954.5999755859</ele>
        <time>2014-03-02T10:00:12.000Z</time>
      </trkpt>
      <trkpt lat="45.69461" lon="6.19309">
        <ele>1954.8000488281</ele>
        <time>2014-03-02T10:00:18.000Z</time>
      </trkpt>
      <trkpt lat="45.69464" lon="6.19312">
        <ele>1955</ele>
        <time>2014-03-02T10:00:24.000Z</time>
      </trkpt>
      <trkpt lat="45.69465" lon="6.19314">
        <ele>1955.8000488281</ele>
        <time>2014-03-02T10:00:28.000Z</time>
      </trkpt>
      <trkpt lat="45.69469" lon="6.19318">
        <ele>1956.4000244141</ele>
        <time>2014-03-02T10:00:36.000Z</time>
      </trkpt>
      <trkpt lat="45.69472" lon="6.1932">
        <ele>1956.5999755859</ele>
        <time>2014-03-02T10:00:41.000Z</time>
      </trkpt>
      <trkpt lat="45.69476" lon="6.19323">
        <ele>1957</ele>
        <time>2014-03-02T10:00:47.000Z</time>
      </trkpt>
      <trkpt lat="45.69479" lon="6.19327">
        <ele>1958</ele>
        <time>2014-03-02T10:00:54.000Z</time>
      </trkpt>
      <trkpt lat="45.69482" lon="6.1933">
        <ele>1958.4000244141</ele>
        <time>2014-03-02T10:01:00.000Z</time>
      </trkpt>
      <trkpt lat="45.69484" lon="6.19332">
        <ele>1958.8000488281</ele>
        <time>2014-03-02T10:01:04.000Z</time>
      </trkpt>
      <trkpt lat="45.69487" lon="6.19335">
        <ele>1959</ele>
        <time>2014-03-02T10:01:10.000Z</time>
      </trkpt>
      <trkpt lat="45.69486" lon="6.19339">
        <ele>1960</ele>
        <time>2014-03-02T10:01:16.000Z</time>
      </trkpt>
      <trkpt lat="45.69483" lon="6.19337">
        <ele>1960.4000244141</ele>
        <time>2014-03-02T10:01:21.000Z</time>
      </trkpt>
      <trkpt lat="45.69481" lon="6.19338">
        <ele>1961.1999511719</ele>
        <time>2014-03-02T10:01:26.000Z</time>
      </trkpt>
      <trkpt lat="45.69478" lon="6.19339">
        <ele>1962.5999755859</ele>
        <time>2014-03-02T10:01:33.000Z</time>
      </trkpt>
      <trkpt lat="45.69475" lon="6.19341">
        <ele>1963.8000488281</ele>
        <time>2014-03-02T10:01:39.000Z</time>
      </trkpt>
      <trkpt lat="45.69473" lon="6.1934">
        <ele>1964.4000244141</ele>
        <time>2014-03-02T10:01:43.000Z</time>
      </trkpt>
      <trkpt lat="45.69471" lon="6.19341">
        <ele>1965.1999511719</ele>
        <time>2014-03-02T10:01:47.000Z</time>
      </trkpt>
      <trkpt lat="45.69469" lon="6.19342">
        <ele>1966</ele>
        <time>2014-03-02T10:01:52.000Z</time>
      </trkpt>
      <trkpt lat="45.69467" lon="6.19343">
        <ele>1966.8000488281</ele>
        <time>2014-03-02T10:01:56.000Z</time>
      </trkpt>
      <trkpt lat="45.69465" lon="6.19344">
        <ele>1967.8000488281</ele>
        <time>2014-03-02T10:02:00.000Z</time>
      </trkpt>
      <trkpt lat="45.69463" lon="6.19345">
        <ele>1968.8000488281</ele>
        <time>2014-03-02T10:02:05.000Z</time>
      </trkpt>
      <trkpt lat="45.6946" lon="6.19345">
        <ele>1969.8000488281</ele>
        <time>2014-03-02T10:02:10.000Z</time>
      </trkpt>
      <trkpt lat="45.69456" lon="6.19346">
        <ele>1971</ele>
        <time>2014-03-02T10:02:16.000Z</time>
      </trkpt>
      <trkpt lat="45.69453" lon="6.19347">
        <ele>1972.4000244141</ele>
        <time>2014-03-02T10:02:21.000Z</time>
      </trkpt>
      <trkpt lat="45.69452" lon="6.19347">
        <ele>1972.8000488281</ele>
        <time>2014-03-02T10:02:27.000Z</time>
      </trkpt>
      <trkpt lat="45.69453" lon="6.19348">
        <ele>1973</ele>
        <time>2014-03-02T10:02:32.000Z</time>
      </trkpt>
      <trkpt lat="45.69456" lon="6.19351">
        <ele>1972.8000488281</ele>
        <time>2014-03-02T10:02:37.000Z</time>
      </trkpt>
      <trkpt lat="45.6946" lon="6.19353">
        <ele>1972.4000244141</ele>
        <time>2014-03-02T10:02:44.000Z</time>
      </trkpt>
      <trkpt lat="45.69462" lon="6.19354">
        <ele>1972</ele>
        <time>2014-03-02T10:02:48.000Z</time>
      </trkpt>
      <trkpt lat="45.69464" lon="6.19356">
        <ele>1972</ele>
        <time>2014-03-02T10:02:54.000Z</time>
      </trkpt>
      <trkpt lat="45.69467" lon="6.19359">
        <ele>1972</ele>
        <time>2014-03-02T10:03:00.000Z</time>
      </trkpt>
      <trkpt lat="45.6947" lon="6.19362">
        <ele>1971.8000488281</ele>
        <time>2014-03-02T10:03:06.000Z</time>
      </trkpt>
      <trkpt lat="45.69472" lon="6.19364">
        <ele>1971.8000488281</ele>
        <time>2014-03-02T10:03:10.000Z</time>
      </trkpt>
      <trkpt lat="45.6947" lon="6.19364">
        <ele>1972.4000244141</ele>
        <time>2014-03-02T10:03:16.000Z</time>
      </trkpt>
      <trkpt lat="45.69467" lon="6.19365">
        <ele>1974</ele>
        <time>2014-03-02T10:03:21.000Z</time>
      </trkpt>
      <trkpt lat="45.69466" lon="6.19366">
        <ele>1974.5999755859</ele>
        <time>2014-03-02T10:03:25.000Z</time>
      </trkpt>
      <trkpt lat="45.69463" lon="6.19366">
        <ele>1975.5999755859</ele>
        <time>2014-03-02T10:03:30.000Z</time>
      </trkpt>
      <trkpt lat="45.6946" lon="6.19365">
        <ele>1976.5999755859</ele>
        <time>2014-03-02T10:03:36.000Z</time>
      </trkpt>
      <trkpt lat="45.69456" lon="6.19364">
        <ele>1978</ele>
        <time>2014-03-02T10:03:42.000Z</time>
      </trkpt>
      <trkpt lat="45.69451" lon="6.19364">
        <ele>1979.4000244141</ele>
        <time>2014-03-02T10:03:49.000Z</time>
      </trkpt>
      <trkpt lat="45.69448" lon="6.19363">
        <ele>1980.5999755859</ele>
        <time>2014-03-02T10:03:54.000Z</time>
      </trkpt>
      <trkpt lat="45.69447" lon="6.19363">
        <ele>1981</ele>
        <time>2014-03-02T10:04:00.000Z</time>
      </trkpt>
      <trkpt lat="45.69448" lon="6.19364">
        <ele>1981</ele>
        <time>2014-03-02T10:04:05.000Z</time>
      </trkpt>
      <trkpt lat="45.6945" lon="6.19367">
        <ele>1981.1999511719</ele>
        <time>2014-03-02T10:04:09.000Z</time>
      </trkpt>
      <trkpt lat="45.69453" lon="6.19371">
        <ele>1981.4000244141</ele>
        <time>2014-03-02T10:04:15.000Z</time>
      </trkpt>
      <trkpt lat="45.69455" lon="6.19374">
        <ele>1981.8000488281</ele>
        <time>2014-03-02T10:04:20.000Z</time>
      </trkpt>
      <trkpt lat="45.69456" lon="6.19377">
        <ele>1982</ele>
        <time>2014-03-02T10:04:24.000Z</time>
      </trkpt>
      <trkpt lat="45.69458" lon="6.1938">
        <ele>1982.4000244141</ele>
        <time>2014-03-02T10:04:29.000Z</time>
      </trkpt>
      <trkpt lat="45.6946" lon="6.19383">
        <ele>1982.5999755859</ele>
        <time>2014-03-02T10:04:35.000Z</time>
      </trkpt>
      <trkpt lat="45.69462" lon="6.19386">
        <ele>1983</ele>
        <time>2014-03-02T10:04:40.000Z</time>
      </trkpt>
      <trkpt lat="45.69459" lon="6.19385">
        <ele>1984.4000244141</ele>
        <time>2014-03-02T10:04:46.000Z</time>
      </trkpt>
      <trkpt lat="45.69455" lon="6.19386">
        <ele>1986</ele>
        <time>2014-03-02T10:04:53.000Z</time>
      </trkpt>
      <trkpt lat="45.69451" lon="6.19385">
        <ele>1987.5999755859</ele>
        <time>2014-03-02T10:04:59.000Z</time>
      </trkpt>
      <trkpt lat="45.69448" lon="6.19385">
        <ele>1989.1999511719</ele>
        <time>2014-03-02T10:05:04.000Z</time>
      </trkpt>
      <trkpt lat="45.69444" lon="6.19385">
        <ele>1991.1999511719</ele>
        <time>2014-03-02T10:05:10.000Z</time>
      </trkpt>
      <trkpt lat="45.69442" lon="6.19386">
        <ele>1992.5999755859</ele>
        <time>2014-03-02T10:05:14.000Z</time>
      </trkpt>
      <trkpt lat="45.69441" lon="6.19387">
        <ele>1993</ele>
        <time>2014-03-02T10:05:19.000Z</time>
      </trkpt>
      <trkpt lat="45.69442" lon="6.19388">
        <ele>1993</ele>
        <time>2014-03-02T10:05:24.000Z</time>
      </trkpt>
      <trkpt lat="45.69445" lon="6.1939">
        <ele>1992.5999755859</ele>
        <time>2014-03-02T10:05:30.000Z</time>
      </trkpt>
      <trkpt lat="45.69447" lon="6.19393">
        <ele>1992.5999755859</ele>
        <time>2014-03-02T10:05:35.000Z</time>
      </trkpt>
      <trkpt lat="45.6945" lon="6.19396">
        <ele>1992.4000244141</ele>
        <time>2014-03-02T10:05:41.000Z</time>
      </trkpt>
      <trkpt lat="45.69453" lon="6.19398">
        <ele>1991.8000488281</ele>
        <time>2014-03-02T10:05:47.000Z</time>
      </trkpt>
      <trkpt lat="45.69455" lon="6.19401">
        <ele>1991.5999755859</ele>
        <time>2014-03-02T10:05:52.000Z</time>
      </trkpt>
      <trkpt lat="45.69457" lon="6.19403">
        <ele>1991.4000244141</ele>
        <time>2014-03-02T10:05:57.000Z</time>
      </trkpt>
      <trkpt lat="45.69459" lon="6.19405">
        <ele>1991</ele>
        <time>2014-03-02T10:06:02.000Z</time>
      </trkpt>
      <trkpt lat="45.69461" lon="6.19409">
        <ele>1991</ele>
        <time>2014-03-02T10:06:07.000Z</time>
      </trkpt>
      <trkpt lat="45.69464" lon="6.19412">
        <ele>1990.8000488281</ele>
        <time>2014-03-02T10:06:12.000Z</time>
      </trkpt>
      <trkpt lat="45.69467" lon="6.19416">
        <ele>1990</ele>
        <time>2014-03-02T10:06:18.000Z</time>
      </trkpt>
      <trkpt lat="45.6947" lon="6.19419">
        <ele>1989</ele>
        <time>2014-03-02T10:06:23.000Z</time>
      </trkpt>
      <trkpt lat="45.6947" lon="6.19422">
        <ele>1988.8000488281</ele>
        <time>2014-03-02T10:06:30.000Z</time>
      </trkpt>
      <trkpt lat="45.69468" lon="6.19423">
        <ele>1990.5999755859</ele>
        <time>2014-03-02T10:06:35.000Z</time>
      </trkpt>
      <trkpt lat="45.69466" lon="6.19423">
        <ele>1991.8000488281</ele>
        <time>2014-03-02T10:06:40.000Z</time>
      </trkpt>
      <trkpt lat="45.69463" lon="6.19424">
        <ele>1993.5999755859</ele>
        <time>2014-03-02T10:06:45.000Z</time>
      </trkpt>
      <trkpt lat="45.69461" lon="6.19424">
        <ele>1995</ele>
        <time>2014-03-02T10:06:49.000Z</time>
      </trkpt>
      <trkpt lat="45.69459" lon="6.19425">
        <ele>1996.4000244141</ele>
        <time>2014-03-02T10:06:54.000Z</time>
      </trkpt>
      <trkpt lat="45.69456" lon="6.19426">
        <ele>1998.4000244141</ele>
        <time>2014-03-02T10:06:59.000Z</time>
      </trkpt>
      <trkpt lat="45.69455" lon="6.19427">
        <ele>1999.5999755859</ele>
        <time>2014-03-02T10:07:04.000Z</time>
      </trkpt>
      <trkpt lat="45.69452" lon="6.19428">
        <ele>2001.8000488281</ele>
        <time>2014-03-02T10:07:09.000Z</time>
      </trkpt>
      <trkpt lat="45.69449" lon="6.19429">
        <ele>2003.8000488281</ele>
        <time>2014-03-02T10:07:13.000Z</time>
      </trkpt>
      <trkpt lat="45.69447" lon="6.19429">
        <ele>2005.4000244141</ele>
        <time>2014-03-02T10:07:18.000Z</time>
      </trkpt>
      <trkpt lat="45.69446" lon="6.1943">
        <ele>2006.5999755859</ele>
        <time>2014-03-02T10:07:21.000Z</time>
      </trkpt>
      <trkpt lat="45.69443" lon="6.19431">
        <ele>2008.1999511719</ele>
        <time>2014-03-02T10:07:27.000Z</time>
      </trkpt>
      <trkpt lat="45.69441" lon="6.19432">
        <ele>2010</ele>
        <time>2014-03-02T10:07:31.000Z</time>
      </trkpt>
      <trkpt lat="45.6944" lon="6.19433">
        <ele>2011</ele>
        <time>2014-03-02T10:07:35.000Z</time>
      </trkpt>
      <trkpt lat="45.69439" lon="6.19432">
        <ele>2011.5999755859</ele>
        <time>2014-03-02T10:07:40.000Z</time>
      </trkpt>
      <trkpt lat="45.6944" lon="6.19431">
        <ele>2011</ele>
        <time>2014-03-02T10:07:45.000Z</time>
      </trkpt>
      <trkpt lat="45.69442" lon="6.19433">
        <ele>2010.1999511719</ele>
        <time>2014-03-02T10:07:50.000Z</time>
      </trkpt>
      <trkpt lat="45.69446" lon="6.19436">
        <ele>2008</ele>
        <time>2014-03-02T10:07:58.000Z</time>
      </trkpt>
      <trkpt lat="45.6945" lon="6.19439">
        <ele>2005.5999755859</ele>
        <time>2014-03-02T10:08:05.000Z</time>
      </trkpt>
      <trkpt lat="45.69453" lon="6.19442">
        <ele>2004.4000244141</ele>
        <time>2014-03-02T10:08:10.000Z</time>
      </trkpt>
      <trkpt lat="45.69455" lon="6.19445">
        <ele>2003.4000244141</ele>
        <time>2014-03-02T10:08:15.000Z</time>
      </trkpt>
      <trkpt lat="45.69457" lon="6.19448">
        <ele>2002</ele>
        <time>2014-03-02T10:08:21.000Z</time>
      </trkpt>
      <trkpt lat="45.69455" lon="6.19448">
        <ele>2003.5999755859</ele>
        <time>2014-03-02T10:08:26.000Z</time>
      </trkpt>
      <trkpt lat="45.69453" lon="6.19448">
        <ele>2005.4000244141</ele>
        <time>2014-03-02T10:08:32.000Z</time>
      </trkpt>
      <trkpt lat="45.69451" lon="6.19449">
        <ele>2007.1999511719</ele>
        <time>2014-03-02T10:08:37.000Z</time>
      </trkpt>
      <trkpt lat="45.69448" lon="6.1945">
        <ele>2009.5999755859</ele>
        <time>2014-03-02T10:08:41.000Z</time>
      </trkpt>
      <trkpt lat="45.69446" lon="6.19449">
        <ele>2011.4000244141</ele>
        <time>2014-03-02T10:08:45.000Z</time>
      </trkpt>
      <trkpt lat="45.69441" lon="6.1945">
        <ele>2015.5999755859</ele>
        <time>2014-03-02T10:08:50.000Z</time>
      </trkpt>
      <trkpt lat="45.6944" lon="6.19449">
        <ele>2016.1999511719</ele>
        <time>2014-03-02T10:08:54.000Z</time>
      </trkpt>
      <trkpt lat="45.69436" lon="6.19448">
        <ele>2019.1999511719</ele>
        <time>2014-03-02T10:08:59.000Z</time>
      </trkpt>
      <trkpt lat="45.6943" lon="6.19447">
        <ele>2023.8000488281</ele>
        <time>2014-03-02T10:09:07.000Z</time>
      </trkpt>
      <trkpt lat="45.69428" lon="6.19448">
        <ele>2025.8000488281</ele>
        <time>2014-03-02T10:09:11.000Z</time>
      </trkpt>
      <trkpt lat="45.69424" lon="6.19449">
        <ele>2029</ele>
        <time>2014-03-02T10:09:17.000Z</time>
      </trkpt>
      <trkpt lat="45.69423" lon="6.1945">
        <ele>2031.1999511719</ele>
        <time>2014-03-02T10:09:22.000Z</time>
      </trkpt>
      <trkpt lat="45.6942" lon="6.19451">
        <ele>2033.1999511719</ele>
        <time>2014-03-02T10:09:26.000Z</time>
      </trkpt>
      <trkpt lat="45.69418" lon="6.19452">
        <ele>2035.8000488281</ele>
        <time>2014-03-02T10:09:31.000Z</time>
      </trkpt>
      <trkpt lat="45.69417" lon="6.19455">
        <ele>2038.4000244141</ele>
        <time>2014-03-02T10:09:35.000Z</time>
      </trkpt>
      <trkpt lat="45.69415" lon="6.19455">
        <ele>2039</ele>
        <time>2014-03-02T10:09:39.000Z</time>
      </trkpt>
      <trkpt lat="45.6941" lon="6.19457">
        <ele>2040.8000488281</ele>
        <time>2014-03-02T10:09:46.000Z</time>
      </trkpt>
      <trkpt lat="45.69407" lon="6.19458">
        <ele>2042</ele>
        <time>2014-03-02T10:09:50.000Z</time>
      </trkpt>
      <trkpt lat="45.69405" lon="6.1946">
        <ele>2043.4000244141</ele>
        <time>2014-03-02T10:09:54.000Z</time>
      </trkpt>
      <trkpt lat="45.69403" lon="6.1946">
        <ele>2044</ele>
        <time>2014-03-02T10:09:58.000Z</time>
      </trkpt>
      <trkpt lat="45.69403" lon="6.19461">
        <ele>2044.1999511719</ele>
        <time>2014-03-02T10:10:04.000Z</time>
      </trkpt>
      <trkpt lat="45.69406" lon="6.19462">
        <ele>2044.4000244141</ele>
        <time>2014-03-02T10:10:09.000Z</time>
      </trkpt>
      <trkpt lat="45.69408" lon="6.19464">
        <ele>2044.8000488281</ele>
        <time>2014-03-02T10:10:14.000Z</time>
      </trkpt>
      <trkpt lat="45.69412" lon="6.19467">
        <ele>2045.4000244141</ele>
        <time>2014-03-02T10:10:20.000Z</time>
      </trkpt>
      <trkpt lat="45.69415" lon="6.1947">
        <ele>2046</ele>
        <time>2014-03-02T10:10:26.000Z</time>
      </trkpt>
      <trkpt lat="45.69417" lon="6.19472">
        <ele>2046</ele>
        <time>2014-03-02T10:10:31.000Z</time>
      </trkpt>
      <trkpt lat="45.69417" lon="6.19475">
        <ele>2047.4000244141</ele>
        <time>2014-03-02T10:10:36.000Z</time>
      </trkpt>
      <trkpt lat="45.69417" lon="6.19476">
        <ele>2048.3999023438</ele>
        <time>2014-03-02T10:10:40.000Z</time>
      </trkpt>
      <trkpt lat="45.69416" lon="6.19477">
        <ele>2049</ele>
        <time>2014-03-02T10:10:46.000Z</time>
      </trkpt>
      <trkpt lat="45.69413" lon="6.19477">
        <ele>2050</ele>
        <time>2014-03-02T10:10:51.000Z</time>
      </trkpt>
      <trkpt lat="45.6941" lon="6.19479">
        <ele>2051.6000976562</ele>
        <time>2014-03-02T10:10:57.000Z</time>
      </trkpt>
      <trkpt lat="45.69406" lon="6.19481">
        <ele>2053.3999023438</ele>
        <time>2014-03-02T10:11:04.000Z</time>
      </trkpt>
      <trkpt lat="45.69402" lon="6.19483">
        <ele>2055.1999511719</ele>
        <time>2014-03-02T10:11:10.000Z</time>
      </trkpt>
      <trkpt lat="45.69398" lon="6.19485">
        <ele>2057.3999023438</ele>
        <time>2014-03-02T10:11:16.000Z</time>
      </trkpt>
      <trkpt lat="45.69394" lon="6.19488">
        <ele>2059.8000488281</ele>
        <time>2014-03-02T10:11:21.000Z</time>
      </trkpt>
      <trkpt lat="45.69391" lon="6.19491">
        <ele>2062</ele>
        <time>2014-03-02T10:11:26.000Z</time>
      </trkpt>
      <trkpt lat="45.69391" lon="6.19492">
        <ele>2062.8000488281</ele>
        <time>2014-03-02T10:11:29.000Z</time>
      </trkpt>
      <trkpt lat="45.69389" lon="6.19494">
        <ele>2063.8000488281</ele>
        <time>2014-03-02T10:11:33.000Z</time>
      </trkpt>
      <trkpt lat="45.69388" lon="6.19494">
        <ele>2064.6000976562</ele>
        <time>2014-03-02T10:11:38.000Z</time>
      </trkpt>
      <trkpt lat="45.69382" lon="6.19496">
        <ele>2066.8000488281</ele>
        <time>2014-03-02T10:11:46.000Z</time>
      </trkpt>
      <trkpt lat="45.69379" lon="6.19497">
        <ele>2068.1999511719</ele>
        <time>2014-03-02T10:11:50.000Z</time>
      </trkpt>
      <trkpt lat="45.69376" lon="6.19499">
        <ele>2069.8000488281</ele>
        <time>2014-03-02T10:11:55.000Z</time>
      </trkpt>
      <trkpt lat="45.69376" lon="6.19499">
        <ele>2069.6000976562</ele>
        <time>2014-03-02T10:12:00.000Z</time>
      </trkpt>
      <trkpt lat="45.69379" lon="6.19501">
        <ele>2069.8000488281</ele>
        <time>2014-03-02T10:12:06.000Z</time>
      </trkpt>
      <trkpt lat="45.69383" lon="6.19503">
        <ele>2069.8000488281</ele>
        <time>2014-03-02T10:12:10.000Z</time>
      </trkpt>
      <trkpt lat="45.69387" lon="6.19505">
        <ele>2069.3999023438</ele>
        <time>2014-03-02T10:12:16.000Z</time>
      </trkpt>
      <trkpt lat="45.69392" lon="6.19507">
        <ele>2068.8000488281</ele>
        <time>2014-03-02T10:12:20.000Z</time>
      </trkpt>
      <trkpt lat="45.69394" lon="6.19509">
        <ele>2068.6000976562</ele>
        <time>2014-03-02T10:12:23.000Z</time>
      </trkpt>
      <trkpt lat="45.69397" lon="6.1951">
        <ele>2068.6000976562</ele>
        <time>2014-03-02T10:12:26.000Z</time>
      </trkpt>
      <trkpt lat="45.69399" lon="6.19512">
        <ele>2068.6000976562</ele>
        <time>2014-03-02T10:12:31.000Z</time>
      </trkpt>
      <trkpt lat="45.69401" lon="6.19514">
        <ele>2068.6000976562</ele>
        <time>2014-03-02T10:12:36.000Z</time>
      </trkpt>
      <trkpt lat="45.69402" lon="6.19516">
        <ele>2069</ele>
        <time>2014-03-02T10:12:40.000Z</time>
      </trkpt>
      <trkpt lat="45.69401" lon="6.19518">
        <ele>2070</ele>
        <time>2014-03-02T10:12:44.000Z</time>
      </trkpt>
      <trkpt lat="45.69399" lon="6.1952">
        <ele>2071.1999511719</ele>
        <time>2014-03-02T10:12:50.000Z</time>
      </trkpt>
      <trkpt lat="45.69395" lon="6.19521">
        <ele>2073</ele>
        <time>2014-03-02T10:12:56.000Z</time>
      </trkpt>
      <trkpt lat="45.69391" lon="6.19523">
        <ele>2074.8000488281</ele>
        <time>2014-03-02T10:13:02.000Z</time>
      </trkpt>
      <trkpt lat="45.69388" lon="6.19524">
        <ele>2076.1999511719</ele>
        <time>2014-03-02T10:13:07.000Z</time>
      </trkpt>
      <trkpt lat="45.69385" lon="6.19525">
        <ele>2077.6000976562</ele>
        <time>2014-03-02T10:13:12.000Z</time>
      </trkpt>
      <trkpt lat="45.69381" lon="6.19526">
        <ele>2079.1999511719</ele>
        <time>2014-03-02T10:13:18.000Z</time>
      </trkpt>
      <trkpt lat="45.6938" lon="6.1953">
        <ele>2081.1999511719</ele>
        <time>2014-03-02T10:13:24.000Z</time>
      </trkpt>
      <trkpt lat="45.69379" lon="6.19531">
        <ele>2081.6000976562</ele>
        <time>2014-03-02T10:13:36.000Z</time>
      </trkpt>
      <trkpt lat="45.69379" lon="6.19531">
        <ele>2081.6000976562</ele>
        <time>2014-03-02T10:13:49.000Z</time>
      </trkpt>
      <trkpt lat="45.69378" lon="6.1953">
        <ele>2081.8000488281</ele>
        <time>2014-03-02T10:13:53.000Z</time>
      </trkpt>
      <trkpt lat="45.69378" lon="6.19531">
        <ele>2081.8000488281</ele>
        <time>2014-03-02T10:14:01.000Z</time>
      </trkpt>
      <trkpt lat="45.69378" lon="6.19531">
        <ele>2082.1999511719</ele>
        <time>2014-03-02T10:14:13.000Z</time>
      </trkpt>
      <trkpt lat="45.69381" lon="6.19531">
        <ele>2081</ele>
        <time>2014-03-02T10:14:36.000Z</time>
      </trkpt>
      <trkpt lat="45.6938" lon="6.19531">
        <ele>2081.3999023438</ele>
        <time>2014-03-02T10:14:43.000Z</time>
      </trkpt>
      <trkpt lat="45.69379" lon="6.19531">
        <ele>2081.6000976562</ele>
        <time>2014-03-02T10:14:57.000Z</time>
      </trkpt>
      <trkpt lat="45.6938" lon="6.1953">
        <ele>2081.1999511719</ele>
        <time>2014-03-02T10:15:02.000Z</time>
      </trkpt>
      <trkpt lat="45.6938" lon="6.19531">
        <ele>2081.1999511719</ele>
        <time>2014-03-02T10:15:07.000Z</time>
      </trkpt>
      <trkpt lat="45.6938" lon="6.19531">
        <ele>2081.1999511719</ele>
        <time>2014-03-02T10:15:22.000Z</time>
      </trkpt>
      <trkpt lat="45.6938" lon="6.1953">
        <ele>2081</ele>
        <time>2014-03-02T10:15:35.000Z</time>
      </trkpt>
      <trkpt lat="45.6938" lon="6.19531">
        <ele>2081.3999023438</ele>
        <time>2014-03-02T10:15:44.000Z</time>
      </trkpt>
      <trkpt lat="45.6938" lon="6.19532">
        <ele>2081.8000488281</ele>
        <time>2014-03-02T10:15:51.000Z</time>
      </trkpt>
      <trkpt lat="45.69381" lon="6.19532">
        <ele>2081.6000976562</ele>
        <time>2014-03-02T10:15:58.000Z</time>
      </trkpt>
      <trkpt lat="45.69381" lon="6.19532">
        <ele>2081.3999023438</ele>
        <time>2014-03-02T10:16:05.000Z</time>
      </trkpt>
      <trkpt lat="45.69381" lon="6.19529">
        <ele>2080</ele>
        <time>2014-03-02T10:16:55.000Z</time>
      </trkpt>
      <trkpt lat="45.6938" lon="6.19529">
        <ele>2080.3999023438</ele>
        <time>2014-03-02T10:17:06.000Z</time>
      </trkpt>
      <trkpt lat="45.6938" lon="6.19533">
        <ele>2082.1999511719</ele>
        <time>2014-03-02T10:17:57.000Z</time>
      </trkpt>
      <trkpt lat="45.69379" lon="6.19534">
        <ele>2082.6000976562</ele>
        <time>2014-03-02T10:18:14.000Z</time>
      </trkpt>
      <trkpt lat="45.6938" lon="6.19532">
        <ele>2082</ele>
        <time>2014-03-02T10:18:31.000Z</time>
      </trkpt>
      <trkpt lat="45.6938" lon="6.19531">
        <ele>2081.6000976562</ele>
        <time>2014-03-02T10:18:42.000Z</time>
      </trkpt>
      <trkpt lat="45.6938" lon="6.19531">
        <ele>2081.1999511719</ele>
        <time>2014-03-02T10:18:50.000Z</time>
      </trkpt>
      <trkpt lat="45.6938" lon="6.1953">
        <ele>2081</ele>
        <time>2014-03-02T10:19:02.000Z</time>
      </trkpt>
      <trkpt lat="45.6938" lon="6.1953">
        <ele>2081.1999511719</ele>
        <time>2014-03-02T10:19:11.000Z</time>
      </trkpt>
      <trkpt lat="45.6938" lon="6.1953">
        <ele>2081</ele>
        <time>2014-03-02T10:19:21.000Z</time>
      </trkpt>
      <trkpt lat="45.6938" lon="6.19532">
        <ele>2081.6000976562</ele>
        <time>2014-03-02T10:19:42.000Z</time>
      </trkpt>
      <trkpt lat="45.6938" lon="6.19531">
        <ele>2081.3999023438</ele>
        <time>2014-03-02T10:19:57.000Z</time>
      </trkpt>
      <trkpt lat="45.6938" lon="6.19531">
        <ele>2081.3999023438</ele>
        <time>2014-03-02T10:20:03.000Z</time>
      </trkpt>
      <trkpt lat="45.6938" lon="6.19531">
        <ele>2081.3999023438</ele>
        <time>2014-03-02T10:20:15.000Z</time>
      </trkpt>
      <trkpt lat="45.6938" lon="6.19531">
        <ele>2081.1999511719</ele>
        <time>2014-03-02T10:20:34.000Z</time>
      </trkpt>
      <trkpt lat="45.69381" lon="6.1953">
        <ele>2080.3999023438</ele>
        <time>2014-03-02T10:21:11.000Z</time>
      </trkpt>
      <trkpt lat="45.69379" lon="6.1953">
        <ele>2081</ele>
        <time>2014-03-02T10:21:30.000Z</time>
      </trkpt>
      <trkpt lat="45.69379" lon="6.1953">
        <ele>2081</ele>
        <time>2014-03-02T10:21:45.000Z</time>
      </trkpt>
      <trkpt lat="45.69377" lon="6.19532">
        <ele>2082.3999023438</ele>
        <time>2014-03-02T10:21:56.000Z</time>
      </trkpt>
      <trkpt lat="45.69378" lon="6.19532">
        <ele>2082.3999023438</ele>
        <time>2014-03-02T10:22:10.000Z</time>
      </trkpt>
      <trkpt lat="45.69378" lon="6.1953">
        <ele>2081.6000976562</ele>
        <time>2014-03-02T10:22:19.000Z</time>
      </trkpt>
      <trkpt lat="45.69379" lon="6.1953">
        <ele>2081.1999511719</ele>
        <time>2014-03-02T10:22:30.000Z</time>
      </trkpt>
      <trkpt lat="45.6938" lon="6.1953">
        <ele>2080.8000488281</ele>
        <time>2014-03-02T10:22:37.000Z</time>
      </trkpt>
      <trkpt lat="45.6938" lon="6.1953">
        <ele>2081</ele>
        <time>2014-03-02T10:22:52.000Z</time>
      </trkpt>
      <trkpt lat="45.69379" lon="6.19531">
        <ele>2081.6000976562</ele>
        <time>2014-03-02T10:23:11.000Z</time>
      </trkpt>
      <trkpt lat="45.6938" lon="6.19531">
        <ele>2081.6000976562</ele>
        <time>2014-03-02T10:23:17.000Z</time>
      </trkpt>
      <trkpt lat="45.6938" lon="6.19531">
        <ele>2081.1999511719</ele>
        <time>2014-03-02T10:23:26.000Z</time>
      </trkpt>
      <trkpt lat="45.6938" lon="6.19531">
        <ele>2081.3999023438</ele>
        <time>2014-03-02T10:23:32.000Z</time>
      </trkpt>
      <trkpt lat="45.6938" lon="6.1953">
        <ele>2081.1999511719</ele>
        <time>2014-03-02T10:23:39.000Z</time>
      </trkpt>
      <trkpt lat="45.69379" lon="6.1953">
        <ele>2081</ele>
        <time>2014-03-02T10:23:45.000Z</time>
      </trkpt>
      <trkpt lat="45.69379" lon="6.19529">
        <ele>2080.8000488281</ele>
        <time>2014-03-02T10:24:02.000Z</time>
      </trkpt>
      <trkpt lat="45.6938" lon="6.19529">
        <ele>2080.8000488281</ele>
        <time>2014-03-02T10:24:16.000Z</time>
      </trkpt>
      <trkpt lat="45.69379" lon="6.1953">
        <ele>2081.3999023438</ele>
        <time>2014-03-02T10:25:39.000Z</time>
      </trkpt>
      <trkpt lat="45.69379" lon="6.1953">
        <ele>2081.1999511719</ele>
        <time>2014-03-02T10:25:47.000Z</time>
      </trkpt>
      <trkpt lat="45.69378" lon="6.19529">
        <ele>2081</ele>
        <time>2014-03-02T10:25:55.000Z</time>
      </trkpt>
      <trkpt lat="45.69379" lon="6.19527">
        <ele>2080.3999023438</ele>
        <time>2014-03-02T10:26:07.000Z</time>
      </trkpt>
      <trkpt lat="45.69378" lon="6.19527">
        <ele>2080.3999023438</ele>
        <time>2014-03-02T10:26:14.000Z</time>
      </trkpt>
      <trkpt lat="45.69378" lon="6.19527">
        <ele>2080.1999511719</ele>
        <time>2014-03-02T10:26:28.000Z</time>
      </trkpt>
      <trkpt lat="45.69379" lon="6.19527">
        <ele>2080.1999511719</ele>
        <time>2014-03-02T10:26:37.000Z</time>
      </trkpt>
      <trkpt lat="45.69379" lon="6.19527">
        <ele>2080</ele>
        <time>2014-03-02T10:26:45.000Z</time>
      </trkpt>
      <trkpt lat="45.69379" lon="6.19527">
        <ele>2080.1999511719</ele>
        <time>2014-03-02T10:26:55.000Z</time>
      </trkpt>
      <trkpt lat="45.69379" lon="6.19528">
        <ele>2080.3999023438</ele>
        <time>2014-03-02T10:27:05.000Z</time>
      </trkpt>
      <trkpt lat="45.69379" lon="6.1953">
        <ele>2081.1999511719</ele>
        <time>2014-03-02T10:27:18.000Z</time>
      </trkpt>
      <trkpt lat="45.69378" lon="6.19531">
        <ele>2081.8000488281</ele>
        <time>2014-03-02T10:27:26.000Z</time>
      </trkpt>
      <trkpt lat="45.69379" lon="6.19531">
        <ele>2081.8000488281</ele>
        <time>2014-03-02T10:27:39.000Z</time>
      </trkpt>
      <trkpt lat="45.69379" lon="6.1953">
        <ele>2081.1999511719</ele>
        <time>2014-03-02T10:27:47.000Z</time>
      </trkpt>
      <trkpt lat="45.69379" lon="6.19531">
        <ele>2081.3999023438</ele>
        <time>2014-03-02T10:28:02.000Z</time>
      </trkpt>
      <trkpt lat="45.69379" lon="6.19531">
        <ele>2081.8000488281</ele>
        <time>2014-03-02T10:28:22.000Z</time>
      </trkpt>
      <trkpt lat="45.69378" lon="6.19529">
        <ele>2081.1999511719</ele>
        <time>2014-03-02T10:28:29.000Z</time>
      </trkpt>
      <trkpt lat="45.69378" lon="6.19529">
        <ele>2081.3999023438</ele>
        <time>2014-03-02T10:28:34.000Z</time>
      </trkpt>
      <trkpt lat="45.69378" lon="6.19529">
        <ele>2081.1999511719</ele>
        <time>2014-03-02T10:29:05.000Z</time>
      </trkpt>
      <trkpt lat="45.69378" lon="6.19529">
        <ele>2081.3999023438</ele>
        <time>2014-03-02T10:29:23.000Z</time>
      </trkpt>
      <trkpt lat="45.69378" lon="6.19531">
        <ele>2081.6000976562</ele>
        <time>2014-03-02T10:29:48.000Z</time>
      </trkpt>
      <trkpt lat="45.69379" lon="6.19531">
        <ele>2081.6000976562</ele>
        <time>2014-03-02T10:30:00.000Z</time>
      </trkpt>
      <trkpt lat="45.69379" lon="6.19531">
        <ele>2081.3999023438</ele>
        <time>2014-03-02T10:30:06.000Z</time>
      </trkpt>
      <trkpt lat="45.6938" lon="6.19531">
        <ele>2081.6000976562</ele>
        <time>2014-03-02T10:30:11.000Z</time>
      </trkpt>
      <trkpt lat="45.69379" lon="6.19531">
        <ele>2081.6000976562</ele>
        <time>2014-03-02T10:30:19.000Z</time>
      </trkpt>
      <trkpt lat="45.69381" lon="6.1953">
        <ele>2080.8000488281</ele>
        <time>2014-03-02T10:30:29.000Z</time>
      </trkpt>
      <trkpt lat="45.69381" lon="6.1953">
        <ele>2080.3999023438</ele>
        <time>2014-03-02T10:30:36.000Z</time>
      </trkpt>
      <trkpt lat="45.69381" lon="6.1953">
        <ele>2080.3999023438</ele>
        <time>2014-03-02T10:30:43.000Z</time>
      </trkpt>
      <trkpt lat="45.69381" lon="6.19529">
        <ele>2080.3999023438</ele>
        <time>2014-03-02T10:30:52.000Z</time>
      </trkpt>
      <trkpt lat="45.69382" lon="6.1953">
        <ele>2080.1999511719</ele>
        <time>2014-03-02T10:31:09.000Z</time>
      </trkpt>
      <trkpt lat="45.69381" lon="6.19529">
        <ele>2080.1999511719</ele>
        <time>2014-03-02T10:31:16.000Z</time>
      </trkpt>
      <trkpt lat="45.69381" lon="6.19529">
        <ele>2080.1999511719</ele>
        <time>2014-03-02T10:31:41.000Z</time>
      </trkpt>
      <trkpt lat="45.69381" lon="6.1953">
        <ele>2080.8000488281</ele>
        <time>2014-03-02T10:31:46.000Z</time>
      </trkpt>
      <trkpt lat="45.69379" lon="6.19532">
        <ele>2082.1999511719</ele>
        <time>2014-03-02T10:31:51.000Z</time>
      </trkpt>
      <trkpt lat="45.69376" lon="6.19534">
        <ele>2083.8000488281</ele>
        <time>2014-03-02T10:31:53.000Z</time>
      </trkpt>
      <trkpt lat="45.69374" lon="6.19546">
        <ele>2089.3999023438</ele>
        <time>2014-03-02T10:32:00.000Z</time>
      </trkpt>
      <trkpt lat="45.69371" lon="6.19559">
        <ele>2095.6000976562</ele>
        <time>2014-03-02T10:32:05.000Z</time>
      </trkpt>
      <trkpt lat="45.69369" lon="6.19572">
        <ele>2102</ele>
        <time>2014-03-02T10:32:10.000Z</time>
      </trkpt>
      <trkpt lat="45.69369" lon="6.19576">
        <ele>2103.8000488281</ele>
        <time>2014-03-02T10:32:13.000Z</time>
      </trkpt>
      <trkpt lat="45.69373" lon="6.19581">
        <ele>2103.8000488281</ele>
        <time>2014-03-02T10:32:17.000Z</time>
      </trkpt>
      <trkpt lat="45.69376" lon="6.1958">
        <ele>2102</ele>
        <time>2014-03-02T10:32:19.000Z</time>
      </trkpt>
      <trkpt lat="45.69379" lon="6.1959">
        <ele>2103.3999023438</ele>
        <time>2014-03-02T10:32:23.000Z</time>
      </trkpt>
      <trkpt lat="45.69383" lon="6.19589">
        <ele>2101.3999023438</ele>
        <time>2014-03-02T10:32:26.000Z</time>
      </trkpt>
      <trkpt lat="45.69386" lon="6.19586">
        <ele>2099.3999023438</ele>
        <time>2014-03-02T10:32:44.000Z</time>
      </trkpt>
      <trkpt lat="45.69388" lon="6.19593">
        <ele>2099.8000488281</ele>
        <time>2014-03-02T10:32:47.000Z</time>
      </trkpt>
      <trkpt lat="45.69395" lon="6.19598">
        <ele>2097.1999511719</ele>
        <time>2014-03-02T10:32:50.000Z</time>
      </trkpt>
      <trkpt lat="45.69391" lon="6.19608">
        <ele>2100.8000488281</ele>
        <time>2014-03-02T10:32:52.000Z</time>
      </trkpt>
      <trkpt lat="45.69392" lon="6.19613">
        <ele>2101.1999511719</ele>
        <time>2014-03-02T10:32:54.000Z</time>
      </trkpt>
      <trkpt lat="45.69393" lon="6.19614">
        <ele>2101</ele>
        <time>2014-03-02T10:32:56.000Z</time>
      </trkpt>
      <trkpt lat="45.69401" lon="6.19617">
        <ele>2097</ele>
        <time>2014-03-02T10:32:59.000Z</time>
      </trkpt>
      <trkpt lat="45.69402" lon="6.19621">
        <ele>2097</ele>
        <time>2014-03-02T10:33:00.000Z</time>
      </trkpt>
      <trkpt lat="45.69403" lon="6.19625">
        <ele>2097.1999511719</ele>
        <time>2014-03-02T10:33:05.000Z</time>
      </trkpt>
      <trkpt lat="45.69402" lon="6.19625">
        <ele>2097.8000488281</ele>
        <time>2014-03-02T10:33:12.000Z</time>
      </trkpt>
      <trkpt lat="45.69402" lon="6.19625">
        <ele>2097.6000976562</ele>
        <time>2014-03-02T10:33:14.000Z</time>
      </trkpt>
      <trkpt lat="45.69409" lon="6.19622">
        <ele>2093.3999023438</ele>
        <time>2014-03-02T10:33:18.000Z</time>
      </trkpt>
      <trkpt lat="45.69415" lon="6.19629">
        <ele>2091.3999023438</ele>
        <time>2014-03-02T10:33:20.000Z</time>
      </trkpt>
      <trkpt lat="45.69419" lon="6.19629">
        <ele>2086.8000488281</ele>
        <time>2014-03-02T10:33:25.000Z</time>
      </trkpt>
      <trkpt lat="45.6942" lon="6.19629">
        <ele>2085.6000976562</ele>
        <time>2014-03-02T10:33:26.000Z</time>
      </trkpt>
      <trkpt lat="45.69424" lon="6.19626">
        <ele>2079.1999511719</ele>
        <time>2014-03-02T10:33:28.000Z</time>
      </trkpt>
      <trkpt lat="45.69431" lon="6.19625">
        <ele>2069</ele>
        <time>2014-03-02T10:33:32.000Z</time>
      </trkpt>
      <trkpt lat="45.69435" lon="6.19628">
        <ele>2063.3999023438</ele>
        <time>2014-03-02T10:33:35.000Z</time>
      </trkpt>
      <trkpt lat="45.69439" lon="6.19633">
        <ele>2057.6000976562</ele>
        <time>2014-03-02T10:33:38.000Z</time>
      </trkpt>
      <trkpt lat="45.69443" lon="6.19633">
        <ele>2051</ele>
        <time>2014-03-02T10:33:41.000Z</time>
      </trkpt>
      <trkpt lat="45.69447" lon="6.19634">
        <ele>2045</ele>
        <time>2014-03-02T10:33:44.000Z</time>
      </trkpt>
      <trkpt lat="45.69456" lon="6.19633">
        <ele>2032.1999511719</ele>
        <time>2014-03-02T10:33:46.000Z</time>
      </trkpt>
      <trkpt lat="45.69462" lon="6.19644">
        <ele>2022.8000488281</ele>
        <time>2014-03-02T10:33:49.000Z</time>
      </trkpt>
      <trkpt lat="45.6946" lon="6.19646">
        <ele>2026.4000244141</ele>
        <time>2014-03-02T10:33:53.000Z</time>
      </trkpt>
      <trkpt lat="45.69449" lon="6.19648">
        <ele>2043.5999755859</ele>
        <time>2014-03-02T10:34:35.000Z</time>
      </trkpt>
      <trkpt lat="45.6946" lon="6.19655">
        <ele>2026.1999511719</ele>
        <time>2014-03-02T10:34:39.000Z</time>
      </trkpt>
      <trkpt lat="45.69463" lon="6.19657">
        <ele>2021.5999755859</ele>
        <time>2014-03-02T10:34:40.000Z</time>
      </trkpt>
      <trkpt lat="45.69475" lon="6.19664">
        <ele>2004</ele>
        <time>2014-03-02T10:34:44.000Z</time>
      </trkpt>
      <trkpt lat="45.69477" lon="6.19666">
        <ele>2001.4000244141</ele>
        <time>2014-03-02T10:34:45.000Z</time>
      </trkpt>
      <trkpt lat="45.69479" lon="6.19676">
        <ele>1996.8000488281</ele>
        <time>2014-03-02T10:34:49.000Z</time>
      </trkpt>
      <trkpt lat="45.69484" lon="6.19682">
        <ele>1988.1999511719</ele>
        <time>2014-03-02T10:34:52.000Z</time>
      </trkpt>
      <trkpt lat="45.69483" lon="6.19691">
        <ele>1987.8000488281</ele>
        <time>2014-03-02T10:34:54.000Z</time>
      </trkpt>
      <trkpt lat="45.69487" lon="6.19695">
        <ele>1980.8000488281</ele>
        <time>2014-03-02T10:34:56.000Z</time>
      </trkpt>
      <trkpt lat="45.69488" lon="6.19702">
        <ele>1979</ele>
        <time>2014-03-02T10:34:58.000Z</time>
      </trkpt>
      <trkpt lat="45.69498" lon="6.19697">
        <ele>1962.8000488281</ele>
        <time>2014-03-02T10:35:02.000Z</time>
      </trkpt>
      <trkpt lat="45.695" lon="6.19695">
        <ele>1960.4000244141</ele>
        <time>2014-03-02T10:35:05.000Z</time>
      </trkpt>
      <trkpt lat="45.69506" lon="6.19691">
        <ele>1955.4000244141</ele>
        <time>2014-03-02T10:35:40.000Z</time>
      </trkpt>
      <trkpt lat="45.69519" lon="6.19699">
        <ele>1943</ele>
        <time>2014-03-02T10:35:45.000Z</time>
      </trkpt>
      <trkpt lat="45.69524" lon="6.19708">
        <ele>1936.8000488281</ele>
        <time>2014-03-02T10:35:48.000Z</time>
      </trkpt>
      <trkpt lat="45.69527" lon="6.19712">
        <ele>1933.5999755859</ele>
        <time>2014-03-02T10:35:50.000Z</time>
      </trkpt>
      <trkpt lat="45.69534" lon="6.19712">
        <ele>1927.5999755859</ele>
        <time>2014-03-02T10:35:53.000Z</time>
      </trkpt>
      <trkpt lat="45.69545" lon="6.19717">
        <ele>1917.8000488281</ele>
        <time>2014-03-02T10:35:56.000Z</time>
      </trkpt>
      <trkpt lat="45.69557" lon="6.19728">
        <ele>1905.5999755859</ele>
        <time>2014-03-02T10:36:00.000Z</time>
      </trkpt>
      <trkpt lat="45.69559" lon="6.19731">
        <ele>1903.5999755859</ele>
        <time>2014-03-02T10:36:02.000Z</time>
      </trkpt>
      <trkpt lat="45.69558" lon="6.19732">
        <ele>1904.4000244141</ele>
        <time>2014-03-02T10:36:08.000Z</time>
      </trkpt>
      <trkpt lat="45.69552" lon="6.19721">
        <ele>1911</ele>
        <time>2014-03-02T10:36:54.000Z</time>
      </trkpt>
      <trkpt lat="45.69558" lon="6.19733">
        <ele>1904</ele>
        <time>2014-03-02T10:36:58.000Z</time>
      </trkpt>
      <trkpt lat="45.69562" lon="6.1974">
        <ele>1899.4000244141</ele>
        <time>2014-03-02T10:37:00.000Z</time>
      </trkpt>
      <trkpt lat="45.6957" lon="6.19733">
        <ele>1893.5999755859</ele>
        <time>2014-03-02T10:37:03.000Z</time>
      </trkpt>
      <trkpt lat="45.69574" lon="6.19735">
        <ele>1889.5999755859</ele>
        <time>2014-03-02T10:37:05.000Z</time>
      </trkpt>
      <trkpt lat="45.69575" lon="6.19736">
        <ele>1888.8000488281</ele>
        <time>2014-03-02T10:37:07.000Z</time>
      </trkpt>
      <trkpt lat="45.69572" lon="6.19745">
        <ele>1890.5999755859</ele>
        <time>2014-03-02T10:37:20.000Z</time>
      </trkpt>
      <trkpt lat="45.69569" lon="6.19748">
        <ele>1892</ele>
        <time>2014-03-02T10:38:01.000Z</time>
      </trkpt>
      <trkpt lat="45.69571" lon="6.19743">
        <ele>1891.4000244141</ele>
        <time>2014-03-02T10:38:04.000Z</time>
      </trkpt>
      <trkpt lat="45.69575" lon="6.19749">
        <ele>1886.8000488281</ele>
        <time>2014-03-02T10:38:07.000Z</time>
      </trkpt>
      <trkpt lat="45.69578" lon="6.19751">
        <ele>1884.5999755859</ele>
        <time>2014-03-02T10:38:08.000Z</time>
      </trkpt>
      <trkpt lat="45.69591" lon="6.19752">
        <ele>1873</ele>
        <time>2014-03-02T10:38:12.000Z</time>
      </trkpt>
      <trkpt lat="45.69601" lon="6.19751">
        <ele>1864</ele>
        <time>2014-03-02T10:38:15.000Z</time>
      </trkpt>
      <trkpt lat="45.69611" lon="6.19759">
        <ele>1853.5999755859</ele>
        <time>2014-03-02T10:38:18.000Z</time>
      </trkpt>
      <trkpt lat="45.69615" lon="6.19775">
        <ele>1845.5999755859</ele>
        <time>2014-03-02T10:38:21.000Z</time>
      </trkpt>
      <trkpt lat="45.69616" lon="6.19783">
        <ele>1843.1999511719</ele>
        <time>2014-03-02T10:38:23.000Z</time>
      </trkpt>
      <trkpt lat="45.69633" lon="6.19779">
        <ele>1829.8000488281</ele>
        <time>2014-03-02T10:38:27.000Z</time>
      </trkpt>
      <trkpt lat="45.69642" lon="6.19792">
        <ele>1818.5999755859</ele>
        <time>2014-03-02T10:38:30.000Z</time>
      </trkpt>
      <trkpt lat="45.69651" lon="6.19816">
        <ele>1806.4000244141</ele>
        <time>2014-03-02T10:38:34.000Z</time>
      </trkpt>
      <trkpt lat="45.69665" lon="6.19824">
        <ele>1792.8000488281</ele>
        <time>2014-03-02T10:38:39.000Z</time>
      </trkpt>
      <trkpt lat="45.69671" lon="6.19823">
        <ele>1790.4000244141</ele>
        <time>2014-03-02T10:39:01.000Z</time>
      </trkpt>
      <trkpt lat="45.69676" lon="6.19827">
        <ele>1787.5999755859</ele>
        <time>2014-03-02T10:39:22.000Z</time>
      </trkpt>
      <trkpt lat="45.69683" lon="6.19825">
        <ele>1785</ele>
        <time>2014-03-02T10:39:27.000Z</time>
      </trkpt>
      <trkpt lat="45.69682" lon="6.19825">
        <ele>1785</ele>
        <time>2014-03-02T10:39:32.000Z</time>
      </trkpt>
      <trkpt lat="45.69696" lon="6.19831">
        <ele>1779.1999511719</ele>
        <time>2014-03-02T10:40:17.000Z</time>
      </trkpt>
      <trkpt lat="45.69701" lon="6.1983">
        <ele>1777.1999511719</ele>
        <time>2014-03-02T10:40:20.000Z</time>
      </trkpt>
      <trkpt lat="45.69701" lon="6.19832">
        <ele>1777.4000244141</ele>
        <time>2014-03-02T10:40:24.000Z</time>
      </trkpt>
      <trkpt lat="45.69698" lon="6.19836">
        <ele>1778.1999511719</ele>
        <time>2014-03-02T10:40:27.000Z</time>
      </trkpt>
      <trkpt lat="45.69711" lon="6.19842">
        <ele>1774.8000488281</ele>
        <time>2014-03-02T10:40:31.000Z</time>
      </trkpt>
      <trkpt lat="45.69716" lon="6.19841">
        <ele>1773.1999511719</ele>
        <time>2014-03-02T10:40:32.000Z</time>
      </trkpt>
      <trkpt lat="45.69727" lon="6.19836">
        <ele>1768.4000244141</ele>
        <time>2014-03-02T10:40:37.000Z</time>
      </trkpt>
      <trkpt lat="45.69736" lon="6.19828">
        <ele>1762.5999755859</ele>
        <time>2014-03-02T10:40:45.000Z</time>
      </trkpt>
      <trkpt lat="45.69743" lon="6.1983">
        <ele>1760.4000244141</ele>
        <time>2014-03-02T10:40:47.000Z</time>
      </trkpt>
      <trkpt lat="45.69732" lon="6.19837">
        <ele>1767</ele>
        <time>2014-03-02T10:40:51.000Z</time>
      </trkpt>
      <trkpt lat="45.69729" lon="6.19842">
        <ele>1770</ele>
        <time>2014-03-02T10:40:55.000Z</time>
      </trkpt>
      <trkpt lat="45.69724" lon="6.19842">
        <ele>1771.4000244141</ele>
        <time>2014-03-02T10:41:02.000Z</time>
      </trkpt>
      <trkpt lat="45.6972" lon="6.19842">
        <ele>1772.4000244141</ele>
        <time>2014-03-02T10:41:08.000Z</time>
      </trkpt>
      <trkpt lat="45.69729" lon="6.19838">
        <ele>1768.8000488281</ele>
        <time>2014-03-02T10:41:12.000Z</time>
      </trkpt>
      <trkpt lat="45.69738" lon="6.19842">
        <ele>1767.8000488281</ele>
        <time>2014-03-02T10:41:16.000Z</time>
      </trkpt>
      <trkpt lat="45.69741" lon="6.19835">
        <ele>1763.1999511719</ele>
        <time>2014-03-02T10:41:18.000Z</time>
      </trkpt>
      <trkpt lat="45.69749" lon="6.19823">
        <ele>1756</ele>
        <time>2014-03-02T10:41:21.000Z</time>
      </trkpt>
      <trkpt lat="45.69759" lon="6.19821">
        <ele>1746.5999755859</ele>
        <time>2014-03-02T10:41:24.000Z</time>
      </trkpt>
      <trkpt lat="45.69767" lon="6.19829">
        <ele>1741.4000244141</ele>
        <time>2014-03-02T10:41:28.000Z</time>
      </trkpt>
      <trkpt lat="45.69774" lon="6.19823">
        <ele>1733</ele>
        <time>2014-03-02T10:41:31.000Z</time>
      </trkpt>
      <trkpt lat="45.69784" lon="6.1982">
        <ele>1722.8000488281</ele>
        <time>2014-03-02T10:41:34.000Z</time>
      </trkpt>
      <trkpt lat="45.69791" lon="6.1981">
        <ele>1713.5999755859</ele>
        <time>2014-03-02T10:41:37.000Z</time>
      </trkpt>
      <trkpt lat="45.69794" lon="6.19807">
        <ele>1710.4000244141</ele>
        <time>2014-03-02T10:41:42.000Z</time>
      </trkpt>
      <trkpt lat="45.69791" lon="6.19809">
        <ele>1713.4000244141</ele>
        <time>2014-03-02T10:41:54.000Z</time>
      </trkpt>
      <trkpt lat="45.69791" lon="6.19809">
        <ele>1713.1999511719</ele>
        <time>2014-03-02T10:42:01.000Z</time>
      </trkpt>
      <trkpt lat="45.69789" lon="6.19809">
        <ele>1715.4000244141</ele>
        <time>2014-03-02T10:42:20.000Z</time>
      </trkpt>
      <trkpt lat="45.69794" lon="6.19806">
        <ele>1709.8000488281</ele>
        <time>2014-03-02T10:43:14.000Z</time>
      </trkpt>
      <trkpt lat="45.69796" lon="6.19804">
        <ele>1707</ele>
        <time>2014-03-02T10:43:21.000Z</time>
      </trkpt>
      <trkpt lat="45.69798" lon="6.19803">
        <ele>1705.8000488281</ele>
        <time>2014-03-02T10:43:29.000Z</time>
      </trkpt>
      <trkpt lat="45.69808" lon="6.19794">
        <ele>1694.4000244141</ele>
        <time>2014-03-02T10:43:32.000Z</time>
      </trkpt>
      <trkpt lat="45.6981" lon="6.19773">
        <ele>1686.5999755859</ele>
        <time>2014-03-02T10:43:35.000Z</time>
      </trkpt>
      <trkpt lat="45.69812" lon="6.19766">
        <ele>1683.4000244141</ele>
        <time>2014-03-02T10:43:36.000Z</time>
      </trkpt>
      <trkpt lat="45.69821" lon="6.19753">
        <ele>1673</ele>
        <time>2014-03-02T10:43:38.000Z</time>
      </trkpt>
      <trkpt lat="45.69847" lon="6.19745">
        <ele>1654.1999511719</ele>
        <time>2014-03-02T10:43:42.000Z</time>
      </trkpt>
      <trkpt lat="45.69861" lon="6.19729">
        <ele>1647.1999511719</ele>
        <time>2014-03-02T10:43:44.000Z</time>
      </trkpt>
      <trkpt lat="45.69868" lon="6.19727">
        <ele>1643</ele>
        <time>2014-03-02T10:43:45.000Z</time>
      </trkpt>
      <trkpt lat="45.69901" lon="6.19726">
        <ele>1624.1999511719</ele>
        <time>2014-03-02T10:43:50.000Z</time>
      </trkpt>
      <trkpt lat="45.69921" lon="6.19727">
        <ele>1613</ele>
        <time>2014-03-02T10:43:53.000Z</time>
      </trkpt>
      <trkpt lat="45.69935" lon="6.19724">
        <ele>1607.4000244141</ele>
        <time>2014-03-02T10:43:55.000Z</time>
      </trkpt>
      <trkpt lat="45.69975" lon="6.19728">
        <ele>1591</ele>
        <time>2014-03-02T10:44:00.000Z</time>
      </trkpt>
      <trkpt lat="45.69999" lon="6.19726">
        <ele>1581</ele>
        <time>2014-03-02T10:44:03.000Z</time>
      </trkpt>
      <trkpt lat="45.70025" lon="6.19722">
        <ele>1584.1999511719</ele>
        <time>2014-03-02T10:44:06.000Z</time>
      </trkpt>
      <trkpt lat="45.70034" lon="6.1972">
        <ele>1585.4000244141</ele>
        <time>2014-03-02T10:44:09.000Z</time>
      </trkpt>
      <trkpt lat="45.7003" lon="6.19723">
        <ele>1584.5999755859</ele>
        <time>2014-03-02T10:44:16.000Z</time>
      </trkpt>
      <trkpt lat="45.70029" lon="6.19722">
        <ele>1584.5999755859</ele>
        <time>2014-03-02T10:44:34.000Z</time>
      </trkpt>
      <trkpt lat="45.70028" lon="6.19722">
        <ele>1584.5999755859</ele>
        <time>2014-03-02T10:44:41.000Z</time>
      </trkpt>
      <trkpt lat="45.70027" lon="6.19722">
        <ele>1584.4000244141</ele>
        <time>2014-03-02T10:44:52.000Z</time>
      </trkpt>
      <trkpt lat="45.70027" lon="6.19722">
        <ele>1584.4000244141</ele>
        <time>2014-03-02T10:45:03.000Z</time>
      </trkpt>
      <trkpt lat="45.70025" lon="6.19721">
        <ele>1584.1999511719</ele>
        <time>2014-03-02T10:45:19.000Z</time>
      </trkpt>
      <trkpt lat="45.70025" lon="6.19721">
        <ele>1584.1999511719</ele>
        <time>2014-03-02T10:45:24.000Z</time>
      </trkpt>
      <trkpt lat="45.70023" lon="6.19721">
        <ele>1584</ele>
        <time>2014-03-02T10:45:45.000Z</time>
      </trkpt>
      <trkpt lat="45.70025" lon="6.19723">
        <ele>1584</ele>
        <time>2014-03-02T10:45:56.000Z</time>
      </trkpt>
      <trkpt lat="45.70026" lon="6.19724">
        <ele>1584</ele>
        <time>2014-03-02T10:46:08.000Z</time>
      </trkpt>
      <trkpt lat="45.70027" lon="6.19724">
        <ele>1584</ele>
        <time>2014-03-02T10:46:14.000Z</time>
      </trkpt>
      <trkpt lat="45.70027" lon="6.19725">
        <ele>1584</ele>
        <time>2014-03-02T10:46:22.000Z</time>
      </trkpt>
      <trkpt lat="45.70026" lon="6.19725">
        <ele>1584</ele>
        <time>2014-03-02T10:46:32.000Z</time>
      </trkpt>
      <trkpt lat="45.70025" lon="6.19723">
        <ele>1584</ele>
        <time>2014-03-02T10:46:38.000Z</time>
      </trkpt>
      <trkpt lat="45.70023" lon="6.19721">
        <ele>1583.8000488281</ele>
        <time>2014-03-02T10:46:58.000Z</time>
      </trkpt>
      <trkpt lat="45.70022" lon="6.19722">
        <ele>1583.8000488281</ele>
        <time>2014-03-02T10:47:11.000Z</time>
      </trkpt>
      <trkpt lat="45.70022" lon="6.19721">
        <ele>1583.8000488281</ele>
        <time>2014-03-02T10:47:20.000Z</time>
      </trkpt>
      <trkpt lat="45.70023" lon="6.19722">
        <ele>1584</ele>
        <time>2014-03-02T10:47:39.000Z</time>
      </trkpt>
      <trkpt lat="45.70023" lon="6.19724">
        <ele>1583.8000488281</ele>
        <time>2014-03-02T10:47:53.000Z</time>
      </trkpt>
      <trkpt lat="45.70025" lon="6.19724">
        <ele>1583.8000488281</ele>
        <time>2014-03-02T10:48:07.000Z</time>
      </trkpt>
      <trkpt lat="45.70026" lon="6.19724">
        <ele>1584</ele>
        <time>2014-03-02T10:48:16.000Z</time>
      </trkpt>
      <trkpt lat="45.70026" lon="6.19723">
        <ele>1584.1999511719</ele>
        <time>2014-03-02T10:48:26.000Z</time>
      </trkpt>
      <trkpt lat="45.70027" lon="6.19724">
        <ele>1584</ele>
        <time>2014-03-02T10:48:36.000Z</time>
      </trkpt>
      <trkpt lat="45.70026" lon="6.19723">
        <ele>1584.1999511719</ele>
        <time>2014-03-02T10:48:47.000Z</time>
      </trkpt>
      <trkpt lat="45.70026" lon="6.19722">
        <ele>1584.1999511719</ele>
        <time>2014-03-02T10:48:52.000Z</time>
      </trkpt>
      <trkpt lat="45.70025" lon="6.19721">
        <ele>1584.1999511719</ele>
        <time>2014-03-02T10:49:00.000Z</time>
      </trkpt>
      <trkpt lat="45.70024" lon="6.19719">
        <ele>1584.4000244141</ele>
        <time>2014-03-02T10:49:16.000Z</time>
      </trkpt>
      <trkpt lat="45.70025" lon="6.1972">
        <ele>1584.4000244141</ele>
        <time>2014-03-02T10:49:20.000Z</time>
      </trkpt>
      <trkpt lat="45.70027" lon="6.1972">
        <ele>1584.5999755859</ele>
        <time>2014-03-02T10:49:24.000Z</time>
      </trkpt>
      <trkpt lat="45.70028" lon="6.19721">
        <ele>1584.5999755859</ele>
        <time>2014-03-02T10:49:32.000Z</time>
      </trkpt>
      <trkpt lat="45.70027" lon="6.19722">
        <ele>1584.4000244141</ele>
        <time>2014-03-02T10:49:50.000Z</time>
      </trkpt>
      <trkpt lat="45.70027" lon="6.19721">
        <ele>1584.4000244141</ele>
        <time>2014-03-02T10:50:02.000Z</time>
      </trkpt>
      <trkpt lat="45.70027" lon="6.19721">
        <ele>1584.4000244141</ele>
        <time>2014-03-02T10:50:18.000Z</time>
      </trkpt>
      <trkpt lat="45.70026" lon="6.1972">
        <ele>1584.4000244141</ele>
        <time>2014-03-02T10:50:27.000Z</time>
      </trkpt>
      <trkpt lat="45.70025" lon="6.1972">
        <ele>1584.4000244141</ele>
        <time>2014-03-02T10:50:35.000Z</time>
      </trkpt>
      <trkpt lat="45.70027" lon="6.19722">
        <ele>1584.4000244141</ele>
        <time>2014-03-02T10:51:00.000Z</time>
      </trkpt>
      <trkpt lat="45.70027" lon="6.19722">
        <ele>1584.4000244141</ele>
        <time>2014-03-02T10:51:07.000Z</time>
      </trkpt>
      <trkpt lat="45.70027" lon="6.19722">
        <ele>1584.4000244141</ele>
        <time>2014-03-02T10:51:17.000Z</time>
      </trkpt>
      <trkpt lat="45.70027" lon="6.19722">
        <ele>1584.4000244141</ele>
        <time>2014-03-02T10:51:29.000Z</time>
      </trkpt>
      <trkpt lat="45.70026" lon="6.19723">
        <ele>1584.1999511719</ele>
        <time>2014-03-02T10:51:34.000Z</time>
      </trkpt>
      <trkpt lat="45.70026" lon="6.19723">
        <ele>1584.1999511719</ele>
        <time>2014-03-02T10:51:42.000Z</time>
      </trkpt>
      <trkpt lat="45.70026" lon="6.19722">
        <ele>1584.1999511719</ele>
        <time>2014-03-02T10:51:53.000Z</time>
      </trkpt>
      <trkpt lat="45.70026" lon="6.19721">
        <ele>1584.4000244141</ele>
        <time>2014-03-02T10:51:59.000Z</time>
      </trkpt>
      <trkpt lat="45.70025" lon="6.1972">
        <ele>1584.4000244141</ele>
        <time>2014-03-02T10:52:13.000Z</time>
      </trkpt>
      <trkpt lat="45.70026" lon="6.1972">
        <ele>1584.4000244141</ele>
        <time>2014-03-02T10:52:18.000Z</time>
      </trkpt>
      <trkpt lat="45.70026" lon="6.19719">
        <ele>1584.5999755859</ele>
        <time>2014-03-02T10:52:30.000Z</time>
      </trkpt>
      <trkpt lat="45.70027" lon="6.19721">
        <ele>1584.5999755859</ele>
        <time>2014-03-02T10:52:46.000Z</time>
      </trkpt>
      <trkpt lat="45.70027" lon="6.1972">
        <ele>1584.5999755859</ele>
        <time>2014-03-02T10:53:09.000Z</time>
      </trkpt>
      <trkpt lat="45.70026" lon="6.19719">
        <ele>1584.5999755859</ele>
        <time>2014-03-02T10:53:18.000Z</time>
      </trkpt>
      <trkpt lat="45.70027" lon="6.19717">
        <ele>1584.8000488281</ele>
        <time>2014-03-02T10:53:30.000Z</time>
      </trkpt>
      <trkpt lat="45.70027" lon="6.19713">
        <ele>1585.4000244141</ele>
        <time>2014-03-02T10:53:36.000Z</time>
      </trkpt>
      <trkpt lat="45.70028" lon="6.19707">
        <ele>1586.1999511719</ele>
        <time>2014-03-02T10:53:42.000Z</time>
      </trkpt>
      <trkpt lat="45.70028" lon="6.19698">
        <ele>1587.1999511719</ele>
        <time>2014-03-02T10:53:49.000Z</time>
      </trkpt>
      <trkpt lat="45.70028" lon="6.19688">
        <ele>1588.4000244141</ele>
        <time>2014-03-02T10:53:56.000Z</time>
      </trkpt>
      <trkpt lat="45.70029" lon="6.19686">
        <ele>1588.5999755859</ele>
        <time>2014-03-02T10:53:57.000Z</time>
      </trkpt>
      <trkpt lat="45.70029" lon="6.19677">
        <ele>1589.8000488281</ele>
        <time>2014-03-02T10:54:03.000Z</time>
      </trkpt>
      <trkpt lat="45.70029" lon="6.19675">
        <ele>1590</ele>
        <time>2014-03-02T10:54:04.000Z</time>
      </trkpt>
      <trkpt lat="45.70031" lon="6.19666">
        <ele>1591.4000244141</ele>
        <time>2014-03-02T10:54:11.000Z</time>
      </trkpt>
      <trkpt lat="45.70032" lon="6.1966">
        <ele>1592.8000488281</ele>
        <time>2014-03-02T10:54:17.000Z</time>
      </trkpt>
      <trkpt lat="45.70033" lon="6.19651">
        <ele>1594.5999755859</ele>
        <time>2014-03-02T10:54:23.000Z</time>
      </trkpt>
      <trkpt lat="45.70033" lon="6.19645">
        <ele>1595.8000488281</ele>
        <time>2014-03-02T10:54:27.000Z</time>
      </trkpt>
      <trkpt lat="45.70033" lon="6.19643">
        <ele>1596.1999511719</ele>
        <time>2014-03-02T10:54:28.000Z</time>
      </trkpt>
      <trkpt lat="45.7003" lon="6.19634">
        <ele>1597.1999511719</ele>
        <time>2014-03-02T10:54:33.000Z</time>
      </trkpt>
      <trkpt lat="45.70026" lon="6.19626">
        <ele>1597.8000488281</ele>
        <time>2014-03-02T10:54:38.000Z</time>
      </trkpt>
      <trkpt lat="45.70025" lon="6.19623">
        <ele>1598</ele>
        <time>2014-03-02T10:54:40.000Z</time>
      </trkpt>
      <trkpt lat="45.70024" lon="6.19622">
        <ele>1598</ele>
        <time>2014-03-02T10:54:42.000Z</time>
      </trkpt>
      <trkpt lat="45.70017" lon="6.19619">
        <ele>1597.4000244141</ele>
        <time>2014-03-02T10:54:49.000Z</time>
      </trkpt>
      <trkpt lat="45.70015" lon="6.19617">
        <ele>1597</ele>
        <time>2014-03-02T10:54:53.000Z</time>
      </trkpt>
      <trkpt lat="45.70014" lon="6.19617">
        <ele>1597</ele>
        <time>2014-03-02T10:54:59.000Z</time>
      </trkpt>
      <trkpt lat="45.7001" lon="6.19615">
        <ele>1596.4000244141</ele>
        <time>2014-03-02T10:55:05.000Z</time>
      </trkpt>
      <trkpt lat="45.70005" lon="6.19613">
        <ele>1595.8000488281</ele>
        <time>2014-03-02T10:55:10.000Z</time>
      </trkpt>
      <trkpt lat="45.70001" lon="6.19609">
        <ele>1595.4000244141</ele>
        <time>2014-03-02T10:55:16.000Z</time>
      </trkpt>
      <trkpt lat="45.69995" lon="6.19605">
        <ele>1597.8000488281</ele>
        <time>2014-03-02T10:55:23.000Z</time>
      </trkpt>
      <trkpt lat="45.69991" lon="6.196">
        <ele>1599.8000488281</ele>
        <time>2014-03-02T10:55:29.000Z</time>
      </trkpt>
      <trkpt lat="45.69987" lon="6.19594">
        <ele>1601.8000488281</ele>
        <time>2014-03-02T10:55:35.000Z</time>
      </trkpt>
      <trkpt lat="45.69981" lon="6.19587">
        <ele>1604.4000244141</ele>
        <time>2014-03-02T10:55:43.000Z</time>
      </trkpt>
      <trkpt lat="45.69977" lon="6.19581">
        <ele>1606.1999511719</ele>
        <time>2014-03-02T10:55:49.000Z</time>
      </trkpt>
      <trkpt lat="45.69974" lon="6.19573">
        <ele>1608.1999511719</ele>
        <time>2014-03-02T10:55:56.000Z</time>
      </trkpt>
      <trkpt lat="45.69972" lon="6.19566">
        <ele>1609.4000244141</ele>
        <time>2014-03-02T10:56:01.000Z</time>
      </trkpt>
      <trkpt lat="45.69969" lon="6.1956">
        <ele>1610.8000488281</ele>
        <time>2014-03-02T10:56:07.000Z</time>
      </trkpt>
      <trkpt lat="45.69965" lon="6.19555">
        <ele>1612.5999755859</ele>
        <time>2014-03-02T10:56:14.000Z</time>
      </trkpt>
      <trkpt lat="45.6996" lon="6.19551">
        <ele>1614</ele>
        <time>2014-03-02T10:56:21.000Z</time>
      </trkpt>
      <trkpt lat="45.69955" lon="6.19548">
        <ele>1615.5999755859</ele>
        <time>2014-03-02T10:56:28.000Z</time>
      </trkpt>
      <trkpt lat="45.69952" lon="6.19544">
        <ele>1616.5999755859</ele>
        <time>2014-03-02T10:56:33.000Z</time>
      </trkpt>
      <trkpt lat="45.69949" lon="6.1954">
        <ele>1617.8000488281</ele>
        <time>2014-03-02T10:56:38.000Z</time>
      </trkpt>
      <trkpt lat="45.69948" lon="6.19537">
        <ele>1618.4000244141</ele>
        <time>2014-03-02T10:56:41.000Z</time>
      </trkpt>
      <trkpt lat="45.69946" lon="6.19533">
        <ele>1619</ele>
        <time>2014-03-02T10:56:45.000Z</time>
      </trkpt>
      <trkpt lat="45.69945" lon="6.19528">
        <ele>1620</ele>
        <time>2014-03-02T10:56:50.000Z</time>
      </trkpt>
      <trkpt lat="45.69943" lon="6.19522">
        <ele>1620.8000488281</ele>
        <time>2014-03-02T10:56:55.000Z</time>
      </trkpt>
      <trkpt lat="45.69941" lon="6.19517">
        <ele>1621.8000488281</ele>
        <time>2014-03-02T10:57:00.000Z</time>
      </trkpt>
      <trkpt lat="45.69938" lon="6.19511">
        <ele>1622.8000488281</ele>
        <time>2014-03-02T10:57:06.000Z</time>
      </trkpt>
      <trkpt lat="45.69936" lon="6.19507">
        <ele>1623.5999755859</ele>
        <time>2014-03-02T10:57:10.000Z</time>
      </trkpt>
      <trkpt lat="45.69934" lon="6.195">
        <ele>1624.8000488281</ele>
        <time>2014-03-02T10:57:16.000Z</time>
      </trkpt>
      <trkpt lat="45.69932" lon="6.19496">
        <ele>1626.1999511719</ele>
        <time>2014-03-02T10:57:19.000Z</time>
      </trkpt>
      <trkpt lat="45.6993" lon="6.19488">
        <ele>1629.1999511719</ele>
        <time>2014-03-02T10:57:25.000Z</time>
      </trkpt>
      <trkpt lat="45.69929" lon="6.19485">
        <ele>1630.1999511719</ele>
        <time>2014-03-02T10:57:27.000Z</time>
      </trkpt>
      <trkpt lat="45.69929" lon="6.19475">
        <ele>1632.8000488281</ele>
        <time>2014-03-02T10:57:35.000Z</time>
      </trkpt>
      <trkpt lat="45.69933" lon="6.19471">
        <ele>1633.4000244141</ele>
        <time>2014-03-02T10:57:40.000Z</time>
      </trkpt>
      <trkpt lat="45.69934" lon="6.19468">
        <ele>1634.1999511719</ele>
        <time>2014-03-02T10:57:42.000Z</time>
      </trkpt>
      <trkpt lat="45.69937" lon="6.1946">
        <ele>1635.5999755859</ele>
        <time>2014-03-02T10:57:49.000Z</time>
      </trkpt>
      <trkpt lat="45.6994" lon="6.19457">
        <ele>1636.4000244141</ele>
        <time>2014-03-02T10:57:53.000Z</time>
      </trkpt>
      <trkpt lat="45.69944" lon="6.19453">
        <ele>1636.8000488281</ele>
        <time>2014-03-02T10:57:57.000Z</time>
      </trkpt>
      <trkpt lat="45.69947" lon="6.19448">
        <ele>1637.4000244141</ele>
        <time>2014-03-02T10:58:03.000Z</time>
      </trkpt>
      <trkpt lat="45.69948" lon="6.19447">
        <ele>1637.5999755859</ele>
        <time>2014-03-02T10:58:04.000Z</time>
      </trkpt>
      <trkpt lat="45.6995" lon="6.19444">
        <ele>1638.1999511719</ele>
        <time>2014-03-02T10:58:06.000Z</time>
      </trkpt>
      <trkpt lat="45.69955" lon="6.19439">
        <ele>1639</ele>
        <time>2014-03-02T10:58:11.000Z</time>
      </trkpt>
      <trkpt lat="45.69956" lon="6.19437">
        <ele>1639.4000244141</ele>
        <time>2014-03-02T10:58:14.000Z</time>
      </trkpt>
      <trkpt lat="45.69961" lon="6.19434">
        <ele>1639.4000244141</ele>
        <time>2014-03-02T10:58:19.000Z</time>
      </trkpt>
      <trkpt lat="45.69966" lon="6.19432">
        <ele>1639</ele>
        <time>2014-03-02T10:58:24.000Z</time>
      </trkpt>
      <trkpt lat="45.6997" lon="6.19431">
        <ele>1638.5999755859</ele>
        <time>2014-03-02T10:58:29.000Z</time>
      </trkpt>
      <trkpt lat="45.69972" lon="6.19427">
        <ele>1639.5999755859</ele>
        <time>2014-03-02T10:58:33.000Z</time>
      </trkpt>
      <trkpt lat="45.69975" lon="6.19423">
        <ele>1640.4000244141</ele>
        <time>2014-03-02T10:58:38.000Z</time>
      </trkpt>
      <trkpt lat="45.69976" lon="6.19422">
        <ele>1640.5999755859</ele>
        <time>2014-03-02T10:58:44.000Z</time>
      </trkpt>
      <trkpt lat="45.69976" lon="6.19418">
        <ele>1641.8000488281</ele>
        <time>2014-03-02T10:58:48.000Z</time>
      </trkpt>
      <trkpt lat="45.69977" lon="6.19411">
        <ele>1643.8000488281</ele>
        <time>2014-03-02T10:58:53.000Z</time>
      </trkpt>
      <trkpt lat="45.69978" lon="6.19406">
        <ele>1645.5999755859</ele>
        <time>2014-03-02T10:58:59.000Z</time>
      </trkpt>
      <trkpt lat="45.69978" lon="6.19402">
        <ele>1647</ele>
        <time>2014-03-02T10:59:03.000Z</time>
      </trkpt>
      <trkpt lat="45.69978" lon="6.19397">
        <ele>1648.5999755859</ele>
        <time>2014-03-02T10:59:06.000Z</time>
      </trkpt>
      <trkpt lat="45.69981" lon="6.19389">
        <ele>1651</ele>
        <time>2014-03-02T10:59:12.000Z</time>
      </trkpt>
      <trkpt lat="45.69983" lon="6.19384">
        <ele>1652.4000244141</ele>
        <time>2014-03-02T10:59:18.000Z</time>
      </trkpt>
      <trkpt lat="45.69984" lon="6.1938">
        <ele>1653.8000488281</ele>
        <time>2014-03-02T10:59:22.000Z</time>
      </trkpt>
      <trkpt lat="45.69986" lon="6.19375">
        <ele>1655.4000244141</ele>
        <time>2014-03-02T10:59:28.000Z</time>
      </trkpt>
      <trkpt lat="45.69988" lon="6.19371">
        <ele>1656.5999755859</ele>
        <time>2014-03-02T10:59:32.000Z</time>
      </trkpt>
      <trkpt lat="45.69988" lon="6.19365">
        <ele>1658.5999755859</ele>
        <time>2014-03-02T10:59:37.000Z</time>
      </trkpt>
      <trkpt lat="45.69986" lon="6.1936">
        <ele>1660.5999755859</ele>
        <time>2014-03-02T10:59:42.000Z</time>
      </trkpt>
      <trkpt lat="45.69985" lon="6.19359">
        <ele>1661</ele>
        <time>2014-03-02T10:59:43.000Z</time>
      </trkpt>
      <trkpt lat="45.69982" lon="6.19359">
        <ele>1661.5999755859</ele>
        <time>2014-03-02T10:59:45.000Z</time>
      </trkpt>
      <trkpt lat="45.69977" lon="6.19355">
        <ele>1663.5999755859</ele>
        <time>2014-03-02T10:59:52.000Z</time>
      </trkpt>
      <trkpt lat="45.69974" lon="6.19353">
        <ele>1664.5999755859</ele>
        <time>2014-03-02T10:59:57.000Z</time>
      </trkpt>
      <trkpt lat="45.6997" lon="6.19352">
        <ele>1665.4000244141</ele>
        <time>2014-03-02T11:00:03.000Z</time>
      </trkpt>
      <trkpt lat="45.69966" lon="6.19352">
        <ele>1665.8000488281</ele>
        <time>2014-03-02T11:00:08.000Z</time>
      </trkpt>
      <trkpt lat="45.69962" lon="6.19351">
        <ele>1666.8000488281</ele>
        <time>2014-03-02T11:00:13.000Z</time>
      </trkpt>
      <trkpt lat="45.69957" lon="6.19349">
        <ele>1667.8000488281</ele>
        <time>2014-03-02T11:00:19.000Z</time>
      </trkpt>
      <trkpt lat="45.69954" lon="6.19347">
        <ele>1668.8000488281</ele>
        <time>2014-03-02T11:00:23.000Z</time>
      </trkpt>
      <trkpt lat="45.69951" lon="6.19346">
        <ele>1669.5999755859</ele>
        <time>2014-03-02T11:00:27.000Z</time>
      </trkpt>
      <trkpt lat="45.6995" lon="6.19342">
        <ele>1671</ele>
        <time>2014-03-02T11:00:31.000Z</time>
      </trkpt>
      <trkpt lat="45.69952" lon="6.19334">
        <ele>1673.1999511719</ele>
        <time>2014-03-02T11:00:37.000Z</time>
      </trkpt>
      <trkpt lat="45.69953" lon="6.19331">
        <ele>1674.4000244141</ele>
        <time>2014-03-02T11:00:41.000Z</time>
      </trkpt>
      <trkpt lat="45.69953" lon="6.19328">
        <ele>1675.5999755859</ele>
        <time>2014-03-02T11:00:44.000Z</time>
      </trkpt>
      <trkpt lat="45.69954" lon="6.19324">
        <ele>1677.4000244141</ele>
        <time>2014-03-02T11:00:48.000Z</time>
      </trkpt>
      <trkpt lat="45.69955" lon="6.19318">
        <ele>1679.8000488281</ele>
        <time>2014-03-02T11:00:53.000Z</time>
      </trkpt>
      <trkpt lat="45.69956" lon="6.19315">
        <ele>1681</ele>
        <time>2014-03-02T11:00:57.000Z</time>
      </trkpt>
      <trkpt lat="45.69956" lon="6.1931">
        <ele>1683</ele>
        <time>2014-03-02T11:01:01.000Z</time>
      </trkpt>
      <trkpt lat="45.69956" lon="6.19305">
        <ele>1685</ele>
        <time>2014-03-02T11:01:05.000Z</time>
      </trkpt>
      <trkpt lat="45.69957" lon="6.19302">
        <ele>1686.1999511719</ele>
        <time>2014-03-02T11:01:09.000Z</time>
      </trkpt>
      <trkpt lat="45.69958" lon="6.19297">
        <ele>1688.1999511719</ele>
        <time>2014-03-02T11:01:14.000Z</time>
      </trkpt>
      <trkpt lat="45.69959" lon="6.19293">
        <ele>1689.8000488281</ele>
        <time>2014-03-02T11:01:19.000Z</time>
      </trkpt>
      <trkpt lat="45.69958" lon="6.1929">
        <ele>1691.4000244141</ele>
        <time>2014-03-02T11:01:23.000Z</time>
      </trkpt>
      <trkpt lat="45.69956" lon="6.19287">
        <ele>1692.4000244141</ele>
        <time>2014-03-02T11:01:27.000Z</time>
      </trkpt>
      <trkpt lat="45.69953" lon="6.19288">
        <ele>1692.4000244141</ele>
        <time>2014-03-02T11:01:30.000Z</time>
      </trkpt>
      <trkpt lat="45.69949" lon="6.19288">
        <ele>1692.1999511719</ele>
        <time>2014-03-02T11:01:34.000Z</time>
      </trkpt>
      <trkpt lat="45.69945" lon="6.19288">
        <ele>1692.5999755859</ele>
        <time>2014-03-02T11:01:39.000Z</time>
      </trkpt>
      <trkpt lat="45.69941" lon="6.19289">
        <ele>1692.4000244141</ele>
        <time>2014-03-02T11:01:44.000Z</time>
      </trkpt>
      <trkpt lat="45.69939" lon="6.19289">
        <ele>1692.4000244141</ele>
        <time>2014-03-02T11:01:49.000Z</time>
      </trkpt>
      <trkpt lat="45.69934" lon="6.19292">
        <ele>1691.5999755859</ele>
        <time>2014-03-02T11:01:55.000Z</time>
      </trkpt>
      <trkpt lat="45.69932" lon="6.19293">
        <ele>1691.4000244141</ele>
        <time>2014-03-02T11:01:59.000Z</time>
      </trkpt>
      <trkpt lat="45.69928" lon="6.19295">
        <ele>1690.4000244141</ele>
        <time>2014-03-02T11:02:04.000Z</time>
      </trkpt>
      <trkpt lat="45.69925" lon="6.193">
        <ele>1688.8000488281</ele>
        <time>2014-03-02T11:02:10.000Z</time>
      </trkpt>
      <trkpt lat="45.69924" lon="6.19303">
        <ele>1687.5999755859</ele>
        <time>2014-03-02T11:02:13.000Z</time>
      </trkpt>
      <trkpt lat="45.69922" lon="6.19308">
        <ele>1686</ele>
        <time>2014-03-02T11:02:18.000Z</time>
      </trkpt>
      <trkpt lat="45.69919" lon="6.19313">
        <ele>1684.4000244141</ele>
        <time>2014-03-02T11:02:24.000Z</time>
      </trkpt>
      <trkpt lat="45.69917" lon="6.19316">
        <ele>1683.5999755859</ele>
        <time>2014-03-02T11:02:31.000Z</time>
      </trkpt>
      <trkpt lat="45.69915" lon="6.1932">
        <ele>1682.4000244141</ele>
        <time>2014-03-02T11:02:36.000Z</time>
      </trkpt>
      <trkpt lat="45.69912" lon="6.19323">
        <ele>1681.8000488281</ele>
        <time>2014-03-02T11:02:41.000Z</time>
      </trkpt>
      <trkpt lat="45.69908" lon="6.19324">
        <ele>1682.8000488281</ele>
        <time>2014-03-02T11:02:46.000Z</time>
      </trkpt>
      <trkpt lat="45.69905" lon="6.19324">
        <ele>1683.8000488281</ele>
        <time>2014-03-02T11:02:50.000Z</time>
      </trkpt>
      <trkpt lat="45.69901" lon="6.19321">
        <ele>1685.5999755859</ele>
        <time>2014-03-02T11:02:55.000Z</time>
      </trkpt>
      <trkpt lat="45.69897" lon="6.19318">
        <ele>1687.8000488281</ele>
        <time>2014-03-02T11:03:00.000Z</time>
      </trkpt>
      <trkpt lat="45.69892" lon="6.19315">
        <ele>1689.8000488281</ele>
        <time>2014-03-02T11:03:04.000Z</time>
      </trkpt>
      <trkpt lat="45.69888" lon="6.19314">
        <ele>1691.1999511719</ele>
        <time>2014-03-02T11:03:09.000Z</time>
      </trkpt>
      <trkpt lat="45.69885" lon="6.19315">
        <ele>1692</ele>
        <time>2014-03-02T11:03:14.000Z</time>
      </trkpt>
      <trkpt lat="45.69881" lon="6.19312">
        <ele>1693.8000488281</ele>
        <time>2014-03-02T11:03:19.000Z</time>
      </trkpt>
      <trkpt lat="45.69878" lon="6.19306">
        <ele>1696.5999755859</ele>
        <time>2014-03-02T11:03:24.000Z</time>
      </trkpt>
      <trkpt lat="45.69877" lon="6.193">
        <ele>1699</ele>
        <time>2014-03-02T11:03:29.000Z</time>
      </trkpt>
      <trkpt lat="45.69877" lon="6.19294">
        <ele>1701</ele>
        <time>2014-03-02T11:03:34.000Z</time>
      </trkpt>
      <trkpt lat="45.69878" lon="6.19288">
        <ele>1702.8000488281</ele>
        <time>2014-03-02T11:03:38.000Z</time>
      </trkpt>
      <trkpt lat="45.69879" lon="6.1928">
        <ele>1705.1999511719</ele>
        <time>2014-03-02T11:03:43.000Z</time>
      </trkpt>
      <trkpt lat="45.6988" lon="6.19271">
        <ele>1708</ele>
        <time>2014-03-02T11:03:49.000Z</time>
      </trkpt>
      <trkpt lat="45.69881" lon="6.19262">
        <ele>1711</ele>
        <time>2014-03-02T11:03:55.000Z</time>
      </trkpt>
      <trkpt lat="45.69882" lon="6.19255">
        <ele>1713.1999511719</ele>
        <time>2014-03-02T11:04:00.000Z</time>
      </trkpt>
      <trkpt lat="45.69883" lon="6.19248">
        <ele>1715.8000488281</ele>
        <time>2014-03-02T11:04:06.000Z</time>
      </trkpt>
      <trkpt lat="45.69886" lon="6.19242">
        <ele>1717.4000244141</ele>
        <time>2014-03-02T11:04:11.000Z</time>
      </trkpt>
      <trkpt lat="45.69888" lon="6.19236">
        <ele>1719.1999511719</ele>
        <time>2014-03-02T11:04:16.000Z</time>
      </trkpt>
      <trkpt lat="45.69891" lon="6.19232">
        <ele>1720.4000244141</ele>
        <time>2014-03-02T11:04:21.000Z</time>
      </trkpt>
      <trkpt lat="45.69892" lon="6.19228">
        <ele>1721.8000488281</ele>
        <time>2014-03-02T11:04:25.000Z</time>
      </trkpt>
      <trkpt lat="45.69896" lon="6.19223">
        <ele>1722.8000488281</ele>
        <time>2014-03-02T11:04:29.000Z</time>
      </trkpt>
      <trkpt lat="45.69898" lon="6.1922">
        <ele>1723.5999755859</ele>
        <time>2014-03-02T11:04:35.000Z</time>
      </trkpt>
      <trkpt lat="45.69896" lon="6.19219">
        <ele>1724.4000244141</ele>
        <time>2014-03-02T11:04:39.000Z</time>
      </trkpt>
      <trkpt lat="45.69891" lon="6.19216">
        <ele>1726.4000244141</ele>
        <time>2014-03-02T11:04:45.000Z</time>
      </trkpt>
      <trkpt lat="45.69887" lon="6.19215">
        <ele>1727.5999755859</ele>
        <time>2014-03-02T11:04:50.000Z</time>
      </trkpt>
      <trkpt lat="45.69883" lon="6.19214">
        <ele>1729</ele>
        <time>2014-03-02T11:04:55.000Z</time>
      </trkpt>
      <trkpt lat="45.69879" lon="6.19212">
        <ele>1730.5999755859</ele>
        <time>2014-03-02T11:05:00.000Z</time>
      </trkpt>
      <trkpt lat="45.69873" lon="6.19209">
        <ele>1732.5999755859</ele>
        <time>2014-03-02T11:05:06.000Z</time>
      </trkpt>
      <trkpt lat="45.69869" lon="6.19207">
        <ele>1734</ele>
        <time>2014-03-02T11:05:11.000Z</time>
      </trkpt>
      <trkpt lat="45.69865" lon="6.19206">
        <ele>1735.1999511719</ele>
        <time>2014-03-02T11:05:16.000Z</time>
      </trkpt>
      <trkpt lat="45.69861" lon="6.19206">
        <ele>1736</ele>
        <time>2014-03-02T11:05:20.000Z</time>
      </trkpt>
      <trkpt lat="45.69858" lon="6.19206">
        <ele>1736.5999755859</ele>
        <time>2014-03-02T11:05:24.000Z</time>
      </trkpt>
      <trkpt lat="45.69853" lon="6.19206">
        <ele>1737.1999511719</ele>
        <time>2014-03-02T11:05:30.000Z</time>
      </trkpt>
      <trkpt lat="45.69848" lon="6.19208">
        <ele>1737.5999755859</ele>
        <time>2014-03-02T11:05:36.000Z</time>
      </trkpt>
      <trkpt lat="45.69844" lon="6.19211">
        <ele>1737</ele>
        <time>2014-03-02T11:05:41.000Z</time>
      </trkpt>
      <trkpt lat="45.69841" lon="6.19212">
        <ele>1737.1999511719</ele>
        <time>2014-03-02T11:05:45.000Z</time>
      </trkpt>
      <trkpt lat="45.69838" lon="6.19213">
        <ele>1737.4000244141</ele>
        <time>2014-03-02T11:05:49.000Z</time>
      </trkpt>
      <trkpt lat="45.69834" lon="6.19215">
        <ele>1737.4000244141</ele>
        <time>2014-03-02T11:05:54.000Z</time>
      </trkpt>
      <trkpt lat="45.69834" lon="6.19213">
        <ele>1738.1999511719</ele>
        <time>2014-03-02T11:05:57.000Z</time>
      </trkpt>
      <trkpt lat="45.69834" lon="6.19211">
        <ele>1738.5999755859</ele>
        <time>2014-03-02T11:05:58.000Z</time>
      </trkpt>
      <trkpt lat="45.69837" lon="6.19204">
        <ele>1741</ele>
        <time>2014-03-02T11:06:03.000Z</time>
      </trkpt>
      <trkpt lat="45.69838" lon="6.19202">
        <ele>1741.5999755859</ele>
        <time>2014-03-02T11:06:05.000Z</time>
      </trkpt>
      <trkpt lat="45.69839" lon="6.19194">
        <ele>1744.1999511719</ele>
        <time>2014-03-02T11:06:10.000Z</time>
      </trkpt>
      <trkpt lat="45.6984" lon="6.19188">
        <ele>1746.1999511719</ele>
        <time>2014-03-02T11:06:14.000Z</time>
      </trkpt>
      <trkpt lat="45.69841" lon="6.19187">
        <ele>1746.4000244141</ele>
        <time>2014-03-02T11:06:15.000Z</time>
      </trkpt>
      <trkpt lat="45.69845" lon="6.19179">
        <ele>1748.5999755859</ele>
        <time>2014-03-02T11:06:21.000Z</time>
      </trkpt>
      <trkpt lat="45.6985" lon="6.19171">
        <ele>1751</ele>
        <time>2014-03-02T11:06:26.000Z</time>
      </trkpt>
      <trkpt lat="45.69856" lon="6.19166">
        <ele>1751.8000488281</ele>
        <time>2014-03-02T11:06:33.000Z</time>
      </trkpt>
      <trkpt lat="45.69861" lon="6.19161">
        <ele>1752.8000488281</ele>
        <time>2014-03-02T11:06:39.000Z</time>
      </trkpt>
      <trkpt lat="45.69863" lon="6.1916">
        <ele>1753.1999511719</ele>
        <time>2014-03-02T11:06:42.000Z</time>
      </trkpt>
      <trkpt lat="45.69867" lon="6.19158">
        <ele>1753.4000244141</ele>
        <time>2014-03-02T11:06:48.000Z</time>
      </trkpt>
      <trkpt lat="45.69871" lon="6.19155">
        <ele>1754</ele>
        <time>2014-03-02T11:06:52.000Z</time>
      </trkpt>
      <trkpt lat="45.69874" lon="6.19152">
        <ele>1754.8000488281</ele>
        <time>2014-03-02T11:06:56.000Z</time>
      </trkpt>
      <trkpt lat="45.69878" lon="6.19151">
        <ele>1754.5999755859</ele>
        <time>2014-03-02T11:07:02.000Z</time>
      </trkpt>
      <trkpt lat="45.69881" lon="6.1915">
        <ele>1754.4000244141</ele>
        <time>2014-03-02T11:07:06.000Z</time>
      </trkpt>
      <trkpt lat="45.69886" lon="6.19146">
        <ele>1755.1999511719</ele>
        <time>2014-03-02T11:07:11.000Z</time>
      </trkpt>
      <trkpt lat="45.69892" lon="6.19142">
        <ele>1756</ele>
        <time>2014-03-02T11:07:16.000Z</time>
      </trkpt>
      <trkpt lat="45.69896" lon="6.1914">
        <ele>1756</ele>
        <time>2014-03-02T11:07:20.000Z</time>
      </trkpt>
      <trkpt lat="45.69898" lon="6.19139">
        <ele>1756</ele>
        <time>2014-03-02T11:07:22.000Z</time>
      </trkpt>
      <trkpt lat="45.69902" lon="6.19142">
        <ele>1754</ele>
        <time>2014-03-02T11:07:28.000Z</time>
      </trkpt>
      <trkpt lat="45.69907" lon="6.19142">
        <ele>1753.5999755859</ele>
        <time>2014-03-02T11:07:33.000Z</time>
      </trkpt>
      <trkpt lat="45.69912" lon="6.1914">
        <ele>1753.1999511719</ele>
        <time>2014-03-02T11:07:39.000Z</time>
      </trkpt>
      <trkpt lat="45.69917" lon="6.19139">
        <ele>1753</ele>
        <time>2014-03-02T11:07:45.000Z</time>
      </trkpt>
      <trkpt lat="45.69921" lon="6.19139">
        <ele>1752.5999755859</ele>
        <time>2014-03-02T11:07:49.000Z</time>
      </trkpt>
      <trkpt lat="45.69927" lon="6.19137">
        <ele>1753</ele>
        <time>2014-03-02T11:07:56.000Z</time>
      </trkpt>
      <trkpt lat="45.69931" lon="6.19135">
        <ele>1753.4000244141</ele>
        <time>2014-03-02T11:08:00.000Z</time>
      </trkpt>
      <trkpt lat="45.69934" lon="6.19132">
        <ele>1754.4000244141</ele>
        <time>2014-03-02T11:08:05.000Z</time>
      </trkpt>
      <trkpt lat="45.69938" lon="6.19128">
        <ele>1755.5999755859</ele>
        <time>2014-03-02T11:08:10.000Z</time>
      </trkpt>
      <trkpt lat="45.69942" lon="6.19124">
        <ele>1756.8000488281</ele>
        <time>2014-03-02T11:08:16.000Z</time>
      </trkpt>
      <trkpt lat="45.69946" lon="6.19121">
        <ele>1757.8000488281</ele>
        <time>2014-03-02T11:08:21.000Z</time>
      </trkpt>
      <trkpt lat="45.69949" lon="6.19118">
        <ele>1758.8000488281</ele>
        <time>2014-03-02T11:08:24.000Z</time>
      </trkpt>
      <trkpt lat="45.69951" lon="6.19115">
        <ele>1760</ele>
        <time>2014-03-02T11:08:27.000Z</time>
      </trkpt>
      <trkpt lat="45.69953" lon="6.19112">
        <ele>1761</ele>
        <time>2014-03-02T11:08:31.000Z</time>
      </trkpt>
      <trkpt lat="45.69958" lon="6.1911">
        <ele>1761.4000244141</ele>
        <time>2014-03-02T11:08:35.000Z</time>
      </trkpt>
      <trkpt lat="45.69962" lon="6.19107">
        <ele>1762.4000244141</ele>
        <time>2014-03-02T11:08:39.000Z</time>
      </trkpt>
      <trkpt lat="45.69966" lon="6.19102">
        <ele>1763.8000488281</ele>
        <time>2014-03-02T11:08:44.000Z</time>
      </trkpt>
      <trkpt lat="45.69971" lon="6.19097">
        <ele>1765.4000244141</ele>
        <time>2014-03-02T11:08:50.000Z</time>
      </trkpt>
      <trkpt lat="45.69973" lon="6.19094">
        <ele>1766.5999755859</ele>
        <time>2014-03-02T11:08:56.000Z</time>
      </trkpt>
      <trkpt lat="45.69974" lon="6.19092">
        <ele>1767.4000244141</ele>
        <time>2014-03-02T11:09:02.000Z</time>
      </trkpt>
      <trkpt lat="45.69974" lon="6.19089">
        <ele>1768.5999755859</ele>
        <time>2014-03-02T11:09:08.000Z</time>
      </trkpt>
      <trkpt lat="45.69968" lon="6.19085">
        <ele>1770.4000244141</ele>
        <time>2014-03-02T11:09:13.000Z</time>
      </trkpt>
      <trkpt lat="45.69967" lon="6.19085">
        <ele>1770.5999755859</ele>
        <time>2014-03-02T11:09:14.000Z</time>
      </trkpt>
      <trkpt lat="45.69962" lon="6.19082">
        <ele>1772.1999511719</ele>
        <time>2014-03-02T11:09:20.000Z</time>
      </trkpt>
      <trkpt lat="45.69958" lon="6.19081">
        <ele>1772.8000488281</ele>
        <time>2014-03-02T11:09:23.000Z</time>
      </trkpt>
      <trkpt lat="45.69955" lon="6.1908">
        <ele>1773.1999511719</ele>
        <time>2014-03-02T11:09:27.000Z</time>
      </trkpt>
      <trkpt lat="45.6995" lon="6.19077">
        <ele>1774.4000244141</ele>
        <time>2014-03-02T11:09:33.000Z</time>
      </trkpt>
      <trkpt lat="45.69946" lon="6.19074">
        <ele>1775.8000488281</ele>
        <time>2014-03-02T11:09:40.000Z</time>
      </trkpt>
      <trkpt lat="45.69942" lon="6.19072">
        <ele>1776.8000488281</ele>
        <time>2014-03-02T11:09:46.000Z</time>
      </trkpt>
      <trkpt lat="45.69939" lon="6.19068">
        <ele>1778</ele>
        <time>2014-03-02T11:09:52.000Z</time>
      </trkpt>
      <trkpt lat="45.69936" lon="6.19064">
        <ele>1779.8000488281</ele>
        <time>2014-03-02T11:09:58.000Z</time>
      </trkpt>
      <trkpt lat="45.69933" lon="6.1906">
        <ele>1781.1999511719</ele>
        <time>2014-03-02T11:10:03.000Z</time>
      </trkpt>
      <trkpt lat="45.69931" lon="6.19057">
        <ele>1782.4000244141</ele>
        <time>2014-03-02T11:10:07.000Z</time>
      </trkpt>
      <trkpt lat="45.6993" lon="6.19053">
        <ele>1783.8000488281</ele>
        <time>2014-03-02T11:10:11.000Z</time>
      </trkpt>
      <trkpt lat="45.69933" lon="6.1905">
        <ele>1784.4000244141</ele>
        <time>2014-03-02T11:10:15.000Z</time>
      </trkpt>
      <trkpt lat="45.69938" lon="6.19048">
        <ele>1784.5999755859</ele>
        <time>2014-03-02T11:10:21.000Z</time>
      </trkpt>
      <trkpt lat="45.69944" lon="6.19049">
        <ele>1783.5999755859</ele>
        <time>2014-03-02T11:10:26.000Z</time>
      </trkpt>
      <trkpt lat="45.69947" lon="6.19049">
        <ele>1783.4000244141</ele>
        <time>2014-03-02T11:10:31.000Z</time>
      </trkpt>
      <trkpt lat="45.69951" lon="6.19044">
        <ele>1784.4000244141</ele>
        <time>2014-03-02T11:10:36.000Z</time>
      </trkpt>
      <trkpt lat="45.69953" lon="6.1904">
        <ele>1785.4000244141</ele>
        <time>2014-03-02T11:10:39.000Z</time>
      </trkpt>
      <trkpt lat="45.69956" lon="6.19033">
        <ele>1787</ele>
        <time>2014-03-02T11:10:43.000Z</time>
      </trkpt>
      <trkpt lat="45.69958" lon="6.19028">
        <ele>1788.1999511719</ele>
        <time>2014-03-02T11:10:47.000Z</time>
      </trkpt>
      <trkpt lat="45.6996" lon="6.19021">
        <ele>1790.1999511719</ele>
        <time>2014-03-02T11:10:53.000Z</time>
      </trkpt>
      <trkpt lat="45.69962" lon="6.19014">
        <ele>1792</ele>
        <time>2014-03-02T11:10:59.000Z</time>
      </trkpt>
      <trkpt lat="45.69961" lon="6.19007">
        <ele>1794</ele>
        <time>2014-03-02T11:11:04.000Z</time>
      </trkpt>
      <trkpt lat="45.69958" lon="6.19001">
        <ele>1796.1999511719</ele>
        <time>2014-03-02T11:11:10.000Z</time>
      </trkpt>
      <trkpt lat="45.69957" lon="6.18996">
        <ele>1796.8000488281</ele>
        <time>2014-03-02T11:11:15.000Z</time>
      </trkpt>
      <trkpt lat="45.69955" lon="6.18992">
        <ele>1797.1999511719</ele>
        <time>2014-03-02T11:11:19.000Z</time>
      </trkpt>
      <trkpt lat="45.69953" lon="6.18987">
        <ele>1797.5999755859</ele>
        <time>2014-03-02T11:11:25.000Z</time>
      </trkpt>
      <trkpt lat="45.69952" lon="6.18984">
        <ele>1797.8000488281</ele>
        <time>2014-03-02T11:11:29.000Z</time>
      </trkpt>
      <trkpt lat="45.6995" lon="6.18979">
        <ele>1798.1999511719</ele>
        <time>2014-03-02T11:11:34.000Z</time>
      </trkpt>
      <trkpt lat="45.69949" lon="6.18976">
        <ele>1798.5999755859</ele>
        <time>2014-03-02T11:11:39.000Z</time>
      </trkpt>
      <trkpt lat="45.69949" lon="6.1897">
        <ele>1798.8000488281</ele>
        <time>2014-03-02T11:11:46.000Z</time>
      </trkpt>
      <trkpt lat="45.69948" lon="6.18968">
        <ele>1799</ele>
        <time>2014-03-02T11:11:49.000Z</time>
      </trkpt>
      <trkpt lat="45.69947" lon="6.18966">
        <ele>1799.1999511719</ele>
        <time>2014-03-02T11:11:54.000Z</time>
      </trkpt>
      <trkpt lat="45.69947" lon="6.18964">
        <ele>1799.4000244141</ele>
        <time>2014-03-02T11:12:01.000Z</time>
      </trkpt>
      <trkpt lat="45.69949" lon="6.18959">
        <ele>1799</ele>
        <time>2014-03-02T11:12:06.000Z</time>
      </trkpt>
      <trkpt lat="45.69953" lon="6.18956">
        <ele>1798.1999511719</ele>
        <time>2014-03-02T11:12:10.000Z</time>
      </trkpt>
      <trkpt lat="45.69957" lon="6.18952">
        <ele>1797</ele>
        <time>2014-03-02T11:12:16.000Z</time>
      </trkpt>
      <trkpt lat="45.6996" lon="6.18948">
        <ele>1796.4000244141</ele>
        <time>2014-03-02T11:12:20.000Z</time>
      </trkpt>
      <trkpt lat="45.69962" lon="6.18941">
        <ele>1795.8000488281</ele>
        <time>2014-03-02T11:12:27.000Z</time>
      </trkpt>
      <trkpt lat="45.69965" lon="6.18932">
        <ele>1795</ele>
        <time>2014-03-02T11:12:34.000Z</time>
      </trkpt>
      <trkpt lat="45.69965" lon="6.18931">
        <ele>1794.8000488281</ele>
        <time>2014-03-02T11:12:42.000Z</time>
      </trkpt>
      <trkpt lat="45.69966" lon="6.18928">
        <ele>1794.5999755859</ele>
        <time>2014-03-02T11:12:49.000Z</time>
      </trkpt>
      <trkpt lat="45.69963" lon="6.18926">
        <ele>1795.5999755859</ele>
        <time>2014-03-02T11:12:54.000Z</time>
      </trkpt>
      <trkpt lat="45.69957" lon="6.18926">
        <ele>1797.1999511719</ele>
        <time>2014-03-02T11:12:58.000Z</time>
      </trkpt>
      <trkpt lat="45.69954" lon="6.18926">
        <ele>1798.1999511719</ele>
        <time>2014-03-02T11:13:01.000Z</time>
      </trkpt>
      <trkpt lat="45.69947" lon="6.18925">
        <ele>1800.4000244141</ele>
        <time>2014-03-02T11:13:09.000Z</time>
      </trkpt>
      <trkpt lat="45.69942" lon="6.18924">
        <ele>1802.1999511719</ele>
        <time>2014-03-02T11:13:15.000Z</time>
      </trkpt>
      <trkpt lat="45.69938" lon="6.18922">
        <ele>1803.5999755859</ele>
        <time>2014-03-02T11:13:20.000Z</time>
      </trkpt>
      <trkpt lat="45.69934" lon="6.1892">
        <ele>1805</ele>
        <time>2014-03-02T11:13:25.000Z</time>
      </trkpt>
      <trkpt lat="45.6993" lon="6.18919">
        <ele>1806.4000244141</ele>
        <time>2014-03-02T11:13:29.000Z</time>
      </trkpt>
      <trkpt lat="45.69927" lon="6.18919">
        <ele>1807.4000244141</ele>
        <time>2014-03-02T11:13:33.000Z</time>
      </trkpt>
      <trkpt lat="45.69923" lon="6.18917">
        <ele>1808.8000488281</ele>
        <time>2014-03-02T11:13:37.000Z</time>
      </trkpt>
      <trkpt lat="45.69917" lon="6.18915">
        <ele>1810.4000244141</ele>
        <time>2014-03-02T11:13:44.000Z</time>
      </trkpt>
      <trkpt lat="45.69911" lon="6.18912">
        <ele>1810.5999755859</ele>
        <time>2014-03-02T11:13:50.000Z</time>
      </trkpt>
      <trkpt lat="45.69907" lon="6.18909">
        <ele>1810.4000244141</ele>
        <time>2014-03-02T11:13:56.000Z</time>
      </trkpt>
      <trkpt lat="45.69903" lon="6.18905">
        <ele>1810.4000244141</ele>
        <time>2014-03-02T11:14:02.000Z</time>
      </trkpt>
      <trkpt lat="45.69898" lon="6.18902">
        <ele>1810.8000488281</ele>
        <time>2014-03-02T11:14:08.000Z</time>
      </trkpt>
      <trkpt lat="45.69893" lon="6.18897">
        <ele>1811</ele>
        <time>2014-03-02T11:14:14.000Z</time>
      </trkpt>
      <trkpt lat="45.69887" lon="6.18895">
        <ele>1811.8000488281</ele>
        <time>2014-03-02T11:14:21.000Z</time>
      </trkpt>
      <trkpt lat="45.69884" lon="6.18894">
        <ele>1812.5999755859</ele>
        <time>2014-03-02T11:14:26.000Z</time>
      </trkpt>
      <trkpt lat="45.69879" lon="6.18892">
        <ele>1813.5999755859</ele>
        <time>2014-03-02T11:14:31.000Z</time>
      </trkpt>
      <trkpt lat="45.69874" lon="6.18891">
        <ele>1815</ele>
        <time>2014-03-02T11:14:37.000Z</time>
      </trkpt>
      <trkpt lat="45.69868" lon="6.18889">
        <ele>1816.4000244141</ele>
        <time>2014-03-02T11:14:43.000Z</time>
      </trkpt>
      <trkpt lat="45.69864" lon="6.18887">
        <ele>1817.4000244141</ele>
        <time>2014-03-02T11:14:48.000Z</time>
      </trkpt>
      <trkpt lat="45.69855" lon="6.18884">
        <ele>1819.8000488281</ele>
        <time>2014-03-02T11:14:53.000Z</time>
      </trkpt>
      <trkpt lat="45.69853" lon="6.18884">
        <ele>1820.4000244141</ele>
        <time>2014-03-02T11:14:54.000Z</time>
      </trkpt>
      <trkpt lat="45.69845" lon="6.1888">
        <ele>1822.5999755859</ele>
        <time>2014-03-02T11:15:02.000Z</time>
      </trkpt>
      <trkpt lat="45.69839" lon="6.18877">
        <ele>1824.1999511719</ele>
        <time>2014-03-02T11:15:08.000Z</time>
      </trkpt>
      <trkpt lat="45.69832" lon="6.18875">
        <ele>1826.1999511719</ele>
        <time>2014-03-02T11:15:15.000Z</time>
      </trkpt>
      <trkpt lat="45.6983" lon="6.18874">
        <ele>1826.1999511719</ele>
        <time>2014-03-02T11:15:17.000Z</time>
      </trkpt>
      <trkpt lat="45.69825" lon="6.18871">
        <ele>1826.1999511719</ele>
        <time>2014-03-02T11:15:22.000Z</time>
      </trkpt>
      <trkpt lat="45.69824" lon="6.18871">
        <ele>1826.1999511719</ele>
        <time>2014-03-02T11:15:23.000Z</time>
      </trkpt>
      <trkpt lat="45.69818" lon="6.18871">
        <ele>1826.5999755859</ele>
        <time>2014-03-02T11:15:30.000Z</time>
      </trkpt>
      <trkpt lat="45.69812" lon="6.18874">
        <ele>1827.5999755859</ele>
        <time>2014-03-02T11:15:37.000Z</time>
      </trkpt>
      <trkpt lat="45.69809" lon="6.18876">
        <ele>1828</ele>
        <time>2014-03-02T11:15:39.000Z</time>
      </trkpt>
      <trkpt lat="45.69804" lon="6.18879">
        <ele>1828.8000488281</ele>
        <time>2014-03-02T11:15:43.000Z</time>
      </trkpt>
      <trkpt lat="45.69797" lon="6.1889">
        <ele>1831.1999511719</ele>
        <time>2014-03-02T11:15:52.000Z</time>
      </trkpt>
      <trkpt lat="45.69792" lon="6.18899">
        <ele>1833.1999511719</ele>
        <time>2014-03-02T11:16:00.000Z</time>
      </trkpt>
      <trkpt lat="45.69788" lon="6.1891">
        <ele>1835.4000244141</ele>
        <time>2014-03-02T11:16:09.000Z</time>
      </trkpt>
      <trkpt lat="45.69785" lon="6.18918">
        <ele>1837</ele>
        <time>2014-03-02T11:16:15.000Z</time>
      </trkpt>
      <trkpt lat="45.69784" lon="6.18922">
        <ele>1837.1999511719</ele>
        <time>2014-03-02T11:16:18.000Z</time>
      </trkpt>
      <trkpt lat="45.69779" lon="6.18931">
        <ele>1838.5999755859</ele>
        <time>2014-03-02T11:16:26.000Z</time>
      </trkpt>
      <trkpt lat="45.69774" lon="6.18936">
        <ele>1839.8000488281</ele>
        <time>2014-03-02T11:16:34.000Z</time>
      </trkpt>
      <trkpt lat="45.69771" lon="6.18943">
        <ele>1841</ele>
        <time>2014-03-02T11:16:41.000Z</time>
      </trkpt>
      <trkpt lat="45.69769" lon="6.18952">
        <ele>1842.1999511719</ele>
        <time>2014-03-02T11:16:47.000Z</time>
      </trkpt>
      <trkpt lat="45.69769" lon="6.18961">
        <ele>1843</ele>
        <time>2014-03-02T11:16:51.000Z</time>
      </trkpt>
      <trkpt lat="45.69766" lon="6.18982">
        <ele>1845.8000488281</ele>
        <time>2014-03-02T11:16:58.000Z</time>
      </trkpt>
      <trkpt lat="45.69762" lon="6.18998">
        <ele>1848.8000488281</ele>
        <time>2014-03-02T11:17:04.000Z</time>
      </trkpt>
      <trkpt lat="45.69756" lon="6.19015">
        <ele>1847.1999511719</ele>
        <time>2014-03-02T11:17:11.000Z</time>
      </trkpt>
      <trkpt lat="45.6975" lon="6.19022">
        <ele>1847.4000244141</ele>
        <time>2014-03-02T11:17:18.000Z</time>
      </trkpt>
      <trkpt lat="45.69743" lon="6.19025">
        <ele>1848.1999511719</ele>
        <time>2014-03-02T11:17:25.000Z</time>
      </trkpt>
      <trkpt lat="45.69736" lon="6.19025">
        <ele>1849.8000488281</ele>
        <time>2014-03-02T11:17:32.000Z</time>
      </trkpt>
      <trkpt lat="45.69732" lon="6.19025">
        <ele>1850.8000488281</ele>
        <time>2014-03-02T11:17:37.000Z</time>
      </trkpt>
      <trkpt lat="45.69727" lon="6.19027">
        <ele>1851.8000488281</ele>
        <time>2014-03-02T11:17:44.000Z</time>
      </trkpt>
      <trkpt lat="45.69725" lon="6.19026">
        <ele>1852.4000244141</ele>
        <time>2014-03-02T11:17:48.000Z</time>
      </trkpt>
      <trkpt lat="45.69721" lon="6.19027">
        <ele>1853</ele>
        <time>2014-03-02T11:17:53.000Z</time>
      </trkpt>
      <trkpt lat="45.69718" lon="6.19029">
        <ele>1853.5999755859</ele>
        <time>2014-03-02T11:17:57.000Z</time>
      </trkpt>
      <trkpt lat="45.69714" lon="6.19031">
        <ele>1854.1999511719</ele>
        <time>2014-03-02T11:18:03.000Z</time>
      </trkpt>
      <trkpt lat="45.69711" lon="6.19032">
        <ele>1854.8000488281</ele>
        <time>2014-03-02T11:18:09.000Z</time>
      </trkpt>
      <trkpt lat="45.69708" lon="6.19034">
        <ele>1855.1999511719</ele>
        <time>2014-03-02T11:18:14.000Z</time>
      </trkpt>
      <trkpt lat="45.69704" lon="6.19036">
        <ele>1856</ele>
        <time>2014-03-02T11:18:20.000Z</time>
      </trkpt>
      <trkpt lat="45.69702" lon="6.19039">
        <ele>1856.1999511719</ele>
        <time>2014-03-02T11:18:25.000Z</time>
      </trkpt>
      <trkpt lat="45.697" lon="6.19041">
        <ele>1856.8000488281</ele>
        <time>2014-03-02T11:18:29.000Z</time>
      </trkpt>
      <trkpt lat="45.69697" lon="6.19042">
        <ele>1857.4000244141</ele>
        <time>2014-03-02T11:18:34.000Z</time>
      </trkpt>
      <trkpt lat="45.69695" lon="6.19043">
        <ele>1857.8000488281</ele>
        <time>2014-03-02T11:18:39.000Z</time>
      </trkpt>
      <trkpt lat="45.69692" lon="6.19044">
        <ele>1858.8000488281</ele>
        <time>2014-03-02T11:18:44.000Z</time>
      </trkpt>
      <trkpt lat="45.69688" lon="6.19043">
        <ele>1860</ele>
        <time>2014-03-02T11:18:49.000Z</time>
      </trkpt>
      <trkpt lat="45.69684" lon="6.19043">
        <ele>1861</ele>
        <time>2014-03-02T11:18:54.000Z</time>
      </trkpt>
      <trkpt lat="45.69681" lon="6.19042">
        <ele>1862.1999511719</ele>
        <time>2014-03-02T11:18:59.000Z</time>
      </trkpt>
      <trkpt lat="45.69678" lon="6.19041">
        <ele>1863.1999511719</ele>
        <time>2014-03-02T11:19:03.000Z</time>
      </trkpt>
      <trkpt lat="45.69673" lon="6.19041">
        <ele>1864.5999755859</ele>
        <time>2014-03-02T11:19:10.000Z</time>
      </trkpt>
      <trkpt lat="45.69671" lon="6.19041">
        <ele>1865.1999511719</ele>
        <time>2014-03-02T11:19:16.000Z</time>
      </trkpt>
      <trkpt lat="45.69673" lon="6.19044">
        <ele>1864.4000244141</ele>
        <time>2014-03-02T11:19:21.000Z</time>
      </trkpt>
      <trkpt lat="45.69676" lon="6.1905">
        <ele>1863.4000244141</ele>
        <time>2014-03-02T11:19:27.000Z</time>
      </trkpt>
      <trkpt lat="45.69677" lon="6.19054">
        <ele>1863</ele>
        <time>2014-03-02T11:19:31.000Z</time>
      </trkpt>
      <trkpt lat="45.69675" lon="6.19056">
        <ele>1863.4000244141</ele>
        <time>2014-03-02T11:19:35.000Z</time>
      </trkpt>
      <trkpt lat="45.69672" lon="6.19054">
        <ele>1864.5999755859</ele>
        <time>2014-03-02T11:19:40.000Z</time>
      </trkpt>
      <trkpt lat="45.69668" lon="6.19053">
        <ele>1866</ele>
        <time>2014-03-02T11:19:44.000Z</time>
      </trkpt>
      <trkpt lat="45.69666" lon="6.19053">
        <ele>1866.5999755859</ele>
        <time>2014-03-02T11:19:47.000Z</time>
      </trkpt>
      <trkpt lat="45.69667" lon="6.19055">
        <ele>1866.1999511719</ele>
        <time>2014-03-02T11:19:52.000Z</time>
      </trkpt>
      <trkpt lat="45.69668" lon="6.19059">
        <ele>1865.8000488281</ele>
        <time>2014-03-02T11:19:56.000Z</time>
      </trkpt>
      <trkpt lat="45.69668" lon="6.19061">
        <ele>1865.8000488281</ele>
        <time>2014-03-02T11:20:02.000Z</time>
      </trkpt>
      <trkpt lat="45.69666" lon="6.1906">
        <ele>1866.4000244141</ele>
        <time>2014-03-02T11:20:06.000Z</time>
      </trkpt>
      <trkpt lat="45.69666" lon="6.1906">
        <ele>1866.5999755859</ele>
        <time>2014-03-02T11:20:11.000Z</time>
      </trkpt>
      <trkpt lat="45.69667" lon="6.19064">
        <ele>1866.1999511719</ele>
        <time>2014-03-02T11:20:14.000Z</time>
      </trkpt>
      <trkpt lat="45.69664" lon="6.19064">
        <ele>1867.1999511719</ele>
        <time>2014-03-02T11:20:18.000Z</time>
      </trkpt>
      <trkpt lat="45.69663" lon="6.19061">
        <ele>1867.8000488281</ele>
        <time>2014-03-02T11:20:22.000Z</time>
      </trkpt>
      <trkpt lat="45.69661" lon="6.1906">
        <ele>1868.1999511719</ele>
        <time>2014-03-02T11:20:26.000Z</time>
      </trkpt>
      <trkpt lat="45.69658" lon="6.19059">
        <ele>1869.4000244141</ele>
        <time>2014-03-02T11:20:31.000Z</time>
      </trkpt>
      <trkpt lat="45.69657" lon="6.19059">
        <ele>1869.8000488281</ele>
        <time>2014-03-02T11:20:36.000Z</time>
      </trkpt>
      <trkpt lat="45.69655" lon="6.19063">
        <ele>1870.1999511719</ele>
        <time>2014-03-02T11:20:41.000Z</time>
      </trkpt>
      <trkpt lat="45.69655" lon="6.19063">
        <ele>1870.4000244141</ele>
        <time>2014-03-02T11:20:47.000Z</time>
      </trkpt>
      <trkpt lat="45.69653" lon="6.19059">
        <ele>1871</ele>
        <time>2014-03-02T11:20:52.000Z</time>
      </trkpt>
      <trkpt lat="45.6965" lon="6.19058">
        <ele>1872.1999511719</ele>
        <time>2014-03-02T11:20:58.000Z</time>
      </trkpt>
      <trkpt lat="45.69649" lon="6.19059">
        <ele>1872.5999755859</ele>
        <time>2014-03-02T11:21:04.000Z</time>
      </trkpt>
      <trkpt lat="45.69649" lon="6.19061">
        <ele>1872.5999755859</ele>
        <time>2014-03-02T11:21:07.000Z</time>
      </trkpt>
      <trkpt lat="45.69649" lon="6.19062">
        <ele>1872.5999755859</ele>
        <time>2014-03-02T11:21:20.000Z</time>
      </trkpt>
      <trkpt lat="45.69648" lon="6.19063">
        <ele>1872.8000488281</ele>
        <time>2014-03-02T11:21:26.000Z</time>
      </trkpt>
      <trkpt lat="45.69649" lon="6.19063">
        <ele>1872.4000244141</ele>
        <time>2014-03-02T11:21:32.000Z</time>
      </trkpt>
      <trkpt lat="45.6965" lon="6.19063">
        <ele>1872.1999511719</ele>
        <time>2014-03-02T11:21:42.000Z</time>
      </trkpt>
      <trkpt lat="45.6965" lon="6.19063">
        <ele>1872.1999511719</ele>
        <time>2014-03-02T11:21:50.000Z</time>
      </trkpt>
      <trkpt lat="45.69651" lon="6.19063">
        <ele>1872</ele>
        <time>2014-03-02T11:22:08.000Z</time>
      </trkpt>
      <trkpt lat="45.69652" lon="6.19061">
        <ele>1871.5999755859</ele>
        <time>2014-03-02T11:22:15.000Z</time>
      </trkpt>
      <trkpt lat="45.69651" lon="6.19063">
        <ele>1871.8000488281</ele>
        <time>2014-03-02T11:22:21.000Z</time>
      </trkpt>
      <trkpt lat="45.69651" lon="6.19062">
        <ele>1871.8000488281</ele>
        <time>2014-03-02T11:22:28.000Z</time>
      </trkpt>
      <trkpt lat="45.69651" lon="6.19063">
        <ele>1872</ele>
        <time>2014-03-02T11:22:37.000Z</time>
      </trkpt>
      <trkpt lat="45.69651" lon="6.19063">
        <ele>1871.8000488281</ele>
        <time>2014-03-02T11:22:47.000Z</time>
      </trkpt>
      <trkpt lat="45.69651" lon="6.19063">
        <ele>1871.8000488281</ele>
        <time>2014-03-02T11:22:58.000Z</time>
      </trkpt>
      <trkpt lat="45.69651" lon="6.19062">
        <ele>1871.8000488281</ele>
        <time>2014-03-02T11:23:12.000Z</time>
      </trkpt>
      <trkpt lat="45.69651" lon="6.19062">
        <ele>1871.8000488281</ele>
        <time>2014-03-02T11:23:26.000Z</time>
      </trkpt>
      <trkpt lat="45.69651" lon="6.19063">
        <ele>1871.8000488281</ele>
        <time>2014-03-02T11:23:42.000Z</time>
      </trkpt>
      <trkpt lat="45.69651" lon="6.19063">
        <ele>1871.8000488281</ele>
        <time>2014-03-02T11:23:54.000Z</time>
      </trkpt>
      <trkpt lat="45.69651" lon="6.19065">
        <ele>1871.5999755859</ele>
        <time>2014-03-02T11:24:02.000Z</time>
      </trkpt>
      <trkpt lat="45.69646" lon="6.19078">
        <ele>1873.1999511719</ele>
        <time>2014-03-02T11:24:05.000Z</time>
      </trkpt>
      <trkpt lat="45.69646" lon="6.19082">
        <ele>1873.4000244141</ele>
        <time>2014-03-02T11:24:06.000Z</time>
      </trkpt>
      <trkpt lat="45.69651" lon="6.19084">
        <ele>1871.4000244141</ele>
        <time>2014-03-02T11:24:11.000Z</time>
      </trkpt>
      <trkpt lat="45.6966" lon="6.19082">
        <ele>1868.4000244141</ele>
        <time>2014-03-02T11:24:17.000Z</time>
      </trkpt>
      <trkpt lat="45.69662" lon="6.19093">
        <ele>1865.5999755859</ele>
        <time>2014-03-02T11:24:20.000Z</time>
      </trkpt>
      <trkpt lat="45.69668" lon="6.19092">
        <ele>1863.4000244141</ele>
        <time>2014-03-02T11:24:22.000Z</time>
      </trkpt>
      <trkpt lat="45.69679" lon="6.19095">
        <ele>1858</ele>
        <time>2014-03-02T11:24:25.000Z</time>
      </trkpt>
      <trkpt lat="45.69691" lon="6.19099">
        <ele>1851.4000244141</ele>
        <time>2014-03-02T11:24:29.000Z</time>
      </trkpt>
      <trkpt lat="45.69705" lon="6.191">
        <ele>1844.5999755859</ele>
        <time>2014-03-02T11:24:32.000Z</time>
      </trkpt>
      <trkpt lat="45.69719" lon="6.19109">
        <ele>1835</ele>
        <time>2014-03-02T11:24:36.000Z</time>
      </trkpt>
      <trkpt lat="45.69732" lon="6.19109">
        <ele>1828.1999511719</ele>
        <time>2014-03-02T11:24:38.000Z</time>
      </trkpt>
      <trkpt lat="45.69746" lon="6.19119">
        <ele>1817.8000488281</ele>
        <time>2014-03-02T11:24:41.000Z</time>
      </trkpt>
      <trkpt lat="45.69751" lon="6.19125">
        <ele>1812.8000488281</ele>
        <time>2014-03-02T11:24:43.000Z</time>
      </trkpt>
      <trkpt lat="45.69753" lon="6.1913">
        <ele>1810</ele>
        <time>2014-03-02T11:24:44.000Z</time>
      </trkpt>
      <trkpt lat="45.69764" lon="6.19151">
        <ele>1797</ele>
        <time>2014-03-02T11:24:49.000Z</time>
      </trkpt>
      <trkpt lat="45.6977" lon="6.19163">
        <ele>1789</ele>
        <time>2014-03-02T11:24:52.000Z</time>
      </trkpt>
      <trkpt lat="45.69773" lon="6.19175">
        <ele>1783.5999755859</ele>
        <time>2014-03-02T11:24:54.000Z</time>
      </trkpt>
      <trkpt lat="45.69775" lon="6.19189">
        <ele>1778</ele>
        <time>2014-03-02T11:24:57.000Z</time>
      </trkpt>
      <trkpt lat="45.69787" lon="6.19188">
        <ele>1771.8000488281</ele>
        <time>2014-03-02T11:24:59.000Z</time>
      </trkpt>
      <trkpt lat="45.69792" lon="6.19184">
        <ele>1770.1999511719</ele>
        <time>2014-03-02T11:25:00.000Z</time>
      </trkpt>
      <trkpt lat="45.69814" lon="6.19174">
        <ele>1762.1999511719</ele>
        <time>2014-03-02T11:25:05.000Z</time>
      </trkpt>
      <trkpt lat="45.69828" lon="6.19177">
        <ele>1753.8000488281</ele>
        <time>2014-03-02T11:25:09.000Z</time>
      </trkpt>
      <trkpt lat="45.6985" lon="6.19174">
        <ele>1749.8000488281</ele>
        <time>2014-03-02T11:25:13.000Z</time>
      </trkpt>
      <trkpt lat="45.69856" lon="6.19174">
        <ele>1748.8000488281</ele>
        <time>2014-03-02T11:25:18.000Z</time>
      </trkpt>
      <trkpt lat="45.69856" lon="6.19174">
        <ele>1748.8000488281</ele>
        <time>2014-03-02T11:25:27.000Z</time>
      </trkpt>
      <trkpt lat="45.69856" lon="6.19174">
        <ele>1748.5999755859</ele>
        <time>2014-03-02T11:25:38.000Z</time>
      </trkpt>
      <trkpt lat="45.69857" lon="6.19173">
        <ele>1749</ele>
        <time>2014-03-02T11:25:45.000Z</time>
      </trkpt>
      <trkpt lat="45.69856" lon="6.19172">
        <ele>1749.5999755859</ele>
        <time>2014-03-02T11:25:50.000Z</time>
      </trkpt>
      <trkpt lat="45.69856" lon="6.19169">
        <ele>1750.4000244141</ele>
        <time>2014-03-02T11:26:14.000Z</time>
      </trkpt>
      <trkpt lat="45.69856" lon="6.19169">
        <ele>1750.8000488281</ele>
        <time>2014-03-02T11:26:24.000Z</time>
      </trkpt>
      <trkpt lat="45.69856" lon="6.19169">
        <ele>1750.8000488281</ele>
        <time>2014-03-02T11:26:30.000Z</time>
      </trkpt>
      <trkpt lat="45.69856" lon="6.19169">
        <ele>1750.5999755859</ele>
        <time>2014-03-02T11:26:43.000Z</time>
      </trkpt>
      <trkpt lat="45.69856" lon="6.19169">
        <ele>1750.4000244141</ele>
        <time>2014-03-02T11:26:51.000Z</time>
      </trkpt>
      <trkpt lat="45.69856" lon="6.19169">
        <ele>1750.4000244141</ele>
        <time>2014-03-02T11:27:00.000Z</time>
      </trkpt>
      <trkpt lat="45.69857" lon="6.1917">
        <ele>1750.1999511719</ele>
        <time>2014-03-02T11:27:16.000Z</time>
      </trkpt>
      <trkpt lat="45.69857" lon="6.1917">
        <ele>1749.8000488281</ele>
        <time>2014-03-02T11:27:34.000Z</time>
      </trkpt>
      <trkpt lat="45.69857" lon="6.1917">
        <ele>1750</ele>
        <time>2014-03-02T11:27:43.000Z</time>
      </trkpt>
      <trkpt lat="45.69856" lon="6.19171">
        <ele>1749.8000488281</ele>
        <time>2014-03-02T11:27:52.000Z</time>
      </trkpt>
      <trkpt lat="45.69856" lon="6.19171">
        <ele>1750</ele>
        <time>2014-03-02T11:28:00.000Z</time>
      </trkpt>
      <trkpt lat="45.69856" lon="6.19172">
        <ele>1749.5999755859</ele>
        <time>2014-03-02T11:28:11.000Z</time>
      </trkpt>
      <trkpt lat="45.69856" lon="6.19172">
        <ele>1749.5999755859</ele>
        <time>2014-03-02T11:28:15.000Z</time>
      </trkpt>
      <trkpt lat="45.69855" lon="6.19172">
        <ele>1749.5999755859</ele>
        <time>2014-03-02T11:28:25.000Z</time>
      </trkpt>
      <trkpt lat="45.69856" lon="6.19171">
        <ele>1749.8000488281</ele>
        <time>2014-03-02T11:28:36.000Z</time>
      </trkpt>
      <trkpt lat="45.69858" lon="6.1917">
        <ele>1749.8000488281</ele>
        <time>2014-03-02T11:28:43.000Z</time>
      </trkpt>
      <trkpt lat="45.6986" lon="6.1917">
        <ele>1749.8000488281</ele>
        <time>2014-03-02T11:28:47.000Z</time>
      </trkpt>
      <trkpt lat="45.69862" lon="6.19167">
        <ele>1750.1999511719</ele>
        <time>2014-03-02T11:28:51.000Z</time>
      </trkpt>
      <trkpt lat="45.69864" lon="6.19165">
        <ele>1751.1999511719</ele>
        <time>2014-03-02T11:28:55.000Z</time>
      </trkpt>
      <trkpt lat="45.69865" lon="6.19162">
        <ele>1751.8000488281</ele>
        <time>2014-03-02T11:28:59.000Z</time>
      </trkpt>
      <trkpt lat="45.69867" lon="6.19161">
        <ele>1752.1999511719</ele>
        <time>2014-03-02T11:29:03.000Z</time>
      </trkpt>
      <trkpt lat="45.69869" lon="6.19158">
        <ele>1753</ele>
        <time>2014-03-02T11:29:08.000Z</time>
      </trkpt>
      <trkpt lat="45.69873" lon="6.19153">
        <ele>1754.1999511719</ele>
        <time>2014-03-02T11:29:15.000Z</time>
      </trkpt>
      <trkpt lat="45.69877" lon="6.19151">
        <ele>1754.5999755859</ele>
        <time>2014-03-02T11:29:19.000Z</time>
      </trkpt>
      <trkpt lat="45.69882" lon="6.19147">
        <ele>1755.4000244141</ele>
        <time>2014-03-02T11:29:25.000Z</time>
      </trkpt>
      <trkpt lat="45.69887" lon="6.19143">
        <ele>1756</ele>
        <time>2014-03-02T11:29:33.000Z</time>
      </trkpt>
      <trkpt lat="45.69891" lon="6.19141">
        <ele>1756.4000244141</ele>
        <time>2014-03-02T11:29:37.000Z</time>
      </trkpt>
      <trkpt lat="45.69896" lon="6.1914">
        <ele>1755.8000488281</ele>
        <time>2014-03-02T11:29:43.000Z</time>
      </trkpt>
      <trkpt lat="45.69898" lon="6.19141">
        <ele>1755.1999511719</ele>
        <time>2014-03-02T11:29:45.000Z</time>
      </trkpt>
      <trkpt lat="45.69902" lon="6.19145">
        <ele>1752.8000488281</ele>
        <time>2014-03-02T11:29:51.000Z</time>
      </trkpt>
      <trkpt lat="45.69905" lon="6.19146">
        <ele>1752.1999511719</ele>
        <time>2014-03-02T11:29:56.000Z</time>
      </trkpt>
      <trkpt lat="45.6991" lon="6.19145">
        <ele>1751.8000488281</ele>
        <time>2014-03-02T11:30:02.000Z</time>
      </trkpt>
      <trkpt lat="45.69915" lon="6.19143">
        <ele>1751.8000488281</ele>
        <time>2014-03-02T11:30:08.000Z</time>
      </trkpt>
      <trkpt lat="45.69919" lon="6.19142">
        <ele>1751.8000488281</ele>
        <time>2014-03-02T11:30:12.000Z</time>
      </trkpt>
      <trkpt lat="45.69923" lon="6.19142">
        <ele>1751.1999511719</ele>
        <time>2014-03-02T11:30:18.000Z</time>
      </trkpt>
      <trkpt lat="45.69927" lon="6.1914">
        <ele>1751.5999755859</ele>
        <time>2014-03-02T11:30:23.000Z</time>
      </trkpt>
      <trkpt lat="45.6993" lon="6.19139">
        <ele>1752</ele>
        <time>2014-03-02T11:30:27.000Z</time>
      </trkpt>
      <trkpt lat="45.69932" lon="6.19136">
        <ele>1753</ele>
        <time>2014-03-02T11:30:30.000Z</time>
      </trkpt>
      <trkpt lat="45.69935" lon="6.19134">
        <ele>1753.5999755859</ele>
        <time>2014-03-02T11:30:35.000Z</time>
      </trkpt>
      <trkpt lat="45.69938" lon="6.1913">
        <ele>1755</ele>
        <time>2014-03-02T11:30:40.000Z</time>
      </trkpt>
      <trkpt lat="45.69941" lon="6.19127">
        <ele>1755.8000488281</ele>
        <time>2014-03-02T11:30:44.000Z</time>
      </trkpt>
      <trkpt lat="45.69946" lon="6.19122">
        <ele>1757.5999755859</ele>
        <time>2014-03-02T11:30:51.000Z</time>
      </trkpt>
      <trkpt lat="45.69949" lon="6.19116">
        <ele>1759.5999755859</ele>
        <time>2014-03-02T11:30:57.000Z</time>
      </trkpt>
      <trkpt lat="45.69953" lon="6.19113">
        <ele>1760.5999755859</ele>
        <time>2014-03-02T11:31:03.000Z</time>
      </trkpt>
      <trkpt lat="45.69955" lon="6.19111">
        <ele>1761</ele>
        <time>2014-03-02T11:31:07.000Z</time>
      </trkpt>
      <trkpt lat="45.69959" lon="6.19109">
        <ele>1761.8000488281</ele>
        <time>2014-03-02T11:31:12.000Z</time>
      </trkpt>
      <trkpt lat="45.69962" lon="6.19105">
        <ele>1762.8000488281</ele>
        <time>2014-03-02T11:31:16.000Z</time>
      </trkpt>
      <trkpt lat="45.69966" lon="6.19102">
        <ele>1763.8000488281</ele>
        <time>2014-03-02T11:31:21.000Z</time>
      </trkpt>
      <trkpt lat="45.69969" lon="6.19099">
        <ele>1765</ele>
        <time>2014-03-02T11:31:26.000Z</time>
      </trkpt>
      <trkpt lat="45.69972" lon="6.19095">
        <ele>1766.1999511719</ele>
        <time>2014-03-02T11:31:31.000Z</time>
      </trkpt>
      <trkpt lat="45.69974" lon="6.19091">
        <ele>1767.5999755859</ele>
        <time>2014-03-02T11:31:35.000Z</time>
      </trkpt>
      <trkpt lat="45.69974" lon="6.19089">
        <ele>1768.5999755859</ele>
        <time>2014-03-02T11:31:40.000Z</time>
      </trkpt>
      <trkpt lat="45.69973" lon="6.19089">
        <ele>1768.4000244141</ele>
        <time>2014-03-02T11:31:44.000Z</time>
      </trkpt>
      <trkpt lat="45.6997" lon="6.1909">
        <ele>1768.5999755859</ele>
        <time>2014-03-02T11:31:48.000Z</time>
      </trkpt>
      <trkpt lat="45.69966" lon="6.19089">
        <ele>1769.4000244141</ele>
        <time>2014-03-02T11:31:54.000Z</time>
      </trkpt>
      <trkpt lat="45.69963" lon="6.19088">
        <ele>1769.8000488281</ele>
        <time>2014-03-02T11:31:58.000Z</time>
      </trkpt>
      <trkpt lat="45.69959" lon="6.19086">
        <ele>1771</ele>
        <time>2014-03-02T11:32:04.000Z</time>
      </trkpt>
      <trkpt lat="45.69954" lon="6.19083">
        <ele>1772.4000244141</ele>
        <time>2014-03-02T11:32:11.000Z</time>
      </trkpt>
      <trkpt lat="45.6995" lon="6.19079">
        <ele>1773.8000488281</ele>
        <time>2014-03-02T11:32:17.000Z</time>
      </trkpt>
      <trkpt lat="45.69945" lon="6.19074">
        <ele>1775.8000488281</ele>
        <time>2014-03-02T11:32:24.000Z</time>
      </trkpt>
      <trkpt lat="45.69941" lon="6.1907">
        <ele>1777.1999511719</ele>
        <time>2014-03-02T11:32:30.000Z</time>
      </trkpt>
      <trkpt lat="45.69939" lon="6.19068">
        <ele>1778.1999511719</ele>
        <time>2014-03-02T11:32:35.000Z</time>
      </trkpt>
      <trkpt lat="45.69937" lon="6.19064">
        <ele>1779.5999755859</ele>
        <time>2014-03-02T11:32:40.000Z</time>
      </trkpt>
      <trkpt lat="45.69934" lon="6.19062">
        <ele>1780.5999755859</ele>
        <time>2014-03-02T11:32:44.000Z</time>
      </trkpt>
      <trkpt lat="45.69931" lon="6.1906">
        <ele>1781.5999755859</ele>
        <time>2014-03-02T11:32:49.000Z</time>
      </trkpt>
      <trkpt lat="45.69929" lon="6.19058">
        <ele>1782.1999511719</ele>
        <time>2014-03-02T11:32:53.000Z</time>
      </trkpt>
      <trkpt lat="45.69928" lon="6.19056">
        <ele>1783</ele>
        <time>2014-03-02T11:32:57.000Z</time>
      </trkpt>
      <trkpt lat="45.6993" lon="6.19054">
        <ele>1783.5999755859</ele>
        <time>2014-03-02T11:33:01.000Z</time>
      </trkpt>
      <trkpt lat="45.69931" lon="6.19053">
        <ele>1783.5999755859</ele>
        <time>2014-03-02T11:33:07.000Z</time>
      </trkpt>
      <trkpt lat="45.69934" lon="6.1905">
        <ele>1784.1999511719</ele>
        <time>2014-03-02T11:33:12.000Z</time>
      </trkpt>
      <trkpt lat="45.69937" lon="6.19048">
        <ele>1784.8000488281</ele>
        <time>2014-03-02T11:33:15.000Z</time>
      </trkpt>
      <trkpt lat="45.6994" lon="6.19046">
        <ele>1785</ele>
        <time>2014-03-02T11:33:19.000Z</time>
      </trkpt>
      <trkpt lat="45.69944" lon="6.19044">
        <ele>1785.1999511719</ele>
        <time>2014-03-02T11:33:23.000Z</time>
      </trkpt>
      <trkpt lat="45.69946" lon="6.19044">
        <ele>1785</ele>
        <time>2014-03-02T11:33:27.000Z</time>
      </trkpt>
      <trkpt lat="45.69948" lon="6.19044">
        <ele>1784.8000488281</ele>
        <time>2014-03-02T11:33:31.000Z</time>
      </trkpt>
      <trkpt lat="45.69951" lon="6.19041">
        <ele>1785.4000244141</ele>
        <time>2014-03-02T11:33:36.000Z</time>
      </trkpt>
      <trkpt lat="45.69951" lon="6.19039">
        <ele>1785.8000488281</ele>
        <time>2014-03-02T11:33:43.000Z</time>
      </trkpt>
      <trkpt lat="45.69951" lon="6.1904">
        <ele>1785.5999755859</ele>
        <time>2014-03-02T11:33:54.000Z</time>
      </trkpt>
      <trkpt lat="45.6995" lon="6.1904">
        <ele>1785.5999755859</ele>
        <time>2014-03-02T11:34:17.000Z</time>
      </trkpt>
      <trkpt lat="45.69949" lon="6.1904">
        <ele>1786</ele>
        <time>2014-03-02T11:34:35.000Z</time>
      </trkpt>
      <trkpt lat="45.69949" lon="6.19039">
        <ele>1786</ele>
        <time>2014-03-02T11:34:47.000Z</time>
      </trkpt>
      <trkpt lat="45.69951" lon="6.19036">
        <ele>1786.8000488281</ele>
        <time>2014-03-02T11:34:59.000Z</time>
      </trkpt>
      <trkpt lat="45.69954" lon="6.19032">
        <ele>1787.5999755859</ele>
        <time>2014-03-02T11:35:04.000Z</time>
      </trkpt>
      <trkpt lat="45.69955" lon="6.19031">
        <ele>1787.8000488281</ele>
        <time>2014-03-02T11:35:10.000Z</time>
      </trkpt>
      <trkpt lat="45.69957" lon="6.19026">
        <ele>1789</ele>
        <time>2014-03-02T11:35:16.000Z</time>
      </trkpt>
      <trkpt lat="45.69959" lon="6.19024">
        <ele>1789.4000244141</ele>
        <time>2014-03-02T11:35:24.000Z</time>
      </trkpt>
      <trkpt lat="45.69959" lon="6.19021">
        <ele>1790.1999511719</ele>
        <time>2014-03-02T11:35:40.000Z</time>
      </trkpt>
      <trkpt lat="45.69959" lon="6.19018">
        <ele>1791</ele>
        <time>2014-03-02T11:35:47.000Z</time>
      </trkpt>
      <trkpt lat="45.69961" lon="6.19013">
        <ele>1792.1999511719</ele>
        <time>2014-03-02T11:35:52.000Z</time>
      </trkpt>
      <trkpt lat="45.69963" lon="6.19006">
        <ele>1794.1999511719</ele>
        <time>2014-03-02T11:35:58.000Z</time>
      </trkpt>
      <trkpt lat="45.69966" lon="6.19002">
        <ele>1794.8000488281</ele>
        <time>2014-03-02T11:36:01.000Z</time>
      </trkpt>
      <trkpt lat="45.69972" lon="6.18994">
        <ele>1794.1999511719</ele>
        <time>2014-03-02T11:36:07.000Z</time>
      </trkpt>
      <trkpt lat="45.69979" lon="6.18986">
        <ele>1792.5999755859</ele>
        <time>2014-03-02T11:36:15.000Z</time>
      </trkpt>
      <trkpt lat="45.69986" lon="6.18981">
        <ele>1791.1999511719</ele>
        <time>2014-03-02T11:36:21.000Z</time>
      </trkpt>
      <trkpt lat="45.69994" lon="6.18977">
        <ele>1789.4000244141</ele>
        <time>2014-03-02T11:36:26.000Z</time>
      </trkpt>
      <trkpt lat="45.7" lon="6.18975">
        <ele>1787.8000488281</ele>
        <time>2014-03-02T11:36:30.000Z</time>
      </trkpt>
      <trkpt lat="45.70001" lon="6.18975">
        <ele>1787.8000488281</ele>
        <time>2014-03-02T11:36:31.000Z</time>
      </trkpt>
      <trkpt lat="45.70007" lon="6.18975">
        <ele>1787.8000488281</ele>
        <time>2014-03-02T11:36:36.000Z</time>
      </trkpt>
      <trkpt lat="45.70011" lon="6.18974">
        <ele>1787.5999755859</ele>
        <time>2014-03-02T11:36:40.000Z</time>
      </trkpt>
      <trkpt lat="45.70018" lon="6.18973">
        <ele>1787.5999755859</ele>
        <time>2014-03-02T11:36:47.000Z</time>
      </trkpt>
      <trkpt lat="45.70022" lon="6.18973">
        <ele>1787.4000244141</ele>
        <time>2014-03-02T11:36:51.000Z</time>
      </trkpt>
      <trkpt lat="45.70027" lon="6.18973">
        <ele>1787.4000244141</ele>
        <time>2014-03-02T11:36:56.000Z</time>
      </trkpt>
      <trkpt lat="45.70034" lon="6.18972">
        <ele>1787.1999511719</ele>
        <time>2014-03-02T11:37:01.000Z</time>
      </trkpt>
      <trkpt lat="45.70041" lon="6.18972">
        <ele>1787.1999511719</ele>
        <time>2014-03-02T11:37:07.000Z</time>
      </trkpt>
      <trkpt lat="45.70045" lon="6.18972">
        <ele>1787.1999511719</ele>
        <time>2014-03-02T11:37:10.000Z</time>
      </trkpt>
      <trkpt lat="45.70049" lon="6.18972">
        <ele>1787</ele>
        <time>2014-03-02T11:37:15.000Z</time>
      </trkpt>
      <trkpt lat="45.70053" lon="6.18973">
        <ele>1787</ele>
        <time>2014-03-02T11:37:19.000Z</time>
      </trkpt>
      <trkpt lat="45.70058" lon="6.18974">
        <ele>1787.1999511719</ele>
        <time>2014-03-02T11:37:25.000Z</time>
      </trkpt>
      <trkpt lat="45.70062" lon="6.18975">
        <ele>1787.1999511719</ele>
        <time>2014-03-02T11:37:29.000Z</time>
      </trkpt>
      <trkpt lat="45.70066" lon="6.18976">
        <ele>1787.1999511719</ele>
        <time>2014-03-02T11:37:34.000Z</time>
      </trkpt>
      <trkpt lat="45.70074" lon="6.18981">
        <ele>1787.4000244141</ele>
        <time>2014-03-02T11:37:40.000Z</time>
      </trkpt>
      <trkpt lat="45.70083" lon="6.18981">
        <ele>1787.4000244141</ele>
        <time>2014-03-02T11:37:45.000Z</time>
      </trkpt>
      <trkpt lat="45.7009" lon="6.18978">
        <ele>1788.8000488281</ele>
        <time>2014-03-02T11:37:50.000Z</time>
      </trkpt>
      <trkpt lat="45.70099" lon="6.18974">
        <ele>1790.8000488281</ele>
        <time>2014-03-02T11:37:55.000Z</time>
      </trkpt>
      <trkpt lat="45.70105" lon="6.18972">
        <ele>1792.1999511719</ele>
        <time>2014-03-02T11:38:02.000Z</time>
      </trkpt>
      <trkpt lat="45.7011" lon="6.18974">
        <ele>1793.5999755859</ele>
        <time>2014-03-02T11:38:08.000Z</time>
      </trkpt>
      <trkpt lat="45.70114" lon="6.18977">
        <ele>1794.8000488281</ele>
        <time>2014-03-02T11:38:15.000Z</time>
      </trkpt>
      <trkpt lat="45.70118" lon="6.1898">
        <ele>1795.8000488281</ele>
        <time>2014-03-02T11:38:20.000Z</time>
      </trkpt>
      <trkpt lat="45.70123" lon="6.18985">
        <ele>1797.4000244141</ele>
        <time>2014-03-02T11:38:28.000Z</time>
      </trkpt>
      <trkpt lat="45.70126" lon="6.18989">
        <ele>1798.1999511719</ele>
        <time>2014-03-02T11:38:35.000Z</time>
      </trkpt>
      <trkpt lat="45.70129" lon="6.18992">
        <ele>1799</ele>
        <time>2014-03-02T11:38:41.000Z</time>
      </trkpt>
      <trkpt lat="45.70132" lon="6.18994">
        <ele>1800</ele>
        <time>2014-03-02T11:38:48.000Z</time>
      </trkpt>
      <trkpt lat="45.70135" lon="6.18993">
        <ele>1800.4000244141</ele>
        <time>2014-03-02T11:38:52.000Z</time>
      </trkpt>
      <trkpt lat="45.70138" lon="6.18989">
        <ele>1801.1999511719</ele>
        <time>2014-03-02T11:38:58.000Z</time>
      </trkpt>
      <trkpt lat="45.70142" lon="6.18986">
        <ele>1802.1999511719</ele>
        <time>2014-03-02T11:39:04.000Z</time>
      </trkpt>
      <trkpt lat="45.70148" lon="6.18985">
        <ele>1803.4000244141</ele>
        <time>2014-03-02T11:39:11.000Z</time>
      </trkpt>
      <trkpt lat="45.70153" lon="6.18984">
        <ele>1804.5999755859</ele>
        <time>2014-03-02T11:39:17.000Z</time>
      </trkpt>
      <trkpt lat="45.70159" lon="6.18984">
        <ele>1806.1999511719</ele>
        <time>2014-03-02T11:39:23.000Z</time>
      </trkpt>
      <trkpt lat="45.70165" lon="6.18984">
        <ele>1807.5999755859</ele>
        <time>2014-03-02T11:39:29.000Z</time>
      </trkpt>
      <trkpt lat="45.70169" lon="6.18984">
        <ele>1808.8000488281</ele>
        <time>2014-03-02T11:39:35.000Z</time>
      </trkpt>
      <trkpt lat="45.70173" lon="6.18985">
        <ele>1810.1999511719</ele>
        <time>2014-03-02T11:39:41.000Z</time>
      </trkpt>
      <trkpt lat="45.70175" lon="6.18985">
        <ele>1811</ele>
        <time>2014-03-02T11:39:47.000Z</time>
      </trkpt>
      <trkpt lat="45.70177" lon="6.18986">
        <ele>1811.8000488281</ele>
        <time>2014-03-02T11:39:52.000Z</time>
      </trkpt>
      <trkpt lat="45.70179" lon="6.18986">
        <ele>1812.1999511719</ele>
        <time>2014-03-02T11:39:58.000Z</time>
      </trkpt>
      <trkpt lat="45.70181" lon="6.18986">
        <ele>1813</ele>
        <time>2014-03-02T11:40:02.000Z</time>
      </trkpt>
      <trkpt lat="45.70183" lon="6.18986">
        <ele>1813.8000488281</ele>
        <time>2014-03-02T11:40:06.000Z</time>
      </trkpt>
      <trkpt lat="45.70187" lon="6.18987">
        <ele>1815.1999511719</ele>
        <time>2014-03-02T11:40:12.000Z</time>
      </trkpt>
      <trkpt lat="45.7019" lon="6.18987">
        <ele>1816.4000244141</ele>
        <time>2014-03-02T11:40:17.000Z</time>
      </trkpt>
      <trkpt lat="45.70193" lon="6.18988">
        <ele>1817.4000244141</ele>
        <time>2014-03-02T11:40:23.000Z</time>
      </trkpt>
      <trkpt lat="45.70197" lon="6.18989">
        <ele>1818.8000488281</ele>
        <time>2014-03-02T11:40:30.000Z</time>
      </trkpt>
      <trkpt lat="45.70201" lon="6.18991">
        <ele>1820.4000244141</ele>
        <time>2014-03-02T11:40:38.000Z</time>
      </trkpt>
      <trkpt lat="45.70206" lon="6.18992">
        <ele>1821.8000488281</ele>
        <time>2014-03-02T11:40:45.000Z</time>
      </trkpt>
      <trkpt lat="45.70209" lon="6.18993">
        <ele>1823</ele>
        <time>2014-03-02T11:40:50.000Z</time>
      </trkpt>
      <trkpt lat="45.70213" lon="6.18994">
        <ele>1824.1999511719</ele>
        <time>2014-03-02T11:40:55.000Z</time>
      </trkpt>
      <trkpt lat="45.70215" lon="6.18995">
        <ele>1825</ele>
        <time>2014-03-02T11:41:00.000Z</time>
      </trkpt>
      <trkpt lat="45.70219" lon="6.18995">
        <ele>1826.1999511719</ele>
        <time>2014-03-02T11:41:05.000Z</time>
      </trkpt>
      <trkpt lat="45.70222" lon="6.18996">
        <ele>1827.4000244141</ele>
        <time>2014-03-02T11:41:10.000Z</time>
      </trkpt>
      <trkpt lat="45.70226" lon="6.18996">
        <ele>1828.8000488281</ele>
        <time>2014-03-02T11:41:15.000Z</time>
      </trkpt>
      <trkpt lat="45.7023" lon="6.18997">
        <ele>1830.1999511719</ele>
        <time>2014-03-02T11:41:22.000Z</time>
      </trkpt>
      <trkpt lat="45.70233" lon="6.18997">
        <ele>1831.4000244141</ele>
        <time>2014-03-02T11:41:26.000Z</time>
      </trkpt>
      <trkpt lat="45.70237" lon="6.18998">
        <ele>1832.5999755859</ele>
        <time>2014-03-02T11:41:32.000Z</time>
      </trkpt>
      <trkpt lat="45.70241" lon="6.18998">
        <ele>1834</ele>
        <time>2014-03-02T11:41:38.000Z</time>
      </trkpt>
      <trkpt lat="45.70246" lon="6.18998">
        <ele>1835.5999755859</ele>
        <time>2014-03-02T11:41:45.000Z</time>
      </trkpt>
      <trkpt lat="45.70249" lon="6.18998">
        <ele>1836.8000488281</ele>
        <time>2014-03-02T11:41:50.000Z</time>
      </trkpt>
      <trkpt lat="45.70254" lon="6.18998">
        <ele>1838.1999511719</ele>
        <time>2014-03-02T11:41:57.000Z</time>
      </trkpt>
      <trkpt lat="45.70258" lon="6.18999">
        <ele>1839.1999511719</ele>
        <time>2014-03-02T11:42:04.000Z</time>
      </trkpt>
      <trkpt lat="45.70263" lon="6.18999">
        <ele>1840.4000244141</ele>
        <time>2014-03-02T11:42:12.000Z</time>
      </trkpt>
      <trkpt lat="45.70267" lon="6.18999">
        <ele>1841.4000244141</ele>
        <time>2014-03-02T11:42:19.000Z</time>
      </trkpt>
      <trkpt lat="45.70271" lon="6.18999">
        <ele>1842.8000488281</ele>
        <time>2014-03-02T11:42:26.000Z</time>
      </trkpt>
      <trkpt lat="45.70276" lon="6.18999">
        <ele>1843.8000488281</ele>
        <time>2014-03-02T11:42:32.000Z</time>
      </trkpt>
      <trkpt lat="45.7028" lon="6.18998">
        <ele>1844.8000488281</ele>
        <time>2014-03-02T11:42:38.000Z</time>
      </trkpt>
      <trkpt lat="45.70282" lon="6.18999">
        <ele>1845.5999755859</ele>
        <time>2014-03-02T11:42:42.000Z</time>
      </trkpt>
      <trkpt lat="45.70288" lon="6.18998">
        <ele>1847</ele>
        <time>2014-03-02T11:42:49.000Z</time>
      </trkpt>
      <trkpt lat="45.70292" lon="6.18997">
        <ele>1848.1999511719</ele>
        <time>2014-03-02T11:42:54.000Z</time>
      </trkpt>
      <trkpt lat="45.70297" lon="6.18997">
        <ele>1849.4000244141</ele>
        <time>2014-03-02T11:42:59.000Z</time>
      </trkpt>
      <trkpt lat="45.70301" lon="6.18997">
        <ele>1850.4000244141</ele>
        <time>2014-03-02T11:43:05.000Z</time>
      </trkpt>
      <trkpt lat="45.70305" lon="6.18998">
        <ele>1851.5999755859</ele>
        <time>2014-03-02T11:43:11.000Z</time>
      </trkpt>
      <trkpt lat="45.7031" lon="6.18998">
        <ele>1853</ele>
        <time>2014-03-02T11:43:19.000Z</time>
      </trkpt>
      <trkpt lat="45.70314" lon="6.18998">
        <ele>1854</ele>
        <time>2014-03-02T11:43:24.000Z</time>
      </trkpt>
      <trkpt lat="45.70319" lon="6.18999">
        <ele>1855</ele>
        <time>2014-03-02T11:43:29.000Z</time>
      </trkpt>
      <trkpt lat="45.70322" lon="6.19001">
        <ele>1855.8000488281</ele>
        <time>2014-03-02T11:43:34.000Z</time>
      </trkpt>
      <trkpt lat="45.70326" lon="6.19002">
        <ele>1856.5999755859</ele>
        <time>2014-03-02T11:43:41.000Z</time>
      </trkpt>
      <trkpt lat="45.70329" lon="6.19003">
        <ele>1857.1999511719</ele>
        <time>2014-03-02T11:43:46.000Z</time>
      </trkpt>
      <trkpt lat="45.70331" lon="6.19004">
        <ele>1857.5999755859</ele>
        <time>2014-03-02T11:43:52.000Z</time>
      </trkpt>
      <trkpt lat="45.70333" lon="6.19006">
        <ele>1857.8000488281</ele>
        <time>2014-03-02T11:43:56.000Z</time>
      </trkpt>
      <trkpt lat="45.70338" lon="6.1901">
        <ele>1858.1999511719</ele>
        <time>2014-03-02T11:44:03.000Z</time>
      </trkpt>
      <trkpt lat="45.70341" lon="6.19013">
        <ele>1858.1999511719</ele>
        <time>2014-03-02T11:44:08.000Z</time>
      </trkpt>
      <trkpt lat="45.70344" lon="6.19015">
        <ele>1858.5999755859</ele>
        <time>2014-03-02T11:44:13.000Z</time>
      </trkpt>
      <trkpt lat="45.70348" lon="6.19019">
        <ele>1858.8000488281</ele>
        <time>2014-03-02T11:44:18.000Z</time>
      </trkpt>
      <trkpt lat="45.7035" lon="6.19023">
        <ele>1858.5999755859</ele>
        <time>2014-03-02T11:44:23.000Z</time>
      </trkpt>
      <trkpt lat="45.70355" lon="6.19025">
        <ele>1859.4000244141</ele>
        <time>2014-03-02T11:44:29.000Z</time>
      </trkpt>
      <trkpt lat="45.70358" lon="6.19026">
        <ele>1860</ele>
        <time>2014-03-02T11:44:34.000Z</time>
      </trkpt>
      <trkpt lat="45.70361" lon="6.19027">
        <ele>1860.5999755859</ele>
        <time>2014-03-02T11:44:39.000Z</time>
      </trkpt>
      <trkpt lat="45.70363" lon="6.19028">
        <ele>1861</ele>
        <time>2014-03-02T11:44:43.000Z</time>
      </trkpt>
      <trkpt lat="45.70366" lon="6.19029">
        <ele>1861.5999755859</ele>
        <time>2014-03-02T11:44:49.000Z</time>
      </trkpt>
      <trkpt lat="45.70368" lon="6.1903">
        <ele>1862</ele>
        <time>2014-03-02T11:44:53.000Z</time>
      </trkpt>
      <trkpt lat="45.7037" lon="6.19032">
        <ele>1862.4000244141</ele>
        <time>2014-03-02T11:44:58.000Z</time>
      </trkpt>
      <trkpt lat="45.70373" lon="6.19033">
        <ele>1863</ele>
        <time>2014-03-02T11:45:03.000Z</time>
      </trkpt>
      <trkpt lat="45.70376" lon="6.19035">
        <ele>1863.5999755859</ele>
        <time>2014-03-02T11:45:09.000Z</time>
      </trkpt>
      <trkpt lat="45.7038" lon="6.19036">
        <ele>1864.4000244141</ele>
        <time>2014-03-02T11:45:15.000Z</time>
      </trkpt>
      <trkpt lat="45.70382" lon="6.19039">
        <ele>1864.8000488281</ele>
        <time>2014-03-02T11:45:21.000Z</time>
      </trkpt>
      <trkpt lat="45.70384" lon="6.19039">
        <ele>1865.1999511719</ele>
        <time>2014-03-02T11:45:25.000Z</time>
      </trkpt>
      <trkpt lat="45.70387" lon="6.19039">
        <ele>1866</ele>
        <time>2014-03-02T11:45:31.000Z</time>
      </trkpt>
      <trkpt lat="45.7039" lon="6.19038">
        <ele>1867</ele>
        <time>2014-03-02T11:45:36.000Z</time>
      </trkpt>
      <trkpt lat="45.70393" lon="6.19036">
        <ele>1868.1999511719</ele>
        <time>2014-03-02T11:45:41.000Z</time>
      </trkpt>
      <trkpt lat="45.70397" lon="6.19035">
        <ele>1869.1999511719</ele>
        <time>2014-03-02T11:45:46.000Z</time>
      </trkpt>
      <trkpt lat="45.704" lon="6.19034">
        <ele>1870.1999511719</ele>
        <time>2014-03-02T11:45:51.000Z</time>
      </trkpt>
      <trkpt lat="45.70403" lon="6.19032">
        <ele>1871.4000244141</ele>
        <time>2014-03-02T11:45:57.000Z</time>
      </trkpt>
      <trkpt lat="45.70406" lon="6.19029">
        <ele>1872.1999511719</ele>
        <time>2014-03-02T11:46:03.000Z</time>
      </trkpt>
      <trkpt lat="45.70407" lon="6.19026">
        <ele>1872.5999755859</ele>
        <time>2014-03-02T11:46:06.000Z</time>
      </trkpt>
      <trkpt lat="45.70409" lon="6.19024">
        <ele>1873</ele>
        <time>2014-03-02T11:46:11.000Z</time>
      </trkpt>
      <trkpt lat="45.7041" lon="6.19021">
        <ele>1873.5999755859</ele>
        <time>2014-03-02T11:46:16.000Z</time>
      </trkpt>
      <trkpt lat="45.7041" lon="6.19019">
        <ele>1873.8000488281</ele>
        <time>2014-03-02T11:46:19.000Z</time>
      </trkpt>
      <trkpt lat="45.7041" lon="6.19015">
        <ele>1874</ele>
        <time>2014-03-02T11:46:24.000Z</time>
      </trkpt>
      <trkpt lat="45.70411" lon="6.19011">
        <ele>1874.1999511719</ele>
        <time>2014-03-02T11:46:29.000Z</time>
      </trkpt>
      <trkpt lat="45.70413" lon="6.19011">
        <ele>1874.8000488281</ele>
        <time>2014-03-02T11:46:33.000Z</time>
      </trkpt>
      <trkpt lat="45.70416" lon="6.1901">
        <ele>1875.5999755859</ele>
        <time>2014-03-02T11:46:38.000Z</time>
      </trkpt>
      <trkpt lat="45.7042" lon="6.19009">
        <ele>1875.8000488281</ele>
        <time>2014-03-02T11:46:43.000Z</time>
      </trkpt>
      <trkpt lat="45.70421" lon="6.1901">
        <ele>1875.8000488281</ele>
        <time>2014-03-02T11:46:46.000Z</time>
      </trkpt>
      <trkpt lat="45.70425" lon="6.19009">
        <ele>1876</ele>
        <time>2014-03-02T11:46:52.000Z</time>
      </trkpt>
      <trkpt lat="45.70429" lon="6.19009">
        <ele>1876.1999511719</ele>
        <time>2014-03-02T11:46:58.000Z</time>
      </trkpt>
      <trkpt lat="45.70433" lon="6.19008">
        <ele>1876.1999511719</ele>
        <time>2014-03-02T11:47:03.000Z</time>
      </trkpt>
      <trkpt lat="45.70436" lon="6.19009">
        <ele>1876.4000244141</ele>
        <time>2014-03-02T11:47:07.000Z</time>
      </trkpt>
      <trkpt lat="45.70439" lon="6.19009">
        <ele>1876.4000244141</ele>
        <time>2014-03-02T11:47:11.000Z</time>
      </trkpt>
      <trkpt lat="45.70442" lon="6.1901">
        <ele>1876.5999755859</ele>
        <time>2014-03-02T11:47:16.000Z</time>
      </trkpt>
      <trkpt lat="45.70444" lon="6.19012">
        <ele>1876.5999755859</ele>
        <time>2014-03-02T11:47:21.000Z</time>
      </trkpt>
      <trkpt lat="45.70445" lon="6.19014">
        <ele>1876.8000488281</ele>
        <time>2014-03-02T11:47:27.000Z</time>
      </trkpt>
      <trkpt lat="45.70447" lon="6.19016">
        <ele>1877</ele>
        <time>2014-03-02T11:47:32.000Z</time>
      </trkpt>
      <trkpt lat="45.70449" lon="6.19019">
        <ele>1877.1999511719</ele>
        <time>2014-03-02T11:47:37.000Z</time>
      </trkpt>
      <trkpt lat="45.70454" lon="6.19021">
        <ele>1877.5999755859</ele>
        <time>2014-03-02T11:47:43.000Z</time>
      </trkpt>
      <trkpt lat="45.70457" lon="6.19024">
        <ele>1878</ele>
        <time>2014-03-02T11:47:48.000Z</time>
      </trkpt>
      <trkpt lat="45.7046" lon="6.19027">
        <ele>1878.4000244141</ele>
        <time>2014-03-02T11:47:53.000Z</time>
      </trkpt>
      <trkpt lat="45.70464" lon="6.1903">
        <ele>1879</ele>
        <time>2014-03-02T11:47:58.000Z</time>
      </trkpt>
      <trkpt lat="45.70469" lon="6.19035">
        <ele>1879.8000488281</ele>
        <time>2014-03-02T11:48:05.000Z</time>
      </trkpt>
      <trkpt lat="45.70476" lon="6.19038">
        <ele>1880.8000488281</ele>
        <time>2014-03-02T11:48:11.000Z</time>
      </trkpt>
      <trkpt lat="45.70482" lon="6.19041">
        <ele>1882</ele>
        <time>2014-03-02T11:48:18.000Z</time>
      </trkpt>
      <trkpt lat="45.70485" lon="6.19042">
        <ele>1882.1999511719</ele>
        <time>2014-03-02T11:48:20.000Z</time>
      </trkpt>
      <trkpt lat="45.70491" lon="6.19044">
        <ele>1883.4000244141</ele>
        <time>2014-03-02T11:48:26.000Z</time>
      </trkpt>
      <trkpt lat="45.70498" lon="6.19048">
        <ele>1884.8000488281</ele>
        <time>2014-03-02T11:48:33.000Z</time>
      </trkpt>
      <trkpt lat="45.70503" lon="6.19052">
        <ele>1885.4000244141</ele>
        <time>2014-03-02T11:48:39.000Z</time>
      </trkpt>
      <trkpt lat="45.70509" lon="6.19055">
        <ele>1885.4000244141</ele>
        <time>2014-03-02T11:48:45.000Z</time>
      </trkpt>
      <trkpt lat="45.70512" lon="6.19057">
        <ele>1885.4000244141</ele>
        <time>2014-03-02T11:48:49.000Z</time>
      </trkpt>
      <trkpt lat="45.70518" lon="6.19061">
        <ele>1885.8000488281</ele>
        <time>2014-03-02T11:48:55.000Z</time>
      </trkpt>
      <trkpt lat="45.70524" lon="6.19064">
        <ele>1886</ele>
        <time>2014-03-02T11:49:01.000Z</time>
      </trkpt>
      <trkpt lat="45.70529" lon="6.19067">
        <ele>1886.1999511719</ele>
        <time>2014-03-02T11:49:07.000Z</time>
      </trkpt>
      <trkpt lat="45.70533" lon="6.19069">
        <ele>1886.1999511719</ele>
        <time>2014-03-02T11:49:12.000Z</time>
      </trkpt>
      <trkpt lat="45.70539" lon="6.19071">
        <ele>1886.4000244141</ele>
        <time>2014-03-02T11:49:18.000Z</time>
      </trkpt>
      <trkpt lat="45.70545" lon="6.19074">
        <ele>1886.5999755859</ele>
        <time>2014-03-02T11:49:24.000Z</time>
      </trkpt>
      <trkpt lat="45.7055" lon="6.19077">
        <ele>1886.8000488281</ele>
        <time>2014-03-02T11:49:30.000Z</time>
      </trkpt>
      <trkpt lat="45.70556" lon="6.1908">
        <ele>1887.4000244141</ele>
        <time>2014-03-02T11:49:37.000Z</time>
      </trkpt>
      <trkpt lat="45.70561" lon="6.19083">
        <ele>1888</ele>
        <time>2014-03-02T11:49:43.000Z</time>
      </trkpt>
      <trkpt lat="45.70565" lon="6.19087">
        <ele>1887.5999755859</ele>
        <time>2014-03-02T11:49:47.000Z</time>
      </trkpt>
      <trkpt lat="45.70571" lon="6.1909">
        <ele>1887</ele>
        <time>2014-03-02T11:49:54.000Z</time>
      </trkpt>
      <trkpt lat="45.70576" lon="6.19094">
        <ele>1886.4000244141</ele>
        <time>2014-03-02T11:50:01.000Z</time>
      </trkpt>
      <trkpt lat="45.70581" lon="6.19097">
        <ele>1885.8000488281</ele>
        <time>2014-03-02T11:50:07.000Z</time>
      </trkpt>
      <trkpt lat="45.70587" lon="6.191">
        <ele>1885.4000244141</ele>
        <time>2014-03-02T11:50:13.000Z</time>
      </trkpt>
      <trkpt lat="45.70589" lon="6.19101">
        <ele>1885.1999511719</ele>
        <time>2014-03-02T11:50:15.000Z</time>
      </trkpt>
      <trkpt lat="45.70595" lon="6.19103">
        <ele>1884.8000488281</ele>
        <time>2014-03-02T11:50:21.000Z</time>
      </trkpt>
      <trkpt lat="45.70601" lon="6.19107">
        <ele>1884.4000244141</ele>
        <time>2014-03-02T11:50:27.000Z</time>
      </trkpt>
      <trkpt lat="45.70607" lon="6.1911">
        <ele>1884</ele>
        <time>2014-03-02T11:50:34.000Z</time>
      </trkpt>
      <trkpt lat="45.70616" lon="6.19112">
        <ele>1883.5999755859</ele>
        <time>2014-03-02T11:50:40.000Z</time>
      </trkpt>
      <trkpt lat="45.70622" lon="6.19113">
        <ele>1883.4000244141</ele>
        <time>2014-03-02T11:50:44.000Z</time>
      </trkpt>
      <trkpt lat="45.70626" lon="6.19114">
        <ele>1883.1999511719</ele>
        <time>2014-03-02T11:50:47.000Z</time>
      </trkpt>
      <trkpt lat="45.70633" lon="6.19119">
        <ele>1883</ele>
        <time>2014-03-02T11:50:54.000Z</time>
      </trkpt>
      <trkpt lat="45.70639" lon="6.19122">
        <ele>1882.8000488281</ele>
        <time>2014-03-02T11:50:59.000Z</time>
      </trkpt>
      <trkpt lat="45.70644" lon="6.19125">
        <ele>1882.8000488281</ele>
        <time>2014-03-02T11:51:04.000Z</time>
      </trkpt>
      <trkpt lat="45.70649" lon="6.19127">
        <ele>1882.8000488281</ele>
        <time>2014-03-02T11:51:10.000Z</time>
      </trkpt>
      <trkpt lat="45.70654" lon="6.19129">
        <ele>1882.8000488281</ele>
        <time>2014-03-02T11:51:15.000Z</time>
      </trkpt>
      <trkpt lat="45.7066" lon="6.19131">
        <ele>1882.8000488281</ele>
        <time>2014-03-02T11:51:20.000Z</time>
      </trkpt>
      <trkpt lat="45.70668" lon="6.19133">
        <ele>1882.8000488281</ele>
        <time>2014-03-02T11:51:26.000Z</time>
      </trkpt>
      <trkpt lat="45.70673" lon="6.19134">
        <ele>1883.1999511719</ele>
        <time>2014-03-02T11:51:31.000Z</time>
      </trkpt>
      <trkpt lat="45.70678" lon="6.19134">
        <ele>1883.5999755859</ele>
        <time>2014-03-02T11:51:36.000Z</time>
      </trkpt>
      <trkpt lat="45.70682" lon="6.19135">
        <ele>1883.8000488281</ele>
        <time>2014-03-02T11:51:41.000Z</time>
      </trkpt>
      <trkpt lat="45.7069" lon="6.19135">
        <ele>1884.4000244141</ele>
        <time>2014-03-02T11:51:47.000Z</time>
      </trkpt>
      <trkpt lat="45.70697" lon="6.19137">
        <ele>1884.8000488281</ele>
        <time>2014-03-02T11:51:52.000Z</time>
      </trkpt>
      <trkpt lat="45.70705" lon="6.19138">
        <ele>1885.4000244141</ele>
        <time>2014-03-02T11:51:58.000Z</time>
      </trkpt>
      <trkpt lat="45.70713" lon="6.19137">
        <ele>1885.8000488281</ele>
        <time>2014-03-02T11:52:03.000Z</time>
      </trkpt>
      <trkpt lat="45.70716" lon="6.19137">
        <ele>1886</ele>
        <time>2014-03-02T11:52:07.000Z</time>
      </trkpt>
      <trkpt lat="45.70722" lon="6.19138">
        <ele>1886.5999755859</ele>
        <time>2014-03-02T11:52:14.000Z</time>
      </trkpt>
      <trkpt lat="45.70726" lon="6.19136">
        <ele>1886.5999755859</ele>
        <time>2014-03-02T11:52:16.000Z</time>
      </trkpt>
      <trkpt lat="45.70731" lon="6.19137">
        <ele>1887</ele>
        <time>2014-03-02T11:52:20.000Z</time>
      </trkpt>
      <trkpt lat="45.70738" lon="6.19137">
        <ele>1887.4000244141</ele>
        <time>2014-03-02T11:52:27.000Z</time>
      </trkpt>
      <trkpt lat="45.70742" lon="6.19138">
        <ele>1887.8000488281</ele>
        <time>2014-03-02T11:52:33.000Z</time>
      </trkpt>
      <trkpt lat="45.70747" lon="6.19139">
        <ele>1888.1999511719</ele>
        <time>2014-03-02T11:52:40.000Z</time>
      </trkpt>
      <trkpt lat="45.70753" lon="6.19139">
        <ele>1888.4000244141</ele>
        <time>2014-03-02T11:52:46.000Z</time>
      </trkpt>
      <trkpt lat="45.70757" lon="6.19139">
        <ele>1888.1999511719</ele>
        <time>2014-03-02T11:52:51.000Z</time>
      </trkpt>
      <trkpt lat="45.70762" lon="6.19138">
        <ele>1888.1999511719</ele>
        <time>2014-03-02T11:52:55.000Z</time>
      </trkpt>
      <trkpt lat="45.70768" lon="6.19136">
        <ele>1888</ele>
        <time>2014-03-02T11:53:00.000Z</time>
      </trkpt>
      <trkpt lat="45.70773" lon="6.19134">
        <ele>1888</ele>
        <time>2014-03-02T11:53:04.000Z</time>
      </trkpt>
      <trkpt lat="45.70778" lon="6.19133">
        <ele>1888</ele>
        <time>2014-03-02T11:53:09.000Z</time>
      </trkpt>
      <trkpt lat="45.70784" lon="6.1913">
        <ele>1888</ele>
        <time>2014-03-02T11:53:17.000Z</time>
      </trkpt>
      <trkpt lat="45.70788" lon="6.19128">
        <ele>1888.1999511719</ele>
        <time>2014-03-02T11:53:22.000Z</time>
      </trkpt>
      <trkpt lat="45.70792" lon="6.19126">
        <ele>1888.1999511719</ele>
        <time>2014-03-02T11:53:28.000Z</time>
      </trkpt>
      <trkpt lat="45.70798" lon="6.19124">
        <ele>1888.4000244141</ele>
        <time>2014-03-02T11:53:34.000Z</time>
      </trkpt>
      <trkpt lat="45.70804" lon="6.19121">
        <ele>1888.5999755859</ele>
        <time>2014-03-02T11:53:41.000Z</time>
      </trkpt>
      <trkpt lat="45.70808" lon="6.1912">
        <ele>1888.8000488281</ele>
        <time>2014-03-02T11:53:47.000Z</time>
      </trkpt>
      <trkpt lat="45.70811" lon="6.19119">
        <ele>1889</ele>
        <time>2014-03-02T11:53:53.000Z</time>
      </trkpt>
      <trkpt lat="45.70814" lon="6.19118">
        <ele>1889.1999511719</ele>
        <time>2014-03-02T11:53:59.000Z</time>
      </trkpt>
      <trkpt lat="45.70815" lon="6.19118">
        <ele>1889.1999511719</ele>
        <time>2014-03-02T11:54:04.000Z</time>
      </trkpt>
      <trkpt lat="45.70818" lon="6.19116">
        <ele>1889.4000244141</ele>
        <time>2014-03-02T11:54:09.000Z</time>
      </trkpt>
      <trkpt lat="45.70822" lon="6.19115">
        <ele>1889.5999755859</ele>
        <time>2014-03-02T11:54:14.000Z</time>
      </trkpt>
      <trkpt lat="45.70824" lon="6.19115">
        <ele>1889.8000488281</ele>
        <time>2014-03-02T11:54:19.000Z</time>
      </trkpt>
      <trkpt lat="45.70826" lon="6.19114">
        <ele>1890</ele>
        <time>2014-03-02T11:54:23.000Z</time>
      </trkpt>
      <trkpt lat="45.70829" lon="6.19114">
        <ele>1890.1999511719</ele>
        <time>2014-03-02T11:54:28.000Z</time>
      </trkpt>
      <trkpt lat="45.70832" lon="6.19115">
        <ele>1890.1999511719</ele>
        <time>2014-03-02T11:54:33.000Z</time>
      </trkpt>
      <trkpt lat="45.70838" lon="6.19116">
        <ele>1889.5999755859</ele>
        <time>2014-03-02T11:54:39.000Z</time>
      </trkpt>
      <trkpt lat="45.70841" lon="6.19118">
        <ele>1888.8000488281</ele>
        <time>2014-03-02T11:54:43.000Z</time>
      </trkpt>
      <trkpt lat="45.70841" lon="6.1912">
        <ele>1888.5999755859</ele>
        <time>2014-03-02T11:54:47.000Z</time>
      </trkpt>
      <trkpt lat="45.70842" lon="6.1912">
        <ele>1888.5999755859</ele>
        <time>2014-03-02T11:54:57.000Z</time>
      </trkpt>
      <trkpt lat="45.70842" lon="6.1912">
        <ele>1888.5999755859</ele>
        <time>2014-03-02T11:55:01.000Z</time>
      </trkpt>
      <trkpt lat="45.70842" lon="6.19119">
        <ele>1888.5999755859</ele>
        <time>2014-03-02T11:55:07.000Z</time>
      </trkpt>
      <trkpt lat="45.70842" lon="6.19118">
        <ele>1888.5999755859</ele>
        <time>2014-03-02T11:55:15.000Z</time>
      </trkpt>
      <trkpt lat="45.70844" lon="6.19118">
        <ele>1888.5999755859</ele>
        <time>2014-03-02T11:55:32.000Z</time>
      </trkpt>
      <trkpt lat="45.70844" lon="6.19118">
        <ele>1888.5999755859</ele>
        <time>2014-03-02T11:55:41.000Z</time>
      </trkpt>
      <trkpt lat="45.70844" lon="6.19119">
        <ele>1888.4000244141</ele>
        <time>2014-03-02T11:55:48.000Z</time>
      </trkpt>
      <trkpt lat="45.70844" lon="6.19118">
        <ele>1888.5999755859</ele>
        <time>2014-03-02T11:55:58.000Z</time>
      </trkpt>
      <trkpt lat="45.70846" lon="6.19117">
        <ele>1888.4000244141</ele>
        <time>2014-03-02T11:56:04.000Z</time>
      </trkpt>
      <trkpt lat="45.70847" lon="6.19117">
        <ele>1888.4000244141</ele>
        <time>2014-03-02T11:56:19.000Z</time>
      </trkpt>
      <trkpt lat="45.70846" lon="6.19118">
        <ele>1888.1999511719</ele>
        <time>2014-03-02T11:56:33.000Z</time>
      </trkpt>
      <trkpt lat="45.70846" lon="6.19119">
        <ele>1888.1999511719</ele>
        <time>2014-03-02T11:56:44.000Z</time>
      </trkpt>
      <trkpt lat="45.70845" lon="6.1912">
        <ele>1888.1999511719</ele>
        <time>2014-03-02T11:56:55.000Z</time>
      </trkpt>
      <trkpt lat="45.70844" lon="6.1912">
        <ele>1888.1999511719</ele>
        <time>2014-03-02T11:57:06.000Z</time>
      </trkpt>
      <trkpt lat="45.70844" lon="6.1912">
        <ele>1888.4000244141</ele>
        <time>2014-03-02T11:57:40.000Z</time>
      </trkpt>
      <trkpt lat="45.70844" lon="6.19119">
        <ele>1888.4000244141</ele>
        <time>2014-03-02T11:57:47.000Z</time>
      </trkpt>
      <trkpt lat="45.70844" lon="6.1912">
        <ele>1888.1999511719</ele>
        <time>2014-03-02T11:57:52.000Z</time>
      </trkpt>
      <trkpt lat="45.70844" lon="6.1912">
        <ele>1888.4000244141</ele>
        <time>2014-03-02T11:57:54.000Z</time>
      </trkpt>
      <trkpt lat="45.70845" lon="6.19117">
        <ele>1888.5999755859</ele>
        <time>2014-03-02T11:57:58.000Z</time>
      </trkpt>
      <trkpt lat="45.70845" lon="6.19118">
        <ele>1888.4000244141</ele>
        <time>2014-03-02T11:58:07.000Z</time>
      </trkpt>
      <trkpt lat="45.70844" lon="6.19118">
        <ele>1888.5999755859</ele>
        <time>2014-03-02T11:58:28.000Z</time>
      </trkpt>
      <trkpt lat="45.70844" lon="6.19118">
        <ele>1888.4000244141</ele>
        <time>2014-03-02T11:58:36.000Z</time>
      </trkpt>
      <trkpt lat="45.70844" lon="6.19118">
        <ele>1888.5999755859</ele>
        <time>2014-03-02T11:58:41.000Z</time>
      </trkpt>
      <trkpt lat="45.70844" lon="6.19119">
        <ele>1888.4000244141</ele>
        <time>2014-03-02T11:58:52.000Z</time>
      </trkpt>
      <trkpt lat="45.70844" lon="6.19119">
        <ele>1888.4000244141</ele>
        <time>2014-03-02T11:59:24.000Z</time>
      </trkpt>
      <trkpt lat="45.70844" lon="6.19119">
        <ele>1888.4000244141</ele>
        <time>2014-03-02T11:59:33.000Z</time>
      </trkpt>
      <trkpt lat="45.70844" lon="6.19119">
        <ele>1888.4000244141</ele>
        <time>2014-03-02T11:59:41.000Z</time>
      </trkpt>
      <trkpt lat="45.70844" lon="6.19119">
        <ele>1888.4000244141</ele>
        <time>2014-03-02T11:59:51.000Z</time>
      </trkpt>
      <trkpt lat="45.70844" lon="6.19119">
        <ele>1888.4000244141</ele>
        <time>2014-03-02T12:00:02.000Z</time>
      </trkpt>
      <trkpt lat="45.70844" lon="6.19119">
        <ele>1888.4000244141</ele>
        <time>2014-03-02T12:00:14.000Z</time>
      </trkpt>
      <trkpt lat="45.70844" lon="6.19119">
        <ele>1888.4000244141</ele>
        <time>2014-03-02T12:00:23.000Z</time>
      </trkpt>
      <trkpt lat="45.70844" lon="6.1912">
        <ele>1888.4000244141</ele>
        <time>2014-03-02T12:00:31.000Z</time>
      </trkpt>
      <trkpt lat="45.70844" lon="6.1912">
        <ele>1888.4000244141</ele>
        <time>2014-03-02T12:00:38.000Z</time>
      </trkpt>
      <trkpt lat="45.70843" lon="6.1912">
        <ele>1888.4000244141</ele>
        <time>2014-03-02T12:00:45.000Z</time>
      </trkpt>
      <trkpt lat="45.70843" lon="6.19121">
        <ele>1888.4000244141</ele>
        <time>2014-03-02T12:00:57.000Z</time>
      </trkpt>
      <trkpt lat="45.70847" lon="6.19122">
        <ele>1887.8000488281</ele>
        <time>2014-03-02T12:01:03.000Z</time>
      </trkpt>
      <trkpt lat="45.70849" lon="6.19122">
        <ele>1887.4000244141</ele>
        <time>2014-03-02T12:01:05.000Z</time>
      </trkpt>
      <trkpt lat="45.70854" lon="6.19124">
        <ele>1886.8000488281</ele>
        <time>2014-03-02T12:01:10.000Z</time>
      </trkpt>
      <trkpt lat="45.70865" lon="6.19128">
        <ele>1885.1999511719</ele>
        <time>2014-03-02T12:01:15.000Z</time>
      </trkpt>
      <trkpt lat="45.70888" lon="6.19132">
        <ele>1882.4000244141</ele>
        <time>2014-03-02T12:01:21.000Z</time>
      </trkpt>
      <trkpt lat="45.709" lon="6.19134">
        <ele>1881</ele>
        <time>2014-03-02T12:01:25.000Z</time>
      </trkpt>
      <trkpt lat="45.70908" lon="6.19136">
        <ele>1880</ele>
        <time>2014-03-02T12:01:30.000Z</time>
      </trkpt>
      <trkpt lat="45.70915" lon="6.19136">
        <ele>1879.1999511719</ele>
        <time>2014-03-02T12:01:35.000Z</time>
      </trkpt>
      <trkpt lat="45.70923" lon="6.19139">
        <ele>1877.5999755859</ele>
        <time>2014-03-02T12:01:40.000Z</time>
      </trkpt>
      <trkpt lat="45.7094" lon="6.19141">
        <ele>1874.1999511719</ele>
        <time>2014-03-02T12:01:46.000Z</time>
      </trkpt>
      <trkpt lat="45.70946" lon="6.19141">
        <ele>1872.8000488281</ele>
        <time>2014-03-02T12:01:50.000Z</time>
      </trkpt>
      <trkpt lat="45.70962" lon="6.1914">
        <ele>1869.8000488281</ele>
        <time>2014-03-02T12:01:57.000Z</time>
      </trkpt>
      <trkpt lat="45.70976" lon="6.19136">
        <ele>1867.5999755859</ele>
        <time>2014-03-02T12:02:02.000Z</time>
      </trkpt>
      <trkpt lat="45.70988" lon="6.19131">
        <ele>1866.4000244141</ele>
        <time>2014-03-02T12:02:06.000Z</time>
      </trkpt>
      <trkpt lat="45.70991" lon="6.19129">
        <ele>1866.1999511719</ele>
        <time>2014-03-02T12:02:08.000Z</time>
      </trkpt>
      <trkpt lat="45.70992" lon="6.19127">
        <ele>1866.4000244141</ele>
        <time>2014-03-02T12:02:15.000Z</time>
      </trkpt>
      <trkpt lat="45.70991" lon="6.19128">
        <ele>1866.4000244141</ele>
        <time>2014-03-02T12:02:25.000Z</time>
      </trkpt>
      <trkpt lat="45.70992" lon="6.19127">
        <ele>1866.4000244141</ele>
        <time>2014-03-02T12:02:39.000Z</time>
      </trkpt>
      <trkpt lat="45.70992" lon="6.19127">
        <ele>1866.4000244141</ele>
        <time>2014-03-02T12:02:54.000Z</time>
      </trkpt>
      <trkpt lat="45.70993" lon="6.19127">
        <ele>1866.1999511719</ele>
        <time>2014-03-02T12:03:00.000Z</time>
      </trkpt>
      <trkpt lat="45.70993" lon="6.19125">
        <ele>1866.8000488281</ele>
        <time>2014-03-02T12:03:03.000Z</time>
      </trkpt>
      <trkpt lat="45.70994" lon="6.19121">
        <ele>1867.4000244141</ele>
        <time>2014-03-02T12:03:06.000Z</time>
      </trkpt>
      <trkpt lat="45.70991" lon="6.19105">
        <ele>1871.1999511719</ele>
        <time>2014-03-02T12:03:10.000Z</time>
      </trkpt>
      <trkpt lat="45.7099" lon="6.19088">
        <ele>1874.8000488281</ele>
        <time>2014-03-02T12:03:15.000Z</time>
      </trkpt>
      <trkpt lat="45.70991" lon="6.1908">
        <ele>1875.1999511719</ele>
        <time>2014-03-02T12:03:17.000Z</time>
      </trkpt>
      <trkpt lat="45.70994" lon="6.19076">
        <ele>1874.4000244141</ele>
        <time>2014-03-02T12:03:20.000Z</time>
      </trkpt>
      <trkpt lat="45.70992" lon="6.19075">
        <ele>1874.1999511719</ele>
        <time>2014-03-02T12:03:22.000Z</time>
      </trkpt>
      <trkpt lat="45.70995" lon="6.19063">
        <ele>1872.4000244141</ele>
        <time>2014-03-02T12:03:26.000Z</time>
      </trkpt>
      <trkpt lat="45.7099" lon="6.19055">
        <ele>1870.8000488281</ele>
        <time>2014-03-02T12:03:29.000Z</time>
      </trkpt>
      <trkpt lat="45.70989" lon="6.19045">
        <ele>1869</ele>
        <time>2014-03-02T12:03:32.000Z</time>
      </trkpt>
      <trkpt lat="45.70989" lon="6.19038">
        <ele>1868</ele>
        <time>2014-03-02T12:03:34.000Z</time>
      </trkpt>
      <trkpt lat="45.70989" lon="6.19029">
        <ele>1866.1999511719</ele>
        <time>2014-03-02T12:03:36.000Z</time>
      </trkpt>
      <trkpt lat="45.7099" lon="6.19025">
        <ele>1865.8000488281</ele>
        <time>2014-03-02T12:03:37.000Z</time>
      </trkpt>
      <trkpt lat="45.70998" lon="6.19013">
        <ele>1866</ele>
        <time>2014-03-02T12:03:41.000Z</time>
      </trkpt>
      <trkpt lat="45.70999" lon="6.19008">
        <ele>1865.5999755859</ele>
        <time>2014-03-02T12:03:46.000Z</time>
      </trkpt>
      <trkpt lat="45.70999" lon="6.19009">
        <ele>1865.8000488281</ele>
        <time>2014-03-02T12:03:54.000Z</time>
      </trkpt>
      <trkpt lat="45.70999" lon="6.19007">
        <ele>1865.4000244141</ele>
        <time>2014-03-02T12:04:01.000Z</time>
      </trkpt>
      <trkpt lat="45.70992" lon="6.18995">
        <ele>1861.4000244141</ele>
        <time>2014-03-02T12:04:05.000Z</time>
      </trkpt>
      <trkpt lat="45.70993" lon="6.1899">
        <ele>1860.8000488281</ele>
        <time>2014-03-02T12:04:09.000Z</time>
      </trkpt>
      <trkpt lat="45.70993" lon="6.18987">
        <ele>1860.4000244141</ele>
        <time>2014-03-02T12:04:10.000Z</time>
      </trkpt>
      <trkpt lat="45.70986" lon="6.18978">
        <ele>1856.4000244141</ele>
        <time>2014-03-02T12:04:13.000Z</time>
      </trkpt>
      <trkpt lat="45.70965" lon="6.18979">
        <ele>1848.8000488281</ele>
        <time>2014-03-02T12:04:17.000Z</time>
      </trkpt>
      <trkpt lat="45.70956" lon="6.18968">
        <ele>1843.1999511719</ele>
        <time>2014-03-02T12:04:20.000Z</time>
      </trkpt>
      <trkpt lat="45.7095" lon="6.18956">
        <ele>1838.1999511719</ele>
        <time>2014-03-02T12:04:23.000Z</time>
      </trkpt>
      <trkpt lat="45.70955" lon="6.18945">
        <ele>1838.1999511719</ele>
        <time>2014-03-02T12:04:27.000Z</time>
      </trkpt>
      <trkpt lat="45.70953" lon="6.18937">
        <ele>1836</ele>
        <time>2014-03-02T12:04:29.000Z</time>
      </trkpt>
      <trkpt lat="45.70955" lon="6.18931">
        <ele>1835.5999755859</ele>
        <time>2014-03-02T12:04:31.000Z</time>
      </trkpt>
      <trkpt lat="45.70959" lon="6.18921">
        <ele>1835.1999511719</ele>
        <time>2014-03-02T12:04:34.000Z</time>
      </trkpt>
      <trkpt lat="45.70966" lon="6.18917">
        <ele>1837</ele>
        <time>2014-03-02T12:04:37.000Z</time>
      </trkpt>
      <trkpt lat="45.70966" lon="6.18916">
        <ele>1836</ele>
        <time>2014-03-02T12:04:41.000Z</time>
      </trkpt>
      <trkpt lat="45.70968" lon="6.18913">
        <ele>1834.1999511719</ele>
        <time>2014-03-02T12:04:45.000Z</time>
      </trkpt>
      <trkpt lat="45.7097" lon="6.18914">
        <ele>1836.1999511719</ele>
        <time>2014-03-02T12:04:49.000Z</time>
      </trkpt>
      <trkpt lat="45.70971" lon="6.18915">
        <ele>1837.1999511719</ele>
        <time>2014-03-02T12:05:01.000Z</time>
      </trkpt>
      <trkpt lat="45.70972" lon="6.18916">
        <ele>1838.5999755859</ele>
        <time>2014-03-02T12:05:02.000Z</time>
      </trkpt>
      <trkpt lat="45.70977" lon="6.1892">
        <ele>1842.8000488281</ele>
        <time>2014-03-02T12:05:06.000Z</time>
      </trkpt>
      <trkpt lat="45.70978" lon="6.18916">
        <ele>1842.4000244141</ele>
        <time>2014-03-02T12:05:10.000Z</time>
      </trkpt>
      <trkpt lat="45.70979" lon="6.18912">
        <ele>1838</ele>
        <time>2014-03-02T12:05:14.000Z</time>
      </trkpt>
      <trkpt lat="45.7098" lon="6.18909">
        <ele>1834.5999755859</ele>
        <time>2014-03-02T12:05:18.000Z</time>
      </trkpt>
      <trkpt lat="45.7099" lon="6.18909">
        <ele>1839</ele>
        <time>2014-03-02T12:05:22.000Z</time>
      </trkpt>
      <trkpt lat="45.71001" lon="6.18909">
        <ele>1841.5999755859</ele>
        <time>2014-03-02T12:05:25.000Z</time>
      </trkpt>
      <trkpt lat="45.71005" lon="6.1891">
        <ele>1840.4000244141</ele>
        <time>2014-03-02T12:05:27.000Z</time>
      </trkpt>
      <trkpt lat="45.71007" lon="6.18912">
        <ele>1842.4000244141</ele>
        <time>2014-03-02T12:05:36.000Z</time>
      </trkpt>
      <trkpt lat="45.71006" lon="6.18919">
        <ele>1848.5999755859</ele>
        <time>2014-03-02T12:06:32.000Z</time>
      </trkpt>
      <trkpt lat="45.7101" lon="6.18915">
        <ele>1843.4000244141</ele>
        <time>2014-03-02T12:06:52.000Z</time>
      </trkpt>
      <trkpt lat="45.7101" lon="6.18915">
        <ele>1843.4000244141</ele>
        <time>2014-03-02T12:07:00.000Z</time>
      </trkpt>
      <trkpt lat="45.7101" lon="6.18913">
        <ele>1840.8000488281</ele>
        <time>2014-03-02T12:07:26.000Z</time>
      </trkpt>
      <trkpt lat="45.71009" lon="6.18912">
        <ele>1840.5999755859</ele>
        <time>2014-03-02T12:07:35.000Z</time>
      </trkpt>
      <trkpt lat="45.71008" lon="6.18912">
        <ele>1841</ele>
        <time>2014-03-02T12:07:52.000Z</time>
      </trkpt>
      <trkpt lat="45.71007" lon="6.18911">
        <ele>1840.4000244141</ele>
        <time>2014-03-02T12:08:05.000Z</time>
      </trkpt>
      <trkpt lat="45.71009" lon="6.18911">
        <ele>1838.8000488281</ele>
        <time>2014-03-02T12:09:18.000Z</time>
      </trkpt>
      <trkpt lat="45.71026" lon="6.18914">
        <ele>1832.1999511719</ele>
        <time>2014-03-02T12:09:24.000Z</time>
      </trkpt>
      <trkpt lat="45.71036" lon="6.1891">
        <ele>1821.1999511719</ele>
        <time>2014-03-02T12:09:27.000Z</time>
      </trkpt>
      <trkpt lat="45.7104" lon="6.18909">
        <ele>1818</ele>
        <time>2014-03-02T12:09:28.000Z</time>
      </trkpt>
      <trkpt lat="45.71057" lon="6.18904">
        <ele>1801.4000244141</ele>
        <time>2014-03-02T12:09:32.000Z</time>
      </trkpt>
      <trkpt lat="45.71063" lon="6.18903">
        <ele>1796.5999755859</ele>
        <time>2014-03-02T12:09:33.000Z</time>
      </trkpt>
      <trkpt lat="45.71096" lon="6.18891">
        <ele>1769</ele>
        <time>2014-03-02T12:09:38.000Z</time>
      </trkpt>
      <trkpt lat="45.71111" lon="6.18882">
        <ele>1758.8000488281</ele>
        <time>2014-03-02T12:09:41.000Z</time>
      </trkpt>
      <trkpt lat="45.71113" lon="6.18878">
        <ele>1755</ele>
        <time>2014-03-02T12:09:42.000Z</time>
      </trkpt>
      <trkpt lat="45.71127" lon="6.18867">
        <ele>1744.8000488281</ele>
        <time>2014-03-02T12:09:46.000Z</time>
      </trkpt>
      <trkpt lat="45.7113" lon="6.18866">
        <ele>1744.8000488281</ele>
        <time>2014-03-02T12:09:47.000Z</time>
      </trkpt>
      <trkpt lat="45.71137" lon="6.18865">
        <ele>1744</ele>
        <time>2014-03-02T12:09:51.000Z</time>
      </trkpt>
      <trkpt lat="45.71146" lon="6.18863">
        <ele>1743</ele>
        <time>2014-03-02T12:09:57.000Z</time>
      </trkpt>
      <trkpt lat="45.7115" lon="6.18863">
        <ele>1743.1999511719</ele>
        <time>2014-03-02T12:10:04.000Z</time>
      </trkpt>
      <trkpt lat="45.7115" lon="6.18862">
        <ele>1742.8000488281</ele>
        <time>2014-03-02T12:10:06.000Z</time>
      </trkpt>
      <trkpt lat="45.71163" lon="6.18853">
        <ele>1737</ele>
        <time>2014-03-02T12:10:10.000Z</time>
      </trkpt>
      <trkpt lat="45.71169" lon="6.18846">
        <ele>1733</ele>
        <time>2014-03-02T12:10:11.000Z</time>
      </trkpt>
      <trkpt lat="45.71193" lon="6.18835">
        <ele>1726.5999755859</ele>
        <time>2014-03-02T12:10:15.000Z</time>
      </trkpt>
      <trkpt lat="45.71214" lon="6.18835">
        <ele>1727.1999511719</ele>
        <time>2014-03-02T12:10:20.000Z</time>
      </trkpt>
      <trkpt lat="45.71216" lon="6.18836">
        <ele>1727.8000488281</ele>
        <time>2014-03-02T12:10:23.000Z</time>
      </trkpt>
      <trkpt lat="45.71216" lon="6.18838">
        <ele>1729.1999511719</ele>
        <time>2014-03-02T12:10:35.000Z</time>
      </trkpt>
      <trkpt lat="45.71225" lon="6.18839">
        <ele>1730.1999511719</ele>
        <time>2014-03-02T12:10:39.000Z</time>
      </trkpt>
      <trkpt lat="45.71227" lon="6.1884">
        <ele>1731</ele>
        <time>2014-03-02T12:10:40.000Z</time>
      </trkpt>
      <trkpt lat="45.71236" lon="6.1884">
        <ele>1731.1999511719</ele>
        <time>2014-03-02T12:10:44.000Z</time>
      </trkpt>
      <trkpt lat="45.71241" lon="6.1884">
        <ele>1731.4000244141</ele>
        <time>2014-03-02T12:10:50.000Z</time>
      </trkpt>
      <trkpt lat="45.71252" lon="6.18839">
        <ele>1731</ele>
        <time>2014-03-02T12:10:56.000Z</time>
      </trkpt>
      <trkpt lat="45.71264" lon="6.18838">
        <ele>1728.8000488281</ele>
        <time>2014-03-02T12:11:00.000Z</time>
      </trkpt>
      <trkpt lat="45.71285" lon="6.18834">
        <ele>1724</ele>
        <time>2014-03-02T12:11:04.000Z</time>
      </trkpt>
      <trkpt lat="45.71319" lon="6.18824">
        <ele>1714.5999755859</ele>
        <time>2014-03-02T12:11:10.000Z</time>
      </trkpt>
      <trkpt lat="45.71342" lon="6.18817">
        <ele>1706.5999755859</ele>
        <time>2014-03-02T12:11:15.000Z</time>
      </trkpt>
      <trkpt lat="45.71358" lon="6.18814">
        <ele>1701.4000244141</ele>
        <time>2014-03-02T12:11:21.000Z</time>
      </trkpt>
      <trkpt lat="45.71365" lon="6.18816">
        <ele>1700.8000488281</ele>
        <time>2014-03-02T12:11:25.000Z</time>
      </trkpt>
      <trkpt lat="45.71365" lon="6.18818">
        <ele>1701.5999755859</ele>
        <time>2014-03-02T12:11:34.000Z</time>
      </trkpt>
      <trkpt lat="45.71367" lon="6.18819">
        <ele>1702</ele>
        <time>2014-03-02T12:11:48.000Z</time>
      </trkpt>
      <trkpt lat="45.71376" lon="6.18821">
        <ele>1701.1999511719</ele>
        <time>2014-03-02T12:11:52.000Z</time>
      </trkpt>
      <trkpt lat="45.71392" lon="6.1883">
        <ele>1701.8000488281</ele>
        <time>2014-03-02T12:11:58.000Z</time>
      </trkpt>
      <trkpt lat="45.71396" lon="6.18829">
        <ele>1700.8000488281</ele>
        <time>2014-03-02T12:11:59.000Z</time>
      </trkpt>
      <trkpt lat="45.7141" lon="6.18812">
        <ele>1688</ele>
        <time>2014-03-02T12:12:02.000Z</time>
      </trkpt>
      <trkpt lat="45.71428" lon="6.18793">
        <ele>1673.8000488281</ele>
        <time>2014-03-02T12:12:06.000Z</time>
      </trkpt>
      <trkpt lat="45.71435" lon="6.18779">
        <ele>1664.5999755859</ele>
        <time>2014-03-02T12:12:08.000Z</time>
      </trkpt>
      <trkpt lat="45.71445" lon="6.18751">
        <ele>1648.8000488281</ele>
        <time>2014-03-02T12:12:11.000Z</time>
      </trkpt>
      <trkpt lat="45.71451" lon="6.1874">
        <ele>1643</ele>
        <time>2014-03-02T12:12:13.000Z</time>
      </trkpt>
      <trkpt lat="45.71459" lon="6.18699">
        <ele>1625.4000244141</ele>
        <time>2014-03-02T12:12:18.000Z</time>
      </trkpt>
      <trkpt lat="45.71465" lon="6.18672">
        <ele>1614</ele>
        <time>2014-03-02T12:12:21.000Z</time>
      </trkpt>
      <trkpt lat="45.71485" lon="6.18639">
        <ele>1597.1999511719</ele>
        <time>2014-03-02T12:12:26.000Z</time>
      </trkpt>
      <trkpt lat="45.71501" lon="6.18639">
        <ele>1594.4000244141</ele>
        <time>2014-03-02T12:12:29.000Z</time>
      </trkpt>
      <trkpt lat="45.71516" lon="6.18636">
        <ele>1590</ele>
        <time>2014-03-02T12:12:32.000Z</time>
      </trkpt>
      <trkpt lat="45.71523" lon="6.18624">
        <ele>1583.1999511719</ele>
        <time>2014-03-02T12:12:34.000Z</time>
      </trkpt>
      <trkpt lat="45.71536" lon="6.18604">
        <ele>1572</ele>
        <time>2014-03-02T12:12:37.000Z</time>
      </trkpt>
      <trkpt lat="45.71546" lon="6.18589">
        <ele>1563.5999755859</ele>
        <time>2014-03-02T12:12:39.000Z</time>
      </trkpt>
      <trkpt lat="45.7156" lon="6.18566">
        <ele>1551</ele>
        <time>2014-03-02T12:12:42.000Z</time>
      </trkpt>
      <trkpt lat="45.71568" lon="6.18548">
        <ele>1541.8000488281</ele>
        <time>2014-03-02T12:12:44.000Z</time>
      </trkpt>
      <trkpt lat="45.71583" lon="6.18535">
        <ele>1532.8000488281</ele>
        <time>2014-03-02T12:12:46.000Z</time>
      </trkpt>
      <trkpt lat="45.71616" lon="6.18485">
        <ele>1506.1999511719</ele>
        <time>2014-03-02T12:12:51.000Z</time>
      </trkpt>
      <trkpt lat="45.7163" lon="6.18473">
        <ele>1500.4000244141</ele>
        <time>2014-03-02T12:12:53.000Z</time>
      </trkpt>
      <trkpt lat="45.71649" lon="6.18465">
        <ele>1495</ele>
        <time>2014-03-02T12:12:56.000Z</time>
      </trkpt>
      <trkpt lat="45.71671" lon="6.18453">
        <ele>1487.8000488281</ele>
        <time>2014-03-02T12:13:00.000Z</time>
      </trkpt>
      <trkpt lat="45.71677" lon="6.18451">
        <ele>1485.8000488281</ele>
        <time>2014-03-02T12:13:01.000Z</time>
      </trkpt>
      <trkpt lat="45.71688" lon="6.18451">
        <ele>1482.8000488281</ele>
        <time>2014-03-02T12:13:06.000Z</time>
      </trkpt>
      <trkpt lat="45.71687" lon="6.18452">
        <ele>1483</ele>
        <time>2014-03-02T12:13:13.000Z</time>
      </trkpt>
      <trkpt lat="45.71687" lon="6.18452">
        <ele>1483.1999511719</ele>
        <time>2014-03-02T12:13:23.000Z</time>
      </trkpt>
      <trkpt lat="45.71687" lon="6.18453">
        <ele>1483.4000244141</ele>
        <time>2014-03-02T12:13:35.000Z</time>
      </trkpt>
      <trkpt lat="45.71697" lon="6.1844">
        <ele>1477.8000488281</ele>
        <time>2014-03-02T12:13:39.000Z</time>
      </trkpt>
      <trkpt lat="45.71704" lon="6.18419">
        <ele>1471.1999511719</ele>
        <time>2014-03-02T12:13:42.000Z</time>
      </trkpt>
      <trkpt lat="45.71717" lon="6.18406">
        <ele>1464</ele>
        <time>2014-03-02T12:13:47.000Z</time>
      </trkpt>
      <trkpt lat="45.71718" lon="6.18407">
        <ele>1464.1999511719</ele>
        <time>2014-03-02T12:13:51.000Z</time>
      </trkpt>
      <trkpt lat="45.71718" lon="6.18407">
        <ele>1464.1999511719</ele>
        <time>2014-03-02T12:13:52.000Z</time>
      </trkpt>
      <trkpt lat="45.71726" lon="6.18393">
        <ele>1458.1999511719</ele>
        <time>2014-03-02T12:13:56.000Z</time>
      </trkpt>
      <trkpt lat="45.71732" lon="6.1838">
        <ele>1452.5999755859</ele>
        <time>2014-03-02T12:13:58.000Z</time>
      </trkpt>
      <trkpt lat="45.71751" lon="6.18349">
        <ele>1439.8000488281</ele>
        <time>2014-03-02T12:14:02.000Z</time>
      </trkpt>
      <trkpt lat="45.71764" lon="6.18335">
        <ele>1431.5999755859</ele>
        <time>2014-03-02T12:14:05.000Z</time>
      </trkpt>
      <trkpt lat="45.71775" lon="6.1832">
        <ele>1424</ele>
        <time>2014-03-02T12:14:07.000Z</time>
      </trkpt>
      <trkpt lat="45.71803" lon="6.18283">
        <ele>1406.4000244141</ele>
        <time>2014-03-02T12:14:12.000Z</time>
      </trkpt>
      <trkpt lat="45.71813" lon="6.18267">
        <ele>1399.8000488281</ele>
        <time>2014-03-02T12:14:14.000Z</time>
      </trkpt>
      <trkpt lat="45.71826" lon="6.18232">
        <ele>1389.4000244141</ele>
        <time>2014-03-02T12:14:18.000Z</time>
      </trkpt>
      <trkpt lat="45.71833" lon="6.182">
        <ele>1383.5999755859</ele>
        <time>2014-03-02T12:14:21.000Z</time>
      </trkpt>
      <trkpt lat="45.71833" lon="6.18179">
        <ele>1380.5999755859</ele>
        <time>2014-03-02T12:14:24.000Z</time>
      </trkpt>
      <trkpt lat="45.71832" lon="6.18181">
        <ele>1381.1999511719</ele>
        <time>2014-03-02T12:14:27.000Z</time>
      </trkpt>
      <trkpt lat="45.71832" lon="6.18181">
        <ele>1381.1999511719</ele>
        <time>2014-03-02T12:14:34.000Z</time>
      </trkpt>
      <trkpt lat="45.71831" lon="6.18183">
        <ele>1381.5999755859</ele>
        <time>2014-03-02T12:15:10.000Z</time>
      </trkpt>
      <trkpt lat="45.71831" lon="6.18182">
        <ele>1381.4000244141</ele>
        <time>2014-03-02T12:15:18.000Z</time>
      </trkpt>
      <trkpt lat="45.71829" lon="6.18181">
        <ele>1381.8000488281</ele>
        <time>2014-03-02T12:15:23.000Z</time>
      </trkpt>
      <trkpt lat="45.71826" lon="6.18177">
        <ele>1381.8000488281</ele>
        <time>2014-03-02T12:15:28.000Z</time>
      </trkpt>
      <trkpt lat="45.71821" lon="6.18159">
        <ele>1380.4000244141</ele>
        <time>2014-03-02T12:15:32.000Z</time>
      </trkpt>
      <trkpt lat="45.71823" lon="6.18125">
        <ele>1376.5999755859</ele>
        <time>2014-03-02T12:15:36.000Z</time>
      </trkpt>
      <trkpt lat="45.71826" lon="6.18106">
        <ele>1374.1999511719</ele>
        <time>2014-03-02T12:15:38.000Z</time>
      </trkpt>
      <trkpt lat="45.71836" lon="6.18073">
        <ele>1368.4000244141</ele>
        <time>2014-03-02T12:15:41.000Z</time>
      </trkpt>
      <trkpt lat="45.71851" lon="6.18043">
        <ele>1359.4000244141</ele>
        <time>2014-03-02T12:15:44.000Z</time>
      </trkpt>
      <trkpt lat="45.7186" lon="6.18022">
        <ele>1353.8000488281</ele>
        <time>2014-03-02T12:15:46.000Z</time>
      </trkpt>
      <trkpt lat="45.71884" lon="6.17977">
        <ele>1341.8000488281</ele>
        <time>2014-03-02T12:15:51.000Z</time>
      </trkpt>
      <trkpt lat="45.71899" lon="6.17953">
        <ele>1335.4000244141</ele>
        <time>2014-03-02T12:15:54.000Z</time>
      </trkpt>
      <trkpt lat="45.71928" lon="6.17908">
        <ele>1323.8000488281</ele>
        <time>2014-03-02T12:15:59.000Z</time>
      </trkpt>
      <trkpt lat="45.71944" lon="6.1789">
        <ele>1318.8000488281</ele>
        <time>2014-03-02T12:16:01.000Z</time>
      </trkpt>
      <trkpt lat="45.7197" lon="6.17859">
        <ele>1310.8000488281</ele>
        <time>2014-03-02T12:16:05.000Z</time>
      </trkpt>
      <trkpt lat="45.71988" lon="6.17839">
        <ele>1305.5999755859</ele>
        <time>2014-03-02T12:16:08.000Z</time>
      </trkpt>
      <trkpt lat="45.72011" lon="6.17806">
        <ele>1299.5999755859</ele>
        <time>2014-03-02T12:16:12.000Z</time>
      </trkpt>
      <trkpt lat="45.72045" lon="6.17761">
        <ele>1293.1999511719</ele>
        <time>2014-03-02T12:16:18.000Z</time>
      </trkpt>
      <trkpt lat="45.72051" lon="6.17753">
        <ele>1292.1999511719</ele>
        <time>2014-03-02T12:16:19.000Z</time>
      </trkpt>
      <trkpt lat="45.72066" lon="6.17721">
        <ele>1291</ele>
        <time>2014-03-02T12:16:23.000Z</time>
      </trkpt>
      <trkpt lat="45.72067" lon="6.17719">
        <ele>1291</ele>
        <time>2014-03-02T12:16:27.000Z</time>
      </trkpt>
      <trkpt lat="45.72067" lon="6.17721">
        <ele>1290.8000488281</ele>
        <time>2014-03-02T12:16:28.000Z</time>
      </trkpt>
      <trkpt lat="45.72066" lon="6.17724">
        <ele>1291</ele>
        <time>2014-03-02T12:16:37.000Z</time>
      </trkpt>
      <trkpt lat="45.72066" lon="6.17726">
        <ele>1291</ele>
        <time>2014-03-02T12:16:51.000Z</time>
      </trkpt>
      <trkpt lat="45.72066" lon="6.17723">
        <ele>1291</ele>
        <time>2014-03-02T12:17:09.000Z</time>
      </trkpt>
      <trkpt lat="45.72066" lon="6.17718">
        <ele>1291</ele>
        <time>2014-03-02T12:17:11.000Z</time>
      </trkpt>
      <trkpt lat="45.72061" lon="6.177">
        <ele>1291.8000488281</ele>
        <time>2014-03-02T12:17:15.000Z</time>
      </trkpt>
      <trkpt lat="45.72049" lon="6.17668">
        <ele>1293.1999511719</ele>
        <time>2014-03-02T12:17:19.000Z</time>
      </trkpt>
      <trkpt lat="45.72048" lon="6.17666">
        <ele>1293.4000244141</ele>
        <time>2014-03-02T12:17:20.000Z</time>
      </trkpt>
      <trkpt lat="45.72051" lon="6.17672">
        <ele>1293</ele>
        <time>2014-03-02T12:17:24.000Z</time>
      </trkpt>
      <trkpt lat="45.72053" lon="6.17671">
        <ele>1292.8000488281</ele>
        <time>2014-03-02T12:17:28.000Z</time>
      </trkpt>
      <trkpt lat="45.72056" lon="6.17669">
        <ele>1292.5999755859</ele>
        <time>2014-03-02T12:17:35.000Z</time>
      </trkpt>
      <trkpt lat="45.7206" lon="6.17668">
        <ele>1292.1999511719</ele>
        <time>2014-03-02T12:17:40.000Z</time>
      </trkpt>
      <trkpt lat="45.72062" lon="6.17668">
        <ele>1292</ele>
        <time>2014-03-02T12:17:44.000Z</time>
      </trkpt>
      <trkpt lat="45.72066" lon="6.17664">
        <ele>1292.1999511719</ele>
        <time>2014-03-02T12:17:49.000Z</time>
      </trkpt>
      <trkpt lat="45.72071" lon="6.17659">
        <ele>1292.4000244141</ele>
        <time>2014-03-02T12:17:53.000Z</time>
      </trkpt>
      <trkpt lat="45.72075" lon="6.17657">
        <ele>1292.4000244141</ele>
        <time>2014-03-02T12:17:59.000Z</time>
      </trkpt>
      <trkpt lat="45.72077" lon="6.17656">
        <ele>1292.1999511719</ele>
        <time>2014-03-02T12:18:03.000Z</time>
      </trkpt>
      <trkpt lat="45.7208" lon="6.17653">
        <ele>1292.4000244141</ele>
        <time>2014-03-02T12:18:07.000Z</time>
      </trkpt>
      <trkpt lat="45.72086" lon="6.17648">
        <ele>1292.5999755859</ele>
        <time>2014-03-02T12:18:11.000Z</time>
      </trkpt>
      <trkpt lat="45.72087" lon="6.17647">
        <ele>1292.5999755859</ele>
        <time>2014-03-02T12:18:12.000Z</time>
      </trkpt>
      <trkpt lat="45.72093" lon="6.17643">
        <ele>1292.5999755859</ele>
        <time>2014-03-02T12:18:17.000Z</time>
      </trkpt>
      <trkpt lat="45.72096" lon="6.17641">
        <ele>1292.5999755859</ele>
        <time>2014-03-02T12:18:21.000Z</time>
      </trkpt>
      <trkpt lat="45.72099" lon="6.17639">
        <ele>1292.5999755859</ele>
        <time>2014-03-02T12:18:26.000Z</time>
      </trkpt>
      <trkpt lat="45.72101" lon="6.17638">
        <ele>1292.4000244141</ele>
        <time>2014-03-02T12:18:32.000Z</time>
      </trkpt>
      <trkpt lat="45.72113" lon="6.17635">
        <ele>1291.4000244141</ele>
        <time>2014-03-02T12:18:37.000Z</time>
      </trkpt>
      <trkpt lat="45.7213" lon="6.17633">
        <ele>1289.4000244141</ele>
        <time>2014-03-02T12:18:43.000Z</time>
      </trkpt>
      <trkpt lat="45.72136" lon="6.17639">
        <ele>1288.1999511719</ele>
        <time>2014-03-02T12:18:47.000Z</time>
      </trkpt>
      <trkpt lat="45.72138" lon="6.17641">
        <ele>1287.8000488281</ele>
        <time>2014-03-02T12:18:48.000Z</time>
      </trkpt>
      <trkpt lat="45.72149" lon="6.1765">
        <ele>1285.8000488281</ele>
        <time>2014-03-02T12:18:54.000Z</time>
      </trkpt>
      <trkpt lat="45.72158" lon="6.17655">
        <ele>1284.5999755859</ele>
        <time>2014-03-02T12:18:58.000Z</time>
      </trkpt>
      <trkpt lat="45.72167" lon="6.17655">
        <ele>1283.5999755859</ele>
        <time>2014-03-02T12:19:02.000Z</time>
      </trkpt>
      <trkpt lat="45.7217" lon="6.17657">
        <ele>1283</ele>
        <time>2014-03-02T12:19:05.000Z</time>
      </trkpt>
      <trkpt lat="45.7217" lon="6.17658">
        <ele>1283</ele>
        <time>2014-03-02T12:19:06.000Z</time>
      </trkpt>
      <trkpt lat="45.72176" lon="6.1766">
        <ele>1281.8000488281</ele>
        <time>2014-03-02T12:19:12.000Z</time>
      </trkpt>
      <trkpt lat="45.72181" lon="6.17659">
        <ele>1280.8000488281</ele>
        <time>2014-03-02T12:19:16.000Z</time>
      </trkpt>
      <trkpt lat="45.72193" lon="6.17656">
        <ele>1279</ele>
        <time>2014-03-02T12:19:22.000Z</time>
      </trkpt>
      <trkpt lat="45.72206" lon="6.17657">
        <ele>1276.4000244141</ele>
        <time>2014-03-02T12:19:25.000Z</time>
      </trkpt>
      <trkpt lat="45.7222" lon="6.17662">
        <ele>1273.5999755859</ele>
        <time>2014-03-02T12:19:28.000Z</time>
      </trkpt>
      <trkpt lat="45.72235" lon="6.17667">
        <ele>1270.8000488281</ele>
        <time>2014-03-02T12:19:31.000Z</time>
      </trkpt>
      <trkpt lat="45.72247" lon="6.17673">
        <ele>1268.4000244141</ele>
        <time>2014-03-02T12:19:33.000Z</time>
      </trkpt>
      <trkpt lat="45.72276" lon="6.17678">
        <ele>1262.1999511719</ele>
        <time>2014-03-02T12:19:38.000Z</time>
      </trkpt>
      <trkpt lat="45.72281" lon="6.17679">
        <ele>1261.1999511719</ele>
        <time>2014-03-02T12:19:39.000Z</time>
      </trkpt>
      <trkpt lat="45.72292" lon="6.17682">
        <ele>1258.8000488281</ele>
        <time>2014-03-02T12:19:41.000Z</time>
      </trkpt>
      <trkpt lat="45.72318" lon="6.17688">
        <ele>1253.4000244141</ele>
        <time>2014-03-02T12:19:45.000Z</time>
      </trkpt>
      <trkpt lat="45.72325" lon="6.17686">
        <ele>1252</ele>
        <time>2014-03-02T12:19:46.000Z</time>
      </trkpt>
      <trkpt lat="45.72349" lon="6.1768">
        <ele>1248.8000488281</ele>
        <time>2014-03-02T12:19:50.000Z</time>
      </trkpt>
      <trkpt lat="45.7237" lon="6.17674">
        <ele>1247</ele>
        <time>2014-03-02T12:19:54.000Z</time>
      </trkpt>
      <trkpt lat="45.72392" lon="6.17666">
        <ele>1245</ele>
        <time>2014-03-02T12:19:59.000Z</time>
      </trkpt>
      <trkpt lat="45.724" lon="6.17662">
        <ele>1244.4000244141</ele>
        <time>2014-03-02T12:20:01.000Z</time>
      </trkpt>
      <trkpt lat="45.72407" lon="6.17657">
        <ele>1243.5999755859</ele>
        <time>2014-03-02T12:20:03.000Z</time>
      </trkpt>
      <trkpt lat="45.7243" lon="6.17644">
        <ele>1240.1999511719</ele>
        <time>2014-03-02T12:20:09.000Z</time>
      </trkpt>
      <trkpt lat="45.72448" lon="6.17636">
        <ele>1237.1999511719</ele>
        <time>2014-03-02T12:20:13.000Z</time>
      </trkpt>
      <trkpt lat="45.72469" lon="6.17628">
        <ele>1234</ele>
        <time>2014-03-02T12:20:18.000Z</time>
      </trkpt>
      <trkpt lat="45.72496" lon="6.17612">
        <ele>1229.5999755859</ele>
        <time>2014-03-02T12:20:24.000Z</time>
      </trkpt>
      <trkpt lat="45.72525" lon="6.17593">
        <ele>1224.1999511719</ele>
        <time>2014-03-02T12:20:29.000Z</time>
      </trkpt>
      <trkpt lat="45.72538" lon="6.17585">
        <ele>1221.4000244141</ele>
        <time>2014-03-02T12:20:31.000Z</time>
      </trkpt>
      <trkpt lat="45.72551" lon="6.17576">
        <ele>1218.5999755859</ele>
        <time>2014-03-02T12:20:33.000Z</time>
      </trkpt>
      <trkpt lat="45.72593" lon="6.1756">
        <ele>1210.4000244141</ele>
        <time>2014-03-02T12:20:40.000Z</time>
      </trkpt>
      <trkpt lat="45.72605" lon="6.17552">
        <ele>1208.1999511719</ele>
        <time>2014-03-02T12:20:42.000Z</time>
      </trkpt>
      <trkpt lat="45.72625" lon="6.17541">
        <ele>1204.8000488281</ele>
        <time>2014-03-02T12:20:46.000Z</time>
      </trkpt>
      <trkpt lat="45.72659" lon="6.17526">
        <ele>1198.5999755859</ele>
        <time>2014-03-02T12:20:52.000Z</time>
      </trkpt>
      <trkpt lat="45.72678" lon="6.17506">
        <ele>1195.5999755859</ele>
        <time>2014-03-02T12:20:56.000Z</time>
      </trkpt>
      <trkpt lat="45.727" lon="6.17484">
        <ele>1193</ele>
        <time>2014-03-02T12:21:01.000Z</time>
      </trkpt>
      <trkpt lat="45.72712" lon="6.17469">
        <ele>1191.1999511719</ele>
        <time>2014-03-02T12:21:04.000Z</time>
      </trkpt>
      <trkpt lat="45.72725" lon="6.17446">
        <ele>1189</ele>
        <time>2014-03-02T12:21:09.000Z</time>
      </trkpt>
      <trkpt lat="45.72724" lon="6.17448">
        <ele>1189.1999511719</ele>
        <time>2014-03-02T12:21:12.000Z</time>
      </trkpt>
      <trkpt lat="45.72722" lon="6.1745">
        <ele>1189.4000244141</ele>
        <time>2014-03-02T12:21:18.000Z</time>
      </trkpt>
      <trkpt lat="45.72728" lon="6.17444">
        <ele>1188.4000244141</ele>
        <time>2014-03-02T12:21:22.000Z</time>
      </trkpt>
      <trkpt lat="45.72731" lon="6.17443">
        <ele>1187.8000488281</ele>
        <time>2014-03-02T12:21:29.000Z</time>
      </trkpt>
      <trkpt lat="45.72736" lon="6.17441">
        <ele>1186.5999755859</ele>
        <time>2014-03-02T12:21:32.000Z</time>
      </trkpt>
      <trkpt lat="45.72738" lon="6.17439">
        <ele>1186.1999511719</ele>
        <time>2014-03-02T12:21:35.000Z</time>
      </trkpt>
      <trkpt lat="45.72741" lon="6.17435">
        <ele>1185.5999755859</ele>
        <time>2014-03-02T12:21:42.000Z</time>
      </trkpt>
      <trkpt lat="45.72741" lon="6.17436">
        <ele>1185.5999755859</ele>
        <time>2014-03-02T12:21:48.000Z</time>
      </trkpt>
      <trkpt lat="45.72743" lon="6.17437">
        <ele>1185.1999511719</ele>
        <time>2014-03-02T12:21:54.000Z</time>
      </trkpt>
      <trkpt lat="45.72746" lon="6.17441">
        <ele>1184.8000488281</ele>
        <time>2014-03-02T12:21:59.000Z</time>
      </trkpt>
      <trkpt lat="45.72745" lon="6.17443">
        <ele>1185</ele>
        <time>2014-03-02T12:22:06.000Z</time>
      </trkpt>
      <trkpt lat="45.72746" lon="6.17446">
        <ele>1184.8000488281</ele>
        <time>2014-03-02T12:22:14.000Z</time>
      </trkpt>
      <trkpt lat="45.72742" lon="6.17445">
        <ele>1185.5999755859</ele>
        <time>2014-03-02T12:22:28.000Z</time>
      </trkpt>
      <trkpt lat="45.72743" lon="6.17441">
        <ele>1185.4000244141</ele>
        <time>2014-03-02T12:22:35.000Z</time>
      </trkpt>
      <trkpt lat="45.72743" lon="6.1744">
        <ele>1185.1999511719</ele>
        <time>2014-03-02T12:22:37.000Z</time>
      </trkpt>
      <trkpt lat="45.72744" lon="6.1744">
        <ele>1185.1999511719</ele>
        <time>2014-03-02T12:22:43.000Z</time>
      </trkpt>
      <trkpt lat="45.72749" lon="6.1744">
        <ele>1184</ele>
        <time>2014-03-02T12:22:56.000Z</time>
      </trkpt>
      <trkpt lat="45.72746" lon="6.17439">
        <ele>1184.5999755859</ele>
        <time>2014-03-02T12:23:04.000Z</time>
      </trkpt>
      <trkpt lat="45.72745" lon="6.17437">
        <ele>1184.8000488281</ele>
        <time>2014-03-02T12:23:13.000Z</time>
      </trkpt>
      <trkpt lat="45.72742" lon="6.1744">
        <ele>1185.4000244141</ele>
        <time>2014-03-02T12:23:25.000Z</time>
      </trkpt>
      <trkpt lat="45.7274" lon="6.17441">
        <ele>1185.8000488281</ele>
        <time>2014-03-02T12:23:40.000Z</time>
      </trkpt>
      <trkpt lat="45.7274" lon="6.17439">
        <ele>1185.8000488281</ele>
        <time>2014-03-02T12:23:49.000Z</time>
      </trkpt>
      <trkpt lat="45.72743" lon="6.1744">
        <ele>1185.1999511719</ele>
        <time>2014-03-02T12:23:51.000Z</time>
      </trkpt>
      <trkpt lat="45.72747" lon="6.17442">
        <ele>1184.5999755859</ele>
        <time>2014-03-02T12:23:58.000Z</time>
      </trkpt>
      <trkpt lat="45.7275" lon="6.17442">
        <ele>1184</ele>
        <time>2014-03-02T12:24:02.000Z</time>
      </trkpt>
      <trkpt lat="45.72756" lon="6.17444">
        <ele>1184.4000244141</ele>
        <time>2014-03-02T12:24:07.000Z</time>
      </trkpt>
      <trkpt lat="45.72759" lon="6.17442">
        <ele>1184.5999755859</ele>
        <time>2014-03-02T12:24:12.000Z</time>
      </trkpt>
      <trkpt lat="45.72765" lon="6.17439">
        <ele>1185</ele>
        <time>2014-03-02T12:24:17.000Z</time>
      </trkpt>
      <trkpt lat="45.72769" lon="6.17438">
        <ele>1185.1999511719</ele>
        <time>2014-03-02T12:24:19.000Z</time>
      </trkpt>
      <trkpt lat="45.72774" lon="6.17434">
        <ele>1185.4000244141</ele>
        <time>2014-03-02T12:24:23.000Z</time>
      </trkpt>
      <trkpt lat="45.72778" lon="6.17432">
        <ele>1185.5999755859</ele>
        <time>2014-03-02T12:24:29.000Z</time>
      </trkpt>
      <trkpt lat="45.72779" lon="6.17432">
        <ele>1185.5999755859</ele>
        <time>2014-03-02T12:24:33.000Z</time>
      </trkpt>
      <trkpt lat="45.72782" lon="6.1743">
        <ele>1185.8000488281</ele>
        <time>2014-03-02T12:24:38.000Z</time>
      </trkpt>
      <trkpt lat="45.72785" lon="6.17429">
        <ele>1186</ele>
        <time>2014-03-02T12:24:43.000Z</time>
      </trkpt>
      <trkpt lat="45.72786" lon="6.17429">
        <ele>1186</ele>
        <time>2014-03-02T12:24:51.000Z</time>
      </trkpt>
      <trkpt lat="45.7279" lon="6.17425">
        <ele>1186.1999511719</ele>
        <time>2014-03-02T12:24:56.000Z</time>
      </trkpt>
      <trkpt lat="45.72799" lon="6.17412">
        <ele>1186.4000244141</ele>
        <time>2014-03-02T12:25:01.000Z</time>
      </trkpt>
      <trkpt lat="45.72809" lon="6.17397">
        <ele>1186.8000488281</ele>
        <time>2014-03-02T12:25:07.000Z</time>
      </trkpt>
      <trkpt lat="45.72811" lon="6.17395">
        <ele>1186.5999755859</ele>
        <time>2014-03-02T12:25:08.000Z</time>
      </trkpt>
      <trkpt lat="45.72818" lon="6.17383">
        <ele>1186.1999511719</ele>
        <time>2014-03-02T12:25:13.000Z</time>
      </trkpt>
      <trkpt lat="45.72824" lon="6.17371">
        <ele>1185.4000244141</ele>
        <time>2014-03-02T12:25:18.000Z</time>
      </trkpt>
      <trkpt lat="45.72824" lon="6.1737">
        <ele>1185.4000244141</ele>
        <time>2014-03-02T12:25:25.000Z</time>
      </trkpt>
      <trkpt lat="45.72825" lon="6.17372">
        <ele>1185.5999755859</ele>
        <time>2014-03-02T12:25:39.000Z</time>
      </trkpt>
      <trkpt lat="45.72825" lon="6.17371">
        <ele>1185.4000244141</ele>
        <time>2014-03-02T12:25:46.000Z</time>
      </trkpt>
      <trkpt lat="45.72825" lon="6.17369">
        <ele>1185.4000244141</ele>
        <time>2014-03-02T12:25:52.000Z</time>
      </trkpt>
      <trkpt lat="45.72824" lon="6.17366">
        <ele>1185.1999511719</ele>
        <time>2014-03-02T12:26:03.000Z</time>
      </trkpt>
      <trkpt lat="45.72829" lon="6.17348">
        <ele>1183.5999755859</ele>
        <time>2014-03-02T12:26:08.000Z</time>
      </trkpt>
      <trkpt lat="45.72832" lon="6.17333">
        <ele>1182.1999511719</ele>
        <time>2014-03-02T12:26:13.000Z</time>
      </trkpt>
      <trkpt lat="45.72835" lon="6.1733">
        <ele>1182.1999511719</ele>
        <time>2014-03-02T12:26:16.000Z</time>
      </trkpt>
      <trkpt lat="45.72834" lon="6.1733">
        <ele>1182</ele>
        <time>2014-03-02T12:26:22.000Z</time>
      </trkpt>
      <trkpt lat="45.72834" lon="6.17326">
        <ele>1181.5999755859</ele>
        <time>2014-03-02T12:26:29.000Z</time>
      </trkpt>
      <trkpt lat="45.72839" lon="6.17305">
        <ele>1181.5999755859</ele>
        <time>2014-03-02T12:26:34.000Z</time>
      </trkpt>
      <trkpt lat="45.7285" lon="6.17274">
        <ele>1181.8000488281</ele>
        <time>2014-03-02T12:26:39.000Z</time>
      </trkpt>
      <trkpt lat="45.72867" lon="6.17233">
        <ele>1179.1999511719</ele>
        <time>2014-03-02T12:26:45.000Z</time>
      </trkpt>
      <trkpt lat="45.72893" lon="6.17185">
        <ele>1169.4000244141</ele>
        <time>2014-03-02T12:26:52.000Z</time>
      </trkpt>
      <trkpt lat="45.72924" lon="6.17148">
        <ele>1156.1999511719</ele>
        <time>2014-03-02T12:26:58.000Z</time>
      </trkpt>
      <trkpt lat="45.7293" lon="6.17141">
        <ele>1155.1999511719</ele>
        <time>2014-03-02T12:26:59.000Z</time>
      </trkpt>
      <trkpt lat="45.72952" lon="6.1712">
        <ele>1151.8000488281</ele>
        <time>2014-03-02T12:27:03.000Z</time>
      </trkpt>
      <trkpt lat="45.72997" lon="6.17088">
        <ele>1147.1999511719</ele>
        <time>2014-03-02T12:27:10.000Z</time>
      </trkpt>
      <trkpt lat="45.73038" lon="6.17071">
        <ele>1149.8000488281</ele>
        <time>2014-03-02T12:27:15.000Z</time>
      </trkpt>
      <trkpt lat="45.73079" lon="6.17042">
        <ele>1145.4000244141</ele>
        <time>2014-03-02T12:27:20.000Z</time>
      </trkpt>
      <trkpt lat="45.73114" lon="6.17013">
        <ele>1137.5999755859</ele>
        <time>2014-03-02T12:27:25.000Z</time>
      </trkpt>
      <trkpt lat="45.7314" lon="6.16999">
        <ele>1134.5999755859</ele>
        <time>2014-03-02T12:27:29.000Z</time>
      </trkpt>
      <trkpt lat="45.73166" lon="6.16986">
        <ele>1134.8000488281</ele>
        <time>2014-03-02T12:27:33.000Z</time>
      </trkpt>
      <trkpt lat="45.73211" lon="6.16946">
        <ele>1126.4000244141</ele>
        <time>2014-03-02T12:27:40.000Z</time>
      </trkpt>
      <trkpt lat="45.73218" lon="6.1694">
        <ele>1124.4000244141</ele>
        <time>2014-03-02T12:27:41.000Z</time>
      </trkpt>
      <trkpt lat="45.73248" lon="6.16926">
        <ele>1121.1999511719</ele>
        <time>2014-03-02T12:27:45.000Z</time>
      </trkpt>
      <trkpt lat="45.73262" lon="6.16917">
        <ele>1118.4000244141</ele>
        <time>2014-03-02T12:27:47.000Z</time>
      </trkpt>
      <trkpt lat="45.73305" lon="6.16883">
        <ele>1113.8000488281</ele>
        <time>2014-03-02T12:27:54.000Z</time>
      </trkpt>
      <trkpt lat="45.73311" lon="6.16879">
        <ele>1113.4000244141</ele>
        <time>2014-03-02T12:27:55.000Z</time>
      </trkpt>
      <trkpt lat="45.73343" lon="6.1687">
        <ele>1114</ele>
        <time>2014-03-02T12:28:00.000Z</time>
      </trkpt>
      <trkpt lat="45.73368" lon="6.16863">
        <ele>1113</ele>
        <time>2014-03-02T12:28:04.000Z</time>
      </trkpt>
      <trkpt lat="45.73391" lon="6.16843">
        <ele>1108.4000244141</ele>
        <time>2014-03-02T12:28:08.000Z</time>
      </trkpt>
      <trkpt lat="45.73404" lon="6.16826">
        <ele>1106</ele>
        <time>2014-03-02T12:28:11.000Z</time>
      </trkpt>
      <trkpt lat="45.73402" lon="6.16786">
        <ele>1102</ele>
        <time>2014-03-02T12:28:15.000Z</time>
      </trkpt>
      <trkpt lat="45.73399" lon="6.16767">
        <ele>1100</ele>
        <time>2014-03-02T12:28:17.000Z</time>
      </trkpt>
      <trkpt lat="45.73403" lon="6.16723">
        <ele>1093.1999511719</ele>
        <time>2014-03-02T12:28:22.000Z</time>
      </trkpt>
      <trkpt lat="45.73422" lon="6.16702">
        <ele>1089.5999755859</ele>
        <time>2014-03-02T12:28:26.000Z</time>
      </trkpt>
      <trkpt lat="45.73433" lon="6.16699">
        <ele>1088.8000488281</ele>
        <time>2014-03-02T12:28:28.000Z</time>
      </trkpt>
      <trkpt lat="45.73464" lon="6.16689">
        <ele>1085.5999755859</ele>
        <time>2014-03-02T12:28:34.000Z</time>
      </trkpt>
      <trkpt lat="45.73499" lon="6.16668">
        <ele>1078.4000244141</ele>
        <time>2014-03-02T12:28:40.000Z</time>
      </trkpt>
      <trkpt lat="45.73527" lon="6.1665">
        <ele>1075.1999511719</ele>
        <time>2014-03-02T12:28:45.000Z</time>
      </trkpt>
      <trkpt lat="45.73537" lon="6.1664">
        <ele>1073.4000244141</ele>
        <time>2014-03-02T12:28:47.000Z</time>
      </trkpt>
      <trkpt lat="45.73549" lon="6.16625">
        <ele>1071.1999511719</ele>
        <time>2014-03-02T12:28:50.000Z</time>
      </trkpt>
      <trkpt lat="45.73578" lon="6.16598">
        <ele>1068.1999511719</ele>
        <time>2014-03-02T12:28:56.000Z</time>
      </trkpt>
      <trkpt lat="45.73596" lon="6.16577">
        <ele>1066.5999755859</ele>
        <time>2014-03-02T12:29:00.000Z</time>
      </trkpt>
      <trkpt lat="45.73607" lon="6.16549">
        <ele>1063.8000488281</ele>
        <time>2014-03-02T12:29:04.000Z</time>
      </trkpt>
      <trkpt lat="45.73606" lon="6.16541">
        <ele>1062.4000244141</ele>
        <time>2014-03-02T12:29:05.000Z</time>
      </trkpt>
      <trkpt lat="45.73606" lon="6.16497">
        <ele>1056.4000244141</ele>
        <time>2014-03-02T12:29:10.000Z</time>
      </trkpt>
      <trkpt lat="45.73611" lon="6.16471">
        <ele>1054</ele>
        <time>2014-03-02T12:29:13.000Z</time>
      </trkpt>
      <trkpt lat="45.73613" lon="6.16439">
        <ele>1050.8000488281</ele>
        <time>2014-03-02T12:29:17.000Z</time>
      </trkpt>
      <trkpt lat="45.73612" lon="6.16422">
        <ele>1048.8000488281</ele>
        <time>2014-03-02T12:29:20.000Z</time>
      </trkpt>
      <trkpt lat="45.7361" lon="6.16398">
        <ele>1046.4000244141</ele>
        <time>2014-03-02T12:29:26.000Z</time>
      </trkpt>
      <trkpt lat="45.73608" lon="6.16373">
        <ele>1044.1999511719</ele>
        <time>2014-03-02T12:29:31.000Z</time>
      </trkpt>
      <trkpt lat="45.73606" lon="6.16345">
        <ele>1041.8000488281</ele>
        <time>2014-03-02T12:29:37.000Z</time>
      </trkpt>
      <trkpt lat="45.73605" lon="6.16313">
        <ele>1039.4000244141</ele>
        <time>2014-03-02T12:29:44.000Z</time>
      </trkpt>
      <trkpt lat="45.73604" lon="6.1628">
        <ele>1037.4000244141</ele>
        <time>2014-03-02T12:29:50.000Z</time>
      </trkpt>
      <trkpt lat="45.73604" lon="6.16257">
        <ele>1036.1999511719</ele>
        <time>2014-03-02T12:29:56.000Z</time>
      </trkpt>
      <trkpt lat="45.73604" lon="6.16254">
        <ele>1036</ele>
        <time>2014-03-02T12:29:57.000Z</time>
      </trkpt>
      <trkpt lat="45.73605" lon="6.16251">
        <ele>1036</ele>
        <time>2014-03-02T12:31:12.000Z</time>
      </trkpt>
      <trkpt lat="45.73605" lon="6.16251">
        <ele>1036</ele>
        <time>2014-03-02T12:31:13.000Z</time>
      </trkpt>
    </trkseg>
  </trk>
</gpx>